<?xml version='1.0' encoding='UTF-8'?><gpx version="1.1" creator="JPX - https://github.com/jenetics/jpx" xmlns="http://www.topografix.com/GPX/1/1"><trk><trkseg><trkpt lat="48.38188820597063" lon="-4.503460313862779"><ele>30.0</ele><time>2026-04-05T13:47:33Z</time></trkpt><trkpt lat="48.38199788279062" lon="-4.503399387263108"><ele>30.0</ele><time>2026-04-05T13:47:37Z</time></trkpt><trkpt lat="48.38206638138515" lon="-4.503392760600048"><ele>30.0</ele><time>2026-04-05T13:47:40Z</time></trkpt><trkpt lat="48.38214808452865" lon="-4.503408742712874"><ele>30.0</ele><time>2026-04-05T13:47:44Z</time></trkpt><trkpt lat="48.382217217379576" lon="-4.5034199066169265"><ele>30.0</ele><time>2026-04-05T13:47:48Z</time></trkpt><trkpt lat="48.38233400353604" lon="-4.503424306329181"><ele>31.333333333333332</ele><time>2026-04-05T13:47:59Z</time></trkpt><trkpt lat="48.38234334371928" lon="-4.50331885376909"><ele>32.666666666666664</ele><time>2026-04-05T13:48:01Z</time></trkpt><trkpt lat="48.38232916925673" lon="-4.503211545462504"><ele>34.0</ele><time>2026-04-05T13:48:03Z</time></trkpt><trkpt lat="48.382317481506036" lon="-4.503114883935562"><ele>35.33333333333333</ele><time>2026-04-05T13:48:05Z</time></trkpt><trkpt lat="48.382306458754485" lon="-4.502982948377079"><ele>36.666666666666664</ele><time>2026-04-05T13:48:07Z</time></trkpt><trkpt lat="48.38229344228269" lon="-4.502828689098092"><ele>38.0</ele><time>2026-04-05T13:48:09Z</time></trkpt><trkpt lat="48.38227232889657" lon="-4.502661960076197"><ele>38.0</ele><time>2026-04-05T13:48:11Z</time></trkpt><trkpt lat="48.38225871864679" lon="-4.502475676254769"><ele>38.0</ele><time>2026-04-05T13:48:13Z</time></trkpt><trkpt lat="48.38223352457581" lon="-4.50229938624631"><ele>38.0</ele><time>2026-04-05T13:48:15Z</time></trkpt><trkpt lat="48.38222767562006" lon="-4.502111104697969"><ele>38.0</ele><time>2026-04-05T13:48:17Z</time></trkpt><trkpt lat="48.38222450240122" lon="-4.502010982149599"><ele>38.0</ele><time>2026-04-05T13:48:18Z</time></trkpt><trkpt lat="48.382210732166726" lon="-4.501903762902955"><ele>37.83333333333333</ele><time>2026-04-05T13:48:19Z</time></trkpt><trkpt lat="48.382202410195944" lon="-4.501795343731929"><ele>37.666666666666664</ele><time>2026-04-05T13:48:20Z</time></trkpt><trkpt lat="48.38219258010451" lon="-4.501684172410586"><ele>37.5</ele><time>2026-04-05T13:48:21Z</time></trkpt><trkpt lat="48.38219352163632" lon="-4.501567216402905"><ele>37.333333333333336</ele><time>2026-04-05T13:48:22Z</time></trkpt><trkpt lat="48.382183419098304" lon="-4.501447991248852"><ele>37.16666666666667</ele><time>2026-04-05T13:48:23Z</time></trkpt><trkpt lat="48.38218161601132" lon="-4.5013277958051745"><ele>37.0</ele><time>2026-04-05T13:48:24Z</time></trkpt><trkpt lat="48.382158184131775" lon="-4.501205176397466"><ele>36.0</ele><time>2026-04-05T13:48:25Z</time></trkpt><trkpt lat="48.38216526332211" lon="-4.501079470719186"><ele>35.0</ele><time>2026-04-05T13:48:26Z</time></trkpt><trkpt lat="48.38214108584802" lon="-4.5009647130923796"><ele>34.0</ele><time>2026-04-05T13:48:27Z</time></trkpt><trkpt lat="48.38213405281591" lon="-4.500849116179145"><ele>33.0</ele><time>2026-04-05T13:48:28Z</time></trkpt><trkpt lat="48.3821272970192" lon="-4.500733327664508"><ele>32.0</ele><time>2026-04-05T13:48:29Z</time></trkpt><trkpt lat="48.382121384926556" lon="-4.500636181246077"><ele>31.0</ele><time>2026-04-05T13:48:30Z</time></trkpt><trkpt lat="48.38210806943842" lon="-4.500452270862008"><ele>31.4</ele><time>2026-04-05T13:48:32Z</time></trkpt><trkpt lat="48.38209895666636" lon="-4.500298746123591"><ele>31.8</ele><time>2026-04-05T13:48:34Z</time></trkpt><trkpt lat="48.382221388468906" lon="-4.5002077019482964"><ele>32.199999999999996</ele><time>2026-04-05T13:48:36.999Z</time></trkpt><trkpt lat="48.38231442825446" lon="-4.5001502347069335"><ele>32.6</ele><time>2026-04-05T13:48:38.999Z</time></trkpt><trkpt lat="48.38238038218347" lon="-4.5001078244368005"><ele>33.0</ele><time>2026-04-05T13:48:39.999Z</time></trkpt><trkpt lat="48.38242997781454" lon="-4.500189105510517"><ele>33.0</ele><time>2026-04-05T13:48:41.999Z</time></trkpt><trkpt lat="48.38251296954667" lon="-4.500227026791285"><ele>33.0</ele><time>2026-04-05T13:48:43.999Z</time></trkpt><trkpt lat="48.38258184704088" lon="-4.500082708761095"><ele>33.0</ele><time>2026-04-05T13:48:45.999Z</time></trkpt><trkpt lat="48.383003636340256" lon="-4.499799680807472"><ele>32.0</ele><time>2026-04-05T13:48:48.999Z</time></trkpt><trkpt lat="48.383077556415465" lon="-4.499747878755512"><ele>30.999999999999996</ele><time>2026-04-05T13:48:49.999Z</time></trkpt><trkpt lat="48.383138055375476" lon="-4.499639950571838"><ele>29.999999999999996</ele><time>2026-04-05T13:48:50.999Z</time></trkpt><trkpt lat="48.38324311865944" lon="-4.49969406324372"><ele>29.0</ele><time>2026-04-05T13:48:51.999Z</time></trkpt><trkpt lat="48.383322097645944" lon="-4.499743094430852"><ele>28.0</ele><time>2026-04-05T13:48:52.999Z</time></trkpt><trkpt lat="48.38339842604769" lon="-4.499775532195759"><ele>28.0</ele><time>2026-04-05T13:48:53.999Z</time></trkpt><trkpt lat="48.38346361373659" lon="-4.49980323595161"><ele>27.999999999999996</ele><time>2026-04-05T13:48:54.999Z</time></trkpt><trkpt lat="48.383573460664856" lon="-4.499847574004018"><ele>27.999999999999996</ele><time>2026-04-05T13:48:56.999Z</time></trkpt><trkpt lat="48.38363493852668" lon="-4.499872284743596"><ele>28.0</ele><time>2026-04-05T13:48:57.999Z</time></trkpt><trkpt lat="48.383706347476576" lon="-4.499899053118334"><ele>28.0</ele><time>2026-04-05T13:48:58.999Z</time></trkpt><trkpt lat="48.3838477693684" lon="-4.49994801397542"><ele>27.0</ele><time>2026-04-05T13:49:00.999Z</time></trkpt><trkpt lat="48.383912386978245" lon="-4.499969829236336"><ele>26.0</ele><time>2026-04-05T13:49:01.999Z</time></trkpt><trkpt lat="48.383985850626495" lon="-4.499994391837687"><ele>25.0</ele><time>2026-04-05T13:49:03.999Z</time></trkpt><trkpt lat="48.38405021847493" lon="-4.500013840560205"><ele>24.0</ele><time>2026-04-05T13:49:06.999Z</time></trkpt><trkpt lat="48.38404135932747" lon="-4.499878302054358"><ele>23.0</ele><time>2026-04-05T13:49:36.999Z</time></trkpt><trkpt lat="48.3840280252411" lon="-4.499781755105409"><ele>22.0</ele><time>2026-04-05T13:49:38.999Z</time></trkpt><trkpt lat="48.38401642522527" lon="-4.499665316924678"><ele>21.0</ele><time>2026-04-05T13:49:40.999Z</time></trkpt><trkpt lat="48.384023188879404" lon="-4.499537735410041"><ele>21.0</ele><time>2026-04-05T13:49:42.999Z</time></trkpt><trkpt lat="48.38402799372094" lon="-4.499402528303356"><ele>21.0</ele><time>2026-04-05T13:49:44.999Z</time></trkpt><trkpt lat="48.38404289408302" lon="-4.499274987888646"><ele>21.0</ele><time>2026-04-05T13:49:46.999Z</time></trkpt><trkpt lat="48.384041463378246" lon="-4.499151870162178"><ele>21.0</ele><time>2026-04-05T13:49:48.999Z</time></trkpt><trkpt lat="48.38404315366549" lon="-4.4990196981953146"><ele>21.0</ele><time>2026-04-05T13:49:50.999Z</time></trkpt><trkpt lat="48.38405551874705" lon="-4.4988709830457605"><ele>21.0</ele><time>2026-04-05T13:49:53Z</time></trkpt><trkpt lat="48.38410034922834" lon="-4.498731783444713"><ele>21.0</ele><time>2026-04-05T13:49:55Z</time></trkpt><trkpt lat="48.38409963102275" lon="-4.498604844113802"><ele>21.0</ele><time>2026-04-05T13:49:57Z</time></trkpt><trkpt lat="48.3841165826873" lon="-4.498465789096043"><ele>21.0</ele><time>2026-04-05T13:49:59Z</time></trkpt><trkpt lat="48.384125269463304" lon="-4.498331177189944"><ele>21.0</ele><time>2026-04-05T13:50:01Z</time></trkpt><trkpt lat="48.38411949995309" lon="-4.498201683528062"><ele>21.0</ele><time>2026-04-05T13:50:03Z</time></trkpt><trkpt lat="48.384085033082755" lon="-4.498073512221005"><ele>21.0</ele><time>2026-04-05T13:50:05Z</time></trkpt><trkpt lat="48.38407906538024" lon="-4.497947987065253"><ele>19.2</ele><time>2026-04-05T13:50:06.999Z</time></trkpt><trkpt lat="48.384170604070064" lon="-4.497896639206591"><ele>17.400000000000002</ele><time>2026-04-05T13:50:07.999Z</time></trkpt><trkpt lat="48.38419649362518" lon="-4.4977644978167355"><ele>15.6</ele><time>2026-04-05T13:50:09.999Z</time></trkpt><trkpt lat="48.38421402258025" lon="-4.497621629819724"><ele>13.8</ele><time>2026-04-05T13:50:11.999Z</time></trkpt><trkpt lat="48.38423230645615" lon="-4.497402912525869"><ele>12.0</ele><time>2026-04-05T13:50:14.999Z</time></trkpt><trkpt lat="48.38425137608243" lon="-4.497252468692617"><ele>12.0</ele><time>2026-04-05T13:50:16.999Z</time></trkpt><trkpt lat="48.38426968460538" lon="-4.497090850597707"><ele>12.0</ele><time>2026-04-05T13:50:18.999Z</time></trkpt><trkpt lat="48.38423441640792" lon="-4.49694392168194"><ele>12.0</ele><time>2026-04-05T13:50:20.999Z</time></trkpt><trkpt lat="48.38422496983282" lon="-4.496816658441227"><ele>12.0</ele><time>2026-04-05T13:50:22.999Z</time></trkpt><trkpt lat="48.384287079371255" lon="-4.496700498840172"><ele>12.0</ele><time>2026-04-05T13:50:24.999Z</time></trkpt><trkpt lat="48.38429402938412" lon="-4.496604483848799"><ele>10.5</ele><time>2026-04-05T13:50:25.999Z</time></trkpt><trkpt lat="48.384293478269434" lon="-4.496430507704773"><ele>9.0</ele><time>2026-04-05T13:50:27.999Z</time></trkpt><trkpt lat="48.38431404802498" lon="-4.496266537189801"><ele>7.5</ele><time>2026-04-05T13:50:29.999Z</time></trkpt><trkpt lat="48.384322489994595" lon="-4.496090566370011"><ele>6.0</ele><time>2026-04-05T13:50:31.999Z</time></trkpt><trkpt lat="48.38433871467295" lon="-4.49591238061331"><ele>6.0</ele><time>2026-04-05T13:50:33.999Z</time></trkpt><trkpt lat="48.38435826644257" lon="-4.495732848325226"><ele>6.0</ele><time>2026-04-05T13:50:35.999Z</time></trkpt><trkpt lat="48.38435645346346" lon="-4.49563444073378"><ele>6.0</ele><time>2026-04-05T13:50:36.999Z</time></trkpt><trkpt lat="48.38436809732142" lon="-4.495518028362003"><ele>6.0</ele><time>2026-04-05T13:50:37.999Z</time></trkpt><trkpt lat="48.38439098095355" lon="-4.495385591218168"><ele>6.0</ele><time>2026-04-05T13:50:39.999Z</time></trkpt><trkpt lat="48.38440478676603" lon="-4.4952380874971825"><ele>6.75</ele><time>2026-04-05T13:50:41.999Z</time></trkpt><trkpt lat="48.38441686588547" lon="-4.495056356715236"><ele>7.5</ele><time>2026-04-05T13:50:43.999Z</time></trkpt><trkpt lat="48.38443354908702" lon="-4.494880872069931"><ele>8.25</ele><time>2026-04-05T13:50:45.999Z</time></trkpt><trkpt lat="48.38445435093541" lon="-4.494699676959973"><ele>9.0</ele><time>2026-04-05T13:50:47.999Z</time></trkpt><trkpt lat="48.38445863027578" lon="-4.4945234086796715"><ele>12.25</ele><time>2026-04-05T13:50:49.999Z</time></trkpt><trkpt lat="48.38443761554078" lon="-4.494418182029857"><ele>15.5</ele><time>2026-04-05T13:50:51.999Z</time></trkpt><trkpt lat="48.38422312627088" lon="-4.494398288481339"><ele>18.75</ele><time>2026-04-05T13:50:53.999Z</time></trkpt><trkpt lat="48.38413691816609" lon="-4.494332291687989"><ele>22.0</ele><time>2026-04-05T13:50:55.999Z</time></trkpt><trkpt lat="48.384084604188" lon="-4.4942541078587155"><ele>22.0</ele><time>2026-04-05T13:50:57.999Z</time></trkpt><trkpt lat="48.3840391049721" lon="-4.494167476078828"><ele>22.0</ele><time>2026-04-05T13:50:59.999Z</time></trkpt><trkpt lat="48.383978320791016" lon="-4.494077945376332"><ele>22.0</ele><time>2026-04-05T13:51:01.999Z</time></trkpt><trkpt lat="48.38390402964619" lon="-4.493994926714791"><ele>22.0</ele><time>2026-04-05T13:51:03.999Z</time></trkpt><trkpt lat="48.383825955627955" lon="-4.4938753568497525"><ele>22.0</ele><time>2026-04-05T13:51:05.999Z</time></trkpt><trkpt lat="48.38375774831905" lon="-4.493732201437072"><ele>22.8</ele><time>2026-04-05T13:51:07.999Z</time></trkpt><trkpt lat="48.383700737270686" lon="-4.493600469443892"><ele>23.6</ele><time>2026-04-05T13:51:09.999Z</time></trkpt><trkpt lat="48.383656207316385" lon="-4.493521311191693"><ele>24.400000000000002</ele><time>2026-04-05T13:51:11.999Z</time></trkpt><trkpt lat="48.38361397367242" lon="-4.493423826557751"><ele>25.200000000000003</ele><time>2026-04-05T13:51:18.999Z</time></trkpt><trkpt lat="48.3835401597206" lon="-4.4933312577690065"><ele>26.0</ele><time>2026-04-05T13:51:20.999Z</time></trkpt><trkpt lat="48.383458958056195" lon="-4.493227859285532"><ele>26.0</ele><time>2026-04-05T13:51:22.999Z</time></trkpt><trkpt lat="48.38337397424517" lon="-4.4931111920993745"><ele>26.0</ele><time>2026-04-05T13:51:24.999Z</time></trkpt><trkpt lat="48.383290963912216" lon="-4.492989778741188"><ele>26.0</ele><time>2026-04-05T13:51:26.999Z</time></trkpt><trkpt lat="48.38320610794769" lon="-4.492863882270028"><ele>26.0</ele><time>2026-04-05T13:51:28.999Z</time></trkpt><trkpt lat="48.3831218212698" lon="-4.492740883683378"><ele>26.5</ele><time>2026-04-05T13:51:30.999Z</time></trkpt><trkpt lat="48.383027927913545" lon="-4.492626898902421"><ele>27.0</ele><time>2026-04-05T13:51:32.999Z</time></trkpt><trkpt lat="48.38294495524471" lon="-4.4925036363618505"><ele>27.5</ele><time>2026-04-05T13:51:35Z</time></trkpt><trkpt lat="48.38286635967849" lon="-4.492373824569841"><ele>28.0</ele><time>2026-04-05T13:51:37Z</time></trkpt><trkpt lat="48.382788572903834" lon="-4.4922502012737855"><ele>28.0</ele><time>2026-04-05T13:51:39Z</time></trkpt><trkpt lat="48.38273455688106" lon="-4.492187562265745"><ele>27.999999999999996</ele><time>2026-04-05T13:51:40Z</time></trkpt><trkpt lat="48.38263352102321" lon="-4.492110353649246"><ele>27.999999999999996</ele><time>2026-04-05T13:51:42Z</time></trkpt><trkpt lat="48.3825216535846" lon="-4.492074960400368"><ele>28.0</ele><time>2026-04-05T13:51:44Z</time></trkpt><trkpt lat="48.38249753536792" lon="-4.491982904911241"><ele>28.0</ele><time>2026-04-05T13:51:45Z</time></trkpt><trkpt lat="48.382423233927895" lon="-4.491858668951665"><ele>27.599999999999998</ele><time>2026-04-05T13:51:47Z</time></trkpt><trkpt lat="48.38233640648406" lon="-4.491752638416731"><ele>27.199999999999996</ele><time>2026-04-05T13:51:49Z</time></trkpt><trkpt lat="48.38221762923779" lon="-4.491709133647981"><ele>26.8</ele><time>2026-04-05T13:51:51Z</time></trkpt><trkpt lat="48.38213632933213" lon="-4.491741651282658"><ele>26.4</ele><time>2026-04-05T13:51:52Z</time></trkpt><trkpt lat="48.38206076085142" lon="-4.491796916795495"><ele>26.0</ele><time>2026-04-05T13:51:53Z</time></trkpt><trkpt lat="48.38199059806301" lon="-4.491842769246809"><ele>23.2</ele><time>2026-04-05T13:51:54Z</time></trkpt><trkpt lat="48.38190756777401" lon="-4.491870078132396"><ele>20.400000000000002</ele><time>2026-04-05T13:51:55Z</time></trkpt><trkpt lat="48.38182265614789" lon="-4.491838804333021"><ele>17.6</ele><time>2026-04-05T13:51:56Z</time></trkpt><trkpt lat="48.3817531613664" lon="-4.491742952408907"><ele>14.8</ele><time>2026-04-05T13:51:57Z</time></trkpt><trkpt lat="48.38171164394925" lon="-4.491624024884079"><ele>12.0</ele><time>2026-04-05T13:51:58Z</time></trkpt><trkpt lat="48.38172292481485" lon="-4.4914402887955385"><ele>12.0</ele><time>2026-04-05T13:51:59Z</time></trkpt><trkpt lat="48.38177348049939" lon="-4.491295956579789"><ele>12.0</ele><time>2026-04-05T13:52:00Z</time></trkpt><trkpt lat="48.38184221210585" lon="-4.491170274683392"><ele>12.0</ele><time>2026-04-05T13:52:01Z</time></trkpt><trkpt lat="48.38189899927349" lon="-4.491048582565717"><ele>12.0</ele><time>2026-04-05T13:52:02Z</time></trkpt><trkpt lat="48.38195463055239" lon="-4.490930270589256"><ele>12.0</ele><time>2026-04-05T13:52:03Z</time></trkpt><trkpt lat="48.382006810867935" lon="-4.4908037823091504"><ele>11.6</ele><time>2026-04-05T13:52:04Z</time></trkpt><trkpt lat="48.38204702183752" lon="-4.4906601615734845"><ele>11.2</ele><time>2026-04-05T13:52:05Z</time></trkpt><trkpt lat="48.38210483668788" lon="-4.490529813917866"><ele>10.8</ele><time>2026-04-05T13:52:06Z</time></trkpt><trkpt lat="48.38215835959896" lon="-4.490391659301968"><ele>10.4</ele><time>2026-04-05T13:52:07Z</time></trkpt><trkpt lat="48.382216602957826" lon="-4.490254906800839"><ele>10.0</ele><time>2026-04-05T13:52:08Z</time></trkpt><trkpt lat="48.382285620352896" lon="-4.490116323700995"><ele>10.6</ele><time>2026-04-05T13:52:09Z</time></trkpt><trkpt lat="48.38232465266107" lon="-4.489962444332241"><ele>11.2</ele><time>2026-04-05T13:52:10Z</time></trkpt><trkpt lat="48.382379249809084" lon="-4.489818957774"><ele>11.8</ele><time>2026-04-05T13:52:11Z</time></trkpt><trkpt lat="48.38243339971264" lon="-4.4896772964175105"><ele>12.4</ele><time>2026-04-05T13:52:12Z</time></trkpt><trkpt lat="48.38248788455106" lon="-4.489533884233062"><ele>13.0</ele><time>2026-04-05T13:52:13Z</time></trkpt><trkpt lat="48.38254023907915" lon="-4.489390964084174"><ele>13.0</ele><time>2026-04-05T13:52:14Z</time></trkpt><trkpt lat="48.382589007497394" lon="-4.48924652988063"><ele>13.0</ele><time>2026-04-05T13:52:15Z</time></trkpt><trkpt lat="48.38263532934832" lon="-4.489101537706"><ele>13.0</ele><time>2026-04-05T13:52:16Z</time></trkpt><trkpt lat="48.38267856909799" lon="-4.488964087417206"><ele>13.0</ele><time>2026-04-05T13:52:17Z</time></trkpt><trkpt lat="48.3827195911097" lon="-4.488833686945092"><ele>13.0</ele><time>2026-04-05T13:52:18Z</time></trkpt><trkpt lat="48.38275914977425" lon="-4.488707372430435"><ele>13.0</ele><time>2026-04-05T13:52:19Z</time></trkpt><trkpt lat="48.38279815054885" lon="-4.488581619880608"><ele>13.0</ele><time>2026-04-05T13:52:20Z</time></trkpt><trkpt lat="48.38283101005544" lon="-4.488475669480163"><ele>13.0</ele><time>2026-04-05T13:52:21Z</time></trkpt><trkpt lat="48.3828757320276" lon="-4.48831594566407"><ele>13.0</ele><time>2026-04-05T13:52:23Z</time></trkpt><trkpt lat="48.38291678606322" lon="-4.488153046782445"><ele>13.0</ele><time>2026-04-05T13:52:25Z</time></trkpt><trkpt lat="48.38289658773609" lon="-4.488043478424201"><ele>13.0</ele><time>2026-04-05T13:52:26Z</time></trkpt><trkpt lat="48.38288591850144" lon="-4.487945618122512"><ele>13.0</ele><time>2026-04-05T13:52:27Z</time></trkpt><trkpt lat="48.382922182369605" lon="-4.487844578059267"><ele>13.0</ele><time>2026-04-05T13:52:28Z</time></trkpt><trkpt lat="48.382936583981866" lon="-4.487744725925378"><ele>13.0</ele><time>2026-04-05T13:52:29Z</time></trkpt><trkpt lat="48.3829457747663" lon="-4.487639645684052"><ele>13.0</ele><time>2026-04-05T13:52:30Z</time></trkpt><trkpt lat="48.38296450789872" lon="-4.487533054368899"><ele>13.0</ele><time>2026-04-05T13:52:31Z</time></trkpt><trkpt lat="48.38298475860351" lon="-4.487426965153464"><ele>13.0</ele><time>2026-04-05T13:52:32Z</time></trkpt><trkpt lat="48.383007391336804" lon="-4.487312823697143"><ele>14.499999999999998</ele><time>2026-04-05T13:52:33Z</time></trkpt><trkpt lat="48.38303365657172" lon="-4.487202266705505"><ele>16.0</ele><time>2026-04-05T13:52:34Z</time></trkpt><trkpt lat="48.383060029267355" lon="-4.487084961849803"><ele>17.5</ele><time>2026-04-05T13:52:35Z</time></trkpt><trkpt lat="48.38308781224128" lon="-4.486964168728498"><ele>19.0</ele><time>2026-04-05T13:52:36Z</time></trkpt><trkpt lat="48.3831154193899" lon="-4.486840736012144"><ele>20.5</ele><time>2026-04-05T13:52:37Z</time></trkpt><trkpt lat="48.38314013260388" lon="-4.4867193971843635"><ele>22.0</ele><time>2026-04-05T13:52:38Z</time></trkpt><trkpt lat="48.38316999571311" lon="-4.486596749667957"><ele>22.0</ele><time>2026-04-05T13:52:39Z</time></trkpt><trkpt lat="48.383194046801535" lon="-4.486473311932896"><ele>22.0</ele><time>2026-04-05T13:52:40Z</time></trkpt><trkpt lat="48.38322303054955" lon="-4.4863501739700995"><ele>22.0</ele><time>2026-04-05T13:52:41Z</time></trkpt><trkpt lat="48.3832465742535" lon="-4.4862317206399505"><ele>22.0</ele><time>2026-04-05T13:52:42Z</time></trkpt><trkpt lat="48.383272667489386" lon="-4.486121971793871"><ele>22.0</ele><time>2026-04-05T13:52:43Z</time></trkpt><trkpt lat="48.38325409566873" lon="-4.486012637941557"><ele>22.0</ele><time>2026-04-05T13:52:44Z</time></trkpt><trkpt lat="48.383230837220786" lon="-4.48582888833084"><ele>21.0</ele><time>2026-04-05T13:52:46Z</time></trkpt><trkpt lat="48.383193539368165" lon="-4.4857379286498915"><ele>20.0</ele><time>2026-04-05T13:52:47Z</time></trkpt><trkpt lat="48.38317492152444" lon="-4.485642664876924"><ele>19.0</ele><time>2026-04-05T13:52:48Z</time></trkpt><trkpt lat="48.383204779078675" lon="-4.485539232310897"><ele>18.0</ele><time>2026-04-05T13:52:49Z</time></trkpt><trkpt lat="48.383254644019004" lon="-4.485445089755332"><ele>17.0</ele><time>2026-04-05T13:52:50Z</time></trkpt><trkpt lat="48.383317978351165" lon="-4.485382821130298"><ele>16.0</ele><time>2026-04-05T13:52:51Z</time></trkpt><trkpt lat="48.38337223050605" lon="-4.485299899835355"><ele>15.0</ele><time>2026-04-05T13:52:52Z</time></trkpt><trkpt lat="48.3833866400437" lon="-4.485187262361869"><ele>14.142857142857144</ele><time>2026-04-05T13:52:53Z</time></trkpt><trkpt lat="48.3834230076559" lon="-4.485094300348257"><ele>13.285714285714285</ele><time>2026-04-05T13:52:54Z</time></trkpt><trkpt lat="48.38346204916955" lon="-4.4849977261861085"><ele>12.428571428571429</ele><time>2026-04-05T13:52:55Z</time></trkpt><trkpt lat="48.38350116377407" lon="-4.484903626435916"><ele>11.571428571428573</ele><time>2026-04-05T13:52:56Z</time></trkpt><trkpt lat="48.383553131018886" lon="-4.484827896026259"><ele>10.714285714285715</ele><time>2026-04-05T13:52:57Z</time></trkpt><trkpt lat="48.38358514885594" lon="-4.484735332405298"><ele>9.857142857142858</ele><time>2026-04-05T13:52:57.999Z</time></trkpt><trkpt lat="48.38361791970946" lon="-4.484639886339722"><ele>9.0</ele><time>2026-04-05T13:52:58.999Z</time></trkpt><trkpt lat="48.383652503348365" lon="-4.484543386686804"><ele>8.571428571428573</ele><time>2026-04-05T13:52:59.999Z</time></trkpt><trkpt lat="48.38369304433829" lon="-4.484450018832234"><ele>8.142857142857142</ele><time>2026-04-05T13:53:00.999Z</time></trkpt><trkpt lat="48.38373297402064" lon="-4.484358648969752"><ele>7.714285714285714</ele><time>2026-04-05T13:53:01.999Z</time></trkpt><trkpt lat="48.38376859344335" lon="-4.484264518899753"><ele>7.2857142857142865</ele><time>2026-04-05T13:53:02.999Z</time></trkpt><trkpt lat="48.38380790592184" lon="-4.484175843036193"><ele>6.857142857142858</ele><time>2026-04-05T13:53:03.999Z</time></trkpt><trkpt lat="48.38384673969715" lon="-4.4840834747146"><ele>6.428571428571428</ele><time>2026-04-05T13:53:04.999Z</time></trkpt><trkpt lat="48.38389117010145" lon="-4.483983115995605"><ele>6.0</ele><time>2026-04-05T13:53:05.999Z</time></trkpt><trkpt lat="48.38392654651064" lon="-4.483898024209296"><ele>6.857142857142857</ele><time>2026-04-05T13:53:06.999Z</time></trkpt><trkpt lat="48.38396271403632" lon="-4.483808481110977"><ele>7.7142857142857135</ele><time>2026-04-05T13:53:07.999Z</time></trkpt><trkpt lat="48.38400404934527" lon="-4.483714724776688"><ele>8.571428571428571</ele><time>2026-04-05T13:53:08.999Z</time></trkpt><trkpt lat="48.384040909228396" lon="-4.483617931482482"><ele>9.428571428571427</ele><time>2026-04-05T13:53:09.999Z</time></trkpt><trkpt lat="48.38408061036446" lon="-4.483521730855438"><ele>10.285714285714285</ele><time>2026-04-05T13:53:10.999Z</time></trkpt><trkpt lat="48.38411787628934" lon="-4.483425038858832"><ele>11.142857142857142</ele><time>2026-04-05T13:53:11.999Z</time></trkpt><trkpt lat="48.38415649862618" lon="-4.483327636269939"><ele>12.0</ele><time>2026-04-05T13:53:12.999Z</time></trkpt><trkpt lat="48.38419335869818" lon="-4.483229470820771"><ele>12.0</ele><time>2026-04-05T13:53:13.999Z</time></trkpt><trkpt lat="48.38423394763484" lon="-4.483130908641096"><ele>12.0</ele><time>2026-04-05T13:53:14.999Z</time></trkpt><trkpt lat="48.38426736301519" lon="-4.483031758420666"><ele>12.0</ele><time>2026-04-05T13:53:15.999Z</time></trkpt><trkpt lat="48.3843064164232" lon="-4.482927066975091"><ele>12.0</ele><time>2026-04-05T13:53:16.999Z</time></trkpt><trkpt lat="48.38434108929321" lon="-4.482821850987517"><ele>12.0</ele><time>2026-04-05T13:53:17.999Z</time></trkpt><trkpt lat="48.384367944017235" lon="-4.482713942913578"><ele>12.0</ele><time>2026-04-05T13:53:18.999Z</time></trkpt><trkpt lat="48.384388723740926" lon="-4.482596920470841"><ele>11.333333333333334</ele><time>2026-04-05T13:53:19.999Z</time></trkpt><trkpt lat="48.38439316864453" lon="-4.482465738229881"><ele>10.666666666666666</ele><time>2026-04-05T13:53:20.999Z</time></trkpt><trkpt lat="48.384409418331515" lon="-4.482364588412742"><ele>10.0</ele><time>2026-04-05T13:53:21.999Z</time></trkpt><trkpt lat="48.384425299682" lon="-4.482259727722686"><ele>9.333333333333332</ele><time>2026-04-05T13:53:22.999Z</time></trkpt><trkpt lat="48.38444178715408" lon="-4.482150864750651"><ele>8.666666666666666</ele><time>2026-04-05T13:53:23.999Z</time></trkpt><trkpt lat="48.38445887802612" lon="-4.48203801765838"><ele>8.0</ele><time>2026-04-05T13:53:24.999Z</time></trkpt><trkpt lat="48.38447813091299" lon="-4.481930208908007"><ele>7.333333333333333</ele><time>2026-04-05T13:53:25.999Z</time></trkpt><trkpt lat="48.38451017822303" lon="-4.481822175223701"><ele>6.666666666666666</ele><time>2026-04-05T13:53:26.999Z</time></trkpt><trkpt lat="48.38452427870503" lon="-4.481712778830053"><ele>6.0</ele><time>2026-04-05T13:53:27.999Z</time></trkpt><trkpt lat="48.38452097960972" lon="-4.4816036962792385"><ele>5.333333333333333</ele><time>2026-04-05T13:53:28.999Z</time></trkpt><trkpt lat="48.38452634995095" lon="-4.481499732720447"><ele>4.666666666666666</ele><time>2026-04-05T13:53:29.999Z</time></trkpt><trkpt lat="48.38455480808306" lon="-4.48139240856234"><ele>4.0</ele><time>2026-04-05T13:53:30.999Z</time></trkpt><trkpt lat="48.38459054277513" lon="-4.481286504281508"><ele>4.142857142857142</ele><time>2026-04-05T13:53:31.999Z</time></trkpt><trkpt lat="48.38460597169129" lon="-4.481177163271218"><ele>4.285714285714286</ele><time>2026-04-05T13:53:32.999Z</time></trkpt><trkpt lat="48.38462486689763" lon="-4.481066661564345"><ele>4.428571428571429</ele><time>2026-04-05T13:53:33.999Z</time></trkpt><trkpt lat="48.384637211327274" lon="-4.480956126449405"><ele>4.571428571428571</ele><time>2026-04-05T13:53:34.999Z</time></trkpt><trkpt lat="48.38465200921004" lon="-4.480847388490996"><ele>4.714285714285714</ele><time>2026-04-05T13:53:35.999Z</time></trkpt><trkpt lat="48.38466836261705" lon="-4.480739237665482"><ele>4.857142857142857</ele><time>2026-04-05T13:53:36.999Z</time></trkpt><trkpt lat="48.38467729299691" lon="-4.480625228980375"><ele>5.0</ele><time>2026-04-05T13:53:37.999Z</time></trkpt><trkpt lat="48.38469964425208" lon="-4.480514501392453"><ele>5.0</ele><time>2026-04-05T13:53:38.999Z</time></trkpt><trkpt lat="48.38472630198834" lon="-4.48040574441178"><ele>5.0</ele><time>2026-04-05T13:53:39.999Z</time></trkpt><trkpt lat="48.38475410197725" lon="-4.4802951234039385"><ele>5.0</ele><time>2026-04-05T13:53:41Z</time></trkpt><trkpt lat="48.38477254081257" lon="-4.480181641590968"><ele>5.0</ele><time>2026-04-05T13:53:42Z</time></trkpt><trkpt lat="48.384793059789025" lon="-4.48007209015493"><ele>5.0</ele><time>2026-04-05T13:53:43Z</time></trkpt><trkpt lat="48.384796764523244" lon="-4.479948327865457"><ele>5.0</ele><time>2026-04-05T13:53:44Z</time></trkpt><trkpt lat="48.38481571737537" lon="-4.479824838205954"><ele>5.0</ele><time>2026-04-05T13:53:45Z</time></trkpt><trkpt lat="48.38483272638491" lon="-4.479714014101199"><ele>5.0</ele><time>2026-04-05T13:53:46Z</time></trkpt><trkpt lat="48.38484957458503" lon="-4.479604237546831"><ele>5.0</ele><time>2026-04-05T13:53:47Z</time></trkpt><trkpt lat="48.384866993821994" lon="-4.479490740186507"><ele>5.0</ele><time>2026-04-05T13:53:48Z</time></trkpt><trkpt lat="48.38488414947117" lon="-4.479378960463228"><ele>5.0</ele><time>2026-04-05T13:53:49Z</time></trkpt><trkpt lat="48.384901865919936" lon="-4.479263527117429"><ele>5.0</ele><time>2026-04-05T13:53:50Z</time></trkpt><trkpt lat="48.38491944864111" lon="-4.479148965416256"><ele>4.833333333333334</ele><time>2026-04-05T13:53:51Z</time></trkpt><trkpt lat="48.384950861218215" lon="-4.479040921171737"><ele>4.666666666666667</ele><time>2026-04-05T13:53:52Z</time></trkpt><trkpt lat="48.384964024272065" lon="-4.478930479226075"><ele>4.5</ele><time>2026-04-05T13:53:53Z</time></trkpt><trkpt lat="48.38498105603866" lon="-4.478816543481894"><ele>4.333333333333333</ele><time>2026-04-05T13:53:54Z</time></trkpt><trkpt lat="48.384994684033686" lon="-4.478703122750632"><ele>4.166666666666666</ele><time>2026-04-05T13:53:55Z</time></trkpt><trkpt lat="48.385012513603996" lon="-4.478585437262211"><ele>4.0</ele><time>2026-04-05T13:53:56Z</time></trkpt><trkpt lat="48.385029475554695" lon="-4.478469667154844"><ele>4.333333333333333</ele><time>2026-04-05T13:53:57Z</time></trkpt><trkpt lat="48.3850475338219" lon="-4.478357154735397"><ele>4.666666666666666</ele><time>2026-04-05T13:53:58Z</time></trkpt><trkpt lat="48.38505677016908" lon="-4.478244756201226"><ele>5.0</ele><time>2026-04-05T13:53:59Z</time></trkpt><trkpt lat="48.385083613307486" lon="-4.478128896235265"><ele>5.333333333333333</ele><time>2026-04-05T13:54:00Z</time></trkpt><trkpt lat="48.38509868408269" lon="-4.478017503007891"><ele>5.666666666666667</ele><time>2026-04-05T13:54:01Z</time></trkpt><trkpt lat="48.385111966414094" lon="-4.477904015741599"><ele>6.0</ele><time>2026-04-05T13:54:02Z</time></trkpt><trkpt lat="48.38512890783962" lon="-4.4777944661923685"><ele>6.0</ele><time>2026-04-05T13:54:03Z</time></trkpt><trkpt lat="48.38514550740433" lon="-4.477683560541277"><ele>6.0</ele><time>2026-04-05T13:54:04Z</time></trkpt><trkpt lat="48.38516169576105" lon="-4.477575211937218"><ele>6.0</ele><time>2026-04-05T13:54:05Z</time></trkpt><trkpt lat="48.385176446188126" lon="-4.477459084018325"><ele>6.0</ele><time>2026-04-05T13:54:06Z</time></trkpt><trkpt lat="48.38519460350154" lon="-4.4773508591168305"><ele>6.0</ele><time>2026-04-05T13:54:07Z</time></trkpt><trkpt lat="48.38521124195111" lon="-4.477240221208776"><ele>6.0</ele><time>2026-04-05T13:54:08Z</time></trkpt><trkpt lat="48.385226087263135" lon="-4.477128713393"><ele>5.833333333333333</ele><time>2026-04-05T13:54:09Z</time></trkpt><trkpt lat="48.385244847126955" lon="-4.47701939299326"><ele>5.666666666666667</ele><time>2026-04-05T13:54:10Z</time></trkpt><trkpt lat="48.3852601481788" lon="-4.47690332167972"><ele>5.5</ele><time>2026-04-05T13:54:11Z</time></trkpt><trkpt lat="48.385279752676794" lon="-4.476798346380272"><ele>5.333333333333334</ele><time>2026-04-05T13:54:12Z</time></trkpt><trkpt lat="48.38529448463609" lon="-4.476684140328303"><ele>5.166666666666667</ele><time>2026-04-05T13:54:13Z</time></trkpt><trkpt lat="48.3853130225354" lon="-4.4765775315396965"><ele>5.0</ele><time>2026-04-05T13:54:14Z</time></trkpt><trkpt lat="48.38533002127122" lon="-4.476463647643327"><ele>5.0</ele><time>2026-04-05T13:54:15Z</time></trkpt><trkpt lat="48.385354341128455" lon="-4.476357426166174"><ele>5.0</ele><time>2026-04-05T13:54:16Z</time></trkpt><trkpt lat="48.385379362173275" lon="-4.476252725716681"><ele>5.0</ele><time>2026-04-05T13:54:17Z</time></trkpt><trkpt lat="48.385404092006866" lon="-4.476153558792021"><ele>5.0</ele><time>2026-04-05T13:54:18Z</time></trkpt><trkpt lat="48.38543491225792" lon="-4.476052262318739"><ele>5.0</ele><time>2026-04-05T13:54:19Z</time></trkpt><trkpt lat="48.38550114884974" lon="-4.476021999870697"><ele>5.0</ele><time>2026-04-05T13:54:20Z</time></trkpt><trkpt lat="48.38553985458988" lon="-4.475906830858746"><ele>5.0</ele><time>2026-04-05T13:54:21Z</time></trkpt><trkpt lat="48.38558288621687" lon="-4.475820234913819"><ele>4.666666666666667</ele><time>2026-04-05T13:54:22Z</time></trkpt><trkpt lat="48.3856488373993" lon="-4.475769426093357"><ele>4.333333333333334</ele><time>2026-04-05T13:54:23Z</time></trkpt><trkpt lat="48.3856959194702" lon="-4.475670079961193"><ele>4.0</ele><time>2026-04-05T13:54:24Z</time></trkpt><trkpt lat="48.3857334221045" lon="-4.475563904460855"><ele>3.666666666666667</ele><time>2026-04-05T13:54:25Z</time></trkpt><trkpt lat="48.3857677616168" lon="-4.475463720789177"><ele>3.3333333333333335</ele><time>2026-04-05T13:54:26Z</time></trkpt><trkpt lat="48.38579769667311" lon="-4.475369887009148"><ele>3.0</ele><time>2026-04-05T13:54:27Z</time></trkpt><trkpt lat="48.385786073554875" lon="-4.475237404335985"><ele>3.0</ele><time>2026-04-05T13:54:28Z</time></trkpt><trkpt lat="48.38581476608752" lon="-4.475135632672169"><ele>3.0</ele><time>2026-04-05T13:54:29Z</time></trkpt><trkpt lat="48.38587897462669" lon="-4.475081358469487"><ele>3.0</ele><time>2026-04-05T13:54:30Z</time></trkpt><trkpt lat="48.385930873484256" lon="-4.474938016066567"><ele>3.0</ele><time>2026-04-05T13:54:32Z</time></trkpt><trkpt lat="48.38598725241663" lon="-4.474813447917687"><ele>3.0</ele><time>2026-04-05T13:54:34Z</time></trkpt><trkpt lat="48.38600948648219" lon="-4.474712148369324"><ele>3.0</ele><time>2026-04-05T13:54:35Z</time></trkpt><trkpt lat="48.386023183168874" lon="-4.474614962430031"><ele>3.1428571428571423</ele><time>2026-04-05T13:54:36Z</time></trkpt><trkpt lat="48.38604026332877" lon="-4.4745211556051885"><ele>3.2857142857142856</ele><time>2026-04-05T13:54:37Z</time></trkpt><trkpt lat="48.38606510040979" lon="-4.474432087973102"><ele>3.4285714285714284</ele><time>2026-04-05T13:54:38Z</time></trkpt><trkpt lat="48.38608878692545" lon="-4.474342404004318"><ele>3.571428571428571</ele><time>2026-04-05T13:54:39Z</time></trkpt><trkpt lat="48.3861000376645" lon="-4.474245248636436"><ele>3.714285714285714</ele><time>2026-04-05T13:54:40Z</time></trkpt><trkpt lat="48.38613159461024" lon="-4.474060405791378"><ele>3.8571428571428568</ele><time>2026-04-05T13:54:42Z</time></trkpt><trkpt lat="48.38614606749711" lon="-4.473966172393076"><ele>4.0</ele><time>2026-04-05T13:54:43Z</time></trkpt><trkpt lat="48.38616602478052" lon="-4.473864066145613"><ele>3.8571428571428568</ele><time>2026-04-05T13:54:44Z</time></trkpt><trkpt lat="48.38618570189414" lon="-4.473762622078932"><ele>3.714285714285714</ele><time>2026-04-05T13:54:45Z</time></trkpt><trkpt lat="48.386203310105245" lon="-4.473656241047942"><ele>3.571428571428571</ele><time>2026-04-05T13:54:46Z</time></trkpt><trkpt lat="48.38621986659485" lon="-4.473550355679347"><ele>3.4285714285714284</ele><time>2026-04-05T13:54:47Z</time></trkpt><trkpt lat="48.3862205309483" lon="-4.473443847435239"><ele>3.2857142857142856</ele><time>2026-04-05T13:54:48Z</time></trkpt><trkpt lat="48.38623618473038" lon="-4.473342064985454"><ele>3.1428571428571423</ele><time>2026-04-05T13:54:49Z</time></trkpt><trkpt lat="48.386251252030604" lon="-4.47324409546371"><ele>3.0</ele><time>2026-04-05T13:54:50Z</time></trkpt><trkpt lat="48.386266323761255" lon="-4.473146098221847"><ele>2.9999999999999996</ele><time>2026-04-05T13:54:51Z</time></trkpt><trkpt lat="48.38628021410498" lon="-4.473050938360239"><ele>3.0</ele><time>2026-04-05T13:54:52Z</time></trkpt><trkpt lat="48.38630773765039" lon="-4.472954760956922"><ele>3.0</ele><time>2026-04-05T13:54:53Z</time></trkpt><trkpt lat="48.38632365046655" lon="-4.472854299359505"><ele>3.0</ele><time>2026-04-05T13:54:54Z</time></trkpt><trkpt lat="48.38633720118412" lon="-4.472748659621315"><ele>3.0</ele><time>2026-04-05T13:54:55Z</time></trkpt><trkpt lat="48.386349401967216" lon="-4.472643900101461"><ele>2.9999999999999996</ele><time>2026-04-05T13:54:56Z</time></trkpt><trkpt lat="48.38636069633594" lon="-4.472545165086318"><ele>3.0</ele><time>2026-04-05T13:54:57Z</time></trkpt><trkpt lat="48.38637271470625" lon="-4.472446253316924"><ele>3.5</ele><time>2026-04-05T13:54:58Z</time></trkpt><trkpt lat="48.386380132562316" lon="-4.472347915580837"><ele>4.0</ele><time>2026-04-05T13:54:59Z</time></trkpt><trkpt lat="48.38639409846958" lon="-4.472246978360166"><ele>4.5</ele><time>2026-04-05T13:55:00Z</time></trkpt><trkpt lat="48.386407527203204" lon="-4.472060092855023"><ele>5.0</ele><time>2026-04-05T13:55:02Z</time></trkpt><trkpt lat="48.38641811201874" lon="-4.4719623631268215"><ele>5.5</ele><time>2026-04-05T13:55:03Z</time></trkpt><trkpt lat="48.386428710709275" lon="-4.471863027605242"><ele>6.0</ele><time>2026-04-05T13:55:04Z</time></trkpt><trkpt lat="48.38643947415305" lon="-4.471760444716135"><ele>5.999999999999999</ele><time>2026-04-05T13:55:05Z</time></trkpt><trkpt lat="48.38644963030678" lon="-4.471663554938426"><ele>6.0</ele><time>2026-04-05T13:55:06Z</time></trkpt><trkpt lat="48.38646353157422" lon="-4.471568687779704"><ele>6.0</ele><time>2026-04-05T13:55:07Z</time></trkpt><trkpt lat="48.3864967452803" lon="-4.471483817260678"><ele>6.0</ele><time>2026-04-05T13:55:08Z</time></trkpt><trkpt lat="48.38652475167389" lon="-4.471393065528856"><ele>6.0</ele><time>2026-04-05T13:55:09Z</time></trkpt><trkpt lat="48.38655153479125" lon="-4.471304224479507"><ele>5.999999999999999</ele><time>2026-04-05T13:55:10Z</time></trkpt><trkpt lat="48.38656459266567" lon="-4.471203170958833"><ele>6.0</ele><time>2026-04-05T13:55:11Z</time></trkpt><trkpt lat="48.386552788870084" lon="-4.471093125480976"><ele>6.0</ele><time>2026-04-05T13:55:12Z</time></trkpt><trkpt lat="48.386550878625755" lon="-4.470991792751169"><ele>6.0</ele><time>2026-04-05T13:55:13Z</time></trkpt><trkpt lat="48.38657238851018" lon="-4.470896345797037"><ele>6.0</ele><time>2026-04-05T13:55:14Z</time></trkpt><trkpt lat="48.386615069915955" lon="-4.470819130237054"><ele>6.0</ele><time>2026-04-05T13:55:15Z</time></trkpt><trkpt lat="48.38671825146453" lon="-4.4707475580012614"><ele>6.0</ele><time>2026-04-05T13:55:16.999Z</time></trkpt><trkpt lat="48.386797408631416" lon="-4.470745786874521"><ele>6.0</ele><time>2026-04-05T13:55:18.999Z</time></trkpt><trkpt lat="48.38689208759074" lon="-4.4707881790488235"><ele>6.0</ele><time>2026-04-05T13:55:20.999Z</time></trkpt><trkpt lat="48.38698145543135" lon="-4.470902877081834"><ele>6.0</ele><time>2026-04-05T13:55:23.999Z</time></trkpt><trkpt lat="48.3870671448566" lon="-4.470965296741207"><ele>6.0</ele><time>2026-04-05T13:55:25.999Z</time></trkpt><trkpt lat="48.387187952190914" lon="-4.471008521016257"><ele>6.0</ele><time>2026-04-05T13:55:27.999Z</time></trkpt><trkpt lat="48.387275185288374" lon="-4.471026648457477"><ele>6.0</ele><time>2026-04-05T13:55:29.999Z</time></trkpt><trkpt lat="48.38736200976425" lon="-4.47103280744026"><ele>7.166666666666666</ele><time>2026-04-05T13:55:31.999Z</time></trkpt><trkpt lat="48.387446777866685" lon="-4.471005608607682"><ele>8.333333333333332</ele><time>2026-04-05T13:55:33.999Z</time></trkpt><trkpt lat="48.38753100520286" lon="-4.470992191986856"><ele>9.5</ele><time>2026-04-05T13:55:35.999Z</time></trkpt><trkpt lat="48.38760857607208" lon="-4.470980756403957"><ele>10.666666666666666</ele><time>2026-04-05T13:55:37.999Z</time></trkpt><trkpt lat="48.387683864042096" lon="-4.4709671407361435"><ele>11.833333333333332</ele><time>2026-04-05T13:55:39.999Z</time></trkpt><trkpt lat="48.387756698841685" lon="-4.470956116287699"><ele>13.0</ele><time>2026-04-05T13:55:41.999Z</time></trkpt><trkpt lat="48.38783234752712" lon="-4.470915817239721"><ele>12.999999999999998</ele><time>2026-04-05T13:55:43.999Z</time></trkpt><trkpt lat="48.38790585726043" lon="-4.470895476885989"><ele>13.0</ele><time>2026-04-05T13:55:45.999Z</time></trkpt><trkpt lat="48.38798027049284" lon="-4.470874886514639"><ele>13.0</ele><time>2026-04-05T13:55:48Z</time></trkpt><trkpt lat="48.3880595830691" lon="-4.470875916718153"><ele>13.0</ele><time>2026-04-05T13:55:50Z</time></trkpt><trkpt lat="48.388129208280496" lon="-4.470836963604989"><ele>12.999999999999998</ele><time>2026-04-05T13:55:52Z</time></trkpt><trkpt lat="48.3881972354667" lon="-4.470790981833377"><ele>13.0</ele><time>2026-04-05T13:55:54Z</time></trkpt><trkpt lat="48.38826396631192" lon="-4.470736110310365"><ele>13.833333333333332</ele><time>2026-04-05T13:55:56Z</time></trkpt><trkpt lat="48.38832770982294" lon="-4.470662947344848"><ele>14.666666666666666</ele><time>2026-04-05T13:55:58Z</time></trkpt><trkpt lat="48.38839088418759" lon="-4.4705883994160365"><ele>15.5</ele><time>2026-04-05T13:56:00Z</time></trkpt><trkpt lat="48.38844135661034" lon="-4.470501391654143"><ele>16.333333333333332</ele><time>2026-04-05T13:56:02Z</time></trkpt><trkpt lat="48.388497074736954" lon="-4.470414110022477"><ele>17.166666666666668</ele><time>2026-04-05T13:56:04Z</time></trkpt><trkpt lat="48.38854979427488" lon="-4.470333903919972"><ele>18.0</ele><time>2026-04-05T13:56:06Z</time></trkpt><trkpt lat="48.38859750040967" lon="-4.470251596561691"><ele>20.666666666666668</ele><time>2026-04-05T13:56:08Z</time></trkpt><trkpt lat="48.388650718048794" lon="-4.4701695714813505"><ele>23.333333333333336</ele><time>2026-04-05T13:56:10Z</time></trkpt><trkpt lat="48.38870998603869" lon="-4.470101258229676"><ele>26.0</ele><time>2026-04-05T13:56:12Z</time></trkpt><trkpt lat="48.38877145263568" lon="-4.470053968512899"><ele>28.666666666666668</ele><time>2026-04-05T13:56:14Z</time></trkpt><trkpt lat="48.388837308963346" lon="-4.470005547230566"><ele>31.333333333333336</ele><time>2026-04-05T13:56:16Z</time></trkpt><trkpt lat="48.38891381115993" lon="-4.469971780209653"><ele>34.0</ele><time>2026-04-05T13:56:18Z</time></trkpt><trkpt lat="48.38898999491637" lon="-4.46995815643689"><ele>34.5</ele><time>2026-04-05T13:56:20Z</time></trkpt><trkpt lat="48.38906977514925" lon="-4.469952345997639"><ele>35.0</ele><time>2026-04-05T13:56:22Z</time></trkpt><trkpt lat="48.38913701517175" lon="-4.469951451442201"><ele>35.5</ele><time>2026-04-05T13:56:24Z</time></trkpt><trkpt lat="48.3892317764739" lon="-4.469951483631903"><ele>36.0</ele><time>2026-04-05T13:56:27Z</time></trkpt><trkpt lat="48.389304543475546" lon="-4.469950479410051"><ele>36.5</ele><time>2026-04-05T13:56:29Z</time></trkpt><trkpt lat="48.38938001082583" lon="-4.469946818297497"><ele>37.0</ele><time>2026-04-05T13:56:31Z</time></trkpt><trkpt lat="48.389456250579904" lon="-4.469940221420817"><ele>37.0</ele><time>2026-04-05T13:56:33.02Z</time></trkpt><trkpt lat="48.389530353692265" lon="-4.469936548776855"><ele>37.0</ele><time>2026-04-05T13:56:35.02Z</time></trkpt><trkpt lat="48.389618251544015" lon="-4.469942055916069"><ele>37.0</ele><time>2026-04-05T13:56:38Z</time></trkpt><trkpt lat="48.38969371367317" lon="-4.46991555564356"><ele>37.0</ele><time>2026-04-05T13:56:53Z</time></trkpt><trkpt lat="48.38977308846644" lon="-4.469904780417375"><ele>37.0</ele><time>2026-04-05T13:56:56Z</time></trkpt><trkpt lat="48.389848370699355" lon="-4.469899420268817"><ele>37.0</ele><time>2026-04-05T13:56:58Z</time></trkpt><trkpt lat="48.389911137330586" lon="-4.469909422355744"><ele>38.0</ele><time>2026-04-05T13:57:00Z</time></trkpt><trkpt lat="48.38999189881108" lon="-4.469916729958483"><ele>39.0</ele><time>2026-04-05T13:57:03Z</time></trkpt><trkpt lat="48.39008075839881" lon="-4.469947966363496"><ele>40.0</ele><time>2026-04-05T13:57:06Z</time></trkpt><trkpt lat="48.390158341107465" lon="-4.469987391539642"><ele>41.0</ele><time>2026-04-05T13:57:09Z</time></trkpt><trkpt lat="48.390223983004034" lon="-4.470005487275012"><ele>42.0</ele><time>2026-04-05T13:57:11Z</time></trkpt><trkpt lat="48.39028586986465" lon="-4.4700446495705295"><ele>43.0</ele><time>2026-04-05T13:57:13Z</time></trkpt><trkpt lat="48.39035282227583" lon="-4.470061407926109"><ele>43.00000000000001</ele><time>2026-04-05T13:57:15Z</time></trkpt><trkpt lat="48.390413359657785" lon="-4.4700945928017335"><ele>43.0</ele><time>2026-04-05T13:57:17Z</time></trkpt><trkpt lat="48.390488511921426" lon="-4.4701182508611"><ele>43.0</ele><time>2026-04-05T13:57:18.999Z</time></trkpt><trkpt lat="48.390556273839266" lon="-4.470133631576898"><ele>43.0</ele><time>2026-04-05T13:57:20.999Z</time></trkpt><trkpt lat="48.39062336512726" lon="-4.470140422548359"><ele>43.0</ele><time>2026-04-05T13:57:22.999Z</time></trkpt><trkpt lat="48.3906875912858" lon="-4.470156527155854"><ele>43.00000000000001</ele><time>2026-04-05T13:57:24.999Z</time></trkpt><trkpt lat="48.390753214515804" lon="-4.470185470831069"><ele>43.0</ele><time>2026-04-05T13:57:26.999Z</time></trkpt><trkpt lat="48.390825022473514" lon="-4.470197093048955"><ele>42.5</ele><time>2026-04-05T13:57:28.999Z</time></trkpt><trkpt lat="48.39091856466306" lon="-4.470187943152213"><ele>42.0</ele><time>2026-04-05T13:57:31.999Z</time></trkpt><trkpt lat="48.39098228841788" lon="-4.470183036171782"><ele>41.5</ele><time>2026-04-05T13:57:33.999Z</time></trkpt><trkpt lat="48.39105948006802" lon="-4.470110841123358"><ele>41.0</ele><time>2026-04-05T13:57:36.999Z</time></trkpt><trkpt lat="48.391126464523154" lon="-4.470075034854634"><ele>40.5</ele><time>2026-04-05T13:57:38.999Z</time></trkpt><trkpt lat="48.39121120486276" lon="-4.470047364224882"><ele>40.0</ele><time>2026-04-05T13:57:40.999Z</time></trkpt><trkpt lat="48.391304688181066" lon="-4.470014810261644"><ele>41.16666666666667</ele><time>2026-04-05T13:57:43.999Z</time></trkpt><trkpt lat="48.39137117906187" lon="-4.469982521245234"><ele>42.333333333333336</ele><time>2026-04-05T13:57:45.999Z</time></trkpt><trkpt lat="48.39147998342215" lon="-4.469940402475632"><ele>43.5</ele><time>2026-04-05T13:57:48.999Z</time></trkpt><trkpt lat="48.391552817968936" lon="-4.469916729815497"><ele>44.666666666666664</ele><time>2026-04-05T13:57:50.999Z</time></trkpt><trkpt lat="48.391617673617496" lon="-4.469889979497067"><ele>45.83333333333333</ele><time>2026-04-05T13:57:53Z</time></trkpt><trkpt lat="48.39170988915102" lon="-4.469863983636236"><ele>47.0</ele><time>2026-04-05T13:57:56Z</time></trkpt><trkpt lat="48.39178701518033" lon="-4.469771404078787"><ele>47.0</ele><time>2026-04-05T13:57:58Z</time></trkpt><trkpt lat="48.39186888638898" lon="-4.469701817270583"><ele>47.0</ele><time>2026-04-05T13:58:01Z</time></trkpt><trkpt lat="48.39192756365778" lon="-4.46962420123275"><ele>47.0</ele><time>2026-04-05T13:58:03Z</time></trkpt><trkpt lat="48.391977568871155" lon="-4.469542171965775"><ele>47.0</ele><time>2026-04-05T13:58:05Z</time></trkpt><trkpt lat="48.392023681498586" lon="-4.469462884552438"><ele>47.0</ele><time>2026-04-05T13:58:07Z</time></trkpt><trkpt lat="48.39207223930061" lon="-4.469391299068876"><ele>47.0</ele><time>2026-04-05T13:58:09Z</time></trkpt><trkpt lat="48.39212598188043" lon="-4.469315555896906"><ele>47.83333333333333</ele><time>2026-04-05T13:58:11Z</time></trkpt><trkpt lat="48.39216717767924" lon="-4.469225700178358"><ele>48.666666666666664</ele><time>2026-04-05T13:58:13Z</time></trkpt><trkpt lat="48.39222283857662" lon="-4.469136659119356"><ele>49.5</ele><time>2026-04-05T13:58:15Z</time></trkpt><trkpt lat="48.39228221018714" lon="-4.469099874689928"><ele>50.33333333333333</ele><time>2026-04-05T13:58:18Z</time></trkpt><trkpt lat="48.39237575549566" lon="-4.469072509550819"><ele>51.166666666666664</ele><time>2026-04-05T13:58:21Z</time></trkpt><trkpt lat="48.392444689375786" lon="-4.469054806263455"><ele>52.0</ele><time>2026-04-05T13:58:23Z</time></trkpt><trkpt lat="48.39251246489369" lon="-4.469006716367694"><ele>52.166666666666664</ele><time>2026-04-05T13:58:25Z</time></trkpt><trkpt lat="48.39256724071633" lon="-4.468908807213798"><ele>52.33333333333333</ele><time>2026-04-05T13:58:29Z</time></trkpt><trkpt lat="48.39263538828167" lon="-4.468886629892794"><ele>52.5</ele><time>2026-04-05T13:58:32Z</time></trkpt><trkpt lat="48.39272172478243" lon="-4.468868681897901"><ele>52.66666666666667</ele><time>2026-04-05T13:58:35Z</time></trkpt><trkpt lat="48.39282928333435" lon="-4.468869049918471"><ele>52.833333333333336</ele><time>2026-04-05T13:58:38Z</time></trkpt><trkpt lat="48.392912019974446" lon="-4.4688257936361975"><ele>53.0</ele><time>2026-04-05T13:58:41Z</time></trkpt><trkpt lat="48.39300271711138" lon="-4.4687870697513805"><ele>53.833333333333336</ele><time>2026-04-05T13:58:43Z</time></trkpt><trkpt lat="48.3930939675509" lon="-4.4687313806479985"><ele>54.66666666666667</ele><time>2026-04-05T13:58:45Z</time></trkpt><trkpt lat="48.39318547922084" lon="-4.468703488943135"><ele>55.5</ele><time>2026-04-05T13:58:47Z</time></trkpt><trkpt lat="48.39326600957481" lon="-4.468660779542843"><ele>56.33333333333333</ele><time>2026-04-05T13:58:49Z</time></trkpt><trkpt lat="48.39334230805628" lon="-4.468626269192224"><ele>57.166666666666664</ele><time>2026-04-05T13:58:51Z</time></trkpt><trkpt lat="48.39341668892529" lon="-4.468609531945218"><ele>58.0</ele><time>2026-04-05T13:58:53Z</time></trkpt><trkpt lat="48.39349704890962" lon="-4.468581481672938"><ele>57.99999999999999</ele><time>2026-04-05T13:58:55Z</time></trkpt><trkpt lat="48.39358075669361" lon="-4.4685666038082275"><ele>58.0</ele><time>2026-04-05T13:58:57Z</time></trkpt><trkpt lat="48.39365878915943" lon="-4.468545271147592"><ele>58.0</ele><time>2026-04-05T13:58:59Z</time></trkpt><trkpt lat="48.393749296887634" lon="-4.4685215598360335"><ele>58.0</ele><time>2026-04-05T13:59:01Z</time></trkpt><trkpt lat="48.39382917851936" lon="-4.468509677251625"><ele>57.99999999999999</ele><time>2026-04-05T13:59:03Z</time></trkpt><trkpt lat="48.393894759359306" lon="-4.468517512000745"><ele>58.0</ele><time>2026-04-05T13:59:05Z</time></trkpt><trkpt lat="48.39397096763753" lon="-4.468522356088008"><ele>58.8</ele><time>2026-04-05T13:59:07Z</time></trkpt><trkpt lat="48.394049382192954" lon="-4.468520974274084"><ele>59.599999999999994</ele><time>2026-04-05T13:59:09Z</time></trkpt><trkpt lat="48.394142885385094" lon="-4.468542706694399"><ele>60.400000000000006</ele><time>2026-04-05T13:59:12Z</time></trkpt><trkpt lat="48.39429633152101" lon="-4.468521192337079"><ele>61.2</ele><time>2026-04-05T13:59:15.999Z</time></trkpt><trkpt lat="48.39436767291054" lon="-4.468525017115858"><ele>62.0</ele><time>2026-04-05T13:59:17.999Z</time></trkpt><trkpt lat="48.39455006028987" lon="-4.468522861490242"><ele>62.00000000000001</ele><time>2026-04-05T13:59:22.999Z</time></trkpt><trkpt lat="48.394632061019166" lon="-4.46851428207221"><ele>62.0</ele><time>2026-04-05T13:59:24.999Z</time></trkpt><trkpt lat="48.39470897870693" lon="-4.4685187532287785"><ele>62.0</ele><time>2026-04-05T13:59:26.999Z</time></trkpt><trkpt lat="48.39478895404812" lon="-4.468517909925024"><ele>62.0</ele><time>2026-04-05T13:59:28.999Z</time></trkpt><trkpt lat="48.39486754200419" lon="-4.468516938784353"><ele>62.00000000000001</ele><time>2026-04-05T13:59:30.999Z</time></trkpt><trkpt lat="48.39493848199149" lon="-4.468515272196797"><ele>62.0</ele><time>2026-04-05T13:59:32.999Z</time></trkpt><trkpt lat="48.39501537255229" lon="-4.468458807426963"><ele>62.833333333333336</ele><time>2026-04-05T13:59:35.999Z</time></trkpt><trkpt lat="48.39507990328324" lon="-4.468407331202395"><ele>63.66666666666667</ele><time>2026-04-05T13:59:37.999Z</time></trkpt><trkpt lat="48.39515110395787" lon="-4.468350620297566"><ele>64.5</ele><time>2026-04-05T13:59:39.999Z</time></trkpt><trkpt lat="48.39522795918496" lon="-4.468269925061977"><ele>65.33333333333333</ele><time>2026-04-05T13:59:41.999Z</time></trkpt><trkpt lat="48.39528761506755" lon="-4.46819724545294"><ele>66.16666666666666</ele><time>2026-04-05T13:59:43.999Z</time></trkpt><trkpt lat="48.395333702146175" lon="-4.468107288504585"><ele>67.0</ele><time>2026-04-05T13:59:45.999Z</time></trkpt><trkpt lat="48.39538742146621" lon="-4.468020382684489"><ele>66.83333333333333</ele><time>2026-04-05T13:59:47.999Z</time></trkpt><trkpt lat="48.39543003880469" lon="-4.467908217446682"><ele>66.66666666666666</ele><time>2026-04-05T13:59:49.999Z</time></trkpt><trkpt lat="48.39545973175286" lon="-4.467796755628607"><ele>66.5</ele><time>2026-04-05T13:59:51.999Z</time></trkpt><trkpt lat="48.39548077623139" lon="-4.467680126496394"><ele>66.33333333333333</ele><time>2026-04-05T13:59:53.999Z</time></trkpt><trkpt lat="48.39552865019365" lon="-4.467591540120555"><ele>66.16666666666667</ele><time>2026-04-05T13:59:55.999Z</time></trkpt><trkpt lat="48.39557523456345" lon="-4.467483528744435"><ele>66.0</ele><time>2026-04-05T13:59:57.999Z</time></trkpt><trkpt lat="48.3956043249489" lon="-4.467367266045323"><ele>66.0</ele><time>2026-04-05T14:00:00Z</time></trkpt><trkpt lat="48.395636460521786" lon="-4.467265313770883"><ele>66.0</ele><time>2026-04-05T14:00:02Z</time></trkpt><trkpt lat="48.3956655657188" lon="-4.467156687298541"><ele>66.0</ele><time>2026-04-05T14:00:04Z</time></trkpt><trkpt lat="48.39569552320466" lon="-4.467054445071706"><ele>66.0</ele><time>2026-04-05T14:00:06Z</time></trkpt><trkpt lat="48.395730618704334" lon="-4.466945866450491"><ele>66.0</ele><time>2026-04-05T14:00:08Z</time></trkpt><trkpt lat="48.39577995689219" lon="-4.466849585684084"><ele>66.0</ele><time>2026-04-05T14:00:10Z</time></trkpt><trkpt lat="48.39582036363639" lon="-4.466766514418034"><ele>67.16666666666667</ele><time>2026-04-05T14:00:14Z</time></trkpt><trkpt lat="48.395868976356866" lon="-4.46669220028233"><ele>68.33333333333333</ele><time>2026-04-05T14:00:17Z</time></trkpt><trkpt lat="48.39594269687581" lon="-4.466587373471659"><ele>69.5</ele><time>2026-04-05T14:00:20Z</time></trkpt><trkpt lat="48.39599793332593" lon="-4.466484202927809"><ele>70.66666666666666</ele><time>2026-04-05T14:00:22Z</time></trkpt><trkpt lat="48.39604560059939" lon="-4.466411269390873"><ele>71.83333333333333</ele><time>2026-04-05T14:00:24Z</time></trkpt><trkpt lat="48.396090936672636" lon="-4.46634072758427"><ele>73.0</ele><time>2026-04-05T14:00:26Z</time></trkpt><trkpt lat="48.396136258453105" lon="-4.466268887052365"><ele>73.16666666666666</ele><time>2026-04-05T14:00:28Z</time></trkpt><trkpt lat="48.396197692671386" lon="-4.466169743817136"><ele>73.33333333333333</ele><time>2026-04-05T14:00:31Z</time></trkpt><trkpt lat="48.39626431465577" lon="-4.466064170031929"><ele>73.5</ele><time>2026-04-05T14:00:34Z</time></trkpt><trkpt lat="48.39631472579871" lon="-4.465988361347891"><ele>73.66666666666667</ele><time>2026-04-05T14:00:36Z</time></trkpt><trkpt lat="48.39638458935062" lon="-4.465945170809062"><ele>73.83333333333334</ele><time>2026-04-05T14:00:39Z</time></trkpt><trkpt lat="48.39647136301639" lon="-4.465887031481314"><ele>74.0</ele><time>2026-04-05T14:00:42Z</time></trkpt><trkpt lat="48.39651269699081" lon="-4.465798151401721"><ele>74.0</ele><time>2026-04-05T14:00:44Z</time></trkpt><trkpt lat="48.39656734029414" lon="-4.465738947303114"><ele>74.0</ele><time>2026-04-05T14:00:46Z</time></trkpt><trkpt lat="48.396634845181865" lon="-4.465642323395947"><ele>74.0</ele><time>2026-04-05T14:00:48Z</time></trkpt><trkpt lat="48.396699673302784" lon="-4.465601451507433"><ele>74.0</ele><time>2026-04-05T14:00:50Z</time></trkpt><trkpt lat="48.39671925502273" lon="-4.46549420219159"><ele>74.0</ele><time>2026-04-05T14:00:52Z</time></trkpt><trkpt lat="48.39678955275933" lon="-4.465455430200896"><ele>74.0</ele><time>2026-04-05T14:00:54Z</time></trkpt><trkpt lat="48.39684881889091" lon="-4.465408959275938"><ele>74.0</ele><time>2026-04-05T14:00:56Z</time></trkpt><trkpt lat="48.39692466079207" lon="-4.465411264199325"><ele>74.33333333333334</ele><time>2026-04-05T14:00:58Z</time></trkpt><trkpt lat="48.3970226921303" lon="-4.465358890601831"><ele>74.66666666666667</ele><time>2026-04-05T14:01:01Z</time></trkpt><trkpt lat="48.39708955537753" lon="-4.465347114293647"><ele>75.0</ele><time>2026-04-05T14:01:03Z</time></trkpt><trkpt lat="48.397150558040614" lon="-4.465288626772927"><ele>75.33333333333333</ele><time>2026-04-05T14:01:06Z</time></trkpt><trkpt lat="48.39723150226029" lon="-4.465285193409644"><ele>75.66666666666666</ele><time>2026-04-05T14:01:09Z</time></trkpt><trkpt lat="48.39735077626063" lon="-4.4652589930136575"><ele>76.0</ele><time>2026-04-05T14:01:11Z</time></trkpt><trkpt lat="48.397475988180176" lon="-4.46522174644337"><ele>76.6</ele><time>2026-04-05T14:01:13Z</time></trkpt><trkpt lat="48.39760550156122" lon="-4.465210066886044"><ele>77.19999999999999</ele><time>2026-04-05T14:01:15Z</time></trkpt><trkpt lat="48.39771246894023" lon="-4.465180446047059"><ele>77.80000000000001</ele><time>2026-04-05T14:01:16.999Z</time></trkpt><trkpt lat="48.39779230093424" lon="-4.465174935587717"><ele>78.4</ele><time>2026-04-05T14:01:17.999Z</time></trkpt><trkpt lat="48.39788149644511" lon="-4.465154117465641"><ele>79.0</ele><time>2026-04-05T14:01:19.999Z</time></trkpt><trkpt lat="48.398003116767576" lon="-4.465181062943854"><ele>79.6</ele><time>2026-04-05T14:01:22.999Z</time></trkpt><trkpt lat="48.398088958761555" lon="-4.465229776257443"><ele>80.2</ele><time>2026-04-05T14:01:24.999Z</time></trkpt><trkpt lat="48.39824977059517" lon="-4.4652784908629455"><ele>80.8</ele><time>2026-04-05T14:01:29.999Z</time></trkpt><trkpt lat="48.39831529977647" lon="-4.465297857303793"><ele>81.39999999999999</ele><time>2026-04-05T14:01:31.999Z</time></trkpt><trkpt lat="48.39843213527928" lon="-4.465368861627952"><ele>82.0</ele><time>2026-04-05T14:01:34.999Z</time></trkpt><trkpt lat="48.39849884485015" lon="-4.465385879082794"><ele>82.0</ele><time>2026-04-05T14:01:36.999Z</time></trkpt><trkpt lat="48.39857459386746" lon="-4.465408389178985"><ele>82.0</ele><time>2026-04-05T14:01:37.999Z</time></trkpt><trkpt lat="48.3986813631799" lon="-4.465454396932206"><ele>82.0</ele><time>2026-04-05T14:01:39.999Z</time></trkpt><trkpt lat="48.398748175817296" lon="-4.465496832060775"><ele>82.0</ele><time>2026-04-05T14:01:41.999Z</time></trkpt><trkpt lat="48.39882202016015" lon="-4.465532878516327"><ele>82.0</ele><time>2026-04-05T14:01:43.999Z</time></trkpt><trkpt lat="48.39888450383844" lon="-4.4655640273019985"><ele>82.0</ele><time>2026-04-05T14:01:45.999Z</time></trkpt><trkpt lat="48.39896818906783" lon="-4.465599173814217"><ele>83.0</ele><time>2026-04-05T14:01:47.999Z</time></trkpt><trkpt lat="48.39906770022167" lon="-4.465641759458407"><ele>84.0</ele><time>2026-04-05T14:01:49.999Z</time></trkpt><trkpt lat="48.39915081375648" lon="-4.465720278911086"><ele>85.0</ele><time>2026-04-05T14:01:51.999Z</time></trkpt><trkpt lat="48.39922368877085" lon="-4.465771588194516"><ele>86.0</ele><time>2026-04-05T14:01:53.999Z</time></trkpt><trkpt lat="48.39931065769922" lon="-4.4658311413250384"><ele>87.0</ele><time>2026-04-05T14:01:55.999Z</time></trkpt><trkpt lat="48.3993861025086" lon="-4.465924768904994"><ele>87.0</ele><time>2026-04-05T14:01:57.999Z</time></trkpt><trkpt lat="48.399472248176096" lon="-4.4659987655331586"><ele>87.0</ele><time>2026-04-05T14:01:59.999Z</time></trkpt><trkpt lat="48.399541418714136" lon="-4.46608821802989"><ele>87.0</ele><time>2026-04-05T14:02:01.999Z</time></trkpt><trkpt lat="48.399608086013636" lon="-4.466164226360461"><ele>87.0</ele><time>2026-04-05T14:02:03.999Z</time></trkpt><trkpt lat="48.3996780826697" lon="-4.466245409058396"><ele>87.0</ele><time>2026-04-05T14:02:06Z</time></trkpt><trkpt lat="48.39974188045157" lon="-4.466308984557627"><ele>87.0</ele><time>2026-04-05T14:02:08Z</time></trkpt><trkpt lat="48.39979684375146" lon="-4.466385879236825"><ele>88.0</ele><time>2026-04-05T14:02:10Z</time></trkpt><trkpt lat="48.399851386267144" lon="-4.4664867998156454"><ele>89.0</ele><time>2026-04-05T14:02:12Z</time></trkpt><trkpt lat="48.39990995412329" lon="-4.4665723534483694"><ele>90.0</ele><time>2026-04-05T14:02:14Z</time></trkpt><trkpt lat="48.399999976795144" lon="-4.466623826454377"><ele>91.0</ele><time>2026-04-05T14:02:16Z</time></trkpt><trkpt lat="48.40016226351788" lon="-4.466725172147439"><ele>92.0</ele><time>2026-04-05T14:02:23Z</time></trkpt><trkpt lat="48.400229414078346" lon="-4.466757149402563"><ele>92.0</ele><time>2026-04-05T14:02:26Z</time></trkpt><trkpt lat="48.40029288017929" lon="-4.466787338320758"><ele>92.0</ele><time>2026-04-05T14:02:28Z</time></trkpt><trkpt lat="48.400359408767336" lon="-4.466831891426553"><ele>92.0</ele><time>2026-04-05T14:02:30Z</time></trkpt><trkpt lat="48.400521976643155" lon="-4.466841586705349"><ele>92.0</ele><time>2026-04-05T14:02:35Z</time></trkpt><trkpt lat="48.40053184077359" lon="-4.466746214314098"><ele>92.0</ele><time>2026-04-05T14:02:40Z</time></trkpt><trkpt lat="48.40057667109847" lon="-4.4666106044796114"><ele>92.85714285714286</ele><time>2026-04-05T14:02:43Z</time></trkpt><trkpt lat="48.40060596435729" lon="-4.466513875567417"><ele>93.71428571428571</ele><time>2026-04-05T14:02:45Z</time></trkpt><trkpt lat="48.40064509802774" lon="-4.4664215686665"><ele>94.57142857142857</ele><time>2026-04-05T14:02:47Z</time></trkpt><trkpt lat="48.400700194219525" lon="-4.466514490849485"><ele>95.42857142857143</ele><time>2026-04-05T14:02:50Z</time></trkpt><trkpt lat="48.40071131390893" lon="-4.466624651284958"><ele>96.28571428571428</ele><time>2026-04-05T14:02:55Z</time></trkpt><trkpt lat="48.40074223969872" lon="-4.4665332117484144"><ele>97.14285714285714</ele><time>2026-04-05T14:03:16Z</time></trkpt><trkpt lat="48.40078869142142" lon="-4.46645814973658"><ele>98.0</ele><time>2026-04-05T14:03:20.999Z</time></trkpt><trkpt lat="48.400758405359895" lon="-4.466548732511074"><ele>98.0</ele><time>2026-04-05T14:03:43.999Z</time></trkpt></trkseg><trkseg><trkpt lat="48.400628380588174" lon="-4.466674611051653"><ele>97.99999999999999</ele><time>2026-04-05T14:32:23Z</time></trkpt><trkpt lat="48.400740767422526" lon="-4.466700820585683"><ele>98.0</ele><time>2026-04-05T14:32:40Z</time></trkpt><trkpt lat="48.400718928811976" lon="-4.466793259362899"><ele>98.0</ele><time>2026-04-05T14:32:43Z</time></trkpt><trkpt lat="48.40076522442803" lon="-4.466865936342069"><ele>98.0</ele><time>2026-04-05T14:32:47Z</time></trkpt><trkpt lat="48.40083137063723" lon="-4.46687513886529"><ele>97.99999999999999</ele><time>2026-04-05T14:32:49Z</time></trkpt><trkpt lat="48.40085694849643" lon="-4.466990630806646"><ele>98.0</ele><time>2026-04-05T14:32:54Z</time></trkpt><trkpt lat="48.40094259670238" lon="-4.46704309928403"><ele>98.0</ele><time>2026-04-05T14:32:57Z</time></trkpt><trkpt lat="48.40100926990076" lon="-4.467065210646797"><ele>98.0</ele><time>2026-04-05T14:32:59Z</time></trkpt><trkpt lat="48.4010710384246" lon="-4.4670855686397335"><ele>98.0</ele><time>2026-04-05T14:33:01Z</time></trkpt><trkpt lat="48.401138436656865" lon="-4.4671142996439945"><ele>98.0</ele><time>2026-04-05T14:33:03Z</time></trkpt><trkpt lat="48.401211078597136" lon="-4.4671024268350665"><ele>98.0</ele><time>2026-04-05T14:33:06Z</time></trkpt><trkpt lat="48.40127659384544" lon="-4.467114942012803"><ele>98.0</ele><time>2026-04-05T14:33:08Z</time></trkpt><trkpt lat="48.40136849226463" lon="-4.467132531308731"><ele>98.0</ele><time>2026-04-05T14:33:12Z</time></trkpt><trkpt lat="48.40146880103362" lon="-4.467098943021406"><ele>98.80000000000001</ele><time>2026-04-05T14:33:16Z</time></trkpt><trkpt lat="48.40153488818124" lon="-4.46705919837281"><ele>99.6</ele><time>2026-04-05T14:33:19Z</time></trkpt><trkpt lat="48.401602586287446" lon="-4.467045603521118"><ele>100.4</ele><time>2026-04-05T14:33:21Z</time></trkpt><trkpt lat="48.40172410981876" lon="-4.4669702126920265"><ele>101.19999999999999</ele><time>2026-04-05T14:33:24Z</time></trkpt><trkpt lat="48.40181990931239" lon="-4.466918314621483"><ele>102.0</ele><time>2026-04-05T14:33:26Z</time></trkpt><trkpt lat="48.401922271966896" lon="-4.46690457032737"><ele>102.0</ele><time>2026-04-05T14:33:28Z</time></trkpt><trkpt lat="48.40201670668016" lon="-4.466891520457977"><ele>102.0</ele><time>2026-04-05T14:33:30Z</time></trkpt><trkpt lat="48.4021163375306" lon="-4.466833704429497"><ele>102.0</ele><time>2026-04-05T14:33:33Z</time></trkpt><trkpt lat="48.402149204721184" lon="-4.466730210975708"><ele>102.0</ele><time>2026-04-05T14:33:35Z</time></trkpt><trkpt lat="48.402196375652984" lon="-4.466651785014255"><ele>102.0</ele><time>2026-04-05T14:33:37Z</time></trkpt><trkpt lat="48.40230750434969" lon="-4.466582325823169"><ele>102.6</ele><time>2026-04-05T14:33:39Z</time></trkpt><trkpt lat="48.40241486788881" lon="-4.466612976485237"><ele>103.19999999999999</ele><time>2026-04-05T14:33:41Z</time></trkpt><trkpt lat="48.40249210280396" lon="-4.4667244969798015"><ele>103.8</ele><time>2026-04-05T14:33:43Z</time></trkpt><trkpt lat="48.40258955130214" lon="-4.466774003524102"><ele>104.4</ele><time>2026-04-05T14:33:45Z</time></trkpt><trkpt lat="48.40268146927397" lon="-4.466834888871041"><ele>105.0</ele><time>2026-04-05T14:33:47Z</time></trkpt><trkpt lat="48.40276078662118" lon="-4.466901356510637"><ele>105.0</ele><time>2026-04-05T14:33:49Z</time></trkpt><trkpt lat="48.40279413624762" lon="-4.467045265905984"><ele>105.0</ele><time>2026-04-05T14:33:51Z</time></trkpt><trkpt lat="48.402849819845926" lon="-4.467184591455596"><ele>105.0</ele><time>2026-04-05T14:33:53Z</time></trkpt><trkpt lat="48.40293362723561" lon="-4.467275511262097"><ele>105.0</ele><time>2026-04-05T14:33:55Z</time></trkpt><trkpt lat="48.40303833948419" lon="-4.467286451236943"><ele>105.0</ele><time>2026-04-05T14:33:57Z</time></trkpt><trkpt lat="48.40313953755461" lon="-4.46730203634725"><ele>104.6</ele><time>2026-04-05T14:33:59Z</time></trkpt><trkpt lat="48.40325931928107" lon="-4.46731962839043"><ele>104.2</ele><time>2026-04-05T14:34:01Z</time></trkpt><trkpt lat="48.4033750926472" lon="-4.467336509037939"><ele>103.80000000000001</ele><time>2026-04-05T14:34:03Z</time></trkpt><trkpt lat="48.403496384394096" lon="-4.467352118927076"><ele>103.4</ele><time>2026-04-05T14:34:05Z</time></trkpt><trkpt lat="48.403564616355695" lon="-4.46736090017931"><ele>103.0</ele><time>2026-04-05T14:34:06Z</time></trkpt><trkpt lat="48.403637272135114" lon="-4.467370250762276"><ele>103.0</ele><time>2026-04-05T14:34:07Z</time></trkpt><trkpt lat="48.403738252575884" lon="-4.467384739475121"><ele>103.0</ele><time>2026-04-05T14:34:09Z</time></trkpt><trkpt lat="48.403833570352624" lon="-4.467396216893732"><ele>103.0</ele><time>2026-04-05T14:34:11Z</time></trkpt><trkpt lat="48.40389847716011" lon="-4.467403330373183"><ele>103.0</ele><time>2026-04-05T14:34:12Z</time></trkpt><trkpt lat="48.40400767283322" lon="-4.467415843930974"><ele>103.0</ele><time>2026-04-05T14:34:14Z</time></trkpt><trkpt lat="48.40410856947045" lon="-4.467430169186622"><ele>103.0</ele><time>2026-04-05T14:34:16Z</time></trkpt><trkpt lat="48.40423314811341" lon="-4.467447856804201"><ele>103.0</ele><time>2026-04-05T14:34:18Z</time></trkpt><trkpt lat="48.40435652386753" lon="-4.467461240773728"><ele>103.0</ele><time>2026-04-05T14:34:20Z</time></trkpt><trkpt lat="48.40452254518268" lon="-4.467453521981556"><ele>103.0</ele><time>2026-04-05T14:34:22Z</time></trkpt><trkpt lat="48.4046043000989" lon="-4.467464417281602"><ele>102.50000000000001</ele><time>2026-04-05T14:34:23Z</time></trkpt><trkpt lat="48.40469354075335" lon="-4.467476309636979"><ele>102.0</ele><time>2026-04-05T14:34:24Z</time></trkpt><trkpt lat="48.40477746527984" lon="-4.467487493559584"><ele>101.5</ele><time>2026-04-05T14:34:25Z</time></trkpt><trkpt lat="48.40486208981915" lon="-4.467498770766225"><ele>101.0</ele><time>2026-04-05T14:34:26Z</time></trkpt><trkpt lat="48.40494862932778" lon="-4.467510491486073"><ele>100.50000000000001</ele><time>2026-04-05T14:34:27Z</time></trkpt><trkpt lat="48.40503717625088" lon="-4.467522683982732"><ele>100.0</ele><time>2026-04-05T14:34:28Z</time></trkpt><trkpt lat="48.40512411728094" lon="-4.46753400866952"><ele>100.0</ele><time>2026-04-05T14:34:29Z</time></trkpt><trkpt lat="48.40531907404296" lon="-4.467547554390608"><ele>100.0</ele><time>2026-04-05T14:34:31Z</time></trkpt><trkpt lat="48.40541864359142" lon="-4.46757999021014"><ele>100.0</ele><time>2026-04-05T14:34:32Z</time></trkpt><trkpt lat="48.40552198911081" lon="-4.467595674429742"><ele>100.0</ele><time>2026-04-05T14:34:33Z</time></trkpt><trkpt lat="48.405633773337186" lon="-4.467611207539014"><ele>99.0</ele><time>2026-04-05T14:34:34Z</time></trkpt><trkpt lat="48.40574262599938" lon="-4.4676263332897665"><ele>98.0</ele><time>2026-04-05T14:34:35Z</time></trkpt><trkpt lat="48.40584776571366" lon="-4.467640943104415"><ele>97.0</ele><time>2026-04-05T14:34:36Z</time></trkpt><trkpt lat="48.40593471801098" lon="-4.467652492382609"><ele>96.0</ele><time>2026-04-05T14:34:37Z</time></trkpt><trkpt lat="48.406008885276584" lon="-4.467685543603302"><ele>95.0</ele><time>2026-04-05T14:34:38Z</time></trkpt><trkpt lat="48.406110325036636" lon="-4.467694749264188"><ele>95.0</ele><time>2026-04-05T14:34:40Z</time></trkpt><trkpt lat="48.40618470708589" lon="-4.4676928837252055"><ele>95.0</ele><time>2026-04-05T14:34:42Z</time></trkpt><trkpt lat="48.406402518365674" lon="-4.4677132823650005"><ele>95.0</ele><time>2026-04-05T14:34:59Z</time></trkpt><trkpt lat="48.40648605798926" lon="-4.4677057957527415"><ele>95.0</ele><time>2026-04-05T14:35:00Z</time></trkpt><trkpt lat="48.40655278049853" lon="-4.467722595711725"><ele>95.0</ele><time>2026-04-05T14:35:01Z</time></trkpt><trkpt lat="48.40662362714238" lon="-4.467724345110056"><ele>93.5</ele><time>2026-04-05T14:35:02Z</time></trkpt><trkpt lat="48.40670115494943" lon="-4.467679894279202"><ele>92.0</ele><time>2026-04-05T14:35:03Z</time></trkpt><trkpt lat="48.40678103857173" lon="-4.467691038682061"><ele>90.5</ele><time>2026-04-05T14:35:04Z</time></trkpt><trkpt lat="48.40686314466962" lon="-4.467702493137404"><ele>89.0</ele><time>2026-04-05T14:35:05Z</time></trkpt><trkpt lat="48.406947808971786" lon="-4.467714304483194"><ele>87.5</ele><time>2026-04-05T14:35:06Z</time></trkpt><trkpt lat="48.40702835236132" lon="-4.467725406141436"><ele>86.0</ele><time>2026-04-05T14:35:07Z</time></trkpt><trkpt lat="48.40710775182946" lon="-4.467739146464759"><ele>84.5</ele><time>2026-04-05T14:35:08Z</time></trkpt><trkpt lat="48.40718512484286" lon="-4.467762377019581"><ele>83.0</ele><time>2026-04-05T14:35:09Z</time></trkpt><trkpt lat="48.40726688181213" lon="-4.46778996916698"><ele>81.5</ele><time>2026-04-05T14:35:10Z</time></trkpt><trkpt lat="48.40734889856359" lon="-4.467819681807712"><ele>80.0</ele><time>2026-04-05T14:35:11Z</time></trkpt><trkpt lat="48.40742980458991" lon="-4.467867980405378"><ele>78.5</ele><time>2026-04-05T14:35:12Z</time></trkpt><trkpt lat="48.407518505613105" lon="-4.467859244403912"><ele>77.0</ele><time>2026-04-05T14:35:13Z</time></trkpt><trkpt lat="48.40760929283421" lon="-4.467858765094686"><ele>77.0</ele><time>2026-04-05T14:35:14Z</time></trkpt><trkpt lat="48.4077025321724" lon="-4.467868122507308"><ele>77.0</ele><time>2026-04-05T14:35:15Z</time></trkpt><trkpt lat="48.40779969941773" lon="-4.467887141588311"><ele>77.0</ele><time>2026-04-05T14:35:16Z</time></trkpt><trkpt lat="48.40789791331912" lon="-4.467913611373359"><ele>77.0</ele><time>2026-04-05T14:35:17Z</time></trkpt><trkpt lat="48.407992407461286" lon="-4.467933481463138"><ele>77.0</ele><time>2026-04-05T14:35:18Z</time></trkpt><trkpt lat="48.40808490799891" lon="-4.467957353758724"><ele>76.5</ele><time>2026-04-05T14:35:19Z</time></trkpt><trkpt lat="48.408175971305" lon="-4.467992886771021"><ele>76.0</ele><time>2026-04-05T14:35:20Z</time></trkpt><trkpt lat="48.40826645061129" lon="-4.468024567403277"><ele>75.5</ele><time>2026-04-05T14:35:21Z</time></trkpt><trkpt lat="48.4083479737066" lon="-4.468043443264566"><ele>75.0</ele><time>2026-04-05T14:35:22Z</time></trkpt><trkpt lat="48.40840997134092" lon="-4.468060939258831"><ele>74.5</ele><time>2026-04-05T14:35:23Z</time></trkpt><trkpt lat="48.40848071540619" lon="-4.4680756651881355"><ele>74.0</ele><time>2026-04-05T14:35:25Z</time></trkpt><trkpt lat="48.40855881052682" lon="-4.46808901612729"><ele>74.0</ele><time>2026-04-05T14:35:29Z</time></trkpt><trkpt lat="48.408638037555356" lon="-4.4680612370478"><ele>74.0</ele><time>2026-04-05T14:35:31Z</time></trkpt><trkpt lat="48.40870191297295" lon="-4.468031910904296"><ele>74.0</ele><time>2026-04-05T14:35:33Z</time></trkpt><trkpt lat="48.40877415446409" lon="-4.468105755443179"><ele>74.0</ele><time>2026-04-05T14:35:35Z</time></trkpt><trkpt lat="48.408751394696175" lon="-4.468283766511004"><ele>74.0</ele><time>2026-04-05T14:35:37Z</time></trkpt><trkpt lat="48.408713310305366" lon="-4.468363014079445"><ele>74.0</ele><time>2026-04-05T14:35:38Z</time></trkpt><trkpt lat="48.40867041572942" lon="-4.468436209920016"><ele>74.0</ele><time>2026-04-05T14:35:39Z</time></trkpt><trkpt lat="48.40863372498317" lon="-4.468522788727735"><ele>74.0</ele><time>2026-04-05T14:35:40Z</time></trkpt><trkpt lat="48.40860912294948" lon="-4.4686183346541934"><ele>74.0</ele><time>2026-04-05T14:35:41Z</time></trkpt><trkpt lat="48.40858469208804" lon="-4.468715062065537"><ele>74.0</ele><time>2026-04-05T14:35:42Z</time></trkpt><trkpt lat="48.40855916424892" lon="-4.468806390140174"><ele>74.0</ele><time>2026-04-05T14:35:43Z</time></trkpt><trkpt lat="48.40853883307033" lon="-4.4689060190165995"><ele>74.0</ele><time>2026-04-05T14:35:44Z</time></trkpt><trkpt lat="48.40850983402198" lon="-4.469014514769943"><ele>74.0</ele><time>2026-04-05T14:35:45Z</time></trkpt><trkpt lat="48.408484129475276" lon="-4.469128965817121"><ele>73.83333333333334</ele><time>2026-04-05T14:35:46Z</time></trkpt><trkpt lat="48.4084631412975" lon="-4.469248419900128"><ele>73.66666666666667</ele><time>2026-04-05T14:35:47Z</time></trkpt><trkpt lat="48.40843372937726" lon="-4.469360179094303"><ele>73.5</ele><time>2026-04-05T14:35:48Z</time></trkpt><trkpt lat="48.40841031878346" lon="-4.4694638041454615"><ele>73.33333333333333</ele><time>2026-04-05T14:35:49Z</time></trkpt><trkpt lat="48.40840540684116" lon="-4.469619582233622"><ele>73.16666666666666</ele><time>2026-04-05T14:35:51Z</time></trkpt><trkpt lat="48.40850362153802" lon="-4.469620627936142"><ele>73.0</ele><time>2026-04-05T14:35:52Z</time></trkpt><trkpt lat="48.40857719180706" lon="-4.4696670781502705"><ele>73.0</ele><time>2026-04-05T14:35:53Z</time></trkpt><trkpt lat="48.40864588744156" lon="-4.469710981391624"><ele>73.0</ele><time>2026-04-05T14:35:54Z</time></trkpt><trkpt lat="48.408717376309795" lon="-4.469758266771696"><ele>73.0</ele><time>2026-04-05T14:35:55Z</time></trkpt><trkpt lat="48.408800198701265" lon="-4.469815088212452"><ele>73.0</ele><time>2026-04-05T14:35:56Z</time></trkpt><trkpt lat="48.40886915661304" lon="-4.4698623977374785"><ele>73.0</ele><time>2026-04-05T14:35:57Z</time></trkpt><trkpt lat="48.40893483556319" lon="-4.469907457682416"><ele>73.0</ele><time>2026-04-05T14:35:58Z</time></trkpt><trkpt lat="48.408999039520616" lon="-4.46995150566466"><ele>72.33333333333333</ele><time>2026-04-05T14:35:59Z</time></trkpt><trkpt lat="48.40910545908528" lon="-4.4700170488947935"><ele>71.66666666666666</ele><time>2026-04-05T14:36:01Z</time></trkpt><trkpt lat="48.40920461142872" lon="-4.470076540260571"><ele>71.0</ele><time>2026-04-05T14:36:03Z</time></trkpt><trkpt lat="48.40927618926419" lon="-4.470044872794508"><ele>70.33333333333333</ele><time>2026-04-05T14:36:05Z</time></trkpt><trkpt lat="48.40935920451008" lon="-4.470024576295738"><ele>69.66666666666667</ele><time>2026-04-05T14:36:21Z</time></trkpt><trkpt lat="48.40941176883477" lon="-4.469964186489408"><ele>69.0</ele><time>2026-04-05T14:36:23Z</time></trkpt><trkpt lat="48.409469000105005" lon="-4.470024680434634"><ele>69.0</ele><time>2026-04-05T14:36:25Z</time></trkpt><trkpt lat="48.40952697952811" lon="-4.470124595918904"><ele>69.0</ele><time>2026-04-05T14:36:27Z</time></trkpt><trkpt lat="48.40954816858427" lon="-4.470214384260445"><ele>69.0</ele><time>2026-04-05T14:36:29Z</time></trkpt><trkpt lat="48.409534544392095" lon="-4.470321476898475"><ele>69.0</ele><time>2026-04-05T14:36:31Z</time></trkpt><trkpt lat="48.40962720965169" lon="-4.47038918390404"><ele>69.0</ele><time>2026-04-05T14:36:33Z</time></trkpt><trkpt lat="48.409730308480874" lon="-4.470442579148115"><ele>69.0</ele><time>2026-04-05T14:36:35Z</time></trkpt><trkpt lat="48.40983771317085" lon="-4.47051708690009"><ele>68.0</ele><time>2026-04-05T14:36:37Z</time></trkpt><trkpt lat="48.40994870517539" lon="-4.470596413435763"><ele>67.0</ele><time>2026-04-05T14:36:39.001Z</time></trkpt><trkpt lat="48.41006221367705" lon="-4.470662422810306"><ele>66.0</ele><time>2026-04-05T14:36:41.001Z</time></trkpt><trkpt lat="48.41016376681633" lon="-4.470737692623116"><ele>65.0</ele><time>2026-04-05T14:36:43.001Z</time></trkpt><trkpt lat="48.41030079404692" lon="-4.470823286110284"><ele>65.00000000000001</ele><time>2026-04-05T14:36:46.001Z</time></trkpt><trkpt lat="48.410380966288045" lon="-4.470874518327105"><ele>65.0</ele><time>2026-04-05T14:36:48.001Z</time></trkpt><trkpt lat="48.41044274688214" lon="-4.470917763541571"><ele>65.0</ele><time>2026-04-05T14:36:50.001Z</time></trkpt><trkpt lat="48.410507286594815" lon="-4.470957031062152"><ele>65.0</ele><time>2026-04-05T14:36:52Z</time></trkpt><trkpt lat="48.41055370578258" lon="-4.471032298573954"><ele>65.0</ele><time>2026-04-05T14:36:56Z</time></trkpt><trkpt lat="48.41060100249051" lon="-4.471107383592914"><ele>65.00000000000001</ele><time>2026-04-05T14:36:58Z</time></trkpt><trkpt lat="48.41064647430683" lon="-4.471211583293548"><ele>65.0</ele><time>2026-04-05T14:37:00Z</time></trkpt><trkpt lat="48.41072208923567" lon="-4.471293523914373"><ele>66.6</ele><time>2026-04-05T14:37:02Z</time></trkpt><trkpt lat="48.41078699308534" lon="-4.471407977016912"><ele>68.2</ele><time>2026-04-05T14:37:04Z</time></trkpt><trkpt lat="48.41085379187547" lon="-4.471522907143943"><ele>69.8</ele><time>2026-04-05T14:37:06Z</time></trkpt><trkpt lat="48.41091957175674" lon="-4.471636673446786"><ele>71.4</ele><time>2026-04-05T14:37:08Z</time></trkpt><trkpt lat="48.410994934699445" lon="-4.471755100521095"><ele>73.0</ele><time>2026-04-05T14:37:10Z</time></trkpt><trkpt lat="48.411050519072134" lon="-4.471891218226772"><ele>73.0</ele><time>2026-04-05T14:37:12Z</time></trkpt><trkpt lat="48.411124754816385" lon="-4.471996102940094"><ele>73.0</ele><time>2026-04-05T14:37:14Z</time></trkpt><trkpt lat="48.4111833579326" lon="-4.472117007076017"><ele>73.0</ele><time>2026-04-05T14:37:16Z</time></trkpt><trkpt lat="48.41123683150664" lon="-4.4722566368421965"><ele>73.0</ele><time>2026-04-05T14:37:18Z</time></trkpt><trkpt lat="48.41131274126765" lon="-4.472380591326346"><ele>73.0</ele><time>2026-04-05T14:37:20Z</time></trkpt><trkpt lat="48.41136689812653" lon="-4.472532662302507"><ele>74.0</ele><time>2026-04-05T14:37:22Z</time></trkpt><trkpt lat="48.411430311232365" lon="-4.4726729542843655"><ele>75.0</ele><time>2026-04-05T14:37:24Z</time></trkpt><trkpt lat="48.411493478534595" lon="-4.47281797424107"><ele>76.0</ele><time>2026-04-05T14:37:26Z</time></trkpt><trkpt lat="48.411551316037965" lon="-4.472954829012778"><ele>77.0</ele><time>2026-04-05T14:37:28Z</time></trkpt><trkpt lat="48.41161084378078" lon="-4.473102642385783"><ele>77.0</ele><time>2026-04-05T14:37:30Z</time></trkpt><trkpt lat="48.41166722672015" lon="-4.47325228682298"><ele>77.0</ele><time>2026-04-05T14:37:32Z</time></trkpt><trkpt lat="48.41172132850509" lon="-4.473400406570795"><ele>77.0</ele><time>2026-04-05T14:37:34Z</time></trkpt><trkpt lat="48.41178879267735" lon="-4.473546180281686"><ele>77.0</ele><time>2026-04-05T14:37:36Z</time></trkpt><trkpt lat="48.411835220065235" lon="-4.4737138338426465"><ele>76.83333333333334</ele><time>2026-04-05T14:37:38Z</time></trkpt><trkpt lat="48.41189064369247" lon="-4.473866358533289"><ele>76.66666666666667</ele><time>2026-04-05T14:37:40Z</time></trkpt><trkpt lat="48.41195697533713" lon="-4.474020332444976"><ele>76.5</ele><time>2026-04-05T14:37:42Z</time></trkpt><trkpt lat="48.411987896593565" lon="-4.474107906011771"><ele>76.33333333333333</ele><time>2026-04-05T14:37:43Z</time></trkpt><trkpt lat="48.412021598967485" lon="-4.4741967830362075"><ele>76.16666666666666</ele><time>2026-04-05T14:37:44Z</time></trkpt><trkpt lat="48.41205565681847" lon="-4.474285271227808"><ele>76.0</ele><time>2026-04-05T14:37:45Z</time></trkpt><trkpt lat="48.41208911337069" lon="-4.474373289938205"><ele>76.0</ele><time>2026-04-05T14:37:46Z</time></trkpt><trkpt lat="48.412118674764955" lon="-4.474468361111686"><ele>76.0</ele><time>2026-04-05T14:37:47Z</time></trkpt><trkpt lat="48.41214812169479" lon="-4.47456489352571"><ele>76.0</ele><time>2026-04-05T14:37:48Z</time></trkpt><trkpt lat="48.412187489645646" lon="-4.4746509375502574"><ele>76.0</ele><time>2026-04-05T14:37:49Z</time></trkpt><trkpt lat="48.41221650087039" lon="-4.474746788165778"><ele>76.0</ele><time>2026-04-05T14:37:50Z</time></trkpt><trkpt lat="48.412248783715384" lon="-4.474843633428038"><ele>76.0</ele><time>2026-04-05T14:37:51Z</time></trkpt><trkpt lat="48.41229161427649" lon="-4.474933409160713"><ele>76.0</ele><time>2026-04-05T14:37:52Z</time></trkpt><trkpt lat="48.412327524245114" lon="-4.475027128991583"><ele>75.5</ele><time>2026-04-05T14:37:53Z</time></trkpt><trkpt lat="48.41236134984735" lon="-4.475126461591504"><ele>75.0</ele><time>2026-04-05T14:37:54Z</time></trkpt><trkpt lat="48.41239264346569" lon="-4.475228324247561"><ele>74.5</ele><time>2026-04-05T14:37:55Z</time></trkpt><trkpt lat="48.41240814002759" lon="-4.475346510466304"><ele>74.0</ele><time>2026-04-05T14:37:56Z</time></trkpt><trkpt lat="48.412461155886255" lon="-4.475420455020961"><ele>73.5</ele><time>2026-04-05T14:37:57Z</time></trkpt><trkpt lat="48.41249790538185" lon="-4.4755159405068925"><ele>73.0</ele><time>2026-04-05T14:37:58Z</time></trkpt><trkpt lat="48.412538288080064" lon="-4.475616913593662"><ele>72.28571428571428</ele><time>2026-04-05T14:37:59Z</time></trkpt><trkpt lat="48.4125775389917" lon="-4.47571144450452"><ele>71.57142857142857</ele><time>2026-04-05T14:38:00Z</time></trkpt><trkpt lat="48.412606508921534" lon="-4.475811722069229"><ele>70.85714285714286</ele><time>2026-04-05T14:38:01Z</time></trkpt><trkpt lat="48.41261660496402" lon="-4.475927674024287"><ele>70.14285714285714</ele><time>2026-04-05T14:38:02Z</time></trkpt><trkpt lat="48.41263084585358" lon="-4.476034720822632"><ele>69.42857142857143</ele><time>2026-04-05T14:38:03Z</time></trkpt><trkpt lat="48.41266119261834" lon="-4.476131081336277"><ele>68.71428571428571</ele><time>2026-04-05T14:38:04Z</time></trkpt><trkpt lat="48.41269358364272" lon="-4.4762182615939725"><ele>68.0</ele><time>2026-04-05T14:38:05Z</time></trkpt><trkpt lat="48.4127492956039" lon="-4.4763907598657635"><ele>68.0</ele><time>2026-04-05T14:38:07Z</time></trkpt><trkpt lat="48.412789730956604" lon="-4.476550334154101"><ele>68.0</ele><time>2026-04-05T14:38:09Z</time></trkpt><trkpt lat="48.41283980852393" lon="-4.476704260568024"><ele>68.0</ele><time>2026-04-05T14:38:11Z</time></trkpt><trkpt lat="48.41288285311919" lon="-4.476849862736628"><ele>68.0</ele><time>2026-04-05T14:38:13Z</time></trkpt><trkpt lat="48.41292568486578" lon="-4.4769838892807865"><ele>68.0</ele><time>2026-04-05T14:38:15Z</time></trkpt><trkpt lat="48.41296462407309" lon="-4.477120778745888"><ele>69.0</ele><time>2026-04-05T14:38:17Z</time></trkpt><trkpt lat="48.412989678255926" lon="-4.477213364890181"><ele>70.0</ele><time>2026-04-05T14:38:19Z</time></trkpt><trkpt lat="48.41304424743293" lon="-4.477369051189235"><ele>71.0</ele><time>2026-04-05T14:38:22Z</time></trkpt><trkpt lat="48.41308240781823" lon="-4.477466064214624"><ele>72.0</ele><time>2026-04-05T14:38:24Z</time></trkpt><trkpt lat="48.41311921830598" lon="-4.477563616501236"><ele>73.0</ele><time>2026-04-05T14:38:25Z</time></trkpt><trkpt lat="48.41316003117368" lon="-4.477651314260179"><ele>74.0</ele><time>2026-04-05T14:38:27Z</time></trkpt><trkpt lat="48.41319517769624" lon="-4.47773940122015"><ele>74.0</ele><time>2026-04-05T14:38:28Z</time></trkpt><trkpt lat="48.41325175008646" lon="-4.477826209421735"><ele>74.0</ele><time>2026-04-05T14:38:30Z</time></trkpt><trkpt lat="48.41329287823564" lon="-4.477905354896781"><ele>74.0</ele><time>2026-04-05T14:38:32Z</time></trkpt><trkpt lat="48.413360438936806" lon="-4.478005574703202"><ele>74.0</ele><time>2026-04-05T14:38:35Z</time></trkpt><trkpt lat="48.41342754655348" lon="-4.4781147284120895"><ele>74.0</ele><time>2026-04-05T14:38:37Z</time></trkpt><trkpt lat="48.413482875813" lon="-4.478182453437169"><ele>74.0</ele><time>2026-04-05T14:38:39Z</time></trkpt><trkpt lat="48.41356670893336" lon="-4.478280857856733"><ele>74.0</ele><time>2026-04-05T14:38:42Z</time></trkpt><trkpt lat="48.413651129689875" lon="-4.478360731459633"><ele>74.0</ele><time>2026-04-05T14:38:44Z</time></trkpt><trkpt lat="48.41370484396732" lon="-4.478412716223346"><ele>74.0</ele><time>2026-04-05T14:38:46.001Z</time></trkpt><trkpt lat="48.413765219063066" lon="-4.478456874627778"><ele>74.0</ele><time>2026-04-05T14:38:48.001Z</time></trkpt><trkpt lat="48.41382825308055" lon="-4.478511607339415"><ele>74.0</ele><time>2026-04-05T14:38:49.001Z</time></trkpt><trkpt lat="48.41390176478056" lon="-4.4785708172681575"><ele>74.0</ele><time>2026-04-05T14:38:51.001Z</time></trkpt><trkpt lat="48.4139840237752" lon="-4.478636494128489"><ele>75.0</ele><time>2026-04-05T14:38:53.001Z</time></trkpt><trkpt lat="48.41405920182255" lon="-4.478685025556584"><ele>76.0</ele><time>2026-04-05T14:38:55.001Z</time></trkpt><trkpt lat="48.41413118783352" lon="-4.478715467831129"><ele>77.0</ele><time>2026-04-05T14:38:57.001Z</time></trkpt><trkpt lat="48.414202259414836" lon="-4.478746202227554"><ele>78.0</ele><time>2026-04-05T14:39:00.001Z</time></trkpt><trkpt lat="48.41428967715904" lon="-4.478762313368338"><ele>79.0</ele><time>2026-04-05T14:39:06Z</time></trkpt><trkpt lat="48.41437720599426" lon="-4.478722719967359"><ele>80.0</ele><time>2026-04-05T14:39:08Z</time></trkpt><trkpt lat="48.41447299196402" lon="-4.478695244738449"><ele>80.0</ele><time>2026-04-05T14:39:10Z</time></trkpt><trkpt lat="48.41456176492088" lon="-4.478701011016514"><ele>80.0</ele><time>2026-04-05T14:39:12Z</time></trkpt><trkpt lat="48.414654085622644" lon="-4.478713960689343"><ele>80.0</ele><time>2026-04-05T14:39:14Z</time></trkpt><trkpt lat="48.4147487292372" lon="-4.478745227344815"><ele>80.0</ele><time>2026-04-05T14:39:16Z</time></trkpt><trkpt lat="48.414833011706854" lon="-4.478808028511095"><ele>80.0</ele><time>2026-04-05T14:39:18Z</time></trkpt><trkpt lat="48.41491342666333" lon="-4.478891348328089"><ele>79.8</ele><time>2026-04-05T14:39:20Z</time></trkpt><trkpt lat="48.41498008052891" lon="-4.478997817522518"><ele>79.6</ele><time>2026-04-05T14:39:22Z</time></trkpt><trkpt lat="48.41502358562441" lon="-4.479114905060088"><ele>79.4</ele><time>2026-04-05T14:39:24Z</time></trkpt><trkpt lat="48.415072208273706" lon="-4.479251126147308"><ele>79.2</ele><time>2026-04-05T14:39:26Z</time></trkpt><trkpt lat="48.41509828024418" lon="-4.479402062769108"><ele>79.0</ele><time>2026-04-05T14:39:28Z</time></trkpt><trkpt lat="48.41511505479105" lon="-4.479561570889881"><ele>79.33333333333333</ele><time>2026-04-05T14:39:30Z</time></trkpt><trkpt lat="48.4150944175323" lon="-4.4797465311783125"><ele>79.66666666666666</ele><time>2026-04-05T14:39:32Z</time></trkpt><trkpt lat="48.415077924569076" lon="-4.47984818499464"><ele>80.0</ele><time>2026-04-05T14:39:33Z</time></trkpt><trkpt lat="48.41505185213242" lon="-4.479948365161446"><ele>80.33333333333333</ele><time>2026-04-05T14:39:34Z</time></trkpt><trkpt lat="48.415013373377654" lon="-4.480042248105626"><ele>80.66666666666667</ele><time>2026-04-05T14:39:35Z</time></trkpt><trkpt lat="48.414963608783125" lon="-4.48013314024333"><ele>81.0</ele><time>2026-04-05T14:39:36Z</time></trkpt><trkpt lat="48.41490680807849" lon="-4.480216154785565"><ele>81.0</ele><time>2026-04-05T14:39:37Z</time></trkpt><trkpt lat="48.41484385027687" lon="-4.480282222104472"><ele>81.0</ele><time>2026-04-05T14:39:38Z</time></trkpt><trkpt lat="48.41476690094529" lon="-4.480337501347574"><ele>81.0</ele><time>2026-04-05T14:39:39Z</time></trkpt><trkpt lat="48.41468307240598" lon="-4.48037730013301"><ele>81.0</ele><time>2026-04-05T14:39:40Z</time></trkpt><trkpt lat="48.41459904453161" lon="-4.480383189263875"><ele>81.0</ele><time>2026-04-05T14:39:41Z</time></trkpt><trkpt lat="48.414526996080404" lon="-4.480381892561772"><ele>81.0</ele><time>2026-04-05T14:39:42Z</time></trkpt><trkpt lat="48.414462240796595" lon="-4.4803762727757634"><ele>81.0</ele><time>2026-04-05T14:39:43Z</time></trkpt><trkpt lat="48.414376026476184" lon="-4.480643948317665"><ele>81.0</ele><time>2026-04-05T14:39:44Z</time></trkpt><trkpt lat="48.414340541455815" lon="-4.480754169689341"><ele>81.0</ele><time>2026-04-05T14:39:45Z</time></trkpt><trkpt lat="48.414321661866246" lon="-4.480850271313388"><ele>81.0</ele><time>2026-04-05T14:39:46Z</time></trkpt><trkpt lat="48.41426731092697" lon="-4.480992767268075"><ele>81.0</ele><time>2026-04-05T14:39:48Z</time></trkpt><trkpt lat="48.41421748222375" lon="-4.481162870561868"><ele>81.0</ele><time>2026-04-05T14:39:50Z</time></trkpt><trkpt lat="48.41419167469842" lon="-4.481252978209865"><ele>81.0</ele><time>2026-04-05T14:39:51Z</time></trkpt><trkpt lat="48.414147232290844" lon="-4.481423169259635"><ele>81.0</ele><time>2026-04-05T14:39:53Z</time></trkpt><trkpt lat="48.41412466661594" lon="-4.481514522630123"><ele>81.0</ele><time>2026-04-05T14:39:54Z</time></trkpt><trkpt lat="48.41410120336288" lon="-4.481605679311799"><ele>81.0</ele><time>2026-04-05T14:39:55Z</time></trkpt><trkpt lat="48.41405561647039" lon="-4.481782788172299"><ele>81.0</ele><time>2026-04-05T14:39:57Z</time></trkpt><trkpt lat="48.41403103419386" lon="-4.481878292269152"><ele>81.0</ele><time>2026-04-05T14:39:58Z</time></trkpt><trkpt lat="48.41400610798636" lon="-4.481975132737906"><ele>81.0</ele><time>2026-04-05T14:39:59Z</time></trkpt><trkpt lat="48.41399350342078" lon="-4.482076058359751"><ele>81.0</ele><time>2026-04-05T14:40:00Z</time></trkpt><trkpt lat="48.413967985261344" lon="-4.482166749553519"><ele>81.0</ele><time>2026-04-05T14:40:01Z</time></trkpt><trkpt lat="48.413919140268305" lon="-4.482313009458499"><ele>81.0</ele><time>2026-04-05T14:40:03Z</time></trkpt><trkpt lat="48.413894730775226" lon="-4.482465766815984"><ele>81.0</ele><time>2026-04-05T14:40:05Z</time></trkpt><trkpt lat="48.41385317233649" lon="-4.482578046246514"><ele>81.0</ele><time>2026-04-05T14:40:08Z</time></trkpt><trkpt lat="48.413830281802525" lon="-4.48267264451649"><ele>81.0</ele><time>2026-04-05T14:40:11Z</time></trkpt><trkpt lat="48.41377700950404" lon="-4.482795194509288"><ele>81.0</ele><time>2026-04-05T14:40:16Z</time></trkpt><trkpt lat="48.41374087215347" lon="-4.482951059524932"><ele>81.0</ele><time>2026-04-05T14:40:18Z</time></trkpt><trkpt lat="48.41370642557715" lon="-4.483120054370522"><ele>80.16666666666667</ele><time>2026-04-05T14:40:20Z</time></trkpt><trkpt lat="48.41366230538964" lon="-4.483298678704501"><ele>79.33333333333333</ele><time>2026-04-05T14:40:22Z</time></trkpt><trkpt lat="48.413636914159724" lon="-4.48339904011352"><ele>78.5</ele><time>2026-04-05T14:40:23Z</time></trkpt><trkpt lat="48.413614073162215" lon="-4.483502705594649"><ele>77.66666666666666</ele><time>2026-04-05T14:40:24Z</time></trkpt><trkpt lat="48.413585273669376" lon="-4.4836043776565555"><ele>76.83333333333333</ele><time>2026-04-05T14:40:25Z</time></trkpt><trkpt lat="48.413561611212174" lon="-4.483715608659446"><ele>76.0</ele><time>2026-04-05T14:40:26Z</time></trkpt><trkpt lat="48.413534192708276" lon="-4.483827149342377"><ele>76.0</ele><time>2026-04-05T14:40:27Z</time></trkpt><trkpt lat="48.41350397047482" lon="-4.483939493934015"><ele>76.0</ele><time>2026-04-05T14:40:28Z</time></trkpt><trkpt lat="48.41348271137949" lon="-4.484058926687807"><ele>76.0</ele><time>2026-04-05T14:40:29Z</time></trkpt><trkpt lat="48.41346072537507" lon="-4.484180927974655"><ele>76.0</ele><time>2026-04-05T14:40:30Z</time></trkpt><trkpt lat="48.413435606195904" lon="-4.484297969254632"><ele>76.0</ele><time>2026-04-05T14:40:31Z</time></trkpt><trkpt lat="48.413416031394206" lon="-4.4844257643936265"><ele>76.0</ele><time>2026-04-05T14:40:32Z</time></trkpt><trkpt lat="48.4133936101936" lon="-4.484552940071826"><ele>76.16666666666666</ele><time>2026-04-05T14:40:33Z</time></trkpt><trkpt lat="48.41337612160422" lon="-4.484673747132882"><ele>76.33333333333333</ele><time>2026-04-05T14:40:34Z</time></trkpt><trkpt lat="48.41336323846849" lon="-4.48480152388711"><ele>76.5</ele><time>2026-04-05T14:40:35Z</time></trkpt><trkpt lat="48.413349641766835" lon="-4.484935239446267"><ele>76.66666666666667</ele><time>2026-04-05T14:40:36Z</time></trkpt><trkpt lat="48.41333650490807" lon="-4.4850658764745885"><ele>76.83333333333334</ele><time>2026-04-05T14:40:37Z</time></trkpt><trkpt lat="48.41332755413027" lon="-4.4852003778347225"><ele>77.0</ele><time>2026-04-05T14:40:38Z</time></trkpt><trkpt lat="48.413316573640515" lon="-4.48533447254065"><ele>76.5</ele><time>2026-04-05T14:40:39Z</time></trkpt><trkpt lat="48.413308098488606" lon="-4.485466473512115"><ele>76.0</ele><time>2026-04-05T14:40:40Z</time></trkpt><trkpt lat="48.41329889496297" lon="-4.485596033268465"><ele>75.5</ele><time>2026-04-05T14:40:41Z</time></trkpt><trkpt lat="48.413287558742034" lon="-4.485728796512314"><ele>75.0</ele><time>2026-04-05T14:40:42Z</time></trkpt><trkpt lat="48.41328536694718" lon="-4.485854722642425"><ele>74.5</ele><time>2026-04-05T14:40:43Z</time></trkpt><trkpt lat="48.4132905400661" lon="-4.485978769282728"><ele>74.0</ele><time>2026-04-05T14:40:44Z</time></trkpt><trkpt lat="48.41328617072153" lon="-4.486108379593281"><ele>74.0</ele><time>2026-04-05T14:40:45Z</time></trkpt><trkpt lat="48.41329013685309" lon="-4.486237413306446"><ele>74.0</ele><time>2026-04-05T14:40:46Z</time></trkpt><trkpt lat="48.41328587324028" lon="-4.486365732750001"><ele>74.0</ele><time>2026-04-05T14:40:47Z</time></trkpt><trkpt lat="48.41328647198204" lon="-4.486505962280366"><ele>74.0</ele><time>2026-04-05T14:40:48Z</time></trkpt><trkpt lat="48.4132899057388" lon="-4.486641511896213"><ele>74.0</ele><time>2026-04-05T14:40:49Z</time></trkpt><trkpt lat="48.413288051687054" lon="-4.486767601388195"><ele>74.0</ele><time>2026-04-05T14:40:50Z</time></trkpt><trkpt lat="48.4132838711643" lon="-4.486893178897654"><ele>73.0</ele><time>2026-04-05T14:40:51.001Z</time></trkpt><trkpt lat="48.413283161077295" lon="-4.48702808304012"><ele>72.0</ele><time>2026-04-05T14:40:52.001Z</time></trkpt><trkpt lat="48.4132765236503" lon="-4.4871675432429114"><ele>71.0</ele><time>2026-04-05T14:40:53.001Z</time></trkpt><trkpt lat="48.41326396496459" lon="-4.4873069634004406"><ele>70.0</ele><time>2026-04-05T14:40:54.001Z</time></trkpt><trkpt lat="48.41325879365307" lon="-4.48744735559663"><ele>69.0</ele><time>2026-04-05T14:40:55.001Z</time></trkpt><trkpt lat="48.413255753467915" lon="-4.487586967932328"><ele>69.0</ele><time>2026-04-05T14:40:56.001Z</time></trkpt><trkpt lat="48.413251586274576" lon="-4.4877260137694055"><ele>69.0</ele><time>2026-04-05T14:40:57.001Z</time></trkpt><trkpt lat="48.41324332933032" lon="-4.487865991413803"><ele>69.0</ele><time>2026-04-05T14:40:58.001Z</time></trkpt><trkpt lat="48.41323596038553" lon="-4.4879997643790075"><ele>69.0</ele><time>2026-04-05T14:40:59.001Z</time></trkpt><trkpt lat="48.413231497051186" lon="-4.488128931387603"><ele>69.0</ele><time>2026-04-05T14:41:00.001Z</time></trkpt><trkpt lat="48.41322504536968" lon="-4.488252937114836"><ele>69.0</ele><time>2026-04-05T14:41:01.001Z</time></trkpt><trkpt lat="48.41322027795829" lon="-4.4883740071751115"><ele>69.28571428571429</ele><time>2026-04-05T14:41:02.001Z</time></trkpt><trkpt lat="48.41321484026295" lon="-4.48849038872647"><ele>69.57142857142858</ele><time>2026-04-05T14:41:03.001Z</time></trkpt><trkpt lat="48.413212583582045" lon="-4.4886053784757145"><ele>69.85714285714286</ele><time>2026-04-05T14:41:04.001Z</time></trkpt><trkpt lat="48.41320507928653" lon="-4.488715446579021"><ele>70.14285714285714</ele><time>2026-04-05T14:41:05Z</time></trkpt><trkpt lat="48.413204007473475" lon="-4.488823003766984"><ele>70.42857142857142</ele><time>2026-04-05T14:41:06Z</time></trkpt><trkpt lat="48.413199454963454" lon="-4.488925815011244"><ele>70.71428571428571</ele><time>2026-04-05T14:41:07Z</time></trkpt><trkpt lat="48.413199602477064" lon="-4.489025084454598"><ele>71.0</ele><time>2026-04-05T14:41:08Z</time></trkpt><trkpt lat="48.41319763719424" lon="-4.48912449185038"><ele>71.2</ele><time>2026-04-05T14:41:09Z</time></trkpt><trkpt lat="48.41318964216085" lon="-4.489222697652695"><ele>71.39999999999999</ele><time>2026-04-05T14:41:10Z</time></trkpt><trkpt lat="48.41318095716185" lon="-4.489415951906677"><ele>71.6</ele><time>2026-04-05T14:41:12Z</time></trkpt><trkpt lat="48.41316686740001" lon="-4.489595911951164"><ele>71.8</ele><time>2026-04-05T14:41:14Z</time></trkpt><trkpt lat="48.41315730282261" lon="-4.489689926985074"><ele>72.0</ele><time>2026-04-05T14:41:15Z</time></trkpt><trkpt lat="48.41316374671644" lon="-4.489859764465469"><ele>72.0</ele><time>2026-04-05T14:41:17Z</time></trkpt><trkpt lat="48.41316394873002" lon="-4.490015273030622"><ele>72.0</ele><time>2026-04-05T14:41:19Z</time></trkpt><trkpt lat="48.41316149854858" lon="-4.490153942444826"><ele>72.0</ele><time>2026-04-05T14:41:21Z</time></trkpt><trkpt lat="48.413167422492094" lon="-4.490285073174595"><ele>72.0</ele><time>2026-04-05T14:41:23Z</time></trkpt><trkpt lat="48.41316990203009" lon="-4.490389677890655"><ele>72.0</ele><time>2026-04-05T14:41:25Z</time></trkpt><trkpt lat="48.413165237528915" lon="-4.490496867925492"><ele>72.0</ele><time>2026-04-05T14:41:28Z</time></trkpt><trkpt lat="48.41316392932953" lon="-4.4906134664037225"><ele>72.0</ele><time>2026-04-05T14:41:31Z</time></trkpt><trkpt lat="48.413166514840604" lon="-4.490736484741426"><ele>72.0</ele><time>2026-04-05T14:41:34Z</time></trkpt><trkpt lat="48.41317050961914" lon="-4.490899835593671"><ele>72.0</ele><time>2026-04-05T14:41:36Z</time></trkpt><trkpt lat="48.41316685730051" lon="-4.49101395340899"><ele>72.0</ele><time>2026-04-05T14:41:37Z</time></trkpt><trkpt lat="48.41316193901443" lon="-4.491168864270753"><ele>72.0</ele><time>2026-04-05T14:41:39Z</time></trkpt><trkpt lat="48.413173357221545" lon="-4.491349692400076"><ele>72.00000000000001</ele><time>2026-04-05T14:41:41Z</time></trkpt><trkpt lat="48.413172015017814" lon="-4.4914448598316765"><ele>72.0</ele><time>2026-04-05T14:41:42Z</time></trkpt><trkpt lat="48.41316213943994" lon="-4.491631458563213"><ele>72.0</ele><time>2026-04-05T14:41:44Z</time></trkpt><trkpt lat="48.413163810947076" lon="-4.491730518054639"><ele>72.0</ele><time>2026-04-05T14:41:45Z</time></trkpt><trkpt lat="48.41315927419978" lon="-4.491828835595343"><ele>72.0</ele><time>2026-04-05T14:41:46Z</time></trkpt><trkpt lat="48.413160724476796" lon="-4.491927409792409"><ele>72.00000000000001</ele><time>2026-04-05T14:41:47Z</time></trkpt><trkpt lat="48.413158326924275" lon="-4.4920225251696255"><ele>72.0</ele><time>2026-04-05T14:41:48Z</time></trkpt><trkpt lat="48.41315211200166" lon="-4.492209730920661"><ele>72.16666666666667</ele><time>2026-04-05T14:41:50Z</time></trkpt><trkpt lat="48.413154363768825" lon="-4.492308762551724"><ele>72.33333333333333</ele><time>2026-04-05T14:41:51Z</time></trkpt><trkpt lat="48.413150810525494" lon="-4.492507041865071"><ele>72.5</ele><time>2026-04-05T14:41:53Z</time></trkpt><trkpt lat="48.41314540423927" lon="-4.492608858382048"><ele>72.66666666666666</ele><time>2026-04-05T14:41:54Z</time></trkpt><trkpt lat="48.41314694901781" lon="-4.492718032427238"><ele>72.83333333333333</ele><time>2026-04-05T14:41:55Z</time></trkpt><trkpt lat="48.41314879778303" lon="-4.492822165622888"><ele>73.0</ele><time>2026-04-05T14:41:56Z</time></trkpt><trkpt lat="48.41314817024472" lon="-4.492928764883913"><ele>72.71428571428571</ele><time>2026-04-05T14:41:57Z</time></trkpt><trkpt lat="48.413148253264666" lon="-4.493035602748345"><ele>72.42857142857143</ele><time>2026-04-05T14:41:58Z</time></trkpt><trkpt lat="48.41314724801124" lon="-4.493143951415569"><ele>72.14285714285714</ele><time>2026-04-05T14:41:59Z</time></trkpt><trkpt lat="48.41314835263796" lon="-4.493255420927169"><ele>71.85714285714286</ele><time>2026-04-05T14:42:00Z</time></trkpt><trkpt lat="48.41314605619245" lon="-4.493361850148951"><ele>71.57142857142857</ele><time>2026-04-05T14:42:01Z</time></trkpt><trkpt lat="48.41314643138028" lon="-4.493470620656455"><ele>71.28571428571428</ele><time>2026-04-05T14:42:02Z</time></trkpt><trkpt lat="48.4131538766626" lon="-4.493584156747502"><ele>71.0</ele><time>2026-04-05T14:42:03Z</time></trkpt><trkpt lat="48.41315661193464" lon="-4.493691657315636"><ele>70.71428571428571</ele><time>2026-04-05T14:42:04Z</time></trkpt><trkpt lat="48.41315875960497" lon="-4.493800116463598"><ele>70.42857142857142</ele><time>2026-04-05T14:42:05Z</time></trkpt><trkpt lat="48.41316198319035" lon="-4.493912743400721"><ele>70.14285714285714</ele><time>2026-04-05T14:42:06Z</time></trkpt><trkpt lat="48.41316246338367" lon="-4.494022831659951"><ele>69.85714285714286</ele><time>2026-04-05T14:42:07Z</time></trkpt><trkpt lat="48.41316149401301" lon="-4.494130642806797"><ele>69.57142857142858</ele><time>2026-04-05T14:42:08Z</time></trkpt><trkpt lat="48.41315532876295" lon="-4.494238505635814"><ele>69.28571428571429</ele><time>2026-04-05T14:42:09Z</time></trkpt><trkpt lat="48.41315304966535" lon="-4.494344976295107"><ele>69.0</ele><time>2026-04-05T14:42:10Z</time></trkpt><trkpt lat="48.413148972280325" lon="-4.494456334774233"><ele>69.0</ele><time>2026-04-05T14:42:11Z</time></trkpt><trkpt lat="48.41315186664437" lon="-4.494561228780188"><ele>69.0</ele><time>2026-04-05T14:42:12Z</time></trkpt><trkpt lat="48.413150029761034" lon="-4.494665228498671"><ele>69.0</ele><time>2026-04-05T14:42:13Z</time></trkpt><trkpt lat="48.413146030090196" lon="-4.494769349253494"><ele>69.0</ele><time>2026-04-05T14:42:14Z</time></trkpt><trkpt lat="48.413147905524795" lon="-4.49487321408982"><ele>69.0</ele><time>2026-04-05T14:42:15Z</time></trkpt><trkpt lat="48.41314604765293" lon="-4.4949776768660055"><ele>69.0</ele><time>2026-04-05T14:42:16Z</time></trkpt><trkpt lat="48.413141985252906" lon="-4.495084648504686"><ele>69.0</ele><time>2026-04-05T14:42:17Z</time></trkpt><trkpt lat="48.4131403433511" lon="-4.495193692103505"><ele>69.33333333333333</ele><time>2026-04-05T14:42:18Z</time></trkpt><trkpt lat="48.413137062592675" lon="-4.495301499229945"><ele>69.66666666666667</ele><time>2026-04-05T14:42:19Z</time></trkpt><trkpt lat="48.413139919145884" lon="-4.495415311734573"><ele>70.0</ele><time>2026-04-05T14:42:20Z</time></trkpt><trkpt lat="48.41314008139253" lon="-4.495518046928292"><ele>70.33333333333334</ele><time>2026-04-05T14:42:21Z</time></trkpt><trkpt lat="48.413140365210204" lon="-4.4956211766772824"><ele>70.66666666666667</ele><time>2026-04-05T14:42:22Z</time></trkpt><trkpt lat="48.4131417317831" lon="-4.495773309225846"><ele>71.0</ele><time>2026-04-05T14:42:24Z</time></trkpt><trkpt lat="48.41313951825787" lon="-4.495920366356641"><ele>71.0</ele><time>2026-04-05T14:42:27Z</time></trkpt><trkpt lat="48.413141768940775" lon="-4.496032648426621"><ele>71.0</ele><time>2026-04-05T14:42:44Z</time></trkpt><trkpt lat="48.413151111620756" lon="-4.496139396503214"><ele>71.0</ele><time>2026-04-05T14:42:46Z</time></trkpt><trkpt lat="48.413152502067234" lon="-4.4962904962347645"><ele>71.0</ele><time>2026-04-05T14:42:48Z</time></trkpt><trkpt lat="48.413145993984415" lon="-4.496460355861226"><ele>71.0</ele><time>2026-04-05T14:42:50Z</time></trkpt><trkpt lat="48.41314964409205" lon="-4.496625531219053"><ele>70.66666666666667</ele><time>2026-04-05T14:42:52Z</time></trkpt><trkpt lat="48.41314783207856" lon="-4.496808282838602"><ele>70.33333333333334</ele><time>2026-04-05T14:42:54Z</time></trkpt><trkpt lat="48.41314922644578" lon="-4.496904172666357"><ele>70.0</ele><time>2026-04-05T14:42:55Z</time></trkpt><trkpt lat="48.413147174300846" lon="-4.497001504722532"><ele>69.66666666666667</ele><time>2026-04-05T14:42:56Z</time></trkpt><trkpt lat="48.41315241148351" lon="-4.4971015978645115"><ele>69.33333333333333</ele><time>2026-04-05T14:42:57Z</time></trkpt><trkpt lat="48.41317021236851" lon="-4.497205349921569"><ele>69.0</ele><time>2026-04-05T14:42:58Z</time></trkpt><trkpt lat="48.41317287669553" lon="-4.497305730550037"><ele>69.0</ele><time>2026-04-05T14:42:59Z</time></trkpt><trkpt lat="48.413173853788855" lon="-4.4974071853444135"><ele>69.0</ele><time>2026-04-05T14:43:00Z</time></trkpt><trkpt lat="48.41317320289136" lon="-4.497508717900541"><ele>69.0</ele><time>2026-04-05T14:43:01Z</time></trkpt><trkpt lat="48.4131714087595" lon="-4.497614777044223"><ele>69.0</ele><time>2026-04-05T14:43:02Z</time></trkpt><trkpt lat="48.413167926785974" lon="-4.497722066768825"><ele>69.0</ele><time>2026-04-05T14:43:03Z</time></trkpt><trkpt lat="48.4131639288901" lon="-4.497827699795752"><ele>69.0</ele><time>2026-04-05T14:43:04Z</time></trkpt><trkpt lat="48.41315966006152" lon="-4.497941781724807"><ele>69.0</ele><time>2026-04-05T14:43:05Z</time></trkpt><trkpt lat="48.41314940918414" lon="-4.498053465195987"><ele>68.85714285714286</ele><time>2026-04-05T14:43:06Z</time></trkpt><trkpt lat="48.41314020163986" lon="-4.498163599723748"><ele>68.71428571428572</ele><time>2026-04-05T14:43:07Z</time></trkpt><trkpt lat="48.41313339892072" lon="-4.498276382512826"><ele>68.57142857142857</ele><time>2026-04-05T14:43:08Z</time></trkpt><trkpt lat="48.41313078913442" lon="-4.498385224281918"><ele>68.42857142857143</ele><time>2026-04-05T14:43:09Z</time></trkpt><trkpt lat="48.41312650594474" lon="-4.498502772061486"><ele>68.28571428571428</ele><time>2026-04-05T14:43:10Z</time></trkpt><trkpt lat="48.413123742284284" lon="-4.4986125798947105"><ele>68.14285714285714</ele><time>2026-04-05T14:43:11Z</time></trkpt><trkpt lat="48.4131197704942" lon="-4.49871784310998"><ele>68.0</ele><time>2026-04-05T14:43:12Z</time></trkpt><trkpt lat="48.41311201446468" lon="-4.498820387439661"><ele>68.0</ele><time>2026-04-05T14:43:13Z</time></trkpt><trkpt lat="48.41311112466491" lon="-4.49892582280066"><ele>68.0</ele><time>2026-04-05T14:43:14Z</time></trkpt><trkpt lat="48.41311186113266" lon="-4.49902779458639"><ele>68.0</ele><time>2026-04-05T14:43:15Z</time></trkpt><trkpt lat="48.41310578965258" lon="-4.4991296201751645"><ele>68.0</ele><time>2026-04-05T14:43:16Z</time></trkpt><trkpt lat="48.41310099126129" lon="-4.499232228586287"><ele>68.0</ele><time>2026-04-05T14:43:17Z</time></trkpt><trkpt lat="48.413091936403" lon="-4.499415588552493"><ele>68.0</ele><time>2026-04-05T14:43:19Z</time></trkpt><trkpt lat="48.41308860178995" lon="-4.499517587264404"><ele>68.28571428571428</ele><time>2026-04-05T14:43:20Z</time></trkpt><trkpt lat="48.413076547685456" lon="-4.499637651038638"><ele>68.57142857142857</ele><time>2026-04-05T14:43:21Z</time></trkpt><trkpt lat="48.41307340905541" lon="-4.4997387804418825"><ele>68.85714285714286</ele><time>2026-04-05T14:43:22Z</time></trkpt><trkpt lat="48.41306977204152" lon="-4.499846564139588"><ele>69.14285714285714</ele><time>2026-04-05T14:43:23Z</time></trkpt><trkpt lat="48.41306181095575" lon="-4.49995430138054"><ele>69.42857142857143</ele><time>2026-04-05T14:43:24Z</time></trkpt><trkpt lat="48.413058572486904" lon="-4.500065906561235"><ele>69.71428571428571</ele><time>2026-04-05T14:43:25Z</time></trkpt><trkpt lat="48.41306029267303" lon="-4.500179113351514"><ele>70.0</ele><time>2026-04-05T14:43:26Z</time></trkpt><trkpt lat="48.41306013882197" lon="-4.500289321843524"><ele>70.0</ele><time>2026-04-05T14:43:27Z</time></trkpt><trkpt lat="48.41305421041214" lon="-4.500399750412094"><ele>70.0</ele><time>2026-04-05T14:43:28Z</time></trkpt><trkpt lat="48.41304914062291" lon="-4.500514147605342"><ele>70.0</ele><time>2026-04-05T14:43:29Z</time></trkpt><trkpt lat="48.41304142854918" lon="-4.5006280836881905"><ele>70.0</ele><time>2026-04-05T14:43:30Z</time></trkpt><trkpt lat="48.413043613854306" lon="-4.500747037320399"><ele>70.0</ele><time>2026-04-05T14:43:31Z</time></trkpt><trkpt lat="48.413039675772666" lon="-4.500862139652779"><ele>70.0</ele><time>2026-04-05T14:43:32Z</time></trkpt><trkpt lat="48.41303736263923" lon="-4.500982344158805"><ele>69.5</ele><time>2026-04-05T14:43:33Z</time></trkpt><trkpt lat="48.413032062345664" lon="-4.501106044057649"><ele>69.0</ele><time>2026-04-05T14:43:34Z</time></trkpt><trkpt lat="48.41302171208734" lon="-4.501231073649474"><ele>68.5</ele><time>2026-04-05T14:43:35Z</time></trkpt><trkpt lat="48.41301423919419" lon="-4.501353746624662"><ele>68.0</ele><time>2026-04-05T14:43:36Z</time></trkpt><trkpt lat="48.41301015680621" lon="-4.501481842779024"><ele>67.5</ele><time>2026-04-05T14:43:37Z</time></trkpt><trkpt lat="48.413005902974014" lon="-4.501608203348888"><ele>67.0</ele><time>2026-04-05T14:43:38Z</time></trkpt><trkpt lat="48.41300331284744" lon="-4.501741363012379"><ele>66.6</ele><time>2026-04-05T14:43:39Z</time></trkpt><trkpt lat="48.412997552514724" lon="-4.501876276658682"><ele>66.2</ele><time>2026-04-05T14:43:40Z</time></trkpt><trkpt lat="48.412985407615096" lon="-4.502013835668173"><ele>65.8</ele><time>2026-04-05T14:43:41Z</time></trkpt><trkpt lat="48.41298688465941" lon="-4.502152470550011"><ele>65.4</ele><time>2026-04-05T14:43:42Z</time></trkpt><trkpt lat="48.41298108049771" lon="-4.502292925502546"><ele>65.0</ele><time>2026-04-05T14:43:43Z</time></trkpt><trkpt lat="48.41297626768488" lon="-4.502434287196397"><ele>64.8</ele><time>2026-04-05T14:43:44Z</time></trkpt><trkpt lat="48.41297755320516" lon="-4.5025786218163"><ele>64.6</ele><time>2026-04-05T14:43:45Z</time></trkpt><trkpt lat="48.41297029468223" lon="-4.502718685062131"><ele>64.4</ele><time>2026-04-05T14:43:46Z</time></trkpt><trkpt lat="48.412964516506236" lon="-4.502865546991194"><ele>64.2</ele><time>2026-04-05T14:43:47Z</time></trkpt><trkpt lat="48.41295936780769" lon="-4.503015589321044"><ele>64.0</ele><time>2026-04-05T14:43:48Z</time></trkpt><trkpt lat="48.41294766607755" lon="-4.503163636268303"><ele>63.400000000000006</ele><time>2026-04-05T14:43:49Z</time></trkpt><trkpt lat="48.41293619852361" lon="-4.503311675170038"><ele>62.800000000000004</ele><time>2026-04-05T14:43:50Z</time></trkpt><trkpt lat="48.41293614766841" lon="-4.503461983462642"><ele>62.199999999999996</ele><time>2026-04-05T14:43:51Z</time></trkpt><trkpt lat="48.41294396499055" lon="-4.503614388746188"><ele>61.599999999999994</ele><time>2026-04-05T14:43:52Z</time></trkpt><trkpt lat="48.41293705990226" lon="-4.503763636076572"><ele>61.0</ele><time>2026-04-05T14:43:53Z</time></trkpt><trkpt lat="48.412932803809774" lon="-4.50391699494393"><ele>61.0</ele><time>2026-04-05T14:43:54Z</time></trkpt><trkpt lat="48.41293385510893" lon="-4.5040669761774605"><ele>60.99999999999999</ele><time>2026-04-05T14:43:55Z</time></trkpt><trkpt lat="48.41292539720967" lon="-4.504224348894732"><ele>60.99999999999999</ele><time>2026-04-05T14:43:56Z</time></trkpt><trkpt lat="48.412919564628545" lon="-4.504384136872355"><ele>61.0</ele><time>2026-04-05T14:43:57Z</time></trkpt><trkpt lat="48.4129261139677" lon="-4.504544491179002"><ele>61.0</ele><time>2026-04-05T14:43:58Z</time></trkpt><trkpt lat="48.41291237792111" lon="-4.5047028496029915"><ele>60.8</ele><time>2026-04-05T14:43:59Z</time></trkpt><trkpt lat="48.412903896804586" lon="-4.504863530941237"><ele>60.599999999999994</ele><time>2026-04-05T14:44:00Z</time></trkpt><trkpt lat="48.41289777669528" lon="-4.505031554482159"><ele>60.4</ele><time>2026-04-05T14:44:01Z</time></trkpt><trkpt lat="48.41289246822635" lon="-4.5051922614736615"><ele>60.2</ele><time>2026-04-05T14:44:02Z</time></trkpt><trkpt lat="48.412889581633074" lon="-4.505353529648903"><ele>60.0</ele><time>2026-04-05T14:44:03Z</time></trkpt><trkpt lat="48.41288240389354" lon="-4.505512347685006"><ele>59.0</ele><time>2026-04-05T14:44:04Z</time></trkpt><trkpt lat="48.41287789583971" lon="-4.5056702483572595"><ele>58.0</ele><time>2026-04-05T14:44:05Z</time></trkpt><trkpt lat="48.412862870118595" lon="-4.505978569349603"><ele>57.0</ele><time>2026-04-05T14:44:07Z</time></trkpt><trkpt lat="48.412860604899215" lon="-4.506131500656059"><ele>56.0</ele><time>2026-04-05T14:44:08Z</time></trkpt><trkpt lat="48.41286152153427" lon="-4.506282125858418"><ele>55.599999999999994</ele><time>2026-04-05T14:44:09Z</time></trkpt><trkpt lat="48.41286058721107" lon="-4.506432492726979"><ele>55.199999999999996</ele><time>2026-04-05T14:44:10Z</time></trkpt><trkpt lat="48.41286210311507" lon="-4.5065788822541855"><ele>54.800000000000004</ele><time>2026-04-05T14:44:11Z</time></trkpt><trkpt lat="48.41286039112986" lon="-4.50671750296861"><ele>54.400000000000006</ele><time>2026-04-05T14:44:12Z</time></trkpt><trkpt lat="48.41285429647314" lon="-4.506851481518092"><ele>54.0</ele><time>2026-04-05T14:44:13Z</time></trkpt><trkpt lat="48.41286730436104" lon="-4.506980716017326"><ele>53.5</ele><time>2026-04-05T14:44:14Z</time></trkpt><trkpt lat="48.41288105210168" lon="-4.507096587172068"><ele>53.0</ele><time>2026-04-05T14:44:15Z</time></trkpt><trkpt lat="48.41289407086343" lon="-4.507205163771281"><ele>52.5</ele><time>2026-04-05T14:44:16Z</time></trkpt><trkpt lat="48.41290954165437" lon="-4.5073572081066136"><ele>52.0</ele><time>2026-04-05T14:44:18Z</time></trkpt><trkpt lat="48.41283682163942" lon="-4.507437550052102"><ele>51.5</ele><time>2026-04-05T14:44:20Z</time></trkpt><trkpt lat="48.41273370803276" lon="-4.507418234289508"><ele>51.0</ele><time>2026-04-05T14:44:22Z</time></trkpt><trkpt lat="48.412649421194246" lon="-4.507404103297931"><ele>51.0</ele><time>2026-04-05T14:44:24Z</time></trkpt><trkpt lat="48.4126147416969" lon="-4.507591651306682"><ele>51.0</ele><time>2026-04-05T14:44:26Z</time></trkpt><trkpt lat="48.41259750985424" lon="-4.5077679572301905"><ele>51.0</ele><time>2026-04-05T14:44:28Z</time></trkpt><trkpt lat="48.412560712204" lon="-4.507936909201126"><ele>51.0</ele><time>2026-04-05T14:44:30Z</time></trkpt><trkpt lat="48.41254979886492" lon="-4.508119262248616"><ele>50.833333333333336</ele><time>2026-04-05T14:44:32Z</time></trkpt><trkpt lat="48.412544071614825" lon="-4.508222926453782"><ele>50.66666666666667</ele><time>2026-04-05T14:44:33Z</time></trkpt><trkpt lat="48.41251873458859" lon="-4.508324472058192"><ele>50.5</ele><time>2026-04-05T14:44:34Z</time></trkpt><trkpt lat="48.41251045599974" lon="-4.5084503947647505"><ele>50.333333333333336</ele><time>2026-04-05T14:44:36Z</time></trkpt><trkpt lat="48.412547695013814" lon="-4.508527703031152"><ele>50.16666666666667</ele><time>2026-04-05T14:44:44Z</time></trkpt><trkpt lat="48.41262815721667" lon="-4.5086178851765215"><ele>50.0</ele><time>2026-04-05T14:44:47Z</time></trkpt><trkpt lat="48.41267706955678" lon="-4.508727640620867"><ele>50.00000000000001</ele><time>2026-04-05T14:44:49Z</time></trkpt><trkpt lat="48.412616945921805" lon="-4.508820980830414"><ele>50.0</ele><time>2026-04-05T14:44:51Z</time></trkpt><trkpt lat="48.41252620111834" lon="-4.5089364994093115"><ele>50.0</ele><time>2026-04-05T14:44:53Z</time></trkpt><trkpt lat="48.41249857706226" lon="-4.509029026464247"><ele>50.0</ele><time>2026-04-05T14:44:54Z</time></trkpt><trkpt lat="48.41246967639029" lon="-4.509136852455759"><ele>50.00000000000001</ele><time>2026-04-05T14:44:55Z</time></trkpt><trkpt lat="48.41243240485533" lon="-4.509243865985427"><ele>50.0</ele><time>2026-04-05T14:44:56Z</time></trkpt><trkpt lat="48.41238796601333" lon="-4.5093461713041245"><ele>50.0</ele><time>2026-04-05T14:44:57Z</time></trkpt><trkpt lat="48.41235216668198" lon="-4.509450968638381"><ele>50.0</ele><time>2026-04-05T14:44:57.999Z</time></trkpt><trkpt lat="48.41232214747291" lon="-4.509571825287737"><ele>50.0</ele><time>2026-04-05T14:44:58.999Z</time></trkpt><trkpt lat="48.412274516087756" lon="-4.509696904051509"><ele>50.0</ele><time>2026-04-05T14:44:59.999Z</time></trkpt><trkpt lat="48.41223508528704" lon="-4.509824073998245"><ele>50.0</ele><time>2026-04-05T14:45:00.999Z</time></trkpt><trkpt lat="48.41218477348377" lon="-4.509950199406702"><ele>49.0</ele><time>2026-04-05T14:45:01.999Z</time></trkpt><trkpt lat="48.412136528949006" lon="-4.510082185558334"><ele>48.0</ele><time>2026-04-05T14:45:03Z</time></trkpt><trkpt lat="48.41208794112615" lon="-4.510196975731468"><ele>47.0</ele><time>2026-04-05T14:45:04Z</time></trkpt><trkpt lat="48.41203021988233" lon="-4.510322635052663"><ele>46.0</ele><time>2026-04-05T14:45:05Z</time></trkpt><trkpt lat="48.41197527488191" lon="-4.510448750987035"><ele>45.0</ele><time>2026-04-05T14:45:06Z</time></trkpt><trkpt lat="48.4119123608204" lon="-4.510576330810572"><ele>44.4</ele><time>2026-04-05T14:45:07Z</time></trkpt><trkpt lat="48.411853809482864" lon="-4.510704863590334"><ele>43.8</ele><time>2026-04-05T14:45:08Z</time></trkpt><trkpt lat="48.41180148801881" lon="-4.510838545896234"><ele>43.2</ele><time>2026-04-05T14:45:09Z</time></trkpt><trkpt lat="48.41173599612275" lon="-4.510973969004826"><ele>42.6</ele><time>2026-04-05T14:45:10Z</time></trkpt><trkpt lat="48.41166888648327" lon="-4.511105551236692"><ele>42.0</ele><time>2026-04-05T14:45:11Z</time></trkpt><trkpt lat="48.411603682728945" lon="-4.511241237730687"><ele>41.8</ele><time>2026-04-05T14:45:12Z</time></trkpt><trkpt lat="48.4115458175286" lon="-4.511379996615432"><ele>41.6</ele><time>2026-04-05T14:45:13Z</time></trkpt><trkpt lat="48.411483789600666" lon="-4.511520018865259"><ele>41.4</ele><time>2026-04-05T14:45:14Z</time></trkpt><trkpt lat="48.41141320699491" lon="-4.511647125870712"><ele>41.199999999999996</ele><time>2026-04-05T14:45:15Z</time></trkpt><trkpt lat="48.4113542626221" lon="-4.511788146893122"><ele>41.0</ele><time>2026-04-05T14:45:16Z</time></trkpt><trkpt lat="48.41130702463734" lon="-4.5119030748386"><ele>40.33333333333333</ele><time>2026-04-05T14:45:17Z</time></trkpt><trkpt lat="48.411256957926845" lon="-4.512017900439872"><ele>39.666666666666664</ele><time>2026-04-05T14:45:18Z</time></trkpt><trkpt lat="48.41120809740432" lon="-4.5121307803257045"><ele>39.0</ele><time>2026-04-05T14:45:19Z</time></trkpt><trkpt lat="48.411163008696136" lon="-4.512242994622295"><ele>38.333333333333336</ele><time>2026-04-05T14:45:20Z</time></trkpt><trkpt lat="48.41111541476766" lon="-4.512356597921958"><ele>37.66666666666667</ele><time>2026-04-05T14:45:21Z</time></trkpt><trkpt lat="48.41106580818912" lon="-4.512457252698916"><ele>37.0</ele><time>2026-04-05T14:45:22Z</time></trkpt><trkpt lat="48.41101558822123" lon="-4.512567445266615"><ele>36.66666666666667</ele><time>2026-04-05T14:45:23Z</time></trkpt><trkpt lat="48.410967001415386" lon="-4.512654680517327"><ele>36.333333333333336</ele><time>2026-04-05T14:45:24Z</time></trkpt><trkpt lat="48.41092801567626" lon="-4.512740420727869"><ele>36.0</ele><time>2026-04-05T14:45:25Z</time></trkpt><trkpt lat="48.41088868273239" lon="-4.5128335982130805"><ele>35.666666666666664</ele><time>2026-04-05T14:45:26Z</time></trkpt><trkpt lat="48.41081469812513" lon="-4.512984224324028"><ele>35.33333333333333</ele><time>2026-04-05T14:45:28Z</time></trkpt><trkpt lat="48.410775792591046" lon="-4.5130636447866666"><ele>35.0</ele><time>2026-04-05T14:45:29Z</time></trkpt><trkpt lat="48.41073904726822" lon="-4.513142070018911"><ele>35.0</ele><time>2026-04-05T14:45:30Z</time></trkpt><trkpt lat="48.41067393644517" lon="-4.513289015744974"><ele>35.0</ele><time>2026-04-05T14:45:32Z</time></trkpt><trkpt lat="48.41061035077333" lon="-4.513439394818472"><ele>35.0</ele><time>2026-04-05T14:45:34Z</time></trkpt><trkpt lat="48.4105512732464" lon="-4.51356152007779"><ele>35.0</ele><time>2026-04-05T14:45:36Z</time></trkpt><trkpt lat="48.41048411974871" lon="-4.5136967115595725"><ele>35.0</ele><time>2026-04-05T14:45:38Z</time></trkpt><trkpt lat="48.41040486127306" lon="-4.5138171107840765"><ele>34.75</ele><time>2026-04-05T14:45:40Z</time></trkpt><trkpt lat="48.41034818923737" lon="-4.513937183733235"><ele>34.5</ele><time>2026-04-05T14:45:42Z</time></trkpt><trkpt lat="48.41029542534055" lon="-4.514061967298549"><ele>34.25</ele><time>2026-04-05T14:45:44Z</time></trkpt><trkpt lat="48.410239875062295" lon="-4.514205488450096"><ele>34.0</ele><time>2026-04-05T14:45:46Z</time></trkpt><trkpt lat="48.4101571312406" lon="-4.514451427564176"><ele>34.0</ele><time>2026-04-05T14:45:49Z</time></trkpt><trkpt lat="48.41013010204128" lon="-4.514545534122894"><ele>34.0</ele><time>2026-04-05T14:45:50Z</time></trkpt><trkpt lat="48.41010341783591" lon="-4.514640399831527"><ele>34.0</ele><time>2026-04-05T14:45:51Z</time></trkpt><trkpt lat="48.41007694114307" lon="-4.514734534212312"><ele>34.0</ele><time>2026-04-05T14:45:52Z</time></trkpt><trkpt lat="48.41003897892718" lon="-4.514855620788936"><ele>34.0</ele><time>2026-04-05T14:45:53Z</time></trkpt><trkpt lat="48.41020257446373" lon="-4.515028449251774"><ele>34.0</ele><time>2026-04-05T14:45:54Z</time></trkpt><trkpt lat="48.41023902861154" lon="-4.515140221876168"><ele>34.0</ele><time>2026-04-05T14:45:55Z</time></trkpt><trkpt lat="48.410285517508875" lon="-4.5152469696633135"><ele>34.0</ele><time>2026-04-05T14:45:56Z</time></trkpt><trkpt lat="48.41032874732706" lon="-4.515368403693058"><ele>34.0</ele><time>2026-04-05T14:45:57Z</time></trkpt><trkpt lat="48.4103717692023" lon="-4.515489569608184"><ele>34.0</ele><time>2026-04-05T14:45:58Z</time></trkpt><trkpt lat="48.410413853279266" lon="-4.515615282036507"><ele>34.0</ele><time>2026-04-05T14:45:59Z</time></trkpt><trkpt lat="48.41045503472021" lon="-4.515744575957169"><ele>34.6</ele><time>2026-04-05T14:46:00Z</time></trkpt><trkpt lat="48.41048946124481" lon="-4.515883018137963"><ele>35.2</ele><time>2026-04-05T14:46:01Z</time></trkpt><trkpt lat="48.41051636442115" lon="-4.516030229752018"><ele>35.800000000000004</ele><time>2026-04-05T14:46:02Z</time></trkpt><trkpt lat="48.41054944192743" lon="-4.516177447174461"><ele>36.4</ele><time>2026-04-05T14:46:03Z</time></trkpt><trkpt lat="48.41057363375514" lon="-4.516329271476176"><ele>37.0</ele><time>2026-04-05T14:46:04Z</time></trkpt><trkpt lat="48.41059208376817" lon="-4.516491675676985"><ele>34.25</ele><time>2026-04-05T14:46:05Z</time></trkpt><trkpt lat="48.41060182198651" lon="-4.516660990116079"><ele>31.5</ele><time>2026-04-05T14:46:06Z</time></trkpt><trkpt lat="48.41061842848183" lon="-4.516831038157921"><ele>28.75</ele><time>2026-04-05T14:46:07Z</time></trkpt><trkpt lat="48.41062335671224" lon="-4.517002866683593"><ele>26.0</ele><time>2026-04-05T14:46:08Z</time></trkpt><trkpt lat="48.41062361020338" lon="-4.5171792462038685"><ele>25.25</ele><time>2026-04-05T14:46:09Z</time></trkpt><trkpt lat="48.410619832081665" lon="-4.517362009954552"><ele>24.5</ele><time>2026-04-05T14:46:10Z</time></trkpt><trkpt lat="48.410611072156925" lon="-4.517547042030049"><ele>23.75</ele><time>2026-04-05T14:46:11Z</time></trkpt><trkpt lat="48.4105920119222" lon="-4.517738077474535"><ele>23.0</ele><time>2026-04-05T14:46:12Z</time></trkpt><trkpt lat="48.41057379898269" lon="-4.51793452264108"><ele>21.25</ele><time>2026-04-05T14:46:13Z</time></trkpt><trkpt lat="48.41055356854394" lon="-4.5181262379644584"><ele>19.5</ele><time>2026-04-05T14:46:14Z</time></trkpt><trkpt lat="48.41053706608549" lon="-4.518325979100379"><ele>17.75</ele><time>2026-04-05T14:46:15Z</time></trkpt><trkpt lat="48.4105215661262" lon="-4.518527325659519"><ele>16.0</ele><time>2026-04-05T14:46:16Z</time></trkpt><trkpt lat="48.410509307806265" lon="-4.518728660247131"><ele>15.25</ele><time>2026-04-05T14:46:17Z</time></trkpt><trkpt lat="48.4104957956395" lon="-4.5189270921205615"><ele>14.5</ele><time>2026-04-05T14:46:18Z</time></trkpt><trkpt lat="48.41047917422816" lon="-4.519129226327755"><ele>13.75</ele><time>2026-04-05T14:46:19Z</time></trkpt><trkpt lat="48.41046283024814" lon="-4.519334878841598"><ele>13.0</ele><time>2026-04-05T14:46:20Z</time></trkpt><trkpt lat="48.410450840351594" lon="-4.519538277960582"><ele>14.25</ele><time>2026-04-05T14:46:21Z</time></trkpt><trkpt lat="48.41043629039906" lon="-4.5197420541038245"><ele>15.5</ele><time>2026-04-05T14:46:22Z</time></trkpt><trkpt lat="48.410436435458614" lon="-4.519950841634558"><ele>16.75</ele><time>2026-04-05T14:46:23Z</time></trkpt><trkpt lat="48.41041473428303" lon="-4.520152554904658"><ele>18.0</ele><time>2026-04-05T14:46:24Z</time></trkpt><trkpt lat="48.410402780419915" lon="-4.5203502530591075"><ele>16.75</ele><time>2026-04-05T14:46:25Z</time></trkpt><trkpt lat="48.41038437469033" lon="-4.520543749959042"><ele>15.5</ele><time>2026-04-05T14:46:26Z</time></trkpt><trkpt lat="48.41036898281641" lon="-4.520737120443632"><ele>14.25</ele><time>2026-04-05T14:46:27Z</time></trkpt><trkpt lat="48.41035649247901" lon="-4.520926682269659"><ele>13.0</ele><time>2026-04-05T14:46:28Z</time></trkpt><trkpt lat="48.410345658456706" lon="-4.5211127652312"><ele>12.75</ele><time>2026-04-05T14:46:29Z</time></trkpt><trkpt lat="48.41033125770674" lon="-4.521295505143895"><ele>12.5</ele><time>2026-04-05T14:46:30Z</time></trkpt><trkpt lat="48.41031321731545" lon="-4.521474425798787"><ele>12.25</ele><time>2026-04-05T14:46:31Z</time></trkpt><trkpt lat="48.41030245913525" lon="-4.521644296219787"><ele>12.0</ele><time>2026-04-05T14:46:32Z</time></trkpt><trkpt lat="48.410293865126555" lon="-4.521810750339284"><ele>12.0</ele><time>2026-04-05T14:46:33Z</time></trkpt><trkpt lat="48.41027647488865" lon="-4.521972529185837"><ele>12.0</ele><time>2026-04-05T14:46:34Z</time></trkpt><trkpt lat="48.41026143109169" lon="-4.522130578758499"><ele>12.0</ele><time>2026-04-05T14:46:35Z</time></trkpt><trkpt lat="48.41024321132031" lon="-4.5222829683994545"><ele>12.0</ele><time>2026-04-05T14:46:36Z</time></trkpt><trkpt lat="48.410232754814075" lon="-4.522424041676457"><ele>12.0</ele><time>2026-04-05T14:46:37Z</time></trkpt><trkpt lat="48.4102218094719" lon="-4.522571262152616"><ele>11.2</ele><time>2026-04-05T14:46:38Z</time></trkpt><trkpt lat="48.410209774551845" lon="-4.522713169142415"><ele>10.399999999999999</ele><time>2026-04-05T14:46:39Z</time></trkpt><trkpt lat="48.41020071333895" lon="-4.522859538497836"><ele>9.600000000000001</ele><time>2026-04-05T14:46:40Z</time></trkpt><trkpt lat="48.41019125304568" lon="-4.52300637663098"><ele>8.8</ele><time>2026-04-05T14:46:40.999Z</time></trkpt><trkpt lat="48.41017627433586" lon="-4.523154256876191"><ele>8.0</ele><time>2026-04-05T14:46:41.999Z</time></trkpt><trkpt lat="48.41017724024148" lon="-4.523294906117324"><ele>7.833333333333333</ele><time>2026-04-05T14:46:42.999Z</time></trkpt><trkpt lat="48.41015570138407" lon="-4.52343402122251"><ele>7.666666666666666</ele><time>2026-04-05T14:46:43.999Z</time></trkpt><trkpt lat="48.41014257685806" lon="-4.52356926785841"><ele>7.5</ele><time>2026-04-05T14:46:44.999Z</time></trkpt><trkpt lat="48.41012861282609" lon="-4.5236935741786874"><ele>7.333333333333334</ele><time>2026-04-05T14:46:45.999Z</time></trkpt><trkpt lat="48.41011222103578" lon="-4.523816717220352"><ele>7.166666666666667</ele><time>2026-04-05T14:46:46.999Z</time></trkpt><trkpt lat="48.410100476811714" lon="-4.523938755156647"><ele>7.0</ele><time>2026-04-05T14:46:47.999Z</time></trkpt><trkpt lat="48.41009382602106" lon="-4.524071334788852"><ele>7.333333333333334</ele><time>2026-04-05T14:46:48.999Z</time></trkpt><trkpt lat="48.410104958726684" lon="-4.524189669590137"><ele>7.666666666666667</ele><time>2026-04-05T14:46:49.999Z</time></trkpt><trkpt lat="48.41010931837055" lon="-4.524314230199807"><ele>8.0</ele><time>2026-04-05T14:46:50.999Z</time></trkpt><trkpt lat="48.41011419835348" lon="-4.524436869267487"><ele>8.333333333333334</ele><time>2026-04-05T14:46:51.999Z</time></trkpt><trkpt lat="48.41011973508293" lon="-4.524541199156955"><ele>8.666666666666666</ele><time>2026-04-05T14:46:52.999Z</time></trkpt><trkpt lat="48.41013572917119" lon="-4.524644258780748"><ele>9.0</ele><time>2026-04-05T14:46:53.999Z</time></trkpt><trkpt lat="48.410159748708494" lon="-4.524746479374761"><ele>8.833333333333334</ele><time>2026-04-05T14:46:54.999Z</time></trkpt><trkpt lat="48.410175275120736" lon="-4.524851770683906"><ele>8.666666666666666</ele><time>2026-04-05T14:46:55.999Z</time></trkpt><trkpt lat="48.410208581393206" lon="-4.524961367703647"><ele>8.5</ele><time>2026-04-05T14:46:56.999Z</time></trkpt><trkpt lat="48.41024212695005" lon="-4.525078587006073"><ele>8.333333333333332</ele><time>2026-04-05T14:46:57.999Z</time></trkpt><trkpt lat="48.410278221484" lon="-4.525197673569909"><ele>8.166666666666666</ele><time>2026-04-05T14:46:58.999Z</time></trkpt><trkpt lat="48.410322888505135" lon="-4.525312027447102"><ele>8.0</ele><time>2026-04-05T14:46:59.999Z</time></trkpt><trkpt lat="48.41037364158207" lon="-4.525413933678687"><ele>7.999999999999999</ele><time>2026-04-05T14:47:00.999Z</time></trkpt><trkpt lat="48.41042770477037" lon="-4.525515571553512"><ele>8.0</ele><time>2026-04-05T14:47:01.999Z</time></trkpt><trkpt lat="48.41048108315454" lon="-4.525621592301947"><ele>8.0</ele><time>2026-04-05T14:47:02.999Z</time></trkpt><trkpt lat="48.41053646620802" lon="-4.525723470125414"><ele>8.0</ele><time>2026-04-05T14:47:03.999Z</time></trkpt><trkpt lat="48.410595333339295" lon="-4.525819803272511"><ele>7.999999999999999</ele><time>2026-04-05T14:47:04.999Z</time></trkpt><trkpt lat="48.41065934655909" lon="-4.525911440228836"><ele>8.0</ele><time>2026-04-05T14:47:05.999Z</time></trkpt><trkpt lat="48.4107200168433" lon="-4.526011405179276"><ele>8.4</ele><time>2026-04-05T14:47:06.999Z</time></trkpt><trkpt lat="48.41078367272629" lon="-4.526113170917362"><ele>8.8</ele><time>2026-04-05T14:47:07.999Z</time></trkpt><trkpt lat="48.41084623301921" lon="-4.5262133149359185"><ele>9.2</ele><time>2026-04-05T14:47:09Z</time></trkpt><trkpt lat="48.41090823973338" lon="-4.526324184232965"><ele>9.6</ele><time>2026-04-05T14:47:10Z</time></trkpt><trkpt lat="48.41097368360292" lon="-4.526423720094924"><ele>10.0</ele><time>2026-04-05T14:47:11Z</time></trkpt><trkpt lat="48.41103445687121" lon="-4.526525303134366"><ele>10.0</ele><time>2026-04-05T14:47:12Z</time></trkpt><trkpt lat="48.411095130991974" lon="-4.526635406434944"><ele>10.0</ele><time>2026-04-05T14:47:13Z</time></trkpt><trkpt lat="48.41115145672529" lon="-4.52673997673739"><ele>10.0</ele><time>2026-04-05T14:47:14Z</time></trkpt><trkpt lat="48.41120391973962" lon="-4.526852897258606"><ele>10.0</ele><time>2026-04-05T14:47:15Z</time></trkpt><trkpt lat="48.41125091491285" lon="-4.526961798858446"><ele>10.0</ele><time>2026-04-05T14:47:16Z</time></trkpt><trkpt lat="48.411291779871746" lon="-4.527079247344801"><ele>10.0</ele><time>2026-04-05T14:47:17Z</time></trkpt><trkpt lat="48.41132683963779" lon="-4.527198187846567"><ele>10.0</ele><time>2026-04-05T14:47:18Z</time></trkpt><trkpt lat="48.41136585071188" lon="-4.527308528889158"><ele>10.0</ele><time>2026-04-05T14:47:19Z</time></trkpt><trkpt lat="48.41139929675137" lon="-4.5274163798707345"><ele>10.0</ele><time>2026-04-05T14:47:20Z</time></trkpt><trkpt lat="48.41142025802057" lon="-4.52752986749859"><ele>10.0</ele><time>2026-04-05T14:47:21Z</time></trkpt><trkpt lat="48.41144141467893" lon="-4.527633677172008"><ele>10.0</ele><time>2026-04-05T14:47:22Z</time></trkpt><trkpt lat="48.41146219474235" lon="-4.527743391069343"><ele>10.0</ele><time>2026-04-05T14:47:23Z</time></trkpt><trkpt lat="48.41148712418377" lon="-4.527843372984352"><ele>10.0</ele><time>2026-04-05T14:47:24Z</time></trkpt><trkpt lat="48.41150574480541" lon="-4.527947362249198"><ele>10.0</ele><time>2026-04-05T14:47:25Z</time></trkpt><trkpt lat="48.41151932619789" lon="-4.5280499537562715"><ele>10.0</ele><time>2026-04-05T14:47:26Z</time></trkpt><trkpt lat="48.411529856612205" lon="-4.528154069092343"><ele>10.0</ele><time>2026-04-05T14:47:27Z</time></trkpt><trkpt lat="48.411539994696014" lon="-4.528252305291334"><ele>10.0</ele><time>2026-04-05T14:47:28Z</time></trkpt><trkpt lat="48.41154627208332" lon="-4.528351904752087"><ele>10.0</ele><time>2026-04-05T14:47:29Z</time></trkpt><trkpt lat="48.41155666904769" lon="-4.528450219140108"><ele>10.6</ele><time>2026-04-05T14:47:30Z</time></trkpt><trkpt lat="48.41155876462482" lon="-4.528547006434432"><ele>11.2</ele><time>2026-04-05T14:47:31Z</time></trkpt><trkpt lat="48.41156842483813" lon="-4.528723997609011"><ele>11.8</ele><time>2026-04-05T14:47:33Z</time></trkpt><trkpt lat="48.41156889996461" lon="-4.528895288968265"><ele>12.4</ele><time>2026-04-05T14:47:35Z</time></trkpt><trkpt lat="48.41156918813608" lon="-4.529054980962598"><ele>13.0</ele><time>2026-04-05T14:47:37Z</time></trkpt><trkpt lat="48.411569027586786" lon="-4.529210979572996"><ele>13.600000000000001</ele><time>2026-04-05T14:47:39Z</time></trkpt><trkpt lat="48.411561510988115" lon="-4.529344896704227"><ele>14.200000000000001</ele><time>2026-04-05T14:47:41Z</time></trkpt><trkpt lat="48.4115514197221" lon="-4.529497862312835"><ele>14.8</ele><time>2026-04-05T14:47:44Z</time></trkpt><trkpt lat="48.411524008167596" lon="-4.529624649205819"><ele>15.4</ele><time>2026-04-05T14:47:46Z</time></trkpt><trkpt lat="48.41151898308222" lon="-4.529729020660723"><ele>16.0</ele><time>2026-04-05T14:47:48Z</time></trkpt><trkpt lat="48.41149343852542" lon="-4.529878794599959"><ele>16.333333333333332</ele><time>2026-04-05T14:47:50Z</time></trkpt><trkpt lat="48.41146792366623" lon="-4.52999637087843"><ele>16.666666666666664</ele><time>2026-04-05T14:47:52Z</time></trkpt><trkpt lat="48.411427481700294" lon="-4.530100815287029"><ele>17.0</ele><time>2026-04-05T14:47:56Z</time></trkpt><trkpt lat="48.411431530014944" lon="-4.530195668353568"><ele>17.333333333333332</ele><time>2026-04-05T14:47:57Z</time></trkpt><trkpt lat="48.41141364261166" lon="-4.530320691449709"><ele>17.666666666666668</ele><time>2026-04-05T14:47:59Z</time></trkpt><trkpt lat="48.41136536500577" lon="-4.530429169950111"><ele>18.0</ele><time>2026-04-05T14:48:01Z</time></trkpt><trkpt lat="48.41131497312854" lon="-4.530554475604869"><ele>18.833333333333332</ele><time>2026-04-05T14:48:03Z</time></trkpt><trkpt lat="48.41127962085373" lon="-4.530672078335592"><ele>19.666666666666668</ele><time>2026-04-05T14:48:05Z</time></trkpt><trkpt lat="48.411229404357286" lon="-4.530780236534728"><ele>20.5</ele><time>2026-04-05T14:48:07Z</time></trkpt><trkpt lat="48.41118284668387" lon="-4.530882142237"><ele>21.333333333333336</ele><time>2026-04-05T14:48:09Z</time></trkpt><trkpt lat="48.411137823535746" lon="-4.53098402561998"><ele>22.166666666666668</ele><time>2026-04-05T14:48:11Z</time></trkpt><trkpt lat="48.411087746746695" lon="-4.531074795235633"><ele>23.0</ele><time>2026-04-05T14:48:13Z</time></trkpt><trkpt lat="48.41104248956808" lon="-4.5311729520833115"><ele>23.5</ele><time>2026-04-05T14:48:15Z</time></trkpt><trkpt lat="48.410991011694485" lon="-4.531255570340109"><ele>24.0</ele><time>2026-04-05T14:48:17Z</time></trkpt><trkpt lat="48.410935633217925" lon="-4.53135483907494"><ele>24.5</ele><time>2026-04-05T14:48:19Z</time></trkpt><trkpt lat="48.41088063522965" lon="-4.5314485500422546"><ele>25.0</ele><time>2026-04-05T14:48:21Z</time></trkpt><trkpt lat="48.410826361430935" lon="-4.531543300522291"><ele>25.499999999999996</ele><time>2026-04-05T14:48:23Z</time></trkpt><trkpt lat="48.410774747734735" lon="-4.53162917048382"><ele>26.0</ele><time>2026-04-05T14:48:25Z</time></trkpt><trkpt lat="48.41073805937346" lon="-4.531707357536871"><ele>25.999999999999996</ele><time>2026-04-05T14:48:28Z</time></trkpt><trkpt lat="48.41068624615164" lon="-4.531798039141529"><ele>26.0</ele><time>2026-04-05T14:48:30Z</time></trkpt><trkpt lat="48.41063347639523" lon="-4.5318926103497486"><ele>26.0</ele><time>2026-04-05T14:48:32.999Z</time></trkpt><trkpt lat="48.41057618215026" lon="-4.532024136341527"><ele>26.0</ele><time>2026-04-05T14:48:35.999Z</time></trkpt><trkpt lat="48.41053125860072" lon="-4.532099161108839"><ele>25.999999999999996</ele><time>2026-04-05T14:48:36.999Z</time></trkpt><trkpt lat="48.41047939643809" lon="-4.5321717553776155"><ele>26.0</ele><time>2026-04-05T14:48:38.999Z</time></trkpt><trkpt lat="48.4104173962262" lon="-4.532283099029748"><ele>26.166666666666664</ele><time>2026-04-05T14:48:41.999Z</time></trkpt><trkpt lat="48.41037098305113" lon="-4.532378450752796"><ele>26.333333333333332</ele><time>2026-04-05T14:48:43.999Z</time></trkpt><trkpt lat="48.410302555991585" lon="-4.532444330147976"><ele>26.5</ele><time>2026-04-05T14:48:45.999Z</time></trkpt><trkpt lat="48.410221502483935" lon="-4.532492575342491"><ele>26.666666666666664</ele><time>2026-04-05T14:48:47.999Z</time></trkpt><trkpt lat="48.410153641042506" lon="-4.532536694975548"><ele>26.833333333333332</ele><time>2026-04-05T14:48:49.999Z</time></trkpt><trkpt lat="48.410075634867795" lon="-4.532534539678276"><ele>27.0</ele><time>2026-04-05T14:48:51.999Z</time></trkpt><trkpt lat="48.41000579397537" lon="-4.532496767014812"><ele>27.0</ele><time>2026-04-05T14:48:53.999Z</time></trkpt><trkpt lat="48.409943155080214" lon="-4.532426555997549"><ele>27.0</ele><time>2026-04-05T14:48:55.999Z</time></trkpt><trkpt lat="48.409815761710675" lon="-4.53237962552328"><ele>27.0</ele><time>2026-04-05T14:48:58.999Z</time></trkpt><trkpt lat="48.409742034670856" lon="-4.532408288237673"><ele>27.0</ele><time>2026-04-05T14:49:00.999Z</time></trkpt><trkpt lat="48.40966225917545" lon="-4.532386127581774"><ele>27.0</ele><time>2026-04-05T14:49:02.999Z</time></trkpt><trkpt lat="48.40958647869626" lon="-4.5323431191363"><ele>27.0</ele><time>2026-04-05T14:49:04.999Z</time></trkpt><trkpt lat="48.40950535052676" lon="-4.532293206875894"><ele>26.6</ele><time>2026-04-05T14:49:06.999Z</time></trkpt><trkpt lat="48.40941652671064" lon="-4.532245124337012"><ele>26.200000000000003</ele><time>2026-04-05T14:49:08.999Z</time></trkpt><trkpt lat="48.40933334351105" lon="-4.532163725145713"><ele>25.8</ele><time>2026-04-05T14:49:10.999Z</time></trkpt><trkpt lat="48.40926011535539" lon="-4.532066996843539"><ele>25.4</ele><time>2026-04-05T14:49:12.999Z</time></trkpt><trkpt lat="48.409188654464415" lon="-4.531983643217301"><ele>25.0</ele><time>2026-04-05T14:49:15Z</time></trkpt><trkpt lat="48.409127695474325" lon="-4.531891095605548"><ele>25.8</ele><time>2026-04-05T14:49:17Z</time></trkpt><trkpt lat="48.409088791879725" lon="-4.531813543898904"><ele>26.6</ele><time>2026-04-05T14:49:18Z</time></trkpt><trkpt lat="48.409008655024834" lon="-4.531728258730117"><ele>27.4</ele><time>2026-04-05T14:49:20Z</time></trkpt><trkpt lat="48.40892066688152" lon="-4.531671603323761"><ele>28.2</ele><time>2026-04-05T14:49:22Z</time></trkpt><trkpt lat="48.40883226738626" lon="-4.531612332267806"><ele>29.0</ele><time>2026-04-05T14:49:24Z</time></trkpt><trkpt lat="48.40873078927099" lon="-4.531593573695301"><ele>29.0</ele><time>2026-04-05T14:49:26Z</time></trkpt><trkpt lat="48.40863469935602" lon="-4.5315506292637115"><ele>29.0</ele><time>2026-04-05T14:49:28Z</time></trkpt><trkpt lat="48.40853524322223" lon="-4.531511164406544"><ele>29.0</ele><time>2026-04-05T14:49:30Z</time></trkpt><trkpt lat="48.40843262950979" lon="-4.531450295055085"><ele>29.0</ele><time>2026-04-05T14:49:32Z</time></trkpt><trkpt lat="48.4083332308458" lon="-4.531450680645689"><ele>29.0</ele><time>2026-04-05T14:49:34Z</time></trkpt><trkpt lat="48.40822051751178" lon="-4.531449465915803"><ele>29.0</ele><time>2026-04-05T14:49:36Z</time></trkpt><trkpt lat="48.40812067840892" lon="-4.53145693412766"><ele>29.0</ele><time>2026-04-05T14:49:38Z</time></trkpt><trkpt lat="48.4080006916943" lon="-4.531468992717277"><ele>29.0</ele><time>2026-04-05T14:49:40Z</time></trkpt><trkpt lat="48.4079346079105" lon="-4.531475023872921"><ele>29.0</ele><time>2026-04-05T14:49:41Z</time></trkpt><trkpt lat="48.407872131453594" lon="-4.531446857773517"><ele>29.0</ele><time>2026-04-05T14:49:44Z</time></trkpt><trkpt lat="48.4077002205093" lon="-4.531484439543354"><ele>29.0</ele><time>2026-04-05T14:49:45Z</time></trkpt><trkpt lat="48.407572936348465" lon="-4.531473599597561"><ele>29.0</ele><time>2026-04-05T14:49:46Z</time></trkpt><trkpt lat="48.40747055051276" lon="-4.531455153691479"><ele>29.0</ele><time>2026-04-05T14:49:47Z</time></trkpt><trkpt lat="48.407364579770444" lon="-4.531420138369877"><ele>29.0</ele><time>2026-04-05T14:49:48Z</time></trkpt><trkpt lat="48.40727966487133" lon="-4.531384421011776"><ele>29.0</ele><time>2026-04-05T14:49:49Z</time></trkpt><trkpt lat="48.4072040310239" lon="-4.531350101877829"><ele>27.833333333333332</ele><time>2026-04-05T14:49:50Z</time></trkpt><trkpt lat="48.40712970905977" lon="-4.531287775962107"><ele>26.666666666666664</ele><time>2026-04-05T14:49:51Z</time></trkpt><trkpt lat="48.40705373131962" lon="-4.531252270064984"><ele>25.5</ele><time>2026-04-05T14:49:52Z</time></trkpt><trkpt lat="48.40698048575702" lon="-4.5312033242102725"><ele>24.333333333333332</ele><time>2026-04-05T14:49:53Z</time></trkpt><trkpt lat="48.40691802050865" lon="-4.531152560170126"><ele>23.166666666666664</ele><time>2026-04-05T14:49:54Z</time></trkpt><trkpt lat="48.40685843330788" lon="-4.531089142047942"><ele>22.0</ele><time>2026-04-05T14:49:55Z</time></trkpt><trkpt lat="48.406810682822055" lon="-4.531014594653171"><ele>22.0</ele><time>2026-04-05T14:49:56Z</time></trkpt><trkpt lat="48.406778187841056" lon="-4.530927436861027"><ele>22.0</ele><time>2026-04-05T14:49:57Z</time></trkpt><trkpt lat="48.40674181356929" lon="-4.530827863905542"><ele>22.0</ele><time>2026-04-05T14:49:58Z</time></trkpt><trkpt lat="48.40672118798094" lon="-4.530732983404533"><ele>22.0</ele><time>2026-04-05T14:49:59Z</time></trkpt><trkpt lat="48.406716260766345" lon="-4.530615496789458"><ele>22.0</ele><time>2026-04-05T14:50:00Z</time></trkpt><trkpt lat="48.40670483335356" lon="-4.530514677736948"><ele>22.0</ele><time>2026-04-05T14:50:01Z</time></trkpt><trkpt lat="48.406718072059455" lon="-4.530417821441727"><ele>22.0</ele><time>2026-04-05T14:50:02Z</time></trkpt><trkpt lat="48.40673476307471" lon="-4.530317950158863"><ele>22.200000000000003</ele><time>2026-04-05T14:50:03Z</time></trkpt><trkpt lat="48.406746977014734" lon="-4.53015152884481"><ele>22.4</ele><time>2026-04-05T14:50:05Z</time></trkpt><trkpt lat="48.40674959252478" lon="-4.530038949840301"><ele>22.6</ele><time>2026-04-05T14:50:06Z</time></trkpt><trkpt lat="48.40673172146197" lon="-4.529880226938557"><ele>22.799999999999997</ele><time>2026-04-05T14:50:08Z</time></trkpt><trkpt lat="48.40672524830603" lon="-4.529782374617863"><ele>23.0</ele><time>2026-04-05T14:50:09Z</time></trkpt><trkpt lat="48.406711082705804" lon="-4.529611705869695"><ele>23.799999999999997</ele><time>2026-04-05T14:50:11Z</time></trkpt><trkpt lat="48.40669640945243" lon="-4.529451884656038"><ele>24.6</ele><time>2026-04-05T14:50:13Z</time></trkpt><trkpt lat="48.406699390594646" lon="-4.529302908316365"><ele>25.400000000000002</ele><time>2026-04-05T14:50:15Z</time></trkpt><trkpt lat="48.40666933957205" lon="-4.5291592502124844"><ele>26.200000000000003</ele><time>2026-04-05T14:50:17Z</time></trkpt><trkpt lat="48.40665449639097" lon="-4.529010272775553"><ele>27.0</ele><time>2026-04-05T14:50:19Z</time></trkpt><trkpt lat="48.406636610146904" lon="-4.528881141135004"><ele>27.0</ele><time>2026-04-05T14:50:21Z</time></trkpt><trkpt lat="48.40659683848496" lon="-4.528757357436871"><ele>27.0</ele><time>2026-04-05T14:50:25Z</time></trkpt><trkpt lat="48.406545409331855" lon="-4.528686518865739"><ele>27.0</ele><time>2026-04-05T14:50:47.999Z</time></trkpt><trkpt lat="48.40658361152046" lon="-4.528765640893348"><ele>27.0</ele><time>2026-04-05T14:50:51.999Z</time></trkpt><trkpt lat="48.406660600836275" lon="-4.528763372188512"><ele>27.0</ele><time>2026-04-05T14:50:55.999Z</time></trkpt><trkpt lat="48.40665587238946" lon="-4.528897389718056"><ele>27.0</ele><time>2026-04-05T14:50:59.999Z</time></trkpt><trkpt lat="48.406693589085215" lon="-4.528993276774397"><ele>27.0</ele><time>2026-04-05T14:51:02.999Z</time></trkpt><trkpt lat="48.40670780348095" lon="-4.5291469649435845"><ele>27.0</ele><time>2026-04-05T14:51:06.999Z</time></trkpt><trkpt lat="48.406703037061035" lon="-4.529274810017133"><ele>27.0</ele><time>2026-04-05T14:51:09.999Z</time></trkpt><trkpt lat="48.40671916131439" lon="-4.5294177038248336"><ele>27.0</ele><time>2026-04-05T14:51:12.999Z</time></trkpt><trkpt lat="48.40671243988977" lon="-4.529523647892384"><ele>27.0</ele><time>2026-04-05T14:51:14.999Z</time></trkpt><trkpt lat="48.40674262431301" lon="-4.52961233525977"><ele>27.0</ele><time>2026-04-05T14:51:16.999Z</time></trkpt><trkpt lat="48.40673496462884" lon="-4.529712265096949"><ele>26.428571428571427</ele><time>2026-04-05T14:51:18.999Z</time></trkpt><trkpt lat="48.40674730396537" lon="-4.529807439916752"><ele>25.857142857142854</ele><time>2026-04-05T14:51:21Z</time></trkpt><trkpt lat="48.40675506026125" lon="-4.529907205494855"><ele>25.285714285714285</ele><time>2026-04-05T14:51:23Z</time></trkpt><trkpt lat="48.40674551303423" lon="-4.53001799980655"><ele>24.714285714285715</ele><time>2026-04-05T14:51:25Z</time></trkpt><trkpt lat="48.40674604716061" lon="-4.530140780105291"><ele>24.142857142857142</ele><time>2026-04-05T14:51:27Z</time></trkpt><trkpt lat="48.406746800336855" lon="-4.530254494073594"><ele>23.571428571428573</ele><time>2026-04-05T14:51:29Z</time></trkpt><trkpt lat="48.406741806498374" lon="-4.530372767922328"><ele>23.0</ele><time>2026-04-05T14:51:31Z</time></trkpt><trkpt lat="48.40673703497279" lon="-4.530496775126229"><ele>22.833333333333336</ele><time>2026-04-05T14:51:33Z</time></trkpt><trkpt lat="48.40675276747501" lon="-4.530625517985845"><ele>22.666666666666668</ele><time>2026-04-05T14:51:35Z</time></trkpt><trkpt lat="48.40675341619467" lon="-4.5307316039106595"><ele>22.5</ele><time>2026-04-05T14:51:37Z</time></trkpt><trkpt lat="48.406780913221695" lon="-4.530838304462015"><ele>22.333333333333332</ele><time>2026-04-05T14:51:39Z</time></trkpt><trkpt lat="48.40681303328691" lon="-4.530966014148003"><ele>22.166666666666664</ele><time>2026-04-05T14:51:41Z</time></trkpt><trkpt lat="48.40686841695377" lon="-4.53108750256025"><ele>22.0</ele><time>2026-04-05T14:51:43Z</time></trkpt><trkpt lat="48.40694496765994" lon="-4.531177197167022"><ele>22.0</ele><time>2026-04-05T14:51:45Z</time></trkpt><trkpt lat="48.40703297591803" lon="-4.53123540694386"><ele>22.0</ele><time>2026-04-05T14:51:47Z</time></trkpt><trkpt lat="48.40711497933883" lon="-4.5312988092821005"><ele>22.0</ele><time>2026-04-05T14:51:49Z</time></trkpt><trkpt lat="48.407200184085895" lon="-4.531337169012168"><ele>22.0</ele><time>2026-04-05T14:51:51Z</time></trkpt><trkpt lat="48.407262656686974" lon="-4.531389488084828"><ele>22.0</ele><time>2026-04-05T14:51:55Z</time></trkpt><trkpt lat="48.407344983087086" lon="-4.531410043322048"><ele>22.0</ele><time>2026-04-05T14:51:57Z</time></trkpt><trkpt lat="48.40742705953565" lon="-4.531416917952512"><ele>23.400000000000002</ele><time>2026-04-05T14:51:59Z</time></trkpt><trkpt lat="48.40750823793431" lon="-4.5314305866188835"><ele>24.8</ele><time>2026-04-05T14:52:01Z</time></trkpt><trkpt lat="48.407600687308104" lon="-4.5314761642742205"><ele>26.2</ele><time>2026-04-05T14:52:04Z</time></trkpt><trkpt lat="48.40766785822686" lon="-4.5315006759687675"><ele>27.6</ele><time>2026-04-05T14:52:06Z</time></trkpt><trkpt lat="48.407748588544344" lon="-4.5314990029084425"><ele>29.0</ele><time>2026-04-05T14:52:09Z</time></trkpt><trkpt lat="48.40788867503763" lon="-4.531529058171278"><ele>29.0</ele><time>2026-04-05T14:52:11Z</time></trkpt><trkpt lat="48.40796802760175" lon="-4.531539430215754"><ele>29.0</ele><time>2026-04-05T14:52:12Z</time></trkpt><trkpt lat="48.40805396540588" lon="-4.531539888048244"><ele>29.0</ele><time>2026-04-05T14:52:13Z</time></trkpt><trkpt lat="48.40814349573678" lon="-4.531404736520915"><ele>29.0</ele><time>2026-04-05T14:52:14Z</time></trkpt><trkpt lat="48.40825193088926" lon="-4.531398495060161"><ele>29.0</ele><time>2026-04-05T14:52:15Z</time></trkpt><trkpt lat="48.408359042255455" lon="-4.531404547228451"><ele>29.0</ele><time>2026-04-05T14:52:16Z</time></trkpt><trkpt lat="48.40845069560889" lon="-4.531424965878133"><ele>29.0</ele><time>2026-04-05T14:52:17Z</time></trkpt><trkpt lat="48.40855302668353" lon="-4.531466528029174"><ele>29.0</ele><time>2026-04-05T14:52:18Z</time></trkpt><trkpt lat="48.40864661599779" lon="-4.531507898543579"><ele>29.0</ele><time>2026-04-05T14:52:19Z</time></trkpt><trkpt lat="48.40873201588377" lon="-4.531530764966023"><ele>29.0</ele><time>2026-04-05T14:52:20Z</time></trkpt><trkpt lat="48.40881462867551" lon="-4.531557807462795"><ele>29.0</ele><time>2026-04-05T14:52:21Z</time></trkpt><trkpt lat="48.408886551622686" lon="-4.531603610194873"><ele>29.0</ele><time>2026-04-05T14:52:22Z</time></trkpt><trkpt lat="48.408963885879295" lon="-4.531673073257363"><ele>29.0</ele><time>2026-04-05T14:52:23Z</time></trkpt><trkpt lat="48.40904707726175" lon="-4.531744691124103"><ele>29.0</ele><time>2026-04-05T14:52:24Z</time></trkpt><trkpt lat="48.40912974281093" lon="-4.531848800136315"><ele>29.0</ele><time>2026-04-05T14:52:25Z</time></trkpt><trkpt lat="48.409193302500164" lon="-4.531930450106074"><ele>29.000000000000004</ele><time>2026-04-05T14:52:26Z</time></trkpt><trkpt lat="48.40925421598038" lon="-4.532017242888707"><ele>29.0</ele><time>2026-04-05T14:52:27Z</time></trkpt><trkpt lat="48.409309484147286" lon="-4.532086655166648"><ele>29.000000000000004</ele><time>2026-04-05T14:52:28Z</time></trkpt><trkpt lat="48.40935793954112" lon="-4.532163037715089"><ele>29.000000000000004</ele><time>2026-04-05T14:52:29Z</time></trkpt><trkpt lat="48.40941686531768" lon="-4.532212507774834"><ele>29.0</ele><time>2026-04-05T14:52:30Z</time></trkpt><trkpt lat="48.40948649381847" lon="-4.532231435963281"><ele>29.000000000000004</ele><time>2026-04-05T14:52:31Z</time></trkpt><trkpt lat="48.40954672347841" lon="-4.532284555280922"><ele>29.000000000000004</ele><time>2026-04-05T14:52:32Z</time></trkpt><trkpt lat="48.40961104382584" lon="-4.5322889125391805"><ele>28.5</ele><time>2026-04-05T14:52:33Z</time></trkpt><trkpt lat="48.40971475219631" lon="-4.532366069826635"><ele>28.0</ele><time>2026-04-05T14:52:34.999Z</time></trkpt><trkpt lat="48.40969620258599" lon="-4.532567316402464"><ele>27.5</ele><time>2026-04-05T14:52:36.999Z</time></trkpt><trkpt lat="48.40962683637483" lon="-4.532702287691883"><ele>27.0</ele><time>2026-04-05T14:52:38.999Z</time></trkpt><trkpt lat="48.4095603747143" lon="-4.532858835854034"><ele>26.400000000000002</ele><time>2026-04-05T14:52:40.999Z</time></trkpt><trkpt lat="48.40952520988496" lon="-4.532950505164754"><ele>25.800000000000004</ele><time>2026-04-05T14:52:41.999Z</time></trkpt><trkpt lat="48.40948475954526" lon="-4.533040527498108"><ele>25.2</ele><time>2026-04-05T14:52:42.999Z</time></trkpt><trkpt lat="48.40946318886424" lon="-4.533135423744437"><ele>24.6</ele><time>2026-04-05T14:52:43.999Z</time></trkpt><trkpt lat="48.40940730894875" lon="-4.533255081793364"><ele>24.0</ele><time>2026-04-05T14:52:44.999Z</time></trkpt><trkpt lat="48.40934032789271" lon="-4.533496023379353"><ele>24.0</ele><time>2026-04-05T14:52:46.999Z</time></trkpt><trkpt lat="48.4092960407164" lon="-4.533606782081139"><ele>24.0</ele><time>2026-04-05T14:52:47.999Z</time></trkpt><trkpt lat="48.40924471473089" lon="-4.533706309989459"><ele>24.0</ele><time>2026-04-05T14:52:48.999Z</time></trkpt><trkpt lat="48.4092117112521" lon="-4.53380690073714"><ele>24.0</ele><time>2026-04-05T14:52:49.999Z</time></trkpt><trkpt lat="48.40919816795914" lon="-4.533931016415203"><ele>24.0</ele><time>2026-04-05T14:52:50.999Z</time></trkpt><trkpt lat="48.4091773805292" lon="-4.53404495564759"><ele>24.0</ele><time>2026-04-05T14:52:51.999Z</time></trkpt><trkpt lat="48.409151032325966" lon="-4.5341654069895645"><ele>24.0</ele><time>2026-04-05T14:52:52.999Z</time></trkpt><trkpt lat="48.40913479998795" lon="-4.534289308746674"><ele>24.0</ele><time>2026-04-05T14:52:53.999Z</time></trkpt><trkpt lat="48.409118358991726" lon="-4.53441511324755"><ele>24.0</ele><time>2026-04-05T14:52:54.999Z</time></trkpt><trkpt lat="48.40910167112546" lon="-4.534539945474423"><ele>24.0</ele><time>2026-04-05T14:52:55.999Z</time></trkpt><trkpt lat="48.409078688312164" lon="-4.534668399565019"><ele>24.0</ele><time>2026-04-05T14:52:56.999Z</time></trkpt><trkpt lat="48.40904632179899" lon="-4.534780558528381"><ele>24.0</ele><time>2026-04-05T14:52:57.999Z</time></trkpt><trkpt lat="48.40900765303735" lon="-4.534887269121863"><ele>24.333333333333332</ele><time>2026-04-05T14:52:58.999Z</time></trkpt><trkpt lat="48.408965531451344" lon="-4.534990692097468"><ele>24.666666666666664</ele><time>2026-04-05T14:52:59.999Z</time></trkpt><trkpt lat="48.408914674353646" lon="-4.535083872121682"><ele>25.0</ele><time>2026-04-05T14:53:00.999Z</time></trkpt><trkpt lat="48.4088631495748" lon="-4.535163235049026"><ele>25.333333333333332</ele><time>2026-04-05T14:53:01.999Z</time></trkpt><trkpt lat="48.40879908332685" lon="-4.535226384269714"><ele>25.666666666666664</ele><time>2026-04-05T14:53:02.999Z</time></trkpt><trkpt lat="48.4087405658339" lon="-4.535293089747151"><ele>26.0</ele><time>2026-04-05T14:53:03.999Z</time></trkpt><trkpt lat="48.408681963622996" lon="-4.535351409762708"><ele>26.142857142857142</ele><time>2026-04-05T14:53:04.999Z</time></trkpt><trkpt lat="48.40862180287264" lon="-4.535405005515417"><ele>26.28571428571429</ele><time>2026-04-05T14:53:05.999Z</time></trkpt><trkpt lat="48.40855807098427" lon="-4.535453871939214"><ele>26.42857142857143</ele><time>2026-04-05T14:53:06.999Z</time></trkpt><trkpt lat="48.408493975201864" lon="-4.535497195797669"><ele>26.57142857142857</ele><time>2026-04-05T14:53:07.999Z</time></trkpt><trkpt lat="48.40843154340158" lon="-4.535541818461635"><ele>26.714285714285715</ele><time>2026-04-05T14:53:08.999Z</time></trkpt><trkpt lat="48.40836848825909" lon="-4.535581803620322"><ele>26.857142857142858</ele><time>2026-04-05T14:53:09.999Z</time></trkpt><trkpt lat="48.40831503999202" lon="-4.535640968589387"><ele>27.0</ele><time>2026-04-05T14:53:10.999Z</time></trkpt><trkpt lat="48.40825775903827" lon="-4.5356847948043715"><ele>27.0</ele><time>2026-04-05T14:53:11.999Z</time></trkpt><trkpt lat="48.40815684549439" lon="-4.535781789581314"><ele>27.0</ele><time>2026-04-05T14:53:13.999Z</time></trkpt><trkpt lat="48.408074620237855" lon="-4.535908160356654"><ele>27.0</ele><time>2026-04-05T14:53:15.999Z</time></trkpt><trkpt lat="48.408016172241446" lon="-4.536056290048951"><ele>27.0</ele><time>2026-04-05T14:53:17.999Z</time></trkpt><trkpt lat="48.40796196189858" lon="-4.536207104316846"><ele>27.75</ele><time>2026-04-05T14:53:19.999Z</time></trkpt><trkpt lat="48.40789466482642" lon="-4.536345934182149"><ele>28.5</ele><time>2026-04-05T14:53:21.999Z</time></trkpt><trkpt lat="48.407835132852604" lon="-4.536499879542144"><ele>29.25</ele><time>2026-04-05T14:53:23.999Z</time></trkpt><trkpt lat="48.407777308261714" lon="-4.536653013617855"><ele>30.0</ele><time>2026-04-05T14:53:25.999Z</time></trkpt><trkpt lat="48.407715958694155" lon="-4.536796129545149"><ele>30.0</ele><time>2026-04-05T14:53:28Z</time></trkpt><trkpt lat="48.407670144144646" lon="-4.536966286504296"><ele>30.0</ele><time>2026-04-05T14:53:30Z</time></trkpt><trkpt lat="48.407612300370914" lon="-4.537126943622257"><ele>30.0</ele><time>2026-04-05T14:53:32Z</time></trkpt><trkpt lat="48.40755638558965" lon="-4.537288576719818"><ele>30.0</ele><time>2026-04-05T14:53:34Z</time></trkpt><trkpt lat="48.4075090533575" lon="-4.537451944873489"><ele>30.0</ele><time>2026-04-05T14:53:36Z</time></trkpt><trkpt lat="48.40747767967382" lon="-4.537622175765908"><ele>30.0</ele><time>2026-04-05T14:53:38Z</time></trkpt><trkpt lat="48.40745904797626" lon="-4.5377923478896784"><ele>30.0</ele><time>2026-04-05T14:53:40Z</time></trkpt><trkpt lat="48.407450145761416" lon="-4.537967011894252"><ele>30.0</ele><time>2026-04-05T14:53:42Z</time></trkpt><trkpt lat="48.40744239225478" lon="-4.538146649314911"><ele>30.0</ele><time>2026-04-05T14:53:44Z</time></trkpt><trkpt lat="48.40743471533471" lon="-4.538324512312144"><ele>30.0</ele><time>2026-04-05T14:53:46Z</time></trkpt><trkpt lat="48.40742727924494" lon="-4.538496795604408"><ele>30.0</ele><time>2026-04-05T14:53:48Z</time></trkpt><trkpt lat="48.40742010204414" lon="-4.538663080864759"><ele>30.0</ele><time>2026-04-05T14:53:50Z</time></trkpt><trkpt lat="48.407414011681034" lon="-4.538832107295994"><ele>30.6</ele><time>2026-04-05T14:53:52Z</time></trkpt><trkpt lat="48.40740810516395" lon="-4.539000088695722"><ele>31.2</ele><time>2026-04-05T14:53:54Z</time></trkpt><trkpt lat="48.407400260706616" lon="-4.539167826692929"><ele>31.799999999999997</ele><time>2026-04-05T14:53:56Z</time></trkpt><trkpt lat="48.407390560054694" lon="-4.5393387639591"><ele>32.4</ele><time>2026-04-05T14:53:58Z</time></trkpt><trkpt lat="48.40736867011955" lon="-4.539500874150853"><ele>33.0</ele><time>2026-04-05T14:54:00Z</time></trkpt><trkpt lat="48.407350979635304" lon="-4.5396722184979375"><ele>34.0</ele><time>2026-04-05T14:54:02Z</time></trkpt><trkpt lat="48.40731528949544" lon="-4.539836609059112"><ele>35.0</ele><time>2026-04-05T14:54:04Z</time></trkpt><trkpt lat="48.407264254152516" lon="-4.5399950601729495"><ele>36.0</ele><time>2026-04-05T14:54:06Z</time></trkpt><trkpt lat="48.40721558715798" lon="-4.540153575324178"><ele>37.0</ele><time>2026-04-05T14:54:08Z</time></trkpt><trkpt lat="48.407181296191006" lon="-4.54032078624607"><ele>36.4</ele><time>2026-04-05T14:54:10Z</time></trkpt><trkpt lat="48.407120475763286" lon="-4.540473909643859"><ele>35.800000000000004</ele><time>2026-04-05T14:54:12Z</time></trkpt><trkpt lat="48.40708345604187" lon="-4.5406503098340405"><ele>35.2</ele><time>2026-04-05T14:54:14Z</time></trkpt><trkpt lat="48.40702685912562" lon="-4.540820700898896"><ele>34.6</ele><time>2026-04-05T14:54:16Z</time></trkpt><trkpt lat="48.40699808935652" lon="-4.540908523441827"><ele>34.0</ele><time>2026-04-05T14:54:17Z</time></trkpt><trkpt lat="48.40697488923861" lon="-4.541008120894068"><ele>33.99999999999999</ele><time>2026-04-05T14:54:18Z</time></trkpt><trkpt lat="48.406948835419186" lon="-4.541108660362121"><ele>34.0</ele><time>2026-04-05T14:54:19Z</time></trkpt><trkpt lat="48.406923118917476" lon="-4.541206654877958"><ele>34.0</ele><time>2026-04-05T14:54:20Z</time></trkpt><trkpt lat="48.40687868601447" lon="-4.541306863149535"><ele>34.0</ele><time>2026-04-05T14:54:21Z</time></trkpt><trkpt lat="48.40684507064342" lon="-4.541401627645173"><ele>34.0</ele><time>2026-04-05T14:54:22Z</time></trkpt><trkpt lat="48.40681266156804" lon="-4.541499360252756"><ele>33.99999999999999</ele><time>2026-04-05T14:54:23Z</time></trkpt><trkpt lat="48.406773836024904" lon="-4.541597771264548"><ele>34.0</ele><time>2026-04-05T14:54:24Z</time></trkpt><trkpt lat="48.406734796733524" lon="-4.541696636777851"><ele>33.833333333333336</ele><time>2026-04-05T14:54:25Z</time></trkpt><trkpt lat="48.4066886998657" lon="-4.541790096239757"><ele>33.66666666666667</ele><time>2026-04-05T14:54:26Z</time></trkpt><trkpt lat="48.40663006975821" lon="-4.541868979387604"><ele>33.5</ele><time>2026-04-05T14:54:27Z</time></trkpt><trkpt lat="48.406580107252886" lon="-4.541963085832668"><ele>33.333333333333336</ele><time>2026-04-05T14:54:28Z</time></trkpt><trkpt lat="48.40652521839597" lon="-4.542046181877258"><ele>33.166666666666664</ele><time>2026-04-05T14:54:29Z</time></trkpt><trkpt lat="48.40646428922949" lon="-4.542125767519269"><ele>33.0</ele><time>2026-04-05T14:54:30Z</time></trkpt><trkpt lat="48.406395978099084" lon="-4.542197481661675"><ele>33.0</ele><time>2026-04-05T14:54:31Z</time></trkpt><trkpt lat="48.40633247168713" lon="-4.542274595174389"><ele>33.0</ele><time>2026-04-05T14:54:32Z</time></trkpt><trkpt lat="48.40626835968437" lon="-4.542350490302745"><ele>33.0</ele><time>2026-04-05T14:54:33Z</time></trkpt><trkpt lat="48.40622000395939" lon="-4.542461015245756"><ele>33.0</ele><time>2026-04-05T14:54:34Z</time></trkpt><trkpt lat="48.40618081574774" lon="-4.54256890618857"><ele>33.0</ele><time>2026-04-05T14:54:35Z</time></trkpt><trkpt lat="48.40614764190331" lon="-4.5426756808373705"><ele>33.0</ele><time>2026-04-05T14:54:36Z</time></trkpt><trkpt lat="48.40611955968356" lon="-4.542798213080655"><ele>33.42857142857143</ele><time>2026-04-05T14:54:37Z</time></trkpt><trkpt lat="48.40609229317719" lon="-4.542903682866035"><ele>33.85714285714286</ele><time>2026-04-05T14:54:38Z</time></trkpt><trkpt lat="48.406072673747865" lon="-4.543015324224954"><ele>34.28571428571429</ele><time>2026-04-05T14:54:39Z</time></trkpt><trkpt lat="48.40605092436396" lon="-4.5431164457396465"><ele>34.714285714285715</ele><time>2026-04-05T14:54:39.999Z</time></trkpt><trkpt lat="48.40602483797268" lon="-4.543216303594816"><ele>35.142857142857146</ele><time>2026-04-05T14:54:40.999Z</time></trkpt><trkpt lat="48.40600651361374" lon="-4.543317531519936"><ele>35.57142857142858</ele><time>2026-04-05T14:54:41.999Z</time></trkpt><trkpt lat="48.40598159340185" lon="-4.543411973001063"><ele>36.0</ele><time>2026-04-05T14:54:42.999Z</time></trkpt><trkpt lat="48.40597060895602" lon="-4.543511043422053"><ele>36.0</ele><time>2026-04-05T14:54:43.999Z</time></trkpt><trkpt lat="48.40594727253582" lon="-4.543617942891247"><ele>36.0</ele><time>2026-04-05T14:54:44.999Z</time></trkpt><trkpt lat="48.405919562776496" lon="-4.543708204980667"><ele>36.0</ele><time>2026-04-05T14:54:45.999Z</time></trkpt><trkpt lat="48.40588093705981" lon="-4.543892007731617"><ele>36.0</ele><time>2026-04-05T14:54:47.999Z</time></trkpt><trkpt lat="48.40583265510949" lon="-4.54406208097645"><ele>36.0</ele><time>2026-04-05T14:54:49.999Z</time></trkpt><trkpt lat="48.40579877958579" lon="-4.5441434521091315"><ele>35.8</ele><time>2026-04-05T14:54:50.999Z</time></trkpt><trkpt lat="48.40575320999359" lon="-4.544317669480348"><ele>35.6</ele><time>2026-04-05T14:54:52.999Z</time></trkpt><trkpt lat="48.40572001436511" lon="-4.5444189235229215"><ele>35.4</ele><time>2026-04-05T14:54:53.999Z</time></trkpt><trkpt lat="48.4056904738034" lon="-4.544510284643539"><ele>35.2</ele><time>2026-04-05T14:54:54.999Z</time></trkpt><trkpt lat="48.405636234957186" lon="-4.544683300585006"><ele>35.0</ele><time>2026-04-05T14:54:56.999Z</time></trkpt><trkpt lat="48.40559609957261" lon="-4.544762783778638"><ele>34.857142857142854</ele><time>2026-04-05T14:54:57.999Z</time></trkpt><trkpt lat="48.40558601842075" lon="-4.544863527027638"><ele>34.714285714285715</ele><time>2026-04-05T14:54:58.999Z</time></trkpt><trkpt lat="48.40554647734651" lon="-4.544955875536018"><ele>34.57142857142857</ele><time>2026-04-05T14:54:59.999Z</time></trkpt><trkpt lat="48.40552974872496" lon="-4.545058554582799"><ele>34.42857142857143</ele><time>2026-04-05T14:55:00.999Z</time></trkpt><trkpt lat="48.40551295697965" lon="-4.545167893053023"><ele>34.285714285714285</ele><time>2026-04-05T14:55:01.999Z</time></trkpt><trkpt lat="48.40549070289962" lon="-4.545275242545105"><ele>34.14285714285714</ele><time>2026-04-05T14:55:02.999Z</time></trkpt><trkpt lat="48.405480828305265" lon="-4.545385371685268"><ele>34.0</ele><time>2026-04-05T14:55:03.999Z</time></trkpt><trkpt lat="48.405463336086505" lon="-4.545489347796868"><ele>33.857142857142854</ele><time>2026-04-05T14:55:04.999Z</time></trkpt><trkpt lat="48.40544577662888" lon="-4.545608229689552"><ele>33.714285714285715</ele><time>2026-04-05T14:55:05.999Z</time></trkpt><trkpt lat="48.40543483856741" lon="-4.5457182125627495"><ele>33.57142857142857</ele><time>2026-04-05T14:55:06.999Z</time></trkpt><trkpt lat="48.40541764443002" lon="-4.545825363207355"><ele>33.42857142857143</ele><time>2026-04-05T14:55:07.999Z</time></trkpt><trkpt lat="48.405404064763104" lon="-4.545925681824975"><ele>33.285714285714285</ele><time>2026-04-05T14:55:08.999Z</time></trkpt><trkpt lat="48.40538780825039" lon="-4.546029489755065"><ele>33.14285714285714</ele><time>2026-04-05T14:55:09.999Z</time></trkpt><trkpt lat="48.40536480897732" lon="-4.546127034877362"><ele>33.0</ele><time>2026-04-05T14:55:10.999Z</time></trkpt><trkpt lat="48.40534299293719" lon="-4.546227520055464"><ele>33.0</ele><time>2026-04-05T14:55:11.999Z</time></trkpt><trkpt lat="48.405319754520995" lon="-4.546326951202711"><ele>33.0</ele><time>2026-04-05T14:55:12.999Z</time></trkpt><trkpt lat="48.405278977187265" lon="-4.546426621629219"><ele>33.0</ele><time>2026-04-05T14:55:13.999Z</time></trkpt><trkpt lat="48.40523691243565" lon="-4.546512996192095"><ele>33.0</ele><time>2026-04-05T14:55:14.999Z</time></trkpt><trkpt lat="48.405186219639184" lon="-4.546582497438318"><ele>33.0</ele><time>2026-04-05T14:55:15.999Z</time></trkpt><trkpt lat="48.40512218000737" lon="-4.546623765067838"><ele>33.0</ele><time>2026-04-05T14:55:16.999Z</time></trkpt><trkpt lat="48.40505760948726" lon="-4.5466656686828575"><ele>33.0</ele><time>2026-04-05T14:55:17.999Z</time></trkpt><trkpt lat="48.405044814241926" lon="-4.546841701419985"><ele>33.0</ele><time>2026-04-05T14:55:19.999Z</time></trkpt><trkpt lat="48.40504191489545" lon="-4.546946099293554"><ele>33.0</ele><time>2026-04-05T14:55:20.999Z</time></trkpt><trkpt lat="48.405071271312686" lon="-4.547109642976443"><ele>33.0</ele><time>2026-04-05T14:55:22.999Z</time></trkpt><trkpt lat="48.40505561137444" lon="-4.547260667023597"><ele>33.0</ele><time>2026-04-05T14:55:24.999Z</time></trkpt><trkpt lat="48.40503064989256" lon="-4.547423292218498"><ele>33.0</ele><time>2026-04-05T14:55:26.999Z</time></trkpt><trkpt lat="48.40499165808314" lon="-4.547574193454699"><ele>33.0</ele><time>2026-04-05T14:55:28.999Z</time></trkpt><trkpt lat="48.40494706156177" lon="-4.547721113528079"><ele>33.0</ele><time>2026-04-05T14:55:30.999Z</time></trkpt><trkpt lat="48.40490223482823" lon="-4.5478757891457"><ele>33.0</ele><time>2026-04-05T14:55:33Z</time></trkpt><trkpt lat="48.40485640687174" lon="-4.548031351587753"><ele>33.0</ele><time>2026-04-05T14:55:35Z</time></trkpt><trkpt lat="48.40480686231821" lon="-4.548196080101059"><ele>34.0</ele><time>2026-04-05T14:55:37Z</time></trkpt><trkpt lat="48.404769625496805" lon="-4.548360374901577"><ele>35.0</ele><time>2026-04-05T14:55:39Z</time></trkpt><trkpt lat="48.404744528670456" lon="-4.548534538381669"><ele>36.0</ele><time>2026-04-05T14:55:41Z</time></trkpt><trkpt lat="48.40473379042557" lon="-4.5487135669366285"><ele>37.0</ele><time>2026-04-05T14:55:43Z</time></trkpt><trkpt lat="48.40473769647546" lon="-4.548891171761993"><ele>37.6</ele><time>2026-04-05T14:55:45Z</time></trkpt><trkpt lat="48.40474724886225" lon="-4.5490579513422915"><ele>38.2</ele><time>2026-04-05T14:55:47Z</time></trkpt><trkpt lat="48.404768083337416" lon="-4.549212478407881"><ele>38.8</ele><time>2026-04-05T14:55:49Z</time></trkpt><trkpt lat="48.40479463574181" lon="-4.549372155111294"><ele>39.4</ele><time>2026-04-05T14:55:51Z</time></trkpt><trkpt lat="48.40481700096069" lon="-4.549521919067272"><ele>40.0</ele><time>2026-04-05T14:55:53Z</time></trkpt><trkpt lat="48.40483812188194" lon="-4.549668188323974"><ele>40.4</ele><time>2026-04-05T14:55:55Z</time></trkpt><trkpt lat="48.4048554856216" lon="-4.549776280970354"><ele>40.8</ele><time>2026-04-05T14:55:58Z</time></trkpt><trkpt lat="48.40490651113936" lon="-4.549964488460615"><ele>41.2</ele><time>2026-04-05T14:55:59Z</time></trkpt><trkpt lat="48.404927952717365" lon="-4.5500963939433055"><ele>41.6</ele><time>2026-04-05T14:56:01Z</time></trkpt><trkpt lat="48.4049556681558" lon="-4.550233580076146"><ele>42.0</ele><time>2026-04-05T14:56:03Z</time></trkpt><trkpt lat="48.40498412484124" lon="-4.550370437207666"><ele>42.166666666666664</ele><time>2026-04-05T14:56:05Z</time></trkpt><trkpt lat="48.405001204751244" lon="-4.550502565247744"><ele>42.333333333333336</ele><time>2026-04-05T14:56:07Z</time></trkpt><trkpt lat="48.40502334526979" lon="-4.550631340838986"><ele>42.5</ele><time>2026-04-05T14:56:09Z</time></trkpt><trkpt lat="48.4050489510675" lon="-4.55075664945519"><ele>42.66666666666667</ele><time>2026-04-05T14:56:11Z</time></trkpt><trkpt lat="48.405074967438374" lon="-4.550884214343253"><ele>42.833333333333336</ele><time>2026-04-05T14:56:13Z</time></trkpt><trkpt lat="48.40510684696966" lon="-4.551006804034614"><ele>43.0</ele><time>2026-04-05T14:56:15Z</time></trkpt><trkpt lat="48.40514999099128" lon="-4.551109290224985"><ele>43.0</ele><time>2026-04-05T14:56:17Z</time></trkpt><trkpt lat="48.40519153253636" lon="-4.551188753738998"><ele>43.0</ele><time>2026-04-05T14:56:19.999Z</time></trkpt><trkpt lat="48.40525968583807" lon="-4.551259997807486"><ele>43.0</ele><time>2026-04-05T14:56:22.999Z</time></trkpt><trkpt lat="48.40533984857261" lon="-4.551334106875713"><ele>43.0</ele><time>2026-04-05T14:56:24.999Z</time></trkpt><trkpt lat="48.405399721005196" lon="-4.551385986882188"><ele>43.0</ele><time>2026-04-05T14:56:26.999Z</time></trkpt><trkpt lat="48.40547911437509" lon="-4.551443466922291"><ele>43.0</ele><time>2026-04-05T14:56:29.999Z</time></trkpt><trkpt lat="48.40554144225929" lon="-4.5514813331347375"><ele>44.0</ele><time>2026-04-05T14:56:31.999Z</time></trkpt><trkpt lat="48.40562791862554" lon="-4.551519975860778"><ele>45.0</ele><time>2026-04-05T14:56:33.999Z</time></trkpt><trkpt lat="48.40571474618262" lon="-4.55154218452266"><ele>46.0</ele><time>2026-04-05T14:56:36.999Z</time></trkpt><trkpt lat="48.405811569372325" lon="-4.551557971073708"><ele>47.0</ele><time>2026-04-05T14:56:38.999Z</time></trkpt><trkpt lat="48.405878936824784" lon="-4.5515882822053175"><ele>48.0</ele><time>2026-04-05T14:56:39.999Z</time></trkpt><trkpt lat="48.4060332444108" lon="-4.5516149064712454"><ele>48.0</ele><time>2026-04-05T14:56:40.999Z</time></trkpt><trkpt lat="48.40623817073619" lon="-4.551612090288375"><ele>48.0</ele><time>2026-04-05T14:56:45.999Z</time></trkpt><trkpt lat="48.406318761008535" lon="-4.551615649402327"><ele>48.0</ele><time>2026-04-05T14:56:47.999Z</time></trkpt><trkpt lat="48.4064535579497" lon="-4.551618149654783"><ele>48.0</ele><time>2026-04-05T14:56:50.999Z</time></trkpt><trkpt lat="48.40654345770526" lon="-4.551616278072632"><ele>49.0</ele><time>2026-04-05T14:56:52.999Z</time></trkpt><trkpt lat="48.40662814528991" lon="-4.551613707889829"><ele>50.0</ele><time>2026-04-05T14:56:54.999Z</time></trkpt><trkpt lat="48.40672342433327" lon="-4.551614632853791"><ele>51.0</ele><time>2026-04-05T14:56:56.999Z</time></trkpt><trkpt lat="48.40681527150022" lon="-4.551618678808841"><ele>52.0</ele><time>2026-04-05T14:56:58.999Z</time></trkpt><trkpt lat="48.4069056923894" lon="-4.551628631264351"><ele>53.0</ele><time>2026-04-05T14:57:00.999Z</time></trkpt><trkpt lat="48.40697729163922" lon="-4.551650609286752"><ele>54.0</ele><time>2026-04-05T14:57:03.999Z</time></trkpt><trkpt lat="48.40707104994206" lon="-4.551691686463958"><ele>54.0</ele><time>2026-04-05T14:57:05.999Z</time></trkpt><trkpt lat="48.40712879029296" lon="-4.551741654920797"><ele>54.0</ele><time>2026-04-05T14:57:07.999Z</time></trkpt><trkpt lat="48.407203846676175" lon="-4.55180000207194"><ele>54.0</ele><time>2026-04-05T14:57:09.999Z</time></trkpt><trkpt lat="48.40725979933578" lon="-4.551862356285927"><ele>54.0</ele><time>2026-04-05T14:57:12.999Z</time></trkpt><trkpt lat="48.407324449206854" lon="-4.551905788003741"><ele>54.0</ele><time>2026-04-05T14:57:14.999Z</time></trkpt><trkpt lat="48.40739242758368" lon="-4.55197632437777"><ele>54.0</ele><time>2026-04-05T14:57:16.999Z</time></trkpt><trkpt lat="48.407449357391926" lon="-4.552027119299457"><ele>54.0</ele><time>2026-04-05T14:57:18.999Z</time></trkpt><trkpt lat="48.40750936173267" lon="-4.5520675272019275"><ele>54.666666666666664</ele><time>2026-04-05T14:57:20.999Z</time></trkpt><trkpt lat="48.4075707503812" lon="-4.5521163238183755"><ele>55.33333333333333</ele><time>2026-04-05T14:57:22.999Z</time></trkpt><trkpt lat="48.4076498973238" lon="-4.552167781411339"><ele>56.0</ele><time>2026-04-05T14:57:24.999Z</time></trkpt><trkpt lat="48.4077186123463" lon="-4.552205217389665"><ele>56.666666666666664</ele><time>2026-04-05T14:57:25.999Z</time></trkpt><trkpt lat="48.40779837062121" lon="-4.552249055439283"><ele>57.33333333333333</ele><time>2026-04-05T14:57:27.999Z</time></trkpt><trkpt lat="48.40788229850213" lon="-4.552287848447123"><ele>58.0</ele><time>2026-04-05T14:57:29.999Z</time></trkpt><trkpt lat="48.40796073054254" lon="-4.5523278881498355"><ele>59.166666666666664</ele><time>2026-04-05T14:57:31.999Z</time></trkpt><trkpt lat="48.40803813696244" lon="-4.552364634331092"><ele>60.33333333333333</ele><time>2026-04-05T14:57:33.999Z</time></trkpt><trkpt lat="48.40812888909561" lon="-4.55240535609771"><ele>61.5</ele><time>2026-04-05T14:57:36.999Z</time></trkpt><trkpt lat="48.40819967792054" lon="-4.55243811619378"><ele>62.66666666666667</ele><time>2026-04-05T14:57:40Z</time></trkpt><trkpt lat="48.408265549805975" lon="-4.552469111143925"><ele>63.833333333333336</ele><time>2026-04-05T14:57:42Z</time></trkpt><trkpt lat="48.40835228633333" lon="-4.552480088488573"><ele>65.0</ele><time>2026-04-05T14:57:45Z</time></trkpt><trkpt lat="48.40841722015988" lon="-4.552514547809891"><ele>65.00000000000001</ele><time>2026-04-05T14:57:47Z</time></trkpt><trkpt lat="48.40848862406677" lon="-4.552535024820476"><ele>65.0</ele><time>2026-04-05T14:57:49Z</time></trkpt><trkpt lat="48.408559247991114" lon="-4.552546206045915"><ele>65.0</ele><time>2026-04-05T14:57:51Z</time></trkpt><trkpt lat="48.40863272988995" lon="-4.5525824179732535"><ele>65.0</ele><time>2026-04-05T14:57:53Z</time></trkpt><trkpt lat="48.40870589738327" lon="-4.552583717063681"><ele>65.0</ele><time>2026-04-05T14:57:56Z</time></trkpt><trkpt lat="48.40878134629662" lon="-4.552610575383769"><ele>65.00000000000001</ele><time>2026-04-05T14:57:58Z</time></trkpt><trkpt lat="48.40884871167788" lon="-4.552623128173086"><ele>65.0</ele><time>2026-04-05T14:58:00Z</time></trkpt><trkpt lat="48.40892826610762" lon="-4.552650027488167"><ele>66.0</ele><time>2026-04-05T14:58:02Z</time></trkpt><trkpt lat="48.409015964964" lon="-4.55265284095649"><ele>67.0</ele><time>2026-04-05T14:58:04Z</time></trkpt><trkpt lat="48.40910624728066" lon="-4.55267547914216"><ele>68.0</ele><time>2026-04-05T14:58:07Z</time></trkpt><trkpt lat="48.409188182241024" lon="-4.552694848256477"><ele>69.0</ele><time>2026-04-05T14:58:09Z</time></trkpt><trkpt lat="48.409296679535714" lon="-4.552727459671417"><ele>70.0</ele><time>2026-04-05T14:58:11Z</time></trkpt><trkpt lat="48.409374848285445" lon="-4.552729734331491"><ele>70.0</ele><time>2026-04-05T14:58:13Z</time></trkpt><trkpt lat="48.409474273323845" lon="-4.552751174592746"><ele>70.0</ele><time>2026-04-05T14:58:16Z</time></trkpt><trkpt lat="48.409574950461995" lon="-4.552807065746655"><ele>70.0</ele><time>2026-04-05T14:58:19Z</time></trkpt><trkpt lat="48.40964907370778" lon="-4.552867863349764"><ele>70.0</ele><time>2026-04-05T14:58:22Z</time></trkpt><trkpt lat="48.409735097430925" lon="-4.552935117945245"><ele>70.0</ele><time>2026-04-05T14:58:24Z</time></trkpt><trkpt lat="48.409792384870904" lon="-4.553007541477793"><ele>71.0</ele><time>2026-04-05T14:58:27Z</time></trkpt><trkpt lat="48.40984995746087" lon="-4.553077219138481"><ele>72.0</ele><time>2026-04-05T14:58:28Z</time></trkpt><trkpt lat="48.409916455564876" lon="-4.553152678854795"><ele>73.0</ele><time>2026-04-05T14:58:30Z</time></trkpt><trkpt lat="48.40998315901451" lon="-4.553261485781259"><ele>74.0</ele><time>2026-04-05T14:58:33Z</time></trkpt><trkpt lat="48.410028977371226" lon="-4.5533357403818435"><ele>75.0</ele><time>2026-04-05T14:58:35Z</time></trkpt><trkpt lat="48.41008636951872" lon="-4.553466600214899"><ele>76.0</ele><time>2026-04-05T14:58:37Z</time></trkpt><trkpt lat="48.410169918575335" lon="-4.553569790398267"><ele>76.0</ele><time>2026-04-05T14:58:38Z</time></trkpt><trkpt lat="48.41020366083097" lon="-4.553686246907427"><ele>76.0</ele><time>2026-04-05T14:58:40Z</time></trkpt><trkpt lat="48.4102400346766" lon="-4.553801657071312"><ele>76.0</ele><time>2026-04-05T14:58:42Z</time></trkpt><trkpt lat="48.41027550265142" lon="-4.553923619316961"><ele>76.0</ele><time>2026-04-05T14:58:44Z</time></trkpt><trkpt lat="48.41029668765692" lon="-4.554050781369742"><ele>76.0</ele><time>2026-04-05T14:58:46Z</time></trkpt><trkpt lat="48.41034527824946" lon="-4.554182826192179"><ele>76.0</ele><time>2026-04-05T14:58:48Z</time></trkpt><trkpt lat="48.41038678803653" lon="-4.554310882854183"><ele>75.8</ele><time>2026-04-05T14:58:50Z</time></trkpt><trkpt lat="48.410416291030785" lon="-4.554445587527781"><ele>75.6</ele><time>2026-04-05T14:58:51.999Z</time></trkpt><trkpt lat="48.41045741856117" lon="-4.55457575522557"><ele>75.4</ele><time>2026-04-05T14:58:53.999Z</time></trkpt><trkpt lat="48.41049437186304" lon="-4.554712518233365"><ele>75.2</ele><time>2026-04-05T14:58:55.999Z</time></trkpt><trkpt lat="48.41050720665224" lon="-4.554848905121605"><ele>75.0</ele><time>2026-04-05T14:58:57.999Z</time></trkpt><trkpt lat="48.41053445403588" lon="-4.554991116732325"><ele>75.0</ele><time>2026-04-05T14:58:59.999Z</time></trkpt><trkpt lat="48.41055072068458" lon="-4.555130911869171"><ele>75.0</ele><time>2026-04-05T14:59:01.999Z</time></trkpt><trkpt lat="48.41057625205395" lon="-4.555273159545761"><ele>75.0</ele><time>2026-04-05T14:59:03.999Z</time></trkpt><trkpt lat="48.410592382453714" lon="-4.555425679126991"><ele>75.0</ele><time>2026-04-05T14:59:05.999Z</time></trkpt><trkpt lat="48.41061338965079" lon="-4.55557839969617"><ele>75.0</ele><time>2026-04-05T14:59:07.999Z</time></trkpt><trkpt lat="48.41063877655447" lon="-4.555726167121479"><ele>75.0</ele><time>2026-04-05T14:59:09.999Z</time></trkpt><trkpt lat="48.410659557691545" lon="-4.55588438186528"><ele>75.0</ele><time>2026-04-05T14:59:11.999Z</time></trkpt><trkpt lat="48.41067895443376" lon="-4.55604575771751"><ele>75.0</ele><time>2026-04-05T14:59:13.999Z</time></trkpt><trkpt lat="48.41070199662118" lon="-4.556208790133214"><ele>75.0</ele><time>2026-04-05T14:59:15.999Z</time></trkpt><trkpt lat="48.41073098034343" lon="-4.556367976992546"><ele>75.0</ele><time>2026-04-05T14:59:17.999Z</time></trkpt><trkpt lat="48.41075655744609" lon="-4.556528295010668"><ele>75.0</ele><time>2026-04-05T14:59:19.999Z</time></trkpt><trkpt lat="48.41078466304362" lon="-4.556689830300741"><ele>75.0</ele><time>2026-04-05T14:59:21.999Z</time></trkpt><trkpt lat="48.41081266083505" lon="-4.556856555777099"><ele>75.0</ele><time>2026-04-05T14:59:23.999Z</time></trkpt><trkpt lat="48.41083992113762" lon="-4.557017215279132"><ele>75.0</ele><time>2026-04-05T14:59:25.999Z</time></trkpt><trkpt lat="48.410880114226934" lon="-4.557179377403069"><ele>75.25</ele><time>2026-04-05T14:59:27.999Z</time></trkpt><trkpt lat="48.41092158506777" lon="-4.5573491333790574"><ele>75.5</ele><time>2026-04-05T14:59:29.999Z</time></trkpt><trkpt lat="48.4109583490447" lon="-4.557520140770628"><ele>75.75</ele><time>2026-04-05T14:59:31.999Z</time></trkpt><trkpt lat="48.410993611061066" lon="-4.557686263648127"><ele>76.0</ele><time>2026-04-05T14:59:33.999Z</time></trkpt><trkpt lat="48.411033882932145" lon="-4.557857147626325"><ele>76.0</ele><time>2026-04-05T14:59:35.999Z</time></trkpt><trkpt lat="48.41107674890058" lon="-4.558017825844596"><ele>76.0</ele><time>2026-04-05T14:59:37.999Z</time></trkpt><trkpt lat="48.41111376345402" lon="-4.558174903406519"><ele>76.0</ele><time>2026-04-05T14:59:39.999Z</time></trkpt><trkpt lat="48.41116049424787" lon="-4.5583315475281285"><ele>76.0</ele><time>2026-04-05T14:59:41.999Z</time></trkpt><trkpt lat="48.41120001511242" lon="-4.5584946409182905"><ele>76.0</ele><time>2026-04-05T14:59:43.999Z</time></trkpt><trkpt lat="48.41123735817103" lon="-4.558654169960667"><ele>76.0</ele><time>2026-04-05T14:59:46Z</time></trkpt><trkpt lat="48.411274507296525" lon="-4.558822286276151"><ele>76.0</ele><time>2026-04-05T14:59:48Z</time></trkpt><trkpt lat="48.41131440298026" lon="-4.558982511335042"><ele>76.0</ele><time>2026-04-05T14:59:50Z</time></trkpt><trkpt lat="48.41135044128549" lon="-4.5591446727924865"><ele>76.33333333333333</ele><time>2026-04-05T14:59:52Z</time></trkpt><trkpt lat="48.411370507741374" lon="-4.559237366525901"><ele>76.66666666666666</ele><time>2026-04-05T14:59:53Z</time></trkpt><trkpt lat="48.41139489098075" lon="-4.5593249282664585"><ele>77.0</ele><time>2026-04-05T14:59:54Z</time></trkpt><trkpt lat="48.411420040377834" lon="-4.559413418520085"><ele>77.33333333333333</ele><time>2026-04-05T14:59:55Z</time></trkpt><trkpt lat="48.41146571546408" lon="-4.5595894174376115"><ele>77.66666666666667</ele><time>2026-04-05T14:59:57Z</time></trkpt><trkpt lat="48.41149600952256" lon="-4.559672937348729"><ele>78.0</ele><time>2026-04-05T14:59:58Z</time></trkpt><trkpt lat="48.4115613296667" lon="-4.559835257187479"><ele>78.2</ele><time>2026-04-05T15:00:00Z</time></trkpt><trkpt lat="48.41163846833241" lon="-4.559973658543549"><ele>78.4</ele><time>2026-04-05T15:00:02Z</time></trkpt><trkpt lat="48.41171346519332" lon="-4.560097169525643"><ele>78.60000000000001</ele><time>2026-04-05T15:00:04Z</time></trkpt><trkpt lat="48.41179251382203" lon="-4.560190948354887"><ele>78.8</ele><time>2026-04-05T15:00:06Z</time></trkpt><trkpt lat="48.411879386922124" lon="-4.560259259667721"><ele>79.0</ele><time>2026-04-05T15:00:08Z</time></trkpt><trkpt lat="48.41197010557291" lon="-4.5602808023007375"><ele>79.00000000000001</ele><time>2026-04-05T15:00:10Z</time></trkpt><trkpt lat="48.412030357061106" lon="-4.560355194634962"><ele>79.0</ele><time>2026-04-05T15:00:13Z</time></trkpt><trkpt lat="48.41208206231229" lon="-4.560433010801874"><ele>79.0</ele><time>2026-04-05T15:00:14Z</time></trkpt><trkpt lat="48.412130981696954" lon="-4.560494867291798"><ele>79.0</ele><time>2026-04-05T15:00:15Z</time></trkpt><trkpt lat="48.412130221489846" lon="-4.560590829891446"><ele>79.0</ele><time>2026-04-05T15:00:17Z</time></trkpt><trkpt lat="48.412076065157144" lon="-4.5606440780241035"><ele>79.00000000000001</ele><time>2026-04-05T15:00:19Z</time></trkpt><trkpt lat="48.41201554544222" lon="-4.560709443369501"><ele>79.0</ele><time>2026-04-05T15:00:22Z</time></trkpt><trkpt lat="48.4119361916463" lon="-4.560737205092026"><ele>79.0</ele><time>2026-04-05T15:00:24Z</time></trkpt><trkpt lat="48.411843466922925" lon="-4.560694744444786"><ele>79.0</ele><time>2026-04-05T15:00:26Z</time></trkpt><trkpt lat="48.411741426828144" lon="-4.560759182216211"><ele>79.0</ele><time>2026-04-05T15:00:28Z</time></trkpt><trkpt lat="48.411737593325064" lon="-4.560905813429246"><ele>79.0</ele><time>2026-04-05T15:00:29Z</time></trkpt><trkpt lat="48.41177221074962" lon="-4.5610653646854304"><ele>79.0</ele><time>2026-04-05T15:00:31Z</time></trkpt><trkpt lat="48.41180425071055" lon="-4.561222852055348"><ele>79.0</ele><time>2026-04-05T15:00:33Z</time></trkpt><trkpt lat="48.411819879061866" lon="-4.561372485358037"><ele>79.0</ele><time>2026-04-05T15:00:35Z</time></trkpt><trkpt lat="48.41186820109146" lon="-4.561543095774855"><ele>79.0</ele><time>2026-04-05T15:00:37Z</time></trkpt><trkpt lat="48.41189362096349" lon="-4.561631959784153"><ele>79.0</ele><time>2026-04-05T15:00:38Z</time></trkpt><trkpt lat="48.411943438062934" lon="-4.5618059805109565"><ele>79.0</ele><time>2026-04-05T15:00:40Z</time></trkpt><trkpt lat="48.41198695829556" lon="-4.561969733571423"><ele>79.0</ele><time>2026-04-05T15:00:42Z</time></trkpt><trkpt lat="48.41203177648032" lon="-4.562133375493465"><ele>79.0</ele><time>2026-04-05T15:00:44Z</time></trkpt><trkpt lat="48.41207294009307" lon="-4.562288764194511"><ele>79.0</ele><time>2026-04-05T15:00:46Z</time></trkpt><trkpt lat="48.4121255755045" lon="-4.562418590542787"><ele>79.0</ele><time>2026-04-05T15:00:48Z</time></trkpt><trkpt lat="48.41217378028804" lon="-4.562553750047011"><ele>79.0</ele><time>2026-04-05T15:00:50Z</time></trkpt><trkpt lat="48.412219179365586" lon="-4.562702627822119"><ele>79.80000000000001</ele><time>2026-04-05T15:00:52Z</time></trkpt><trkpt lat="48.41226781200783" lon="-4.562850112706203"><ele>80.60000000000001</ele><time>2026-04-05T15:00:54Z</time></trkpt><trkpt lat="48.41231976458376" lon="-4.562981966484591"><ele>81.4</ele><time>2026-04-05T15:00:56Z</time></trkpt><trkpt lat="48.412360942326806" lon="-4.563127348430473"><ele>82.2</ele><time>2026-04-05T15:00:57.999Z</time></trkpt><trkpt lat="48.41242066298152" lon="-4.563269555180462"><ele>83.0</ele><time>2026-04-05T15:00:59.999Z</time></trkpt><trkpt lat="48.41247570063354" lon="-4.5634046661684575"><ele>83.0</ele><time>2026-04-05T15:01:01.999Z</time></trkpt><trkpt lat="48.41252705767348" lon="-4.563549342936972"><ele>83.0</ele><time>2026-04-05T15:01:03.999Z</time></trkpt><trkpt lat="48.412575237669536" lon="-4.563695739665885"><ele>83.0</ele><time>2026-04-05T15:01:05.999Z</time></trkpt><trkpt lat="48.41262697134984" lon="-4.563835808107474"><ele>83.0</ele><time>2026-04-05T15:01:07.999Z</time></trkpt><trkpt lat="48.412675473798075" lon="-4.56397674799277"><ele>83.0</ele><time>2026-04-05T15:01:09.999Z</time></trkpt><trkpt lat="48.41272569169777" lon="-4.564122363800938"><ele>83.0</ele><time>2026-04-05T15:01:11.999Z</time></trkpt><trkpt lat="48.41276047076533" lon="-4.564201657341226"><ele>83.0</ele><time>2026-04-05T15:01:12.999Z</time></trkpt><trkpt lat="48.4128047313118" lon="-4.564346101396197"><ele>83.0</ele><time>2026-04-05T15:01:14.999Z</time></trkpt><trkpt lat="48.41285175797962" lon="-4.564497285433848"><ele>83.0</ele><time>2026-04-05T15:01:16.999Z</time></trkpt><trkpt lat="48.41290503599296" lon="-4.564645045013313"><ele>83.0</ele><time>2026-04-05T15:01:18.999Z</time></trkpt><trkpt lat="48.41296083139712" lon="-4.5647982255055135"><ele>83.25</ele><time>2026-04-05T15:01:20.999Z</time></trkpt><trkpt lat="48.413005279483684" lon="-4.56495053347312"><ele>83.5</ele><time>2026-04-05T15:01:22.999Z</time></trkpt><trkpt lat="48.41304976761117" lon="-4.565109559150457"><ele>83.75</ele><time>2026-04-05T15:01:24.999Z</time></trkpt><trkpt lat="48.41309011241374" lon="-4.565271241116641"><ele>84.0</ele><time>2026-04-05T15:01:26.999Z</time></trkpt><trkpt lat="48.4131231760137" lon="-4.565437077275335"><ele>84.25</ele><time>2026-04-05T15:01:28.999Z</time></trkpt><trkpt lat="48.41315023124627" lon="-4.5656123921636125"><ele>84.5</ele><time>2026-04-05T15:01:30.999Z</time></trkpt><trkpt lat="48.4131722241799" lon="-4.565782712918956"><ele>84.75</ele><time>2026-04-05T15:01:32.999Z</time></trkpt><trkpt lat="48.41318155845577" lon="-4.5659606847436285"><ele>85.0</ele><time>2026-04-05T15:01:34.999Z</time></trkpt><trkpt lat="48.413173353785616" lon="-4.56613782047519"><ele>85.25</ele><time>2026-04-05T15:01:36.999Z</time></trkpt><trkpt lat="48.413177048879376" lon="-4.566314211804636"><ele>85.5</ele><time>2026-04-05T15:01:38.999Z</time></trkpt><trkpt lat="48.41319095163687" lon="-4.566484737114863"><ele>85.75</ele><time>2026-04-05T15:01:40.999Z</time></trkpt><trkpt lat="48.41318892380358" lon="-4.566663853709827"><ele>86.0</ele><time>2026-04-05T15:01:42.999Z</time></trkpt><trkpt lat="48.41318084106488" lon="-4.566847848571794"><ele>86.00000000000001</ele><time>2026-04-05T15:01:44.999Z</time></trkpt><trkpt lat="48.41317737981088" lon="-4.5669440533888395"><ele>86.0</ele><time>2026-04-05T15:01:45.999Z</time></trkpt><trkpt lat="48.41316061688937" lon="-4.567037472403675"><ele>86.0</ele><time>2026-04-05T15:01:46.999Z</time></trkpt><trkpt lat="48.41314522967865" lon="-4.567139793242135"><ele>86.0</ele><time>2026-04-05T15:01:47.999Z</time></trkpt><trkpt lat="48.41313161618123" lon="-4.567240665256247"><ele>86.0</ele><time>2026-04-05T15:01:48.999Z</time></trkpt><trkpt lat="48.41312259857603" lon="-4.567348626581143"><ele>86.00000000000001</ele><time>2026-04-05T15:01:49.999Z</time></trkpt><trkpt lat="48.41311330847091" lon="-4.567453157781282"><ele>86.0</ele><time>2026-04-05T15:01:51Z</time></trkpt><trkpt lat="48.4130983912481" lon="-4.567552962239071"><ele>85.85714285714286</ele><time>2026-04-05T15:01:52Z</time></trkpt><trkpt lat="48.41309078087595" lon="-4.5676601227936535"><ele>85.71428571428572</ele><time>2026-04-05T15:01:53Z</time></trkpt><trkpt lat="48.41308124054525" lon="-4.567762630944597"><ele>85.57142857142858</ele><time>2026-04-05T15:01:54Z</time></trkpt><trkpt lat="48.413071865515306" lon="-4.567870364695129"><ele>85.42857142857143</ele><time>2026-04-05T15:01:55Z</time></trkpt><trkpt lat="48.41305973711475" lon="-4.56798498312116"><ele>85.28571428571428</ele><time>2026-04-05T15:01:56Z</time></trkpt><trkpt lat="48.413036220095435" lon="-4.56808242193771"><ele>85.14285714285715</ele><time>2026-04-05T15:01:57Z</time></trkpt><trkpt lat="48.413016719906864" lon="-4.568196775324156"><ele>85.0</ele><time>2026-04-05T15:01:58Z</time></trkpt><trkpt lat="48.412994007319774" lon="-4.568315618450883"><ele>84.16666666666666</ele><time>2026-04-05T15:01:59Z</time></trkpt><trkpt lat="48.412954920037514" lon="-4.568438825223208"><ele>83.33333333333333</ele><time>2026-04-05T15:02:00Z</time></trkpt><trkpt lat="48.41293518653067" lon="-4.568568093073864"><ele>82.5</ele><time>2026-04-05T15:02:01Z</time></trkpt><trkpt lat="48.4128975365499" lon="-4.568685752908348"><ele>81.66666666666667</ele><time>2026-04-05T15:02:02Z</time></trkpt><trkpt lat="48.41285750069814" lon="-4.568805851346548"><ele>80.83333333333334</ele><time>2026-04-05T15:02:03Z</time></trkpt><trkpt lat="48.412815459110284" lon="-4.568919937597985"><ele>80.0</ele><time>2026-04-05T15:02:04Z</time></trkpt><trkpt lat="48.412777584522445" lon="-4.569051743769401"><ele>79.6</ele><time>2026-04-05T15:02:05Z</time></trkpt><trkpt lat="48.41273723369796" lon="-4.569175378941972"><ele>79.2</ele><time>2026-04-05T15:02:06Z</time></trkpt><trkpt lat="48.412695092896286" lon="-4.56931410050193"><ele>78.8</ele><time>2026-04-05T15:02:07Z</time></trkpt><trkpt lat="48.41265920769181" lon="-4.569450765086137"><ele>78.4</ele><time>2026-04-05T15:02:08Z</time></trkpt><trkpt lat="48.41263034602093" lon="-4.569601567631125"><ele>78.0</ele><time>2026-04-05T15:02:09Z</time></trkpt><trkpt lat="48.41261701321267" lon="-4.569775728779975"><ele>77.0</ele><time>2026-04-05T15:02:10Z</time></trkpt><trkpt lat="48.412588373252035" lon="-4.56993477613798"><ele>76.0</ele><time>2026-04-05T15:02:11Z</time></trkpt><trkpt lat="48.412551298339984" lon="-4.570092160618483"><ele>75.0</ele><time>2026-04-05T15:02:12Z</time></trkpt><trkpt lat="48.412528347743596" lon="-4.570261426975602"><ele>74.0</ele><time>2026-04-05T15:02:13Z</time></trkpt><trkpt lat="48.41250532195596" lon="-4.570430006185652"><ele>73.0</ele><time>2026-04-05T15:02:14Z</time></trkpt><trkpt lat="48.41248573918741" lon="-4.570611683384549"><ele>71.75</ele><time>2026-04-05T15:02:15Z</time></trkpt><trkpt lat="48.41246514182927" lon="-4.570786843737159"><ele>70.5</ele><time>2026-04-05T15:02:16Z</time></trkpt><trkpt lat="48.412430723157236" lon="-4.570969011519321"><ele>69.25</ele><time>2026-04-05T15:02:17Z</time></trkpt><trkpt lat="48.412400606223386" lon="-4.571158760282931"><ele>68.0</ele><time>2026-04-05T15:02:18Z</time></trkpt><trkpt lat="48.41237470928641" lon="-4.571351527694214"><ele>67.25</ele><time>2026-04-05T15:02:19Z</time></trkpt><trkpt lat="48.41234664180647" lon="-4.57156024139997"><ele>66.5</ele><time>2026-04-05T15:02:20Z</time></trkpt><trkpt lat="48.41234158481595" lon="-4.571757460449229"><ele>65.75</ele><time>2026-04-05T15:02:21Z</time></trkpt><trkpt lat="48.4123288588032" lon="-4.5719602264475325"><ele>65.0</ele><time>2026-04-05T15:02:22Z</time></trkpt><trkpt lat="48.41231599175071" lon="-4.5721769114449256"><ele>64.25</ele><time>2026-04-05T15:02:23Z</time></trkpt><trkpt lat="48.412302975266236" lon="-4.5723731323214745"><ele>63.5</ele><time>2026-04-05T15:02:24Z</time></trkpt><trkpt lat="48.41230340810511" lon="-4.572572687504258"><ele>62.75</ele><time>2026-04-05T15:02:25Z</time></trkpt><trkpt lat="48.41231251394152" lon="-4.572766740716331"><ele>62.0</ele><time>2026-04-05T15:02:26Z</time></trkpt><trkpt lat="48.41234479973524" lon="-4.572947204527116"><ele>62.0</ele><time>2026-04-05T15:02:27Z</time></trkpt><trkpt lat="48.4123827660733" lon="-4.573118420345237"><ele>62.0</ele><time>2026-04-05T15:02:28Z</time></trkpt><trkpt lat="48.41242595713531" lon="-4.57328024860563"><ele>62.0</ele><time>2026-04-05T15:02:29Z</time></trkpt><trkpt lat="48.41246550800515" lon="-4.573439894816936"><ele>62.0</ele><time>2026-04-05T15:02:30Z</time></trkpt><trkpt lat="48.41250677022444" lon="-4.573588757809295"><ele>62.2</ele><time>2026-04-05T15:02:31Z</time></trkpt><trkpt lat="48.41255255663166" lon="-4.573725024025491"><ele>62.400000000000006</ele><time>2026-04-05T15:02:32Z</time></trkpt><trkpt lat="48.41260157588084" lon="-4.573861862570097"><ele>62.599999999999994</ele><time>2026-04-05T15:02:33Z</time></trkpt><trkpt lat="48.41264902244853" lon="-4.573990473149075"><ele>62.8</ele><time>2026-04-05T15:02:34Z</time></trkpt><trkpt lat="48.412696270176305" lon="-4.574103630178749"><ele>63.0</ele><time>2026-04-05T15:02:35Z</time></trkpt><trkpt lat="48.41274315809914" lon="-4.574208983386789"><ele>63.0</ele><time>2026-04-05T15:02:36Z</time></trkpt><trkpt lat="48.41278879198814" lon="-4.574300454060779"><ele>63.0</ele><time>2026-04-05T15:02:37Z</time></trkpt><trkpt lat="48.41283384638983" lon="-4.574373148641389"><ele>63.0</ele><time>2026-04-05T15:02:38Z</time></trkpt><trkpt lat="48.4128855910006" lon="-4.574448406314509"><ele>63.0</ele><time>2026-04-05T15:02:39Z</time></trkpt><trkpt lat="48.41292698287994" lon="-4.574523984476496"><ele>63.0</ele><time>2026-04-05T15:02:40Z</time></trkpt><trkpt lat="48.41300229819739" lon="-4.574670408641709"><ele>63.0</ele><time>2026-04-05T15:02:42Z</time></trkpt><trkpt lat="48.41306905146757" lon="-4.574807021610874"><ele>63.599999999999994</ele><time>2026-04-05T15:02:44Z</time></trkpt><trkpt lat="48.41312532390964" lon="-4.574954704862949"><ele>64.19999999999999</ele><time>2026-04-05T15:02:46Z</time></trkpt><trkpt lat="48.413177728880235" lon="-4.575093230882684"><ele>64.8</ele><time>2026-04-05T15:02:48Z</time></trkpt><trkpt lat="48.413229987569665" lon="-4.575244138563882"><ele>65.39999999999999</ele><time>2026-04-05T15:02:50Z</time></trkpt><trkpt lat="48.4132757236427" lon="-4.5753831687215625"><ele>66.0</ele><time>2026-04-05T15:02:52Z</time></trkpt><trkpt lat="48.413314131291344" lon="-4.575524008161235"><ele>66.5</ele><time>2026-04-05T15:02:54Z</time></trkpt><trkpt lat="48.41335862399983" lon="-4.5756903374140085"><ele>67.0</ele><time>2026-04-05T15:02:56Z</time></trkpt><trkpt lat="48.413400947253564" lon="-4.575856855480852"><ele>67.5</ele><time>2026-04-05T15:02:58Z</time></trkpt><trkpt lat="48.41343938602581" lon="-4.576022887594445"><ele>68.0</ele><time>2026-04-05T15:02:59.999Z</time></trkpt><trkpt lat="48.41347807955183" lon="-4.576201191130073"><ele>68.0</ele><time>2026-04-05T15:03:01.999Z</time></trkpt><trkpt lat="48.413512462675634" lon="-4.576382391259768"><ele>68.0</ele><time>2026-04-05T15:03:03.999Z</time></trkpt><trkpt lat="48.413521847157774" lon="-4.576480342699629"><ele>68.0</ele><time>2026-04-05T15:03:04.999Z</time></trkpt><trkpt lat="48.41354018976407" lon="-4.576576665307549"><ele>68.0</ele><time>2026-04-05T15:03:05.999Z</time></trkpt><trkpt lat="48.413563167053795" lon="-4.576669216827879"><ele>68.0</ele><time>2026-04-05T15:03:06.999Z</time></trkpt><trkpt lat="48.41358091723788" lon="-4.576760724730873"><ele>68.0</ele><time>2026-04-05T15:03:07.999Z</time></trkpt><trkpt lat="48.41362033380408" lon="-4.576939671956013"><ele>67.71428571428571</ele><time>2026-04-05T15:03:09.999Z</time></trkpt><trkpt lat="48.413645103943516" lon="-4.577029821612173"><ele>67.42857142857143</ele><time>2026-04-05T15:03:10.999Z</time></trkpt><trkpt lat="48.41367022834864" lon="-4.577122620981357"><ele>67.14285714285714</ele><time>2026-04-05T15:03:11.999Z</time></trkpt><trkpt lat="48.41369417189014" lon="-4.577221128062219"><ele>66.85714285714286</ele><time>2026-04-05T15:03:12.999Z</time></trkpt><trkpt lat="48.41371809202014" lon="-4.577319867206092"><ele>66.57142857142857</ele><time>2026-04-05T15:03:13.999Z</time></trkpt><trkpt lat="48.41374461420465" lon="-4.5774176397067965"><ele>66.28571428571428</ele><time>2026-04-05T15:03:14.999Z</time></trkpt><trkpt lat="48.41377161526082" lon="-4.577512999553237"><ele>66.0</ele><time>2026-04-05T15:03:15.999Z</time></trkpt><trkpt lat="48.41379778920847" lon="-4.577615659249757"><ele>65.83333333333333</ele><time>2026-04-05T15:03:16.999Z</time></trkpt><trkpt lat="48.41384212127604" lon="-4.5777123994342945"><ele>65.66666666666667</ele><time>2026-04-05T15:03:17.999Z</time></trkpt><trkpt lat="48.41387112024451" lon="-4.577818797168037"><ele>65.5</ele><time>2026-04-05T15:03:18.999Z</time></trkpt><trkpt lat="48.413901092791335" lon="-4.577928767337934"><ele>65.33333333333334</ele><time>2026-04-05T15:03:19.999Z</time></trkpt><trkpt lat="48.413917400650554" lon="-4.57804571042504"><ele>65.16666666666667</ele><time>2026-04-05T15:03:20.999Z</time></trkpt><trkpt lat="48.41394575866017" lon="-4.578150846085059"><ele>65.0</ele><time>2026-04-05T15:03:21.999Z</time></trkpt><trkpt lat="48.41397735449409" lon="-4.578254424585483"><ele>65.0</ele><time>2026-04-05T15:03:22.999Z</time></trkpt><trkpt lat="48.414005066950935" lon="-4.578363419684172"><ele>65.0</ele><time>2026-04-05T15:03:23.999Z</time></trkpt><trkpt lat="48.41403888312784" lon="-4.57846809374355"><ele>65.0</ele><time>2026-04-05T15:03:24.999Z</time></trkpt><trkpt lat="48.414070950952905" lon="-4.578560896084258"><ele>65.0</ele><time>2026-04-05T15:03:25.999Z</time></trkpt><trkpt lat="48.41410494577425" lon="-4.578655891572235"><ele>65.0</ele><time>2026-04-05T15:03:26.999Z</time></trkpt><trkpt lat="48.414144391875126" lon="-4.578753538194479"><ele>65.0</ele><time>2026-04-05T15:03:27.999Z</time></trkpt><trkpt lat="48.41418519298939" lon="-4.578862512263554"><ele>64.83333333333334</ele><time>2026-04-05T15:03:28.999Z</time></trkpt><trkpt lat="48.41422585075517" lon="-4.5789706884541275"><ele>64.66666666666667</ele><time>2026-04-05T15:03:29.999Z</time></trkpt><trkpt lat="48.41425767970251" lon="-4.5790799978223635"><ele>64.5</ele><time>2026-04-05T15:03:30.999Z</time></trkpt><trkpt lat="48.4142886125659" lon="-4.579197388831"><ele>64.33333333333333</ele><time>2026-04-05T15:03:31.999Z</time></trkpt><trkpt lat="48.41433980462961" lon="-4.579314313958245"><ele>64.16666666666666</ele><time>2026-04-05T15:03:32.999Z</time></trkpt><trkpt lat="48.4143765563679" lon="-4.579445927605038"><ele>64.0</ele><time>2026-04-05T15:03:33.999Z</time></trkpt><trkpt lat="48.414397159929635" lon="-4.579589706626539"><ele>63.2</ele><time>2026-04-05T15:03:34.999Z</time></trkpt><trkpt lat="48.41444419726511" lon="-4.579724023016414"><ele>62.400000000000006</ele><time>2026-04-05T15:03:35.999Z</time></trkpt><trkpt lat="48.414457126641864" lon="-4.579879237693017"><ele>61.6</ele><time>2026-04-05T15:03:36.999Z</time></trkpt><trkpt lat="48.41446875422663" lon="-4.580035794435319"><ele>60.8</ele><time>2026-04-05T15:03:37.999Z</time></trkpt><trkpt lat="48.41447951774046" lon="-4.580189496416514"><ele>60.0</ele><time>2026-04-05T15:03:38.999Z</time></trkpt><trkpt lat="48.41449391146975" lon="-4.580344558490055"><ele>58.8</ele><time>2026-04-05T15:03:39.999Z</time></trkpt><trkpt lat="48.41449691979503" lon="-4.580489839622189"><ele>57.6</ele><time>2026-04-05T15:03:40.999Z</time></trkpt><trkpt lat="48.41450350921783" lon="-4.580626398401234"><ele>56.400000000000006</ele><time>2026-04-05T15:03:41.999Z</time></trkpt><trkpt lat="48.414516910880046" lon="-4.580764980830955"><ele>55.2</ele><time>2026-04-05T15:03:42.999Z</time></trkpt><trkpt lat="48.41453180941281" lon="-4.580905629509153"><ele>54.0</ele><time>2026-04-05T15:03:43.999Z</time></trkpt><trkpt lat="48.41454883631556" lon="-4.58104618366015"><ele>53.2</ele><time>2026-04-05T15:03:44.999Z</time></trkpt><trkpt lat="48.41456591750636" lon="-4.581202218057196"><ele>52.400000000000006</ele><time>2026-04-05T15:03:45.999Z</time></trkpt><trkpt lat="48.41458031320326" lon="-4.581365496680947"><ele>51.6</ele><time>2026-04-05T15:03:46.999Z</time></trkpt><trkpt lat="48.414590559868245" lon="-4.581529872124412"><ele>50.8</ele><time>2026-04-05T15:03:47.999Z</time></trkpt><trkpt lat="48.414601622838966" lon="-4.581695900323466"><ele>50.0</ele><time>2026-04-05T15:03:48.999Z</time></trkpt><trkpt lat="48.41463084043134" lon="-4.5818560387965475"><ele>49.6</ele><time>2026-04-05T15:03:49.999Z</time></trkpt><trkpt lat="48.41462687294149" lon="-4.582020820676472"><ele>49.2</ele><time>2026-04-05T15:03:50.999Z</time></trkpt><trkpt lat="48.414638774658776" lon="-4.582178495028293"><ele>48.8</ele><time>2026-04-05T15:03:51.999Z</time></trkpt><trkpt lat="48.414648203132195" lon="-4.582334411207677"><ele>48.4</ele><time>2026-04-05T15:03:52.999Z</time></trkpt><trkpt lat="48.41465542542567" lon="-4.582496439958901"><ele>48.0</ele><time>2026-04-05T15:03:53.999Z</time></trkpt><trkpt lat="48.4146579179201" lon="-4.5826585567380205"><ele>47.8</ele><time>2026-04-05T15:03:54.999Z</time></trkpt><trkpt lat="48.41465261435935" lon="-4.582809905487578"><ele>47.599999999999994</ele><time>2026-04-05T15:03:55.999Z</time></trkpt><trkpt lat="48.414646019996084" lon="-4.58296907125681"><ele>47.400000000000006</ele><time>2026-04-05T15:03:57Z</time></trkpt><trkpt lat="48.41464577627639" lon="-4.583124525647615"><ele>47.2</ele><time>2026-04-05T15:03:58Z</time></trkpt><trkpt lat="48.414643062140634" lon="-4.583274890273881"><ele>47.0</ele><time>2026-04-05T15:03:59Z</time></trkpt><trkpt lat="48.4146558179452" lon="-4.583423511379814"><ele>47.0</ele><time>2026-04-05T15:04:00Z</time></trkpt><trkpt lat="48.41465464318907" lon="-4.583567608517013"><ele>47.0</ele><time>2026-04-05T15:04:01Z</time></trkpt><trkpt lat="48.41465216694137" lon="-4.5837177989578475"><ele>47.0</ele><time>2026-04-05T15:04:02Z</time></trkpt><trkpt lat="48.41464848974263" lon="-4.583849051081976"><ele>47.0</ele><time>2026-04-05T15:04:03Z</time></trkpt><trkpt lat="48.41463048232356" lon="-4.583988343593283"><ele>47.0</ele><time>2026-04-05T15:04:04Z</time></trkpt><trkpt lat="48.4146282858216" lon="-4.584126399093846"><ele>46.33333333333333</ele><time>2026-04-05T15:04:05Z</time></trkpt><trkpt lat="48.41461328208471" lon="-4.584259292236299"><ele>45.666666666666664</ele><time>2026-04-05T15:04:06Z</time></trkpt><trkpt lat="48.41459152532091" lon="-4.584382954166462"><ele>45.0</ele><time>2026-04-05T15:04:07Z</time></trkpt><trkpt lat="48.41457814645452" lon="-4.584509469626611"><ele>44.333333333333336</ele><time>2026-04-05T15:04:08Z</time></trkpt><trkpt lat="48.41456469887482" lon="-4.584629676881923"><ele>43.66666666666667</ele><time>2026-04-05T15:04:09Z</time></trkpt><trkpt lat="48.41455209965495" lon="-4.584743775032894"><ele>43.0</ele><time>2026-04-05T15:04:10Z</time></trkpt><trkpt lat="48.41453883819276" lon="-4.584854783649175"><ele>43.00000000000001</ele><time>2026-04-05T15:04:11Z</time></trkpt><trkpt lat="48.41452509574807" lon="-4.584966513461378"><ele>43.0</ele><time>2026-04-05T15:04:12Z</time></trkpt><trkpt lat="48.414510709704174" lon="-4.585073807778004"><ele>43.0</ele><time>2026-04-05T15:04:13Z</time></trkpt><trkpt lat="48.414498847953155" lon="-4.585183324161039"><ele>43.0</ele><time>2026-04-05T15:04:14Z</time></trkpt><trkpt lat="48.41448886248171" lon="-4.58530197712452"><ele>43.0</ele><time>2026-04-05T15:04:15Z</time></trkpt><trkpt lat="48.41448165096262" lon="-4.5854117506750525"><ele>43.00000000000001</ele><time>2026-04-05T15:04:16Z</time></trkpt><trkpt lat="48.41447101680985" lon="-4.5855236587513"><ele>43.0</ele><time>2026-04-05T15:04:17Z</time></trkpt><trkpt lat="48.414454297066044" lon="-4.585632462079137"><ele>43.00000000000001</ele><time>2026-04-05T15:04:18Z</time></trkpt><trkpt lat="48.41443841844262" lon="-4.585737215936369"><ele>43.0</ele><time>2026-04-05T15:04:19Z</time></trkpt><trkpt lat="48.41442916587959" lon="-4.585841430707983"><ele>43.0</ele><time>2026-04-05T15:04:20Z</time></trkpt><trkpt lat="48.41442122706661" lon="-4.585951403001347"><ele>43.0</ele><time>2026-04-05T15:04:21Z</time></trkpt><trkpt lat="48.41440966686303" lon="-4.586053411185087"><ele>43.0</ele><time>2026-04-05T15:04:22Z</time></trkpt><trkpt lat="48.41440911175419" lon="-4.586162243734653"><ele>43.00000000000001</ele><time>2026-04-05T15:04:23Z</time></trkpt><trkpt lat="48.414406957916746" lon="-4.586267474995961"><ele>43.0</ele><time>2026-04-05T15:04:24Z</time></trkpt><trkpt lat="48.414406581321884" lon="-4.586375179938375"><ele>43.142857142857146</ele><time>2026-04-05T15:04:25Z</time></trkpt><trkpt lat="48.41440020958648" lon="-4.5864803618278165"><ele>43.285714285714285</ele><time>2026-04-05T15:04:26Z</time></trkpt><trkpt lat="48.41439654354497" lon="-4.586583164167221"><ele>43.42857142857143</ele><time>2026-04-05T15:04:27Z</time></trkpt><trkpt lat="48.414391217258036" lon="-4.586689910868621"><ele>43.57142857142857</ele><time>2026-04-05T15:04:28Z</time></trkpt><trkpt lat="48.41439876626412" lon="-4.586787322211443"><ele>43.714285714285715</ele><time>2026-04-05T15:04:29Z</time></trkpt><trkpt lat="48.414403703712104" lon="-4.586882303574769"><ele>43.85714285714286</ele><time>2026-04-05T15:04:30Z</time></trkpt><trkpt lat="48.41440689951816" lon="-4.586986430858837"><ele>44.0</ele><time>2026-04-05T15:04:31Z</time></trkpt><trkpt lat="48.41440528462777" lon="-4.5870892508378125"><ele>44.0</ele><time>2026-04-05T15:04:32Z</time></trkpt><trkpt lat="48.41440128234872" lon="-4.587184077223546"><ele>44.0</ele><time>2026-04-05T15:04:33Z</time></trkpt><trkpt lat="48.4144004553958" lon="-4.5872902838959195"><ele>44.0</ele><time>2026-04-05T15:04:34Z</time></trkpt><trkpt lat="48.414384500587474" lon="-4.5873922453305545"><ele>44.0</ele><time>2026-04-05T15:04:35Z</time></trkpt><trkpt lat="48.41437449376882" lon="-4.587489627823778"><ele>44.0</ele><time>2026-04-05T15:04:36Z</time></trkpt><trkpt lat="48.41436417963315" lon="-4.587590114001469"><ele>44.0</ele><time>2026-04-05T15:04:37Z</time></trkpt><trkpt lat="48.414358020470914" lon="-4.587685974770469"><ele>44.0</ele><time>2026-04-05T15:04:38Z</time></trkpt><trkpt lat="48.41434456042164" lon="-4.587878739799752"><ele>44.2</ele><time>2026-04-05T15:04:40Z</time></trkpt><trkpt lat="48.41433464729123" lon="-4.588056370189385"><ele>44.400000000000006</ele><time>2026-04-05T15:04:42Z</time></trkpt><trkpt lat="48.414315068415355" lon="-4.588231570627063"><ele>44.6</ele><time>2026-04-05T15:04:44Z</time></trkpt><trkpt lat="48.41430460040696" lon="-4.588338481744957"><ele>44.8</ele><time>2026-04-05T15:04:45Z</time></trkpt><trkpt lat="48.41428914348309" lon="-4.588464758790547"><ele>45.0</ele><time>2026-04-05T15:04:46Z</time></trkpt><trkpt lat="48.41427921411988" lon="-4.588581786033651"><ele>44.833333333333336</ele><time>2026-04-05T15:04:47Z</time></trkpt><trkpt lat="48.414261465748446" lon="-4.588696156091973"><ele>44.666666666666664</ele><time>2026-04-05T15:04:48Z</time></trkpt><trkpt lat="48.41425067091863" lon="-4.58881650131487"><ele>44.5</ele><time>2026-04-05T15:04:49Z</time></trkpt><trkpt lat="48.414241846431324" lon="-4.5889336400444645"><ele>44.33333333333333</ele><time>2026-04-05T15:04:50Z</time></trkpt><trkpt lat="48.41423575369118" lon="-4.589067922067329"><ele>44.166666666666664</ele><time>2026-04-05T15:04:51Z</time></trkpt><trkpt lat="48.41421998858248" lon="-4.589202333776443"><ele>44.0</ele><time>2026-04-05T15:04:52Z</time></trkpt><trkpt lat="48.41420685097826" lon="-4.5893297273067555"><ele>44.0</ele><time>2026-04-05T15:04:53Z</time></trkpt><trkpt lat="48.41419724694456" lon="-4.589458245491512"><ele>44.0</ele><time>2026-04-05T15:04:54Z</time></trkpt><trkpt lat="48.41418677332809" lon="-4.5895959615782065"><ele>44.0</ele><time>2026-04-05T15:04:55Z</time></trkpt><trkpt lat="48.414172632681606" lon="-4.589734409281092"><ele>44.0</ele><time>2026-04-05T15:04:56Z</time></trkpt><trkpt lat="48.414157010752966" lon="-4.589863040227002"><ele>44.0</ele><time>2026-04-05T15:04:57Z</time></trkpt><trkpt lat="48.41414475286196" lon="-4.590003597417266"><ele>43.400000000000006</ele><time>2026-04-05T15:04:58Z</time></trkpt><trkpt lat="48.41413731423238" lon="-4.590141903605038"><ele>42.8</ele><time>2026-04-05T15:04:59Z</time></trkpt><trkpt lat="48.41412743321915" lon="-4.590272954448757"><ele>42.2</ele><time>2026-04-05T15:05:00Z</time></trkpt><trkpt lat="48.41411629867656" lon="-4.5904077531135945"><ele>41.599999999999994</ele><time>2026-04-05T15:05:01Z</time></trkpt><trkpt lat="48.41410197809371" lon="-4.590556190991765"><ele>41.0</ele><time>2026-04-05T15:05:02Z</time></trkpt><trkpt lat="48.41408557587742" lon="-4.590685697046282"><ele>40.599999999999994</ele><time>2026-04-05T15:05:03Z</time></trkpt><trkpt lat="48.41407595019231" lon="-4.590811741089757"><ele>40.199999999999996</ele><time>2026-04-05T15:05:04Z</time></trkpt><trkpt lat="48.4140561529513" lon="-4.590949201993232"><ele>39.8</ele><time>2026-04-05T15:05:05Z</time></trkpt><trkpt lat="48.41404060206671" lon="-4.591093714441769"><ele>39.4</ele><time>2026-04-05T15:05:06Z</time></trkpt><trkpt lat="48.41402641335724" lon="-4.591235928425548"><ele>39.0</ele><time>2026-04-05T15:05:07Z</time></trkpt><trkpt lat="48.41401180799706" lon="-4.591375051970617"><ele>38.8</ele><time>2026-04-05T15:05:07.999Z</time></trkpt><trkpt lat="48.41400394601436" lon="-4.5915058012512695"><ele>38.599999999999994</ele><time>2026-04-05T15:05:08.999Z</time></trkpt><trkpt lat="48.41399247313393" lon="-4.591643467442655"><ele>38.4</ele><time>2026-04-05T15:05:09.999Z</time></trkpt><trkpt lat="48.4139938197411" lon="-4.591782064121548"><ele>38.199999999999996</ele><time>2026-04-05T15:05:10.999Z</time></trkpt><trkpt lat="48.414001337072186" lon="-4.591917194229775"><ele>38.0</ele><time>2026-04-05T15:05:11.999Z</time></trkpt><trkpt lat="48.41401563996812" lon="-4.592049138419311"><ele>38.0</ele><time>2026-04-05T15:05:12.999Z</time></trkpt><trkpt lat="48.41404089445028" lon="-4.592170155299813"><ele>38.0</ele><time>2026-04-05T15:05:13.999Z</time></trkpt><trkpt lat="48.41407012544331" lon="-4.592284920349993"><ele>38.0</ele><time>2026-04-05T15:05:14.999Z</time></trkpt><trkpt lat="48.41410555143811" lon="-4.592396368305029"><ele>38.0</ele><time>2026-04-05T15:05:15.999Z</time></trkpt><trkpt lat="48.41415108835151" lon="-4.592506571733984"><ele>38.0</ele><time>2026-04-05T15:05:16.999Z</time></trkpt><trkpt lat="48.414197315133386" lon="-4.592611465405371"><ele>38.0</ele><time>2026-04-05T15:05:17.999Z</time></trkpt><trkpt lat="48.41423747942521" lon="-4.592715205318843"><ele>38.0</ele><time>2026-04-05T15:05:18.999Z</time></trkpt><trkpt lat="48.41429454726263" lon="-4.592803219574998"><ele>38.0</ele><time>2026-04-05T15:05:19.999Z</time></trkpt><trkpt lat="48.41435024660072" lon="-4.592891155151211"><ele>38.0</ele><time>2026-04-05T15:05:20.999Z</time></trkpt><trkpt lat="48.41441132357538" lon="-4.592974051767302"><ele>38.0</ele><time>2026-04-05T15:05:21.999Z</time></trkpt><trkpt lat="48.4144685893846" lon="-4.593045906340885"><ele>38.0</ele><time>2026-04-05T15:05:22.999Z</time></trkpt><trkpt lat="48.41453308138649" lon="-4.593111391515471"><ele>38.0</ele><time>2026-04-05T15:05:23.999Z</time></trkpt><trkpt lat="48.41459570990962" lon="-4.593179237485338"><ele>38.166666666666664</ele><time>2026-04-05T15:05:24.999Z</time></trkpt><trkpt lat="48.41466212359367" lon="-4.593239079349081"><ele>38.33333333333333</ele><time>2026-04-05T15:05:25.999Z</time></trkpt><trkpt lat="48.41472892668863" lon="-4.593304379131806"><ele>38.5</ele><time>2026-04-05T15:05:26.999Z</time></trkpt><trkpt lat="48.41479458202137" lon="-4.593367567581881"><ele>38.666666666666664</ele><time>2026-04-05T15:05:27.999Z</time></trkpt><trkpt lat="48.414861068184194" lon="-4.593428596203312"><ele>38.833333333333336</ele><time>2026-04-05T15:05:28.999Z</time></trkpt><trkpt lat="48.414925641403975" lon="-4.593492695148302"><ele>39.0</ele><time>2026-04-05T15:05:29.999Z</time></trkpt><trkpt lat="48.4149884633399" lon="-4.593560320013611"><ele>39.0</ele><time>2026-04-05T15:05:30.999Z</time></trkpt><trkpt lat="48.41505239233249" lon="-4.593626190746263"><ele>39.0</ele><time>2026-04-05T15:05:31.999Z</time></trkpt><trkpt lat="48.41511180521563" lon="-4.593693822559171"><ele>39.0</ele><time>2026-04-05T15:05:32.999Z</time></trkpt><trkpt lat="48.41517305107378" lon="-4.593763806746092"><ele>39.0</ele><time>2026-04-05T15:05:33.999Z</time></trkpt><trkpt lat="48.41522649727925" lon="-4.593839316580552"><ele>39.0</ele><time>2026-04-05T15:05:34.999Z</time></trkpt><trkpt lat="48.41527224394817" lon="-4.593923653125408"><ele>39.0</ele><time>2026-04-05T15:05:35.999Z</time></trkpt><trkpt lat="48.415309558799834" lon="-4.594007773659248"><ele>39.0</ele><time>2026-04-05T15:05:36.999Z</time></trkpt><trkpt lat="48.41534754022879" lon="-4.594094857457071"><ele>39.0</ele><time>2026-04-05T15:05:37.999Z</time></trkpt><trkpt lat="48.41538540722935" lon="-4.594181278205431"><ele>39.0</ele><time>2026-04-05T15:05:38.999Z</time></trkpt><trkpt lat="48.41542551761407" lon="-4.59426668905322"><ele>39.0</ele><time>2026-04-05T15:05:39.999Z</time></trkpt><trkpt lat="48.41546326190584" lon="-4.594342785233527"><ele>39.0</ele><time>2026-04-05T15:05:40.999Z</time></trkpt><trkpt lat="48.4155188758025" lon="-4.594505841647239"><ele>39.0</ele><time>2026-04-05T15:05:42.999Z</time></trkpt><trkpt lat="48.4155538804416" lon="-4.594662886953498"><ele>39.0</ele><time>2026-04-05T15:05:44.999Z</time></trkpt><trkpt lat="48.41558260429377" lon="-4.594795487640796"><ele>39.0</ele><time>2026-04-05T15:05:46.999Z</time></trkpt><trkpt lat="48.415605275501484" lon="-4.594946615998369"><ele>39.0</ele><time>2026-04-05T15:05:48.999Z</time></trkpt><trkpt lat="48.41563239529651" lon="-4.595061410318975"><ele>39.0</ele><time>2026-04-05T15:05:51.999Z</time></trkpt><trkpt lat="48.41563595356171" lon="-4.5951597212885185"><ele>39.0</ele><time>2026-04-05T15:05:53.999Z</time></trkpt><trkpt lat="48.415671801372724" lon="-4.5954860546208085"><ele>39.0</ele><time>2026-04-05T15:05:55.999Z</time></trkpt><trkpt lat="48.41566683744725" lon="-4.595634421032664"><ele>39.0</ele><time>2026-04-05T15:05:57.999Z</time></trkpt><trkpt lat="48.4156737181623" lon="-4.595780865523223"><ele>39.0</ele><time>2026-04-05T15:05:59.999Z</time></trkpt><trkpt lat="48.41567599544358" lon="-4.595931857954418"><ele>39.0</ele><time>2026-04-05T15:06:01.999Z</time></trkpt><trkpt lat="48.415672560463236" lon="-4.596090346395429"><ele>39.0</ele><time>2026-04-05T15:06:04Z</time></trkpt><trkpt lat="48.41567974341956" lon="-4.596247483963743"><ele>39.0</ele><time>2026-04-05T15:06:06Z</time></trkpt><trkpt lat="48.415665207001915" lon="-4.596402101261009"><ele>39.0</ele><time>2026-04-05T15:06:08Z</time></trkpt><trkpt lat="48.41567073922773" lon="-4.596554502567543"><ele>39.0</ele><time>2026-04-05T15:06:10Z</time></trkpt><trkpt lat="48.415661077215596" lon="-4.596703890348912"><ele>39.0</ele><time>2026-04-05T15:06:12Z</time></trkpt><trkpt lat="48.41564722945556" lon="-4.596842196295616"><ele>39.0</ele><time>2026-04-05T15:06:14Z</time></trkpt><trkpt lat="48.41563162087606" lon="-4.596996269605995"><ele>39.0</ele><time>2026-04-05T15:06:16Z</time></trkpt><trkpt lat="48.415610956871646" lon="-4.597148057569089"><ele>39.0</ele><time>2026-04-05T15:06:18Z</time></trkpt><trkpt lat="48.41558506117757" lon="-4.5973019540012725"><ele>39.0</ele><time>2026-04-05T15:06:20Z</time></trkpt><trkpt lat="48.415554775605294" lon="-4.597441756835424"><ele>39.0</ele><time>2026-04-05T15:06:22Z</time></trkpt><trkpt lat="48.41552205220498" lon="-4.597579522708929"><ele>39.0</ele><time>2026-04-05T15:06:24Z</time></trkpt><trkpt lat="48.415486499069" lon="-4.59771805172107"><ele>39.5</ele><time>2026-04-05T15:06:26Z</time></trkpt><trkpt lat="48.4154518836457" lon="-4.597848413057386"><ele>40.0</ele><time>2026-04-05T15:06:28Z</time></trkpt><trkpt lat="48.415417427536994" lon="-4.597974946320924"><ele>40.5</ele><time>2026-04-05T15:06:30Z</time></trkpt><trkpt lat="48.41535930375072" lon="-4.598088344016655"><ele>41.0</ele><time>2026-04-05T15:06:32Z</time></trkpt><trkpt lat="48.415328011611756" lon="-4.598213482160198"><ele>41.5</ele><time>2026-04-05T15:06:34Z</time></trkpt><trkpt lat="48.41530373337174" lon="-4.598330972487872"><ele>42.0</ele><time>2026-04-05T15:06:36Z</time></trkpt><trkpt lat="48.41527797423681" lon="-4.598442412175425"><ele>42.0</ele><time>2026-04-05T15:06:38Z</time></trkpt><trkpt lat="48.41525198136614" lon="-4.59855586818119"><ele>42.0</ele><time>2026-04-05T15:06:40Z</time></trkpt><trkpt lat="48.415226474949044" lon="-4.598649181930278"><ele>42.0</ele><time>2026-04-05T15:06:44Z</time></trkpt><trkpt lat="48.415118437615604" lon="-4.5986766077772625"><ele>42.0</ele><time>2026-04-05T15:06:47Z</time></trkpt><trkpt lat="48.41504342378042" lon="-4.598593920178733"><ele>42.0</ele><time>2026-04-05T15:06:49Z</time></trkpt><trkpt lat="48.41496419425767" lon="-4.59851699401442"><ele>42.0</ele><time>2026-04-05T15:06:51Z</time></trkpt><trkpt lat="48.41487187716094" lon="-4.598455129652759"><ele>42.0</ele><time>2026-04-05T15:06:53Z</time></trkpt><trkpt lat="48.4147815226907" lon="-4.598369927088253"><ele>42.0</ele><time>2026-04-05T15:06:55Z</time></trkpt><trkpt lat="48.41468186175404" lon="-4.598281709124328"><ele>42.0</ele><time>2026-04-05T15:06:57Z</time></trkpt><trkpt lat="48.41457779458489" lon="-4.598198960759526"><ele>42.0</ele><time>2026-04-05T15:06:59Z</time></trkpt><trkpt lat="48.414477095341226" lon="-4.598116846354116"><ele>42.5</ele><time>2026-04-05T15:07:01Z</time></trkpt><trkpt lat="48.414374457764644" lon="-4.598028965316331"><ele>43.0</ele><time>2026-04-05T15:07:03Z</time></trkpt><trkpt lat="48.41427049167351" lon="-4.597937786114516"><ele>43.5</ele><time>2026-04-05T15:07:05Z</time></trkpt><trkpt lat="48.41416532081774" lon="-4.597844326457422"><ele>44.0</ele><time>2026-04-05T15:07:07Z</time></trkpt><trkpt lat="48.41405930827616" lon="-4.59776220832687"><ele>43.800000000000004</ele><time>2026-04-05T15:07:09Z</time></trkpt><trkpt lat="48.41395611999067" lon="-4.597669815890264"><ele>43.6</ele><time>2026-04-05T15:07:11Z</time></trkpt><trkpt lat="48.413845126233" lon="-4.597590555228407"><ele>43.4</ele><time>2026-04-05T15:07:13Z</time></trkpt><trkpt lat="48.413732949370925" lon="-4.597491236436901"><ele>43.2</ele><time>2026-04-05T15:07:14.999Z</time></trkpt><trkpt lat="48.41367530425889" lon="-4.597441098321366"><ele>43.0</ele><time>2026-04-05T15:07:15.999Z</time></trkpt><trkpt lat="48.41361462774182" lon="-4.5973932130752635"><ele>43.00000000000001</ele><time>2026-04-05T15:07:16.999Z</time></trkpt><trkpt lat="48.41355440387572" lon="-4.597349541733554"><ele>43.0</ele><time>2026-04-05T15:07:17.999Z</time></trkpt><trkpt lat="48.4134954206891" lon="-4.597303176725577"><ele>43.0</ele><time>2026-04-05T15:07:18.999Z</time></trkpt><trkpt lat="48.41343515118079" lon="-4.59725885099461"><ele>43.0</ele><time>2026-04-05T15:07:19.999Z</time></trkpt><trkpt lat="48.41337361842997" lon="-4.597213871829265"><ele>43.0</ele><time>2026-04-05T15:07:20.999Z</time></trkpt><trkpt lat="48.41331258147655" lon="-4.59716487875208"><ele>43.00000000000001</ele><time>2026-04-05T15:07:21.999Z</time></trkpt><trkpt lat="48.41324855644152" lon="-4.597116619086128"><ele>43.0</ele><time>2026-04-05T15:07:22.999Z</time></trkpt><trkpt lat="48.41318567841584" lon="-4.597078348203969"><ele>43.00000000000001</ele><time>2026-04-05T15:07:23.999Z</time></trkpt><trkpt lat="48.413121784145936" lon="-4.597028399597003"><ele>43.0</ele><time>2026-04-05T15:07:24.999Z</time></trkpt><trkpt lat="48.413049751354635" lon="-4.597001001315102"><ele>43.0</ele><time>2026-04-05T15:07:25.999Z</time></trkpt><trkpt lat="48.412994269529285" lon="-4.596936602272204"><ele>43.0</ele><time>2026-04-05T15:07:26.999Z</time></trkpt><trkpt lat="48.41292832827012" lon="-4.596891479348537"><ele>43.0</ele><time>2026-04-05T15:07:27.999Z</time></trkpt><trkpt lat="48.41286549683675" lon="-4.596844524556063"><ele>43.00000000000001</ele><time>2026-04-05T15:07:28.999Z</time></trkpt><trkpt lat="48.412802026475525" lon="-4.5967889546677965"><ele>43.0</ele><time>2026-04-05T15:07:29.999Z</time></trkpt><trkpt lat="48.412737747341964" lon="-4.596751813692774"><ele>43.28571428571429</ele><time>2026-04-05T15:07:30.999Z</time></trkpt><trkpt lat="48.41267486121093" lon="-4.596697497965439"><ele>43.57142857142857</ele><time>2026-04-05T15:07:31.999Z</time></trkpt><trkpt lat="48.41261152794401" lon="-4.596648029112061"><ele>43.85714285714286</ele><time>2026-04-05T15:07:32.999Z</time></trkpt><trkpt lat="48.41254643787529" lon="-4.596616585721822"><ele>44.142857142857146</ele><time>2026-04-05T15:07:33.999Z</time></trkpt><trkpt lat="48.41248926676584" lon="-4.59654703660838"><ele>44.42857142857143</ele><time>2026-04-05T15:07:34.999Z</time></trkpt><trkpt lat="48.412423782729235" lon="-4.5965118387213595"><ele>44.714285714285715</ele><time>2026-04-05T15:07:35.999Z</time></trkpt><trkpt lat="48.41236015949045" lon="-4.596465981824479"><ele>45.0</ele><time>2026-04-05T15:07:36.999Z</time></trkpt><trkpt lat="48.41229982198237" lon="-4.596412160736452"><ele>45.0</ele><time>2026-04-05T15:07:37.999Z</time></trkpt><trkpt lat="48.41223827140438" lon="-4.596357399058609"><ele>45.0</ele><time>2026-04-05T15:07:38.999Z</time></trkpt><trkpt lat="48.41216636235966" lon="-4.596326627651855"><ele>45.0</ele><time>2026-04-05T15:07:39.999Z</time></trkpt><trkpt lat="48.41210322705776" lon="-4.596279703789086"><ele>45.0</ele><time>2026-04-05T15:07:40.999Z</time></trkpt><trkpt lat="48.412050012500906" lon="-4.59621333878164"><ele>45.0</ele><time>2026-04-05T15:07:41.999Z</time></trkpt><trkpt lat="48.411986844673415" lon="-4.596173226958646"><ele>45.0</ele><time>2026-04-05T15:07:42.999Z</time></trkpt><trkpt lat="48.41192519274348" lon="-4.596127971236842"><ele>45.0</ele><time>2026-04-05T15:07:43.999Z</time></trkpt><trkpt lat="48.41185817187503" lon="-4.5961018355751335"><ele>44.857142857142854</ele><time>2026-04-05T15:07:44.999Z</time></trkpt><trkpt lat="48.411794442758016" lon="-4.596056720029742"><ele>44.714285714285715</ele><time>2026-04-05T15:07:45.999Z</time></trkpt><trkpt lat="48.4117336230306" lon="-4.596014164061098"><ele>44.57142857142857</ele><time>2026-04-05T15:07:46.999Z</time></trkpt><trkpt lat="48.41167152425302" lon="-4.595971055031976"><ele>44.42857142857143</ele><time>2026-04-05T15:07:47.999Z</time></trkpt><trkpt lat="48.41160803774371" lon="-4.5959278781955275"><ele>44.285714285714285</ele><time>2026-04-05T15:07:48.999Z</time></trkpt><trkpt lat="48.41153892444343" lon="-4.595880874622491"><ele>44.142857142857146</ele><time>2026-04-05T15:07:49.999Z</time></trkpt><trkpt lat="48.41146910399093" lon="-4.59583339030103"><ele>44.0</ele><time>2026-04-05T15:07:50.999Z</time></trkpt><trkpt lat="48.411399494861605" lon="-4.595789051496109"><ele>44.0</ele><time>2026-04-05T15:07:51.999Z</time></trkpt><trkpt lat="48.411329964807535" lon="-4.595744416651344"><ele>44.0</ele><time>2026-04-05T15:07:52.999Z</time></trkpt><trkpt lat="48.41126042020128" lon="-4.595699772648121"><ele>44.0</ele><time>2026-04-05T15:07:53.999Z</time></trkpt><trkpt lat="48.411196423951544" lon="-4.595655396234"><ele>44.0</ele><time>2026-04-05T15:07:54.999Z</time></trkpt><trkpt lat="48.41112415252143" lon="-4.595596020628971"><ele>44.0</ele><time>2026-04-05T15:07:55.999Z</time></trkpt><trkpt lat="48.411046007594614" lon="-4.595545814498631"><ele>44.0</ele><time>2026-04-05T15:07:56.999Z</time></trkpt><trkpt lat="48.4109889405674" lon="-4.595489488671685"><ele>43.83333333333333</ele><time>2026-04-05T15:07:57.999Z</time></trkpt><trkpt lat="48.410915124062846" lon="-4.59541660625642"><ele>43.666666666666664</ele><time>2026-04-05T15:07:58.999Z</time></trkpt><trkpt lat="48.41084162185078" lon="-4.595337907343042"><ele>43.5</ele><time>2026-04-05T15:07:59.999Z</time></trkpt><trkpt lat="48.41077224086463" lon="-4.595245295571536"><ele>43.333333333333336</ele><time>2026-04-05T15:08:00.999Z</time></trkpt><trkpt lat="48.41071218675834" lon="-4.59516014255435"><ele>43.16666666666667</ele><time>2026-04-05T15:08:01.999Z</time></trkpt><trkpt lat="48.41064790589306" lon="-4.595066827811612"><ele>43.0</ele><time>2026-04-05T15:08:02.999Z</time></trkpt><trkpt lat="48.41058059547204" lon="-4.59498470065735"><ele>42.66666666666667</ele><time>2026-04-05T15:08:03.999Z</time></trkpt><trkpt lat="48.41051455235086" lon="-4.594896820166339"><ele>42.333333333333336</ele><time>2026-04-05T15:08:04.999Z</time></trkpt><trkpt lat="48.41044516792335" lon="-4.594813315726881"><ele>42.0</ele><time>2026-04-05T15:08:05.999Z</time></trkpt><trkpt lat="48.41036132596522" lon="-4.594759201134243"><ele>41.666666666666664</ele><time>2026-04-05T15:08:06.999Z</time></trkpt><trkpt lat="48.410289017444214" lon="-4.594679527128801"><ele>41.33333333333333</ele><time>2026-04-05T15:08:07.999Z</time></trkpt><trkpt lat="48.410208613302906" lon="-4.594623388339609"><ele>41.0</ele><time>2026-04-05T15:08:09Z</time></trkpt><trkpt lat="48.410128882528554" lon="-4.594566443411635"><ele>41.166666666666664</ele><time>2026-04-05T15:08:10Z</time></trkpt><trkpt lat="48.41005166732371" lon="-4.594514877900699"><ele>41.33333333333333</ele><time>2026-04-05T15:08:11Z</time></trkpt><trkpt lat="48.40997069648413" lon="-4.594463935541359"><ele>41.5</ele><time>2026-04-05T15:08:12Z</time></trkpt><trkpt lat="48.409888497417825" lon="-4.594411881849034"><ele>41.666666666666664</ele><time>2026-04-05T15:08:13Z</time></trkpt><trkpt lat="48.40981014200423" lon="-4.594369602662706"><ele>41.833333333333336</ele><time>2026-04-05T15:08:14Z</time></trkpt><trkpt lat="48.40973042198277" lon="-4.5943258840497485"><ele>42.0</ele><time>2026-04-05T15:08:15Z</time></trkpt><trkpt lat="48.40965287064378" lon="-4.594282724947176"><ele>42.0</ele><time>2026-04-05T15:08:16Z</time></trkpt><trkpt lat="48.409578808157534" lon="-4.594237490640283"><ele>42.0</ele><time>2026-04-05T15:08:17Z</time></trkpt><trkpt lat="48.40950205705318" lon="-4.594191076803523"><ele>42.0</ele><time>2026-04-05T15:08:18Z</time></trkpt><trkpt lat="48.40942388895938" lon="-4.594145551594449"><ele>42.0</ele><time>2026-04-05T15:08:19Z</time></trkpt><trkpt lat="48.40934982405479" lon="-4.594106980536665"><ele>42.0</ele><time>2026-04-05T15:08:20Z</time></trkpt><trkpt lat="48.40927746031479" lon="-4.594070538372746"><ele>42.0</ele><time>2026-04-05T15:08:21Z</time></trkpt><trkpt lat="48.409204089574125" lon="-4.594042030473262"><ele>42.0</ele><time>2026-04-05T15:08:22Z</time></trkpt><trkpt lat="48.409128003993736" lon="-4.593996346690667"><ele>42.0</ele><time>2026-04-05T15:08:23Z</time></trkpt><trkpt lat="48.40904884213726" lon="-4.593983109702307"><ele>42.0</ele><time>2026-04-05T15:08:24Z</time></trkpt><trkpt lat="48.40898159860255" lon="-4.593937002751927"><ele>42.0</ele><time>2026-04-05T15:08:25Z</time></trkpt><trkpt lat="48.40890903022945" lon="-4.593904102071093"><ele>42.0</ele><time>2026-04-05T15:08:26Z</time></trkpt><trkpt lat="48.408840680644666" lon="-4.593872055338441"><ele>42.0</ele><time>2026-04-05T15:08:27Z</time></trkpt><trkpt lat="48.40876872916583" lon="-4.593841727494077"><ele>42.142857142857146</ele><time>2026-04-05T15:08:28Z</time></trkpt><trkpt lat="48.40870186205977" lon="-4.5938031341632914"><ele>42.285714285714285</ele><time>2026-04-05T15:08:29Z</time></trkpt><trkpt lat="48.408636784297684" lon="-4.593757626799487"><ele>42.42857142857143</ele><time>2026-04-05T15:08:30Z</time></trkpt><trkpt lat="48.40856936708541" lon="-4.593721528043511"><ele>42.57142857142857</ele><time>2026-04-05T15:08:31Z</time></trkpt><trkpt lat="48.408496954758284" lon="-4.593689944018123"><ele>42.714285714285715</ele><time>2026-04-05T15:08:32Z</time></trkpt><trkpt lat="48.40843838754529" lon="-4.59365334506031"><ele>42.85714285714286</ele><time>2026-04-05T15:08:33Z</time></trkpt><trkpt lat="48.408385978989735" lon="-4.593592792883185"><ele>43.0</ele><time>2026-04-05T15:08:34Z</time></trkpt><trkpt lat="48.40826769430195" lon="-4.593536491782599"><ele>43.0</ele><time>2026-04-05T15:08:36Z</time></trkpt><trkpt lat="48.408171336124106" lon="-4.593436908605995"><ele>43.0</ele><time>2026-04-05T15:08:38Z</time></trkpt><trkpt lat="48.408072563460685" lon="-4.5933490602762275"><ele>43.0</ele><time>2026-04-05T15:08:40Z</time></trkpt><trkpt lat="48.407993188785575" lon="-4.593233570824361"><ele>43.0</ele><time>2026-04-05T15:08:42Z</time></trkpt><trkpt lat="48.40792712798472" lon="-4.593103695933649"><ele>43.66666666666667</ele><time>2026-04-05T15:08:44Z</time></trkpt><trkpt lat="48.407868640042956" lon="-4.592969349820869"><ele>44.333333333333336</ele><time>2026-04-05T15:08:47Z</time></trkpt><trkpt lat="48.40782428191542" lon="-4.592866204693366"><ele>45.0</ele><time>2026-04-05T15:08:50Z</time></trkpt><trkpt lat="48.40778983394173" lon="-4.592761838644314"><ele>45.666666666666664</ele><time>2026-04-05T15:08:52Z</time></trkpt><trkpt lat="48.40772522522156" lon="-4.592676265072395"><ele>46.33333333333333</ele><time>2026-04-05T15:08:55Z</time></trkpt><trkpt lat="48.40768714148973" lon="-4.592597289132809"><ele>47.0</ele><time>2026-04-05T15:08:57Z</time></trkpt><trkpt lat="48.40763014583421" lon="-4.592528159661895"><ele>47.0</ele><time>2026-04-05T15:08:58Z</time></trkpt><trkpt lat="48.40754801242675" lon="-4.592463323649241"><ele>47.0</ele><time>2026-04-05T15:09:01Z</time></trkpt><trkpt lat="48.407490990260335" lon="-4.592366200104115"><ele>47.0</ele><time>2026-04-05T15:09:03Z</time></trkpt><trkpt lat="48.40738330621996" lon="-4.592286351464858"><ele>47.0</ele><time>2026-04-05T15:09:05Z</time></trkpt><trkpt lat="48.40731064129011" lon="-4.592249116554305"><ele>47.0</ele><time>2026-04-05T15:09:06Z</time></trkpt><trkpt lat="48.40721066737217" lon="-4.592166900208157"><ele>47.166666666666664</ele><time>2026-04-05T15:09:08Z</time></trkpt><trkpt lat="48.40714873345448" lon="-4.592146722511189"><ele>47.33333333333333</ele><time>2026-04-05T15:09:09Z</time></trkpt><trkpt lat="48.40704519101081" lon="-4.592067883073892"><ele>47.5</ele><time>2026-04-05T15:09:11Z</time></trkpt><trkpt lat="48.40698556743792" lon="-4.59203554536872"><ele>47.666666666666664</ele><time>2026-04-05T15:09:12Z</time></trkpt><trkpt lat="48.40687327814441" lon="-4.591978487491865"><ele>47.833333333333336</ele><time>2026-04-05T15:09:14Z</time></trkpt><trkpt lat="48.40681030023304" lon="-4.5919702394935715"><ele>48.0</ele><time>2026-04-05T15:09:15Z</time></trkpt><trkpt lat="48.40674340166862" lon="-4.591935881141544"><ele>47.5</ele><time>2026-04-05T15:09:16Z</time></trkpt><trkpt lat="48.40667264897077" lon="-4.591889113219897"><ele>47.0</ele><time>2026-04-05T15:09:17Z</time></trkpt><trkpt lat="48.40660074234205" lon="-4.591829391930155"><ele>46.5</ele><time>2026-04-05T15:09:18Z</time></trkpt><trkpt lat="48.40653635751526" lon="-4.591767624722959"><ele>46.0</ele><time>2026-04-05T15:09:18.999Z</time></trkpt><trkpt lat="48.406473469391244" lon="-4.591703013457479"><ele>45.5</ele><time>2026-04-05T15:09:19.999Z</time></trkpt><trkpt lat="48.40641899192272" lon="-4.5916014452118326"><ele>45.0</ele><time>2026-04-05T15:09:20.999Z</time></trkpt><trkpt lat="48.406348592397045" lon="-4.591513307552886"><ele>44.6</ele><time>2026-04-05T15:09:21.999Z</time></trkpt><trkpt lat="48.40626722168465" lon="-4.59143835073"><ele>44.2</ele><time>2026-04-05T15:09:22.999Z</time></trkpt><trkpt lat="48.40619554650277" lon="-4.591366375298294"><ele>43.8</ele><time>2026-04-05T15:09:23.999Z</time></trkpt><trkpt lat="48.406113626633314" lon="-4.591292300218272"><ele>43.4</ele><time>2026-04-05T15:09:24.999Z</time></trkpt><trkpt lat="48.40601084143008" lon="-4.5912762430089264"><ele>43.0</ele><time>2026-04-05T15:09:25.999Z</time></trkpt><trkpt lat="48.40591130643472" lon="-4.591323782706288"><ele>43.0</ele><time>2026-04-05T15:09:26.999Z</time></trkpt><trkpt lat="48.40582007924459" lon="-4.591378747166555"><ele>43.0</ele><time>2026-04-05T15:09:27.999Z</time></trkpt><trkpt lat="48.40572823553872" lon="-4.591456028529842"><ele>43.0</ele><time>2026-04-05T15:09:28.999Z</time></trkpt><trkpt lat="48.405645078734715" lon="-4.59151184022778"><ele>43.0</ele><time>2026-04-05T15:09:29.999Z</time></trkpt><trkpt lat="48.40556517966128" lon="-4.591583587976719"><ele>43.0</ele><time>2026-04-05T15:09:30.999Z</time></trkpt><trkpt lat="48.40548718414728" lon="-4.591634759063634"><ele>43.16666666666667</ele><time>2026-04-05T15:09:31.999Z</time></trkpt><trkpt lat="48.40540861929525" lon="-4.591694888073611"><ele>43.333333333333336</ele><time>2026-04-05T15:09:32.999Z</time></trkpt><trkpt lat="48.405326384563125" lon="-4.591753468625297"><ele>43.5</ele><time>2026-04-05T15:09:33.999Z</time></trkpt><trkpt lat="48.40525254310259" lon="-4.59181080377993"><ele>43.666666666666664</ele><time>2026-04-05T15:09:34.999Z</time></trkpt><trkpt lat="48.40518422275484" lon="-4.591873354399652"><ele>43.83333333333333</ele><time>2026-04-05T15:09:35.999Z</time></trkpt><trkpt lat="48.40512056099819" lon="-4.591945397721292"><ele>44.0</ele><time>2026-04-05T15:09:36.999Z</time></trkpt><trkpt lat="48.405055340097306" lon="-4.592013455001733"><ele>44.142857142857146</ele><time>2026-04-05T15:09:37.999Z</time></trkpt><trkpt lat="48.4049969631914" lon="-4.592085077105373"><ele>44.285714285714285</ele><time>2026-04-05T15:09:38.999Z</time></trkpt><trkpt lat="48.40494235618432" lon="-4.592168753367757"><ele>44.42857142857143</ele><time>2026-04-05T15:09:39.999Z</time></trkpt><trkpt lat="48.4049130911108" lon="-4.592271540295789"><ele>44.57142857142857</ele><time>2026-04-05T15:09:40.999Z</time></trkpt><trkpt lat="48.40487858516596" lon="-4.592363366454654"><ele>44.714285714285715</ele><time>2026-04-05T15:09:41.999Z</time></trkpt><trkpt lat="48.40484629006595" lon="-4.592451557720672"><ele>44.857142857142854</ele><time>2026-04-05T15:09:42.999Z</time></trkpt><trkpt lat="48.40481835549122" lon="-4.592536688350265"><ele>45.0</ele><time>2026-04-05T15:09:43.999Z</time></trkpt><trkpt lat="48.40477704735926" lon="-4.5926226269797334"><ele>45.0</ele><time>2026-04-05T15:09:44.999Z</time></trkpt><trkpt lat="48.40475282408029" lon="-4.592713697259685"><ele>45.0</ele><time>2026-04-05T15:09:45.999Z</time></trkpt><trkpt lat="48.4047475515316" lon="-4.592812602414171"><ele>45.0</ele><time>2026-04-05T15:09:46.999Z</time></trkpt><trkpt lat="48.40471855433596" lon="-4.592897270816843"><ele>45.0</ele><time>2026-04-05T15:09:47.999Z</time></trkpt><trkpt lat="48.4046882934933" lon="-4.59307102749226"><ele>45.0</ele><time>2026-04-05T15:09:49.999Z</time></trkpt><trkpt lat="48.404682734591894" lon="-4.593242718466375"><ele>45.0</ele><time>2026-04-05T15:09:51.999Z</time></trkpt><trkpt lat="48.404655695226104" lon="-4.593400465312923"><ele>45.6</ele><time>2026-04-05T15:09:53.999Z</time></trkpt><trkpt lat="48.40464490224499" lon="-4.593564347946164"><ele>46.2</ele><time>2026-04-05T15:09:55.999Z</time></trkpt><trkpt lat="48.404644975285834" lon="-4.59372817776576"><ele>46.8</ele><time>2026-04-05T15:09:57.999Z</time></trkpt><trkpt lat="48.4046415881965" lon="-4.593823618341686"><ele>47.4</ele><time>2026-04-05T15:10:00.999Z</time></trkpt><trkpt lat="48.404627964389675" lon="-4.593959618893982"><ele>48.0</ele><time>2026-04-05T15:10:01.999Z</time></trkpt><trkpt lat="48.404630066593" lon="-4.594082294830638"><ele>48.2</ele><time>2026-04-05T15:10:02.999Z</time></trkpt><trkpt lat="48.404635197105854" lon="-4.594245697586225"><ele>48.4</ele><time>2026-04-05T15:10:04.999Z</time></trkpt><trkpt lat="48.40464759540804" lon="-4.594371663413031"><ele>48.6</ele><time>2026-04-05T15:10:05.999Z</time></trkpt><trkpt lat="48.404657149096316" lon="-4.594549313032994"><ele>48.800000000000004</ele><time>2026-04-05T15:10:07.999Z</time></trkpt><trkpt lat="48.40466025259661" lon="-4.594708619948107"><ele>49.0</ele><time>2026-04-05T15:10:09.999Z</time></trkpt><trkpt lat="48.404663155158346" lon="-4.594882464912787"><ele>49.33333333333333</ele><time>2026-04-05T15:10:12.999Z</time></trkpt><trkpt lat="48.40466479601653" lon="-4.595009929839788"><ele>49.666666666666664</ele><time>2026-04-05T15:10:15Z</time></trkpt><trkpt lat="48.404664388323155" lon="-4.595139476154445"><ele>50.0</ele><time>2026-04-05T15:10:17Z</time></trkpt><trkpt lat="48.40464946540894" lon="-4.595304464879534"><ele>50.33333333333333</ele><time>2026-04-05T15:10:19Z</time></trkpt><trkpt lat="48.40460921604137" lon="-4.5954303928539755"><ele>50.666666666666664</ele><time>2026-04-05T15:10:21Z</time></trkpt><trkpt lat="48.40457867416591" lon="-4.595527709371001"><ele>51.0</ele><time>2026-04-05T15:10:23Z</time></trkpt><trkpt lat="48.40454576403738" lon="-4.595674282341915"><ele>51.599999999999994</ele><time>2026-04-05T15:10:26Z</time></trkpt><trkpt lat="48.40454377046005" lon="-4.595817994102406"><ele>52.2</ele><time>2026-04-05T15:10:28Z</time></trkpt><trkpt lat="48.40450730480628" lon="-4.595903259070861"><ele>52.800000000000004</ele><time>2026-04-05T15:10:30Z</time></trkpt><trkpt lat="48.40446945959559" lon="-4.596022417152189"><ele>53.400000000000006</ele><time>2026-04-05T15:10:32Z</time></trkpt><trkpt lat="48.404383868835836" lon="-4.596261030722196"><ele>54.0</ele><time>2026-04-05T15:10:34Z</time></trkpt><trkpt lat="48.404351017222794" lon="-4.596342053373751"><ele>54.400000000000006</ele><time>2026-04-05T15:10:35Z</time></trkpt><trkpt lat="48.404313092354194" lon="-4.5964293083634695"><ele>54.800000000000004</ele><time>2026-04-05T15:10:36Z</time></trkpt><trkpt lat="48.40424703170368" lon="-4.596557522585558"><ele>55.199999999999996</ele><time>2026-04-05T15:10:38Z</time></trkpt><trkpt lat="48.40418437293336" lon="-4.596696351911972"><ele>55.599999999999994</ele><time>2026-04-05T15:10:40Z</time></trkpt><trkpt lat="48.40412644468778" lon="-4.596805925461293"><ele>56.0</ele><time>2026-04-05T15:10:42Z</time></trkpt><trkpt lat="48.4040735591945" lon="-4.596928154379019"><ele>56.199999999999996</ele><time>2026-04-05T15:10:44Z</time></trkpt><trkpt lat="48.40403744305443" lon="-4.597009114038145"><ele>56.39999999999999</ele><time>2026-04-05T15:10:47Z</time></trkpt><trkpt lat="48.40400392479599" lon="-4.597136111763233"><ele>56.6</ele><time>2026-04-05T15:10:49Z</time></trkpt><trkpt lat="48.403916739451695" lon="-4.5973842092981725"><ele>56.8</ele><time>2026-04-05T15:10:51Z</time></trkpt><trkpt lat="48.40386451979335" lon="-4.5974947425527395"><ele>57.0</ele><time>2026-04-05T15:10:53Z</time></trkpt><trkpt lat="48.40381049630918" lon="-4.597625448589"><ele>57.2</ele><time>2026-04-05T15:10:55Z</time></trkpt><trkpt lat="48.40375599327627" lon="-4.597747767699903"><ele>57.400000000000006</ele><time>2026-04-05T15:10:57Z</time></trkpt><trkpt lat="48.40369637526391" lon="-4.597860537951874"><ele>57.599999999999994</ele><time>2026-04-05T15:10:59Z</time></trkpt><trkpt lat="48.40363509625252" lon="-4.597996349654457"><ele>57.8</ele><time>2026-04-05T15:11:01Z</time></trkpt><trkpt lat="48.40356575243792" lon="-4.598156433347971"><ele>58.0</ele><time>2026-04-05T15:11:03Z</time></trkpt><trkpt lat="48.403494729616476" lon="-4.598296913433416"><ele>58.0</ele><time>2026-04-05T15:11:05Z</time></trkpt><trkpt lat="48.40342625708331" lon="-4.5984246779615665"><ele>58.0</ele><time>2026-04-05T15:11:07Z</time></trkpt><trkpt lat="48.40336217437318" lon="-4.598553974153201"><ele>58.0</ele><time>2026-04-05T15:11:09Z</time></trkpt><trkpt lat="48.40331037974131" lon="-4.59861773131253"><ele>58.0</ele><time>2026-04-05T15:11:10Z</time></trkpt><trkpt lat="48.40324363151722" lon="-4.598745382989167"><ele>58.0</ele><time>2026-04-05T15:11:12Z</time></trkpt><trkpt lat="48.40317049693165" lon="-4.598870977020542"><ele>58.0</ele><time>2026-04-05T15:11:14Z</time></trkpt><trkpt lat="48.40308832089546" lon="-4.598989614590676"><ele>58.0</ele><time>2026-04-05T15:11:16Z</time></trkpt><trkpt lat="48.40301879489389" lon="-4.599135213888556"><ele>58.0</ele><time>2026-04-05T15:11:18Z</time></trkpt><trkpt lat="48.40294864315087" lon="-4.599285936388535"><ele>58.0</ele><time>2026-04-05T15:11:20Z</time></trkpt><trkpt lat="48.40290446240155" lon="-4.599360595590849"><ele>58.0</ele><time>2026-04-05T15:11:21Z</time></trkpt><trkpt lat="48.40285694337647" lon="-4.599432501601457"><ele>58.14285714285715</ele><time>2026-04-05T15:11:22Z</time></trkpt><trkpt lat="48.40281744808573" lon="-4.599509397951609"><ele>58.28571428571429</ele><time>2026-04-05T15:11:23Z</time></trkpt><trkpt lat="48.40277251444181" lon="-4.5995804214805975"><ele>58.42857142857143</ele><time>2026-04-05T15:11:24Z</time></trkpt><trkpt lat="48.40272825232567" lon="-4.599655391631847"><ele>58.57142857142858</ele><time>2026-04-05T15:11:25Z</time></trkpt><trkpt lat="48.40268564618724" lon="-4.59973330579018"><ele>58.71428571428572</ele><time>2026-04-05T15:11:26Z</time></trkpt><trkpt lat="48.40264066607627" lon="-4.599810016185734"><ele>58.857142857142854</ele><time>2026-04-05T15:11:27Z</time></trkpt><trkpt lat="48.40259971275142" lon="-4.59988765129835"><ele>59.0</ele><time>2026-04-05T15:11:27.999Z</time></trkpt><trkpt lat="48.402552163244074" lon="-4.599968005342689"><ele>59.0</ele><time>2026-04-05T15:11:28.999Z</time></trkpt><trkpt lat="48.40250550870287" lon="-4.600053077723701"><ele>59.0</ele><time>2026-04-05T15:11:29.999Z</time></trkpt><trkpt lat="48.40245250093327" lon="-4.60013362742725"><ele>59.0</ele><time>2026-04-05T15:11:30.999Z</time></trkpt><trkpt lat="48.40240289999575" lon="-4.600220197431457"><ele>59.0</ele><time>2026-04-05T15:11:31.999Z</time></trkpt><trkpt lat="48.402354175063294" lon="-4.600298904114634"><ele>59.0</ele><time>2026-04-05T15:11:32.999Z</time></trkpt><trkpt lat="48.40231278151498" lon="-4.600399608345107"><ele>59.0</ele><time>2026-04-05T15:11:33.999Z</time></trkpt><trkpt lat="48.402259262832594" lon="-4.600478359651517"><ele>59.0</ele><time>2026-04-05T15:11:34.999Z</time></trkpt><trkpt lat="48.4021913943047" lon="-4.600530729863804"><ele>59.0</ele><time>2026-04-05T15:11:35.999Z</time></trkpt><trkpt lat="48.40214143831946" lon="-4.600618224226708"><ele>59.0</ele><time>2026-04-05T15:11:36.999Z</time></trkpt><trkpt lat="48.40208113751704" lon="-4.600675603201064"><ele>59.0</ele><time>2026-04-05T15:11:37.999Z</time></trkpt><trkpt lat="48.40201332777059" lon="-4.600724214299044"><ele>59.0</ele><time>2026-04-05T15:11:38.999Z</time></trkpt><trkpt lat="48.40195044531689" lon="-4.600770224341498"><ele>59.0</ele><time>2026-04-05T15:11:39.999Z</time></trkpt><trkpt lat="48.40188439591114" lon="-4.6008167995376965"><ele>59.0</ele><time>2026-04-05T15:11:40.999Z</time></trkpt><trkpt lat="48.40182052278163" lon="-4.600859399654862"><ele>59.0</ele><time>2026-04-05T15:11:41.999Z</time></trkpt><trkpt lat="48.40175467292901" lon="-4.600902188853013"><ele>59.0</ele><time>2026-04-05T15:11:42.999Z</time></trkpt><trkpt lat="48.40168030634915" lon="-4.600948500921876"><ele>59.0</ele><time>2026-04-05T15:11:43.999Z</time></trkpt><trkpt lat="48.401613321427455" lon="-4.60098987876585"><ele>59.0</ele><time>2026-04-05T15:11:44.999Z</time></trkpt><trkpt lat="48.401554408303454" lon="-4.601025206414934"><ele>59.0</ele><time>2026-04-05T15:11:45.999Z</time></trkpt><trkpt lat="48.401488469270355" lon="-4.601060715633715"><ele>59.0</ele><time>2026-04-05T15:11:46.999Z</time></trkpt><trkpt lat="48.401422837605175" lon="-4.601091139655205"><ele>59.0</ele><time>2026-04-05T15:11:47.999Z</time></trkpt><trkpt lat="48.40135468515543" lon="-4.6011159869597344"><ele>59.0</ele><time>2026-04-05T15:11:48.999Z</time></trkpt><trkpt lat="48.40128852686414" lon="-4.601122462773437"><ele>59.2</ele><time>2026-04-05T15:11:49.999Z</time></trkpt><trkpt lat="48.40123635096899" lon="-4.601191084000886"><ele>59.400000000000006</ele><time>2026-04-05T15:11:50.999Z</time></trkpt><trkpt lat="48.40122872608182" lon="-4.601484810277882"><ele>59.6</ele><time>2026-04-05T15:11:53.999Z</time></trkpt><trkpt lat="48.40121955016067" lon="-4.6015791058597495"><ele>59.8</ele><time>2026-04-05T15:11:54.999Z</time></trkpt><trkpt lat="48.40122481722754" lon="-4.601755712582773"><ele>60.0</ele><time>2026-04-05T15:11:56.999Z</time></trkpt><trkpt lat="48.40122950310578" lon="-4.601928425283249"><ele>60.4</ele><time>2026-04-05T15:11:58.999Z</time></trkpt><trkpt lat="48.40122907470948" lon="-4.60210326035782"><ele>60.8</ele><time>2026-04-05T15:12:00.999Z</time></trkpt><trkpt lat="48.401227031671574" lon="-4.602266743206196"><ele>61.2</ele><time>2026-04-05T15:12:02.999Z</time></trkpt><trkpt lat="48.401229011654536" lon="-4.60242841662486"><ele>61.6</ele><time>2026-04-05T15:12:04.999Z</time></trkpt><trkpt lat="48.4012213218382" lon="-4.602582144697731"><ele>62.0</ele><time>2026-04-05T15:12:06.999Z</time></trkpt><trkpt lat="48.401228507572725" lon="-4.602740115322256"><ele>62.400000000000006</ele><time>2026-04-05T15:12:08.999Z</time></trkpt><trkpt lat="48.40122561076668" lon="-4.602893526766413"><ele>62.800000000000004</ele><time>2026-04-05T15:12:10.999Z</time></trkpt><trkpt lat="48.40124463066121" lon="-4.603043251531438"><ele>63.2</ele><time>2026-04-05T15:12:12.999Z</time></trkpt><trkpt lat="48.40124940346132" lon="-4.603189669002388"><ele>63.6</ele><time>2026-04-05T15:12:14.999Z</time></trkpt><trkpt lat="48.40124689009048" lon="-4.603333100162326"><ele>64.0</ele><time>2026-04-05T15:12:16.999Z</time></trkpt><trkpt lat="48.401241443682665" lon="-4.603473179742632"><ele>64.0</ele><time>2026-04-05T15:12:18.999Z</time></trkpt><trkpt lat="48.4012483460612" lon="-4.603640793544831"><ele>64.0</ele><time>2026-04-05T15:12:21Z</time></trkpt><trkpt lat="48.401259165194226" lon="-4.603819455784046"><ele>64.0</ele><time>2026-04-05T15:12:23Z</time></trkpt><trkpt lat="48.40126253788815" lon="-4.603967044447341"><ele>64.0</ele><time>2026-04-05T15:12:25Z</time></trkpt><trkpt lat="48.40126386230388" lon="-4.604122830073612"><ele>64.0</ele><time>2026-04-05T15:12:27Z</time></trkpt><trkpt lat="48.401267900698414" lon="-4.604278143208027"><ele>64.4</ele><time>2026-04-05T15:12:29Z</time></trkpt><trkpt lat="48.40127073534574" lon="-4.60442069630309"><ele>64.80000000000001</ele><time>2026-04-05T15:12:31Z</time></trkpt><trkpt lat="48.40128273279118" lon="-4.604559594635834"><ele>65.19999999999999</ele><time>2026-04-05T15:12:33Z</time></trkpt><trkpt lat="48.401262937485384" lon="-4.604699062050897"><ele>65.6</ele><time>2026-04-05T15:12:35Z</time></trkpt><trkpt lat="48.40126517334997" lon="-4.604842907080033"><ele>66.0</ele><time>2026-04-05T15:12:37Z</time></trkpt><trkpt lat="48.40127095441139" lon="-4.604992380913796"><ele>66.25</ele><time>2026-04-05T15:12:39Z</time></trkpt><trkpt lat="48.40131260727821" lon="-4.605291019301934"><ele>66.5</ele><time>2026-04-05T15:12:43Z</time></trkpt><trkpt lat="48.40131723773948" lon="-4.60543830461109"><ele>66.75</ele><time>2026-04-05T15:12:45Z</time></trkpt><trkpt lat="48.40131808607523" lon="-4.605590694032061"><ele>67.0</ele><time>2026-04-05T15:12:47Z</time></trkpt><trkpt lat="48.40132728293031" lon="-4.60574265656812"><ele>67.4</ele><time>2026-04-05T15:12:49Z</time></trkpt><trkpt lat="48.40133357420011" lon="-4.605889985037567"><ele>67.80000000000001</ele><time>2026-04-05T15:12:51Z</time></trkpt><trkpt lat="48.401340287565716" lon="-4.606036558835147"><ele>68.2</ele><time>2026-04-05T15:12:53Z</time></trkpt><trkpt lat="48.40134553509747" lon="-4.606186627734093"><ele>68.60000000000001</ele><time>2026-04-05T15:12:55Z</time></trkpt><trkpt lat="48.40134824433761" lon="-4.606331928901771"><ele>69.0</ele><time>2026-04-05T15:12:57Z</time></trkpt><trkpt lat="48.40135239412367" lon="-4.606467824207612"><ele>69.2</ele><time>2026-04-05T15:12:59Z</time></trkpt><trkpt lat="48.40135449484978" lon="-4.606610282673291"><ele>69.4</ele><time>2026-04-05T15:13:01Z</time></trkpt><trkpt lat="48.401329544577756" lon="-4.606741508460745"><ele>69.6</ele><time>2026-04-05T15:13:03Z</time></trkpt><trkpt lat="48.40133221391763" lon="-4.606877989009275"><ele>69.8</ele><time>2026-04-05T15:13:05Z</time></trkpt><trkpt lat="48.40134081752959" lon="-4.607027182901663"><ele>70.0</ele><time>2026-04-05T15:13:07Z</time></trkpt><trkpt lat="48.40134906292018" lon="-4.607176685864116"><ele>70.2</ele><time>2026-04-05T15:13:09Z</time></trkpt><trkpt lat="48.40134999266304" lon="-4.607320340795195"><ele>70.4</ele><time>2026-04-05T15:13:11Z</time></trkpt><trkpt lat="48.40135617525624" lon="-4.607467815154431"><ele>70.6</ele><time>2026-04-05T15:13:13Z</time></trkpt><trkpt lat="48.401369063353" lon="-4.607612537984547"><ele>70.8</ele><time>2026-04-05T15:13:15Z</time></trkpt><trkpt lat="48.401375119365234" lon="-4.607758033731856"><ele>71.0</ele><time>2026-04-05T15:13:17Z</time></trkpt><trkpt lat="48.401383585506636" lon="-4.607905834120464"><ele>71.25</ele><time>2026-04-05T15:13:19Z</time></trkpt><trkpt lat="48.40138795170072" lon="-4.608042453462264"><ele>71.5</ele><time>2026-04-05T15:13:21Z</time></trkpt><trkpt lat="48.401389166242865" lon="-4.608211594678816"><ele>71.75</ele><time>2026-04-05T15:13:24Z</time></trkpt><trkpt lat="48.401400450497135" lon="-4.60834258518499"><ele>72.0</ele><time>2026-04-05T15:13:26Z</time></trkpt><trkpt lat="48.40142851810947" lon="-4.608628029619077"><ele>72.0</ele><time>2026-04-05T15:13:28.999Z</time></trkpt><trkpt lat="48.40143445441096" lon="-4.608777770104608"><ele>72.0</ele><time>2026-04-05T15:13:30.999Z</time></trkpt><trkpt lat="48.401453472254836" lon="-4.608932588173106"><ele>72.0</ele><time>2026-04-05T15:13:32.999Z</time></trkpt><trkpt lat="48.401452919261736" lon="-4.609080471062152"><ele>72.0</ele><time>2026-04-05T15:13:34.999Z</time></trkpt><trkpt lat="48.40146057954084" lon="-4.6092413938422325"><ele>72.0</ele><time>2026-04-05T15:13:36.999Z</time></trkpt><trkpt lat="48.401461613446955" lon="-4.609399428546418"><ele>72.2</ele><time>2026-04-05T15:13:38.999Z</time></trkpt><trkpt lat="48.40147190406153" lon="-4.609562563134076"><ele>72.4</ele><time>2026-04-05T15:13:40.999Z</time></trkpt><trkpt lat="48.401480679996745" lon="-4.609731288895623"><ele>72.6</ele><time>2026-04-05T15:13:42.999Z</time></trkpt><trkpt lat="48.4014856098801" lon="-4.609899938464103"><ele>72.8</ele><time>2026-04-05T15:13:44.999Z</time></trkpt><trkpt lat="48.40146879113562" lon="-4.6100673224993365"><ele>73.0</ele><time>2026-04-05T15:13:46.999Z</time></trkpt><trkpt lat="48.401478531661375" lon="-4.610230792932621"><ele>73.75</ele><time>2026-04-05T15:13:48.999Z</time></trkpt><trkpt lat="48.401489519041334" lon="-4.610397130616274"><ele>74.5</ele><time>2026-04-05T15:13:50.999Z</time></trkpt><trkpt lat="48.40150800721274" lon="-4.61055889306331"><ele>75.25</ele><time>2026-04-05T15:13:52.999Z</time></trkpt><trkpt lat="48.40154011830179" lon="-4.610722730133495"><ele>76.0</ele><time>2026-04-05T15:13:54.999Z</time></trkpt><trkpt lat="48.40157253869767" lon="-4.610891622548999"><ele>76.0</ele><time>2026-04-05T15:13:56.999Z</time></trkpt><trkpt lat="48.40159927632808" lon="-4.611046260523771"><ele>76.0</ele><time>2026-04-05T15:13:58.999Z</time></trkpt><trkpt lat="48.40163228043042" lon="-4.6111979973693495"><ele>76.0</ele><time>2026-04-05T15:14:00.999Z</time></trkpt><trkpt lat="48.401668106707056" lon="-4.611352670305485"><ele>76.0</ele><time>2026-04-05T15:14:02.999Z</time></trkpt><trkpt lat="48.401700283912376" lon="-4.611504364706128"><ele>76.0</ele><time>2026-04-05T15:14:04.999Z</time></trkpt><trkpt lat="48.401732122293566" lon="-4.611649283816602"><ele>76.75</ele><time>2026-04-05T15:14:06.999Z</time></trkpt><trkpt lat="48.4017584027972" lon="-4.611798215276968"><ele>77.5</ele><time>2026-04-05T15:14:08.999Z</time></trkpt><trkpt lat="48.401788471322554" lon="-4.611953288783905"><ele>78.25</ele><time>2026-04-05T15:14:10.999Z</time></trkpt><trkpt lat="48.40181354993637" lon="-4.6120464638894525"><ele>79.0</ele><time>2026-04-05T15:14:12.999Z</time></trkpt><trkpt lat="48.40189820928152" lon="-4.612321723997504"><ele>79.25</ele><time>2026-04-05T15:14:15.999Z</time></trkpt><trkpt lat="48.40193115620057" lon="-4.612480061061214"><ele>79.5</ele><time>2026-04-05T15:14:17.999Z</time></trkpt><trkpt lat="48.401967136011585" lon="-4.6126330740747346"><ele>79.75</ele><time>2026-04-05T15:14:19.999Z</time></trkpt><trkpt lat="48.40200271711782" lon="-4.612809652605902"><ele>80.0</ele><time>2026-04-05T15:14:21.999Z</time></trkpt><trkpt lat="48.40203680252587" lon="-4.612970026568696"><ele>80.2</ele><time>2026-04-05T15:14:23.999Z</time></trkpt><trkpt lat="48.402072411065696" lon="-4.613124500634958"><ele>80.4</ele><time>2026-04-05T15:14:25.999Z</time></trkpt><trkpt lat="48.40210721707021" lon="-4.613282159697209"><ele>80.6</ele><time>2026-04-05T15:14:28Z</time></trkpt><trkpt lat="48.402139746127986" lon="-4.613433386106758"><ele>80.8</ele><time>2026-04-05T15:14:30Z</time></trkpt><trkpt lat="48.40216936206136" lon="-4.613588232721985"><ele>81.0</ele><time>2026-04-05T15:14:32Z</time></trkpt><trkpt lat="48.40217255473713" lon="-4.613748863219486"><ele>81.6</ele><time>2026-04-05T15:14:34Z</time></trkpt><trkpt lat="48.40220789840794" lon="-4.613899819089215"><ele>82.19999999999999</ele><time>2026-04-05T15:14:36Z</time></trkpt><trkpt lat="48.40223904822464" lon="-4.614051399393762"><ele>82.80000000000001</ele><time>2026-04-05T15:14:38Z</time></trkpt><trkpt lat="48.40226845657188" lon="-4.614175830745015"><ele>83.4</ele><time>2026-04-05T15:14:41Z</time></trkpt><trkpt lat="48.402340107902134" lon="-4.614349210131754"><ele>84.0</ele><time>2026-04-05T15:14:42Z</time></trkpt><trkpt lat="48.40236987207126" lon="-4.614507089843944"><ele>84.2</ele><time>2026-04-05T15:14:44Z</time></trkpt><trkpt lat="48.402407812567816" lon="-4.614648336226658"><ele>84.4</ele><time>2026-04-05T15:14:46Z</time></trkpt><trkpt lat="48.402430144269196" lon="-4.614786303925808"><ele>84.6</ele><time>2026-04-05T15:14:48Z</time></trkpt><trkpt lat="48.4024628227123" lon="-4.614917915285826"><ele>84.8</ele><time>2026-04-05T15:14:50Z</time></trkpt><trkpt lat="48.40249822263028" lon="-4.615059794267981"><ele>85.0</ele><time>2026-04-05T15:14:52Z</time></trkpt><trkpt lat="48.402518384618205" lon="-4.615202966164678"><ele>84.83333333333333</ele><time>2026-04-05T15:14:54Z</time></trkpt><trkpt lat="48.4025486750196" lon="-4.615333611993001"><ele>84.66666666666666</ele><time>2026-04-05T15:14:56Z</time></trkpt><trkpt lat="48.40258270014813" lon="-4.6154610213189375"><ele>84.5</ele><time>2026-04-05T15:14:58Z</time></trkpt><trkpt lat="48.402612539401886" lon="-4.6155636916033975"><ele>84.33333333333333</ele><time>2026-04-05T15:15:00Z</time></trkpt><trkpt lat="48.40258674105938" lon="-4.61566132873119"><ele>84.16666666666667</ele><time>2026-04-05T15:15:02Z</time></trkpt><trkpt lat="48.402608505102826" lon="-4.615754645753162"><ele>84.0</ele><time>2026-04-05T15:15:04Z</time></trkpt><trkpt lat="48.402639723698485" lon="-4.615841442372802"><ele>84.0</ele><time>2026-04-05T15:15:06Z</time></trkpt><trkpt lat="48.40266001208758" lon="-4.615985515223397"><ele>84.0</ele><time>2026-04-05T15:15:09Z</time></trkpt><trkpt lat="48.402679837769135" lon="-4.616103226363854"><ele>84.0</ele><time>2026-04-05T15:15:11Z</time></trkpt><trkpt lat="48.402707674206034" lon="-4.616201462458835"><ele>84.0</ele><time>2026-04-05T15:15:13Z</time></trkpt><trkpt lat="48.4027318567083" lon="-4.61630769103927"><ele>84.0</ele><time>2026-04-05T15:15:15Z</time></trkpt><trkpt lat="48.402756950682964" lon="-4.616409691953572"><ele>84.0</ele><time>2026-04-05T15:15:17Z</time></trkpt><trkpt lat="48.402788448379624" lon="-4.616516011782494"><ele>83.80000000000001</ele><time>2026-04-05T15:15:19Z</time></trkpt><trkpt lat="48.40280756103262" lon="-4.616659901049827"><ele>83.60000000000001</ele><time>2026-04-05T15:15:21Z</time></trkpt><trkpt lat="48.40282337428427" lon="-4.6167911928912435"><ele>83.4</ele><time>2026-04-05T15:15:23Z</time></trkpt><trkpt lat="48.402824588415584" lon="-4.616922971026579"><ele>83.2</ele><time>2026-04-05T15:15:25Z</time></trkpt><trkpt lat="48.402825740684975" lon="-4.61706495920009"><ele>83.0</ele><time>2026-04-05T15:15:27Z</time></trkpt><trkpt lat="48.402827954464286" lon="-4.617209407522505"><ele>82.4</ele><time>2026-04-05T15:15:29Z</time></trkpt><trkpt lat="48.40283270334784" lon="-4.61734956975238"><ele>81.80000000000001</ele><time>2026-04-05T15:15:31Z</time></trkpt><trkpt lat="48.402834725803515" lon="-4.617504451212668"><ele>81.2</ele><time>2026-04-05T15:15:33Z</time></trkpt><trkpt lat="48.40282849720076" lon="-4.617649486357092"><ele>80.6</ele><time>2026-04-05T15:15:34.999Z</time></trkpt><trkpt lat="48.40282935688156" lon="-4.617799579418264"><ele>80.0</ele><time>2026-04-05T15:15:36.999Z</time></trkpt><trkpt lat="48.40281888759905" lon="-4.61795496827585"><ele>79.6</ele><time>2026-04-05T15:15:38.999Z</time></trkpt><trkpt lat="48.4028336496713" lon="-4.618114232879464"><ele>79.2</ele><time>2026-04-05T15:15:40.999Z</time></trkpt><trkpt lat="48.402835790264454" lon="-4.618244261754771"><ele>78.8</ele><time>2026-04-05T15:15:42.999Z</time></trkpt><trkpt lat="48.402834167281654" lon="-4.618373643055086"><ele>78.4</ele><time>2026-04-05T15:15:45.999Z</time></trkpt><trkpt lat="48.402678682474395" lon="-4.618437046885982"><ele>78.0</ele><time>2026-04-05T15:15:48.999Z</time></trkpt><trkpt lat="48.40257043224678" lon="-4.618395519871177"><ele>78.0</ele><time>2026-04-05T15:15:50.999Z</time></trkpt><trkpt lat="48.40246006515314" lon="-4.618382717123684"><ele>78.0</ele><time>2026-04-05T15:15:52.999Z</time></trkpt><trkpt lat="48.40234473855736" lon="-4.618375891190013"><ele>78.0</ele><time>2026-04-05T15:15:54.999Z</time></trkpt><trkpt lat="48.40222426523358" lon="-4.61836365829834"><ele>78.0</ele><time>2026-04-05T15:15:56.999Z</time></trkpt><trkpt lat="48.40210314044001" lon="-4.618356931587837"><ele>78.0</ele><time>2026-04-05T15:15:58.999Z</time></trkpt><trkpt lat="48.401976080406804" lon="-4.618353770150023"><ele>78.0</ele><time>2026-04-05T15:16:00.999Z</time></trkpt><trkpt lat="48.40191315720075" lon="-4.618350041084657"><ele>78.0</ele><time>2026-04-05T15:16:01.999Z</time></trkpt><trkpt lat="48.401843997525134" lon="-4.618344141573912"><ele>78.0</ele><time>2026-04-05T15:16:02.999Z</time></trkpt><trkpt lat="48.4017808254753" lon="-4.618330964545503"><ele>78.0</ele><time>2026-04-05T15:16:03.999Z</time></trkpt><trkpt lat="48.40171164129254" lon="-4.618328603237218"><ele>78.0</ele><time>2026-04-05T15:16:04.999Z</time></trkpt><trkpt lat="48.40164131448403" lon="-4.61832919955581"><ele>78.0</ele><time>2026-04-05T15:16:05.999Z</time></trkpt><trkpt lat="48.401570036026996" lon="-4.6183228135163175"><ele>78.0</ele><time>2026-04-05T15:16:06.999Z</time></trkpt><trkpt lat="48.40150011601212" lon="-4.618325657058352"><ele>78.0</ele><time>2026-04-05T15:16:07.999Z</time></trkpt><trkpt lat="48.401425089358604" lon="-4.6183277147057265"><ele>78.0</ele><time>2026-04-05T15:16:08.999Z</time></trkpt><trkpt lat="48.401353388777544" lon="-4.618326126694021"><ele>78.0</ele><time>2026-04-05T15:16:09.999Z</time></trkpt><trkpt lat="48.40128350382568" lon="-4.618318859601767"><ele>78.0</ele><time>2026-04-05T15:16:10.999Z</time></trkpt><trkpt lat="48.40121029870126" lon="-4.618324192723221"><ele>78.0</ele><time>2026-04-05T15:16:11.999Z</time></trkpt><trkpt lat="48.40112476500023" lon="-4.618323203707218"><ele>77.8</ele><time>2026-04-05T15:16:12.999Z</time></trkpt><trkpt lat="48.40103218542713" lon="-4.618318190030998"><ele>77.6</ele><time>2026-04-05T15:16:13.999Z</time></trkpt><trkpt lat="48.400929392920986" lon="-4.618302796354384"><ele>77.4</ele><time>2026-04-05T15:16:14.999Z</time></trkpt><trkpt lat="48.400819171503855" lon="-4.618304465926679"><ele>77.2</ele><time>2026-04-05T15:16:15.999Z</time></trkpt><trkpt lat="48.40070412298952" lon="-4.618297852562788"><ele>77.0</ele><time>2026-04-05T15:16:16.999Z</time></trkpt><trkpt lat="48.400592031851" lon="-4.618301369539475"><ele>76.8</ele><time>2026-04-05T15:16:17.999Z</time></trkpt><trkpt lat="48.400481998438316" lon="-4.618299515445237"><ele>76.6</ele><time>2026-04-05T15:16:18.999Z</time></trkpt><trkpt lat="48.400369580541174" lon="-4.6182949799772"><ele>76.39999999999999</ele><time>2026-04-05T15:16:19.999Z</time></trkpt><trkpt lat="48.400258561253025" lon="-4.6182910264666965"><ele>76.2</ele><time>2026-04-05T15:16:20.999Z</time></trkpt><trkpt lat="48.40014835411531" lon="-4.618290049204691"><ele>76.0</ele><time>2026-04-05T15:16:21.999Z</time></trkpt><trkpt lat="48.40003773591663" lon="-4.618283394497206"><ele>76.0</ele><time>2026-04-05T15:16:22.999Z</time></trkpt><trkpt lat="48.39993376452764" lon="-4.618273928391453"><ele>76.0</ele><time>2026-04-05T15:16:23.999Z</time></trkpt><trkpt lat="48.399830063430194" lon="-4.618261548636376"><ele>76.0</ele><time>2026-04-05T15:16:24.999Z</time></trkpt><trkpt lat="48.39972635497035" lon="-4.61824443018163"><ele>76.0</ele><time>2026-04-05T15:16:25.999Z</time></trkpt><trkpt lat="48.39962601704715" lon="-4.618214276366722"><ele>76.0</ele><time>2026-04-05T15:16:26.999Z</time></trkpt><trkpt lat="48.39952472782614" lon="-4.61818554964568"><ele>75.8</ele><time>2026-04-05T15:16:27.999Z</time></trkpt><trkpt lat="48.39943016249509" lon="-4.618153681387655"><ele>75.6</ele><time>2026-04-05T15:16:28.999Z</time></trkpt><trkpt lat="48.399332894298006" lon="-4.618142982378365"><ele>75.4</ele><time>2026-04-05T15:16:29.999Z</time></trkpt><trkpt lat="48.39924220192383" lon="-4.618112095117679"><ele>75.2</ele><time>2026-04-05T15:16:30.999Z</time></trkpt><trkpt lat="48.39915152785726" lon="-4.618080407210178"><ele>75.0</ele><time>2026-04-05T15:16:31.999Z</time></trkpt><trkpt lat="48.399060155273844" lon="-4.61804789736116"><ele>75.0</ele><time>2026-04-05T15:16:33Z</time></trkpt><trkpt lat="48.398973640432324" lon="-4.618016280632068"><ele>75.0</ele><time>2026-04-05T15:16:34Z</time></trkpt><trkpt lat="48.398885252321456" lon="-4.617983979408214"><ele>75.0</ele><time>2026-04-05T15:16:35Z</time></trkpt><trkpt lat="48.39879950638119" lon="-4.617952643539955"><ele>75.0</ele><time>2026-04-05T15:16:36Z</time></trkpt><trkpt lat="48.39871479133605" lon="-4.617921684671814"><ele>75.0</ele><time>2026-04-05T15:16:37Z</time></trkpt><trkpt lat="48.39862908189161" lon="-4.6178903622635845"><ele>75.0</ele><time>2026-04-05T15:16:38Z</time></trkpt><trkpt lat="48.39854649115369" lon="-4.617860179693749"><ele>74.8</ele><time>2026-04-05T15:16:39Z</time></trkpt><trkpt lat="48.398461641567515" lon="-4.617829171339748"><ele>74.6</ele><time>2026-04-05T15:16:40Z</time></trkpt><trkpt lat="48.39837695280893" lon="-4.617772751606107"><ele>74.4</ele><time>2026-04-05T15:16:41Z</time></trkpt><trkpt lat="48.398281828773264" lon="-4.617749927322466"><ele>74.2</ele><time>2026-04-05T15:16:42Z</time></trkpt><trkpt lat="48.39818709879479" lon="-4.617708399799006"><ele>74.0</ele><time>2026-04-05T15:16:43Z</time></trkpt><trkpt lat="48.39808993401769" lon="-4.617667336418007"><ele>73.2</ele><time>2026-04-05T15:16:44Z</time></trkpt><trkpt lat="48.397991332170974" lon="-4.617631570360635"><ele>72.4</ele><time>2026-04-05T15:16:45Z</time></trkpt><trkpt lat="48.39789156649633" lon="-4.6176185188151875"><ele>71.6</ele><time>2026-04-05T15:16:46Z</time></trkpt><trkpt lat="48.397802014177365" lon="-4.617561220898782"><ele>70.8</ele><time>2026-04-05T15:16:47Z</time></trkpt><trkpt lat="48.39770917987484" lon="-4.6175285224912725"><ele>70.0</ele><time>2026-04-05T15:16:48Z</time></trkpt><trkpt lat="48.39761294292723" lon="-4.617493726623769"><ele>70.0</ele><time>2026-04-05T15:16:49Z</time></trkpt><trkpt lat="48.39751934078552" lon="-4.617462495996904"><ele>70.0</ele><time>2026-04-05T15:16:50Z</time></trkpt><trkpt lat="48.39742558283141" lon="-4.617439240032942"><ele>70.0</ele><time>2026-04-05T15:16:51Z</time></trkpt><trkpt lat="48.39733062572705" lon="-4.6174073922817245"><ele>70.0</ele><time>2026-04-05T15:16:52Z</time></trkpt><trkpt lat="48.39723341883739" lon="-4.617373975144464"><ele>70.0</ele><time>2026-04-05T15:16:53Z</time></trkpt><trkpt lat="48.397141390397735" lon="-4.617341851963245"><ele>69.8</ele><time>2026-04-05T15:16:54Z</time></trkpt><trkpt lat="48.397046977633664" lon="-4.617304442949917"><ele>69.6</ele><time>2026-04-05T15:16:55Z</time></trkpt><trkpt lat="48.396955632910746" lon="-4.6172619206066265"><ele>69.4</ele><time>2026-04-05T15:16:56Z</time></trkpt><trkpt lat="48.396862167679" lon="-4.617216970301571"><ele>69.2</ele><time>2026-04-05T15:16:57Z</time></trkpt><trkpt lat="48.39676846818014" lon="-4.617188239524497"><ele>69.0</ele><time>2026-04-05T15:16:58Z</time></trkpt><trkpt lat="48.396679068804026" lon="-4.617154503081542"><ele>69.0</ele><time>2026-04-05T15:16:59Z</time></trkpt><trkpt lat="48.396588581903664" lon="-4.617118567870644"><ele>69.0</ele><time>2026-04-05T15:17:00Z</time></trkpt><trkpt lat="48.396499864819944" lon="-4.617081840021756"><ele>69.0</ele><time>2026-04-05T15:17:01Z</time></trkpt><trkpt lat="48.396412137084184" lon="-4.617055824665422"><ele>69.0</ele><time>2026-04-05T15:17:02Z</time></trkpt><trkpt lat="48.39632492181146" lon="-4.617029907106706"><ele>69.0</ele><time>2026-04-05T15:17:03Z</time></trkpt><trkpt lat="48.39623880270951" lon="-4.616992335756104"><ele>69.33333333333333</ele><time>2026-04-05T15:17:04Z</time></trkpt><trkpt lat="48.396153914371645" lon="-4.616960020632355"><ele>69.66666666666667</ele><time>2026-04-05T15:17:05Z</time></trkpt><trkpt lat="48.396071527758856" lon="-4.616922281659205"><ele>70.0</ele><time>2026-04-05T15:17:06Z</time></trkpt><trkpt lat="48.395989018588764" lon="-4.616892940306595"><ele>70.33333333333334</ele><time>2026-04-05T15:17:07Z</time></trkpt><trkpt lat="48.395907765474846" lon="-4.616867601137485"><ele>70.66666666666667</ele><time>2026-04-05T15:17:08Z</time></trkpt><trkpt lat="48.39582823520479" lon="-4.616839340837819"><ele>71.0</ele><time>2026-04-05T15:17:09Z</time></trkpt><trkpt lat="48.395749731686855" lon="-4.616807212937378"><ele>71.0</ele><time>2026-04-05T15:17:10Z</time></trkpt><trkpt lat="48.395670420087356" lon="-4.6167766417587215"><ele>71.0</ele><time>2026-04-05T15:17:11Z</time></trkpt><trkpt lat="48.39559056035133" lon="-4.616744154147019"><ele>71.0</ele><time>2026-04-05T15:17:12Z</time></trkpt><trkpt lat="48.395512311142426" lon="-4.616710123560465"><ele>71.0</ele><time>2026-04-05T15:17:13Z</time></trkpt><trkpt lat="48.395433905208876" lon="-4.616669216204262"><ele>71.0</ele><time>2026-04-05T15:17:14Z</time></trkpt><trkpt lat="48.39535800505803" lon="-4.616629574453989"><ele>71.0</ele><time>2026-04-05T15:17:15Z</time></trkpt><trkpt lat="48.39528347039041" lon="-4.616589268845275"><ele>71.16666666666667</ele><time>2026-04-05T15:17:16Z</time></trkpt><trkpt lat="48.39520766925347" lon="-4.616547615958046"><ele>71.33333333333334</ele><time>2026-04-05T15:17:17Z</time></trkpt><trkpt lat="48.395131850354446" lon="-4.6165061447837585"><ele>71.5</ele><time>2026-04-05T15:17:18Z</time></trkpt><trkpt lat="48.395057291859" lon="-4.616468238531455"><ele>71.66666666666667</ele><time>2026-04-05T15:17:19Z</time></trkpt><trkpt lat="48.394984510410964" lon="-4.616423306332371"><ele>71.83333333333333</ele><time>2026-04-05T15:17:20Z</time></trkpt><trkpt lat="48.39490930157364" lon="-4.6163874593541605"><ele>72.0</ele><time>2026-04-05T15:17:21Z</time></trkpt><trkpt lat="48.394836915428" lon="-4.61634806272959"><ele>72.00000000000001</ele><time>2026-04-05T15:17:22Z</time></trkpt><trkpt lat="48.394766443656025" lon="-4.616307351723348"><ele>72.0</ele><time>2026-04-05T15:17:23Z</time></trkpt><trkpt lat="48.394700161395114" lon="-4.6162580126766235"><ele>72.0</ele><time>2026-04-05T15:17:24Z</time></trkpt><trkpt lat="48.39463104352467" lon="-4.6162140221724774"><ele>72.0</ele><time>2026-04-05T15:17:25Z</time></trkpt><trkpt lat="48.39456367372093" lon="-4.616175728429059"><ele>72.0</ele><time>2026-04-05T15:17:26Z</time></trkpt><trkpt lat="48.394493973572885" lon="-4.616140952590647"><ele>72.00000000000001</ele><time>2026-04-05T15:17:27Z</time></trkpt><trkpt lat="48.39442564347394" lon="-4.616106771602112"><ele>72.0</ele><time>2026-04-05T15:17:28Z</time></trkpt><trkpt lat="48.39436047731538" lon="-4.616069388962811"><ele>72.42857142857143</ele><time>2026-04-05T15:17:29Z</time></trkpt><trkpt lat="48.39429382528377" lon="-4.6160327311536955"><ele>72.85714285714286</ele><time>2026-04-05T15:17:30Z</time></trkpt><trkpt lat="48.394228651228296" lon="-4.616001536778441"><ele>73.28571428571428</ele><time>2026-04-05T15:17:31Z</time></trkpt><trkpt lat="48.39416374736504" lon="-4.615971266797542"><ele>73.71428571428572</ele><time>2026-04-05T15:17:32Z</time></trkpt><trkpt lat="48.39409792569784" lon="-4.61593248327935"><ele>74.14285714285714</ele><time>2026-04-05T15:17:33Z</time></trkpt><trkpt lat="48.39403198358774" lon="-4.615905282236339"><ele>74.57142857142857</ele><time>2026-04-05T15:17:34Z</time></trkpt><trkpt lat="48.39396748184391" lon="-4.615870607902668"><ele>75.0</ele><time>2026-04-05T15:17:35Z</time></trkpt><trkpt lat="48.393902989686914" lon="-4.61583905147358"><ele>75.14285714285714</ele><time>2026-04-05T15:17:36Z</time></trkpt><trkpt lat="48.393836502539216" lon="-4.615811924977973"><ele>75.28571428571428</ele><time>2026-04-05T15:17:37Z</time></trkpt><trkpt lat="48.39376978409983" lon="-4.615783449890502"><ele>75.42857142857142</ele><time>2026-04-05T15:17:38Z</time></trkpt><trkpt lat="48.39370351524138" lon="-4.615760126327749"><ele>75.57142857142857</ele><time>2026-04-05T15:17:39Z</time></trkpt><trkpt lat="48.39363949777909" lon="-4.615733870670487"><ele>75.71428571428572</ele><time>2026-04-05T15:17:40Z</time></trkpt><trkpt lat="48.39357129903791" lon="-4.615710955050681"><ele>75.85714285714285</ele><time>2026-04-05T15:17:41Z</time></trkpt><trkpt lat="48.3935050146395" lon="-4.6156926513327745"><ele>76.0</ele><time>2026-04-05T15:17:41.999Z</time></trkpt><trkpt lat="48.39343964269912" lon="-4.615673053859747"><ele>76.0</ele><time>2026-04-05T15:17:42.999Z</time></trkpt><trkpt lat="48.39337178709746" lon="-4.615651410856133"><ele>76.0</ele><time>2026-04-05T15:17:43.999Z</time></trkpt><trkpt lat="48.39330363445539" lon="-4.6156338724627455"><ele>76.0</ele><time>2026-04-05T15:17:44.999Z</time></trkpt><trkpt lat="48.393236846325316" lon="-4.615612314764849"><ele>76.0</ele><time>2026-04-05T15:17:45.999Z</time></trkpt><trkpt lat="48.39316885048669" lon="-4.615598693429167"><ele>76.0</ele><time>2026-04-05T15:17:46.999Z</time></trkpt><trkpt lat="48.393101370605955" lon="-4.615590649408112"><ele>76.0</ele><time>2026-04-05T15:17:47.999Z</time></trkpt><trkpt lat="48.39303303628199" lon="-4.615576007188181"><ele>76.0</ele><time>2026-04-05T15:17:48.999Z</time></trkpt><trkpt lat="48.39296671751145" lon="-4.615564254012249"><ele>76.14285714285714</ele><time>2026-04-05T15:17:49.999Z</time></trkpt><trkpt lat="48.39290054911785" lon="-4.6155582234562145"><ele>76.28571428571429</ele><time>2026-04-05T15:17:50.999Z</time></trkpt><trkpt lat="48.392835171349105" lon="-4.615553477016704"><ele>76.42857142857143</ele><time>2026-04-05T15:17:51.999Z</time></trkpt><trkpt lat="48.392767377786086" lon="-4.615551913990317"><ele>76.57142857142857</ele><time>2026-04-05T15:17:52.999Z</time></trkpt><trkpt lat="48.39269748145049" lon="-4.615555077575147"><ele>76.71428571428572</ele><time>2026-04-05T15:17:53.999Z</time></trkpt><trkpt lat="48.392629350893" lon="-4.615553614426244"><ele>76.85714285714286</ele><time>2026-04-05T15:17:54.999Z</time></trkpt><trkpt lat="48.39256060242905" lon="-4.615561458533885"><ele>77.0</ele><time>2026-04-05T15:17:55.999Z</time></trkpt><trkpt lat="48.392491576498394" lon="-4.615565878508356"><ele>77.0</ele><time>2026-04-05T15:17:56.999Z</time></trkpt><trkpt lat="48.39242265271086" lon="-4.615578669928736"><ele>77.0</ele><time>2026-04-05T15:17:57.999Z</time></trkpt><trkpt lat="48.39235262143897" lon="-4.615589142823831"><ele>77.0</ele><time>2026-04-05T15:17:58.999Z</time></trkpt><trkpt lat="48.39228186859363" lon="-4.61559304168556"><ele>77.0</ele><time>2026-04-05T15:17:59.999Z</time></trkpt><trkpt lat="48.39221521771537" lon="-4.6155972390543845"><ele>77.0</ele><time>2026-04-05T15:18:00.999Z</time></trkpt><trkpt lat="48.39209167967395" lon="-4.615636025950496"><ele>77.0</ele><time>2026-04-05T15:18:02.999Z</time></trkpt><trkpt lat="48.39202842761998" lon="-4.615653729962071"><ele>77.33333333333334</ele><time>2026-04-05T15:18:03.999Z</time></trkpt><trkpt lat="48.391963366097194" lon="-4.615673666396807"><ele>77.66666666666667</ele><time>2026-04-05T15:18:04.999Z</time></trkpt><trkpt lat="48.39190023722795" lon="-4.615692716916391"><ele>78.0</ele><time>2026-04-05T15:18:05.999Z</time></trkpt><trkpt lat="48.39177803884889" lon="-4.61573968400786"><ele>78.33333333333333</ele><time>2026-04-05T15:18:07.999Z</time></trkpt><trkpt lat="48.391715751497735" lon="-4.615759377796749"><ele>78.66666666666666</ele><time>2026-04-05T15:18:08.999Z</time></trkpt><trkpt lat="48.3916518453786" lon="-4.615787573698532"><ele>79.0</ele><time>2026-04-05T15:18:09.999Z</time></trkpt><trkpt lat="48.39158807611721" lon="-4.6158139798117865"><ele>79.00000000000001</ele><time>2026-04-05T15:18:10.999Z</time></trkpt><trkpt lat="48.391527314637635" lon="-4.615841783409996"><ele>79.0</ele><time>2026-04-05T15:18:11.999Z</time></trkpt><trkpt lat="48.391464974013076" lon="-4.615870985710144"><ele>79.0</ele><time>2026-04-05T15:18:12.999Z</time></trkpt><trkpt lat="48.39140443245467" lon="-4.61590683142531"><ele>79.0</ele><time>2026-04-05T15:18:13.999Z</time></trkpt><trkpt lat="48.391338800774854" lon="-4.615940213129783"><ele>79.0</ele><time>2026-04-05T15:18:14.999Z</time></trkpt><trkpt lat="48.39127485578275" lon="-4.6159675613981666"><ele>79.00000000000001</ele><time>2026-04-05T15:18:15.999Z</time></trkpt><trkpt lat="48.39120992323249" lon="-4.615999442251397"><ele>79.0</ele><time>2026-04-05T15:18:16.999Z</time></trkpt><trkpt lat="48.39114382872343" lon="-4.6160350396709395"><ele>79.00000000000001</ele><time>2026-04-05T15:18:17.999Z</time></trkpt><trkpt lat="48.39107845142796" lon="-4.616073902956713"><ele>79.0</ele><time>2026-04-05T15:18:18.999Z</time></trkpt><trkpt lat="48.3910124156143" lon="-4.616111977556498"><ele>79.0</ele><time>2026-04-05T15:18:19.999Z</time></trkpt><trkpt lat="48.390941629061835" lon="-4.616143010423936"><ele>79.0</ele><time>2026-04-05T15:18:20.999Z</time></trkpt><trkpt lat="48.390877962777274" lon="-4.6161886266590235"><ele>79.0</ele><time>2026-04-05T15:18:21.999Z</time></trkpt><trkpt lat="48.39081085912875" lon="-4.616221440646797"><ele>79.00000000000001</ele><time>2026-04-05T15:18:22.999Z</time></trkpt><trkpt lat="48.390739867769256" lon="-4.61625011566731"><ele>79.0</ele><time>2026-04-05T15:18:23.999Z</time></trkpt><trkpt lat="48.39067360486796" lon="-4.616288841122788"><ele>79.00000000000001</ele><time>2026-04-05T15:18:24.999Z</time></trkpt><trkpt lat="48.39060657959615" lon="-4.6163277539369"><ele>79.0</ele><time>2026-04-05T15:18:25.999Z</time></trkpt><trkpt lat="48.390536910433596" lon="-4.616376932615666"><ele>79.0</ele><time>2026-04-05T15:18:26.999Z</time></trkpt><trkpt lat="48.39046577201337" lon="-4.616416760643339"><ele>79.0</ele><time>2026-04-05T15:18:27.999Z</time></trkpt><trkpt lat="48.3903944124056" lon="-4.6164492033973366"><ele>79.0</ele><time>2026-04-05T15:18:28.999Z</time></trkpt><trkpt lat="48.39032303953217" lon="-4.616483707356381"><ele>79.00000000000001</ele><time>2026-04-05T15:18:29.999Z</time></trkpt><trkpt lat="48.390254785942666" lon="-4.61652309345503"><ele>79.0</ele><time>2026-04-05T15:18:30.999Z</time></trkpt><trkpt lat="48.39019676596765" lon="-4.616582793551725"><ele>78.42857142857143</ele><time>2026-04-05T15:18:31.999Z</time></trkpt><trkpt lat="48.39012406933714" lon="-4.616608097270218"><ele>77.85714285714286</ele><time>2026-04-05T15:18:32.999Z</time></trkpt><trkpt lat="48.39006177563022" lon="-4.616647521452556"><ele>77.28571428571428</ele><time>2026-04-05T15:18:33.999Z</time></trkpt><trkpt lat="48.38999409757732" lon="-4.6166901771685085"><ele>76.71428571428572</ele><time>2026-04-05T15:18:34.999Z</time></trkpt><trkpt lat="48.389927132122914" lon="-4.616738112226466"><ele>76.14285714285714</ele><time>2026-04-05T15:18:35.999Z</time></trkpt><trkpt lat="48.38985694202329" lon="-4.616775323248408"><ele>75.57142857142857</ele><time>2026-04-05T15:18:36.999Z</time></trkpt><trkpt lat="48.38978660284818" lon="-4.616817758531451"><ele>75.0</ele><time>2026-04-05T15:18:37.999Z</time></trkpt><trkpt lat="48.389717128385826" lon="-4.616872060881804"><ele>75.0</ele><time>2026-04-05T15:18:39Z</time></trkpt><trkpt lat="48.3896457168664" lon="-4.616918377478067"><ele>75.0</ele><time>2026-04-05T15:18:40Z</time></trkpt><trkpt lat="48.38958151025866" lon="-4.616989550040858"><ele>75.0</ele><time>2026-04-05T15:18:41Z</time></trkpt><trkpt lat="48.38951157086212" lon="-4.617040362308755"><ele>75.0</ele><time>2026-04-05T15:18:42Z</time></trkpt><trkpt lat="48.389442283249544" lon="-4.617094120809281"><ele>75.0</ele><time>2026-04-05T15:18:43Z</time></trkpt><trkpt lat="48.389371320851424" lon="-4.617149382827787"><ele>75.0</ele><time>2026-04-05T15:18:44Z</time></trkpt><trkpt lat="48.389304267713094" lon="-4.617202437108561"><ele>75.0</ele><time>2026-04-05T15:18:45Z</time></trkpt><trkpt lat="48.3892349212702" lon="-4.617259171478624"><ele>75.0</ele><time>2026-04-05T15:18:46Z</time></trkpt><trkpt lat="48.389162599711746" lon="-4.617318339929642"><ele>75.0</ele><time>2026-04-05T15:18:47Z</time></trkpt><trkpt lat="48.389091477157805" lon="-4.617378567175939"><ele>75.0</ele><time>2026-04-05T15:18:48Z</time></trkpt><trkpt lat="48.38901969556252" lon="-4.617440836554649"><ele>75.0</ele><time>2026-04-05T15:18:49Z</time></trkpt><trkpt lat="48.388951436369645" lon="-4.617501020891156"><ele>75.0</ele><time>2026-04-05T15:18:50Z</time></trkpt><trkpt lat="48.388886424560376" lon="-4.617561402149375"><ele>75.16666666666667</ele><time>2026-04-05T15:18:51Z</time></trkpt><trkpt lat="48.38881897666868" lon="-4.617624544899002"><ele>75.33333333333333</ele><time>2026-04-05T15:18:52Z</time></trkpt><trkpt lat="48.38875392160866" lon="-4.61768748533889"><ele>75.5</ele><time>2026-04-05T15:18:53Z</time></trkpt><trkpt lat="48.388687113089624" lon="-4.6177531028978045"><ele>75.66666666666666</ele><time>2026-04-05T15:18:54Z</time></trkpt><trkpt lat="48.38862240312376" lon="-4.617819234519199"><ele>75.83333333333333</ele><time>2026-04-05T15:18:55Z</time></trkpt><trkpt lat="48.388558284591625" lon="-4.617884761838552"><ele>76.0</ele><time>2026-04-05T15:18:56Z</time></trkpt><trkpt lat="48.388490120283734" lon="-4.617954423899459"><ele>76.0</ele><time>2026-04-05T15:18:57Z</time></trkpt><trkpt lat="48.38842505664452" lon="-4.6180209168314255"><ele>76.0</ele><time>2026-04-05T15:18:58Z</time></trkpt><trkpt lat="48.38836154447306" lon="-4.618089961537529"><ele>76.0</ele><time>2026-04-05T15:18:59Z</time></trkpt><trkpt lat="48.38829490358725" lon="-4.618163766024764"><ele>76.0</ele><time>2026-04-05T15:19:00Z</time></trkpt><trkpt lat="48.38821580143351" lon="-4.618255788853017"><ele>76.0</ele><time>2026-04-05T15:19:01Z</time></trkpt><trkpt lat="48.38813196299293" lon="-4.618353645301552"><ele>76.0</ele><time>2026-04-05T15:19:02Z</time></trkpt><trkpt lat="48.38805283448363" lon="-4.618448037398683"><ele>76.39999999999999</ele><time>2026-04-05T15:19:03Z</time></trkpt><trkpt lat="48.387975193464094" lon="-4.618540652966587"><ele>76.8</ele><time>2026-04-05T15:19:04Z</time></trkpt><trkpt lat="48.38788849449211" lon="-4.618644075650808"><ele>77.19999999999999</ele><time>2026-04-05T15:19:05Z</time></trkpt><trkpt lat="48.38780932781039" lon="-4.618738514278682"><ele>77.6</ele><time>2026-04-05T15:19:06Z</time></trkpt><trkpt lat="48.38773331533089" lon="-4.618829189213029"><ele>78.0</ele><time>2026-04-05T15:19:07Z</time></trkpt><trkpt lat="48.38765998943137" lon="-4.618917309015616"><ele>78.0</ele><time>2026-04-05T15:19:08Z</time></trkpt><trkpt lat="48.38758993479501" lon="-4.619002085038484"><ele>78.0</ele><time>2026-04-05T15:19:09Z</time></trkpt><trkpt lat="48.38752154106321" lon="-4.61908281830312"><ele>78.0</ele><time>2026-04-05T15:19:10Z</time></trkpt><trkpt lat="48.387455249888305" lon="-4.619160624704571"><ele>78.0</ele><time>2026-04-05T15:19:11Z</time></trkpt><trkpt lat="48.38739217425265" lon="-4.619234044986715"><ele>78.0</ele><time>2026-04-05T15:19:12Z</time></trkpt><trkpt lat="48.38732841246009" lon="-4.619306954903776"><ele>78.0</ele><time>2026-04-05T15:19:13Z</time></trkpt><trkpt lat="48.387266360427695" lon="-4.619374806680215"><ele>78.0</ele><time>2026-04-05T15:19:14Z</time></trkpt><trkpt lat="48.38720055089871" lon="-4.619445743665757"><ele>78.0</ele><time>2026-04-05T15:19:15Z</time></trkpt><trkpt lat="48.38713097328796" lon="-4.6194927362071825"><ele>78.0</ele><time>2026-04-05T15:19:16Z</time></trkpt><trkpt lat="48.38707467317581" lon="-4.619576575762495"><ele>78.0</ele><time>2026-04-05T15:19:17Z</time></trkpt><trkpt lat="48.38700162123101" lon="-4.619622910114496"><ele>78.0</ele><time>2026-04-05T15:19:18Z</time></trkpt><trkpt lat="48.38693908999509" lon="-4.6196862906154"><ele>78.0</ele><time>2026-04-05T15:19:19Z</time></trkpt><trkpt lat="48.38687380478641" lon="-4.6197400554369334"><ele>78.33333333333333</ele><time>2026-04-05T15:19:20Z</time></trkpt><trkpt lat="48.38681187855103" lon="-4.619813975559796"><ele>78.66666666666667</ele><time>2026-04-05T15:19:21Z</time></trkpt><trkpt lat="48.38674326813661" lon="-4.619867655760095"><ele>79.0</ele><time>2026-04-05T15:19:22Z</time></trkpt><trkpt lat="48.38667682039692" lon="-4.619915773153852"><ele>79.33333333333334</ele><time>2026-04-05T15:19:23Z</time></trkpt><trkpt lat="48.38661069300454" lon="-4.619962569637258"><ele>79.66666666666667</ele><time>2026-04-05T15:19:24Z</time></trkpt><trkpt lat="48.386541977077194" lon="-4.620010510032131"><ele>80.0</ele><time>2026-04-05T15:19:25Z</time></trkpt><trkpt lat="48.38647383232208" lon="-4.62005805209854"><ele>80.0</ele><time>2026-04-05T15:19:26Z</time></trkpt><trkpt lat="48.38640668502241" lon="-4.6201028222975555"><ele>80.0</ele><time>2026-04-05T15:19:27Z</time></trkpt><trkpt lat="48.386341497185015" lon="-4.620143215576031"><ele>80.0</ele><time>2026-04-05T15:19:28Z</time></trkpt><trkpt lat="48.38627214379509" lon="-4.6201840241619"><ele>80.0</ele><time>2026-04-05T15:19:29Z</time></trkpt><trkpt lat="48.38620116420891" lon="-4.620224468443297"><ele>80.0</ele><time>2026-04-05T15:19:30Z</time></trkpt><trkpt lat="48.38612953975551" lon="-4.620265180007146"><ele>80.0</ele><time>2026-04-05T15:19:31Z</time></trkpt><trkpt lat="48.38606103938535" lon="-4.620302167694008"><ele>80.0</ele><time>2026-04-05T15:19:32Z</time></trkpt><trkpt lat="48.38598883379948" lon="-4.620341156066188"><ele>79.83333333333334</ele><time>2026-04-05T15:19:33Z</time></trkpt><trkpt lat="48.38591998849741" lon="-4.620378337318871"><ele>79.66666666666667</ele><time>2026-04-05T15:19:34Z</time></trkpt><trkpt lat="48.38585764786014" lon="-4.62041200818184"><ele>79.5</ele><time>2026-04-05T15:19:35Z</time></trkpt><trkpt lat="48.385786568272835" lon="-4.620424093465537"><ele>79.33333333333333</ele><time>2026-04-05T15:19:36Z</time></trkpt><trkpt lat="48.38572342051917" lon="-4.620484506057303"><ele>79.16666666666666</ele><time>2026-04-05T15:19:37Z</time></trkpt><trkpt lat="48.38560989246721" lon="-4.620528412978722"><ele>79.0</ele><time>2026-04-05T15:19:39Z</time></trkpt><trkpt lat="48.385549803423416" lon="-4.620570889048692"><ele>78.71428571428572</ele><time>2026-04-05T15:19:40Z</time></trkpt><trkpt lat="48.38548617920642" lon="-4.620590624886292"><ele>78.42857142857143</ele><time>2026-04-05T15:19:41Z</time></trkpt><trkpt lat="48.38542486649939" lon="-4.620644644786917"><ele>78.14285714285714</ele><time>2026-04-05T15:19:42Z</time></trkpt><trkpt lat="48.38535268623899" lon="-4.6206842035976265"><ele>77.85714285714286</ele><time>2026-04-05T15:19:43Z</time></trkpt><trkpt lat="48.38529035735786" lon="-4.620728565044084"><ele>77.57142857142857</ele><time>2026-04-05T15:19:44Z</time></trkpt><trkpt lat="48.38523461251175" lon="-4.620805239769408"><ele>77.28571428571429</ele><time>2026-04-05T15:19:45Z</time></trkpt><trkpt lat="48.38516669701326" lon="-4.620846067537273"><ele>77.0</ele><time>2026-04-05T15:19:46Z</time></trkpt><trkpt lat="48.38508618579522" lon="-4.620844831581289"><ele>77.0</ele><time>2026-04-05T15:19:46.999Z</time></trkpt><trkpt lat="48.38500836361019" lon="-4.620836560291385"><ele>77.0</ele><time>2026-04-05T15:19:47.999Z</time></trkpt><trkpt lat="48.38493829627107" lon="-4.620904355267993"><ele>77.0</ele><time>2026-04-05T15:19:48.999Z</time></trkpt><trkpt lat="48.384859929118576" lon="-4.620945140462733"><ele>77.0</ele><time>2026-04-05T15:19:49.999Z</time></trkpt><trkpt lat="48.38478445876563" lon="-4.620984417751282"><ele>77.0</ele><time>2026-04-05T15:19:50.999Z</time></trkpt><trkpt lat="48.38470965938178" lon="-4.621025086777971"><ele>77.0</ele><time>2026-04-05T15:19:51.999Z</time></trkpt><trkpt lat="48.384634024015696" lon="-4.621066239082138"><ele>76.83333333333334</ele><time>2026-04-05T15:19:52.999Z</time></trkpt><trkpt lat="48.38455763504361" lon="-4.621106994921951"><ele>76.66666666666667</ele><time>2026-04-05T15:19:53.999Z</time></trkpt><trkpt lat="48.38448369919992" lon="-4.621144927987616"><ele>76.5</ele><time>2026-04-05T15:19:54.999Z</time></trkpt><trkpt lat="48.38440561213262" lon="-4.621184630945411"><ele>76.33333333333333</ele><time>2026-04-05T15:19:55.999Z</time></trkpt><trkpt lat="48.384327612663895" lon="-4.621222495728216"><ele>76.16666666666666</ele><time>2026-04-05T15:19:56.999Z</time></trkpt><trkpt lat="48.38425061324567" lon="-4.6212598749502565"><ele>76.0</ele><time>2026-04-05T15:19:57.999Z</time></trkpt><trkpt lat="48.38417066250771" lon="-4.6212986870275286"><ele>75.66666666666666</ele><time>2026-04-05T15:19:58.999Z</time></trkpt><trkpt lat="48.3840820308212" lon="-4.6212928236381545"><ele>75.33333333333333</ele><time>2026-04-05T15:19:59.999Z</time></trkpt><trkpt lat="48.38400482963642" lon="-4.6213311800195145"><ele>75.0</ele><time>2026-04-05T15:20:00.999Z</time></trkpt><trkpt lat="48.38392773624534" lon="-4.621369854449252"><ele>74.66666666666667</ele><time>2026-04-05T15:20:01.999Z</time></trkpt><trkpt lat="48.383849665773845" lon="-4.62140923445214"><ele>74.33333333333334</ele><time>2026-04-05T15:20:02.999Z</time></trkpt><trkpt lat="48.383772234552616" lon="-4.621441616797989"><ele>74.0</ele><time>2026-04-05T15:20:03.999Z</time></trkpt><trkpt lat="48.38369763516819" lon="-4.621474503653969"><ele>74.0</ele><time>2026-04-05T15:20:04.999Z</time></trkpt><trkpt lat="48.38362110769098" lon="-4.621517817695423"><ele>74.0</ele><time>2026-04-05T15:20:05.999Z</time></trkpt><trkpt lat="48.3835493023233" lon="-4.621598756721612"><ele>74.0</ele><time>2026-04-05T15:20:06.999Z</time></trkpt><trkpt lat="48.38347028786999" lon="-4.6216301584542885"><ele>74.0</ele><time>2026-04-05T15:20:07.999Z</time></trkpt><trkpt lat="48.38339382891204" lon="-4.621658528099617"><ele>74.0</ele><time>2026-04-05T15:20:08.999Z</time></trkpt><trkpt lat="48.38331954195795" lon="-4.621684002950356"><ele>74.0</ele><time>2026-04-05T15:20:09.999Z</time></trkpt><trkpt lat="48.383243657979854" lon="-4.621708540640313"><ele>74.0</ele><time>2026-04-05T15:20:10.999Z</time></trkpt><trkpt lat="48.3831715530281" lon="-4.621730189705749"><ele>74.0</ele><time>2026-04-05T15:20:11.999Z</time></trkpt><trkpt lat="48.383102222751965" lon="-4.621750983650339"><ele>74.0</ele><time>2026-04-05T15:20:12.999Z</time></trkpt><trkpt lat="48.38303937844064" lon="-4.621769832335991"><ele>74.0</ele><time>2026-04-05T15:20:13.999Z</time></trkpt><trkpt lat="48.38291732437783" lon="-4.621806439556441"><ele>74.0</ele><time>2026-04-05T15:20:15.999Z</time></trkpt><trkpt lat="48.38279018990321" lon="-4.621823622089093"><ele>73.8</ele><time>2026-04-05T15:20:17.999Z</time></trkpt><trkpt lat="48.382725098974596" lon="-4.621866476029726"><ele>73.60000000000001</ele><time>2026-04-05T15:20:18.999Z</time></trkpt><trkpt lat="48.382658551440144" lon="-4.621887870843407"><ele>73.4</ele><time>2026-04-05T15:20:19.999Z</time></trkpt><trkpt lat="48.38254463762801" lon="-4.621925743305907"><ele>73.2</ele><time>2026-04-05T15:20:21.999Z</time></trkpt><trkpt lat="48.38245071002979" lon="-4.621968098483613"><ele>73.0</ele><time>2026-04-05T15:20:23.999Z</time></trkpt><trkpt lat="48.38234300773072" lon="-4.622187821104542"><ele>72.83333333333333</ele><time>2026-04-05T15:20:26.999Z</time></trkpt><trkpt lat="48.382282327248674" lon="-4.622242350853913"><ele>72.66666666666666</ele><time>2026-04-05T15:20:27.999Z</time></trkpt><trkpt lat="48.38222594516624" lon="-4.62233026690287"><ele>72.5</ele><time>2026-04-05T15:20:28.999Z</time></trkpt><trkpt lat="48.38213782241327" lon="-4.622256435013482"><ele>72.33333333333333</ele><time>2026-04-05T15:20:29.999Z</time></trkpt><trkpt lat="48.38206090937594" lon="-4.622240529665093"><ele>72.16666666666667</ele><time>2026-04-05T15:20:30.999Z</time></trkpt><trkpt lat="48.38198528183752" lon="-4.622235430694822"><ele>72.0</ele><time>2026-04-05T15:20:31.999Z</time></trkpt><trkpt lat="48.381911231212435" lon="-4.622224053172519"><ele>71.5</ele><time>2026-04-05T15:20:32.999Z</time></trkpt><trkpt lat="48.3818365452266" lon="-4.622231126279429"><ele>71.0</ele><time>2026-04-05T15:20:33.999Z</time></trkpt><trkpt lat="48.38176366805664" lon="-4.62220237223161"><ele>70.5</ele><time>2026-04-05T15:20:34.999Z</time></trkpt><trkpt lat="48.38169691283855" lon="-4.622156024321022"><ele>70.0</ele><time>2026-04-05T15:20:35.999Z</time></trkpt><trkpt lat="48.38163908846816" lon="-4.622074905097991"><ele>69.5</ele><time>2026-04-05T15:20:36.999Z</time></trkpt><trkpt lat="48.381597425383596" lon="-4.621973419428392"><ele>69.0</ele><time>2026-04-05T15:20:37.999Z</time></trkpt><trkpt lat="48.38156230918287" lon="-4.621855401351382"><ele>69.0</ele><time>2026-04-05T15:20:38.999Z</time></trkpt><trkpt lat="48.381535341054864" lon="-4.621730875021966"><ele>69.0</ele><time>2026-04-05T15:20:39.999Z</time></trkpt><trkpt lat="48.38151473857763" lon="-4.621607452616482"><ele>69.0</ele><time>2026-04-05T15:20:40.999Z</time></trkpt><trkpt lat="48.3814954027495" lon="-4.621482928269539"><ele>69.0</ele><time>2026-04-05T15:20:41.999Z</time></trkpt><trkpt lat="48.381502015710375" lon="-4.621346210210924"><ele>69.0</ele><time>2026-04-05T15:20:42.999Z</time></trkpt><trkpt lat="48.381523737230815" lon="-4.621231418048608"><ele>69.0</ele><time>2026-04-05T15:20:43.999Z</time></trkpt><trkpt lat="48.381554802804686" lon="-4.621135635084426"><ele>69.16666666666667</ele><time>2026-04-05T15:20:45Z</time></trkpt><trkpt lat="48.38159439454787" lon="-4.620951064775407"><ele>69.33333333333333</ele><time>2026-04-05T15:20:47Z</time></trkpt><trkpt lat="48.3816146070741" lon="-4.620860827747856"><ele>69.5</ele><time>2026-04-05T15:20:48Z</time></trkpt><trkpt lat="48.38161266858809" lon="-4.620764123533735"><ele>69.66666666666666</ele><time>2026-04-05T15:20:49Z</time></trkpt><trkpt lat="48.38163320244126" lon="-4.620664031003358"><ele>69.83333333333333</ele><time>2026-04-05T15:20:50Z</time></trkpt><trkpt lat="48.38167494560842" lon="-4.620515354392973"><ele>70.0</ele><time>2026-04-05T15:20:52Z</time></trkpt><trkpt lat="48.38170264422498" lon="-4.620398176622172"><ele>69.75</ele><time>2026-04-05T15:20:54Z</time></trkpt><trkpt lat="48.38171449220823" lon="-4.620238520942608"><ele>69.5</ele><time>2026-04-05T15:20:56Z</time></trkpt><trkpt lat="48.381705663164624" lon="-4.62006301046401"><ele>69.25</ele><time>2026-04-05T15:20:58Z</time></trkpt><trkpt lat="48.38170566316346" lon="-4.619879805507499"><ele>69.0</ele><time>2026-04-05T15:21:00Z</time></trkpt><trkpt lat="48.381706367083495" lon="-4.619683972875193"><ele>69.0</ele><time>2026-04-05T15:21:02Z</time></trkpt><trkpt lat="48.38170691001204" lon="-4.619586309683296"><ele>69.0</ele><time>2026-04-05T15:21:03Z</time></trkpt><trkpt lat="48.38170730029839" lon="-4.61948885868446"><ele>69.0</ele><time>2026-04-05T15:21:04Z</time></trkpt><trkpt lat="48.381706890726356" lon="-4.61938387167375"><ele>69.0</ele><time>2026-04-05T15:21:05Z</time></trkpt><trkpt lat="48.38170388191138" lon="-4.619206444478213"><ele>69.0</ele><time>2026-04-05T15:21:07Z</time></trkpt><trkpt lat="48.38169465044775" lon="-4.619032204521725"><ele>69.0</ele><time>2026-04-05T15:21:09Z</time></trkpt><trkpt lat="48.38169865685173" lon="-4.618868409799793"><ele>68.8</ele><time>2026-04-05T15:21:11Z</time></trkpt><trkpt lat="48.3816897305592" lon="-4.618770113447804"><ele>68.60000000000001</ele><time>2026-04-05T15:21:12Z</time></trkpt><trkpt lat="48.38167157289164" lon="-4.618581258003746"><ele>68.4</ele><time>2026-04-05T15:21:14Z</time></trkpt><trkpt lat="48.381639657932645" lon="-4.618422059378537"><ele>68.2</ele><time>2026-04-05T15:21:16Z</time></trkpt><trkpt lat="48.381634854309716" lon="-4.618247816609676"><ele>68.0</ele><time>2026-04-05T15:21:18Z</time></trkpt><trkpt lat="48.38161159949936" lon="-4.618071713824089"><ele>68.0</ele><time>2026-04-05T15:21:20Z</time></trkpt><trkpt lat="48.38160867577817" lon="-4.61790421674558"><ele>68.0</ele><time>2026-04-05T15:21:22Z</time></trkpt><trkpt lat="48.38159421017369" lon="-4.61775647177888"><ele>68.0</ele><time>2026-04-05T15:21:24Z</time></trkpt><trkpt lat="48.38158567396215" lon="-4.617614341866948"><ele>68.0</ele><time>2026-04-05T15:21:26Z</time></trkpt><trkpt lat="48.381580285184405" lon="-4.617472702354802"><ele>68.0</ele><time>2026-04-05T15:21:28Z</time></trkpt><trkpt lat="48.38155333917437" lon="-4.617310855902187"><ele>68.66666666666667</ele><time>2026-04-05T15:21:30Z</time></trkpt><trkpt lat="48.3815623008471" lon="-4.617210354451404"><ele>69.33333333333334</ele><time>2026-04-05T15:21:31Z</time></trkpt><trkpt lat="48.38153999720057" lon="-4.617118022517178"><ele>70.0</ele><time>2026-04-05T15:21:32Z</time></trkpt><trkpt lat="48.38153033225894" lon="-4.616977655555574"><ele>70.66666666666667</ele><time>2026-04-05T15:21:34Z</time></trkpt><trkpt lat="48.38151918235754" lon="-4.616816930060719"><ele>71.33333333333333</ele><time>2026-04-05T15:21:36Z</time></trkpt><trkpt lat="48.38150824316062" lon="-4.616659241855398"><ele>72.0</ele><time>2026-04-05T15:21:38Z</time></trkpt><trkpt lat="48.38149533642742" lon="-4.6164670518752065"><ele>72.75</ele><time>2026-04-05T15:21:41Z</time></trkpt><trkpt lat="48.38159574619477" lon="-4.616435639248076"><ele>73.5</ele><time>2026-04-05T15:21:42Z</time></trkpt><trkpt lat="48.381613392404006" lon="-4.616325773450236"><ele>74.25</ele><time>2026-04-05T15:21:44Z</time></trkpt><trkpt lat="48.38164755422231" lon="-4.616109547041869"><ele>75.0</ele><time>2026-04-05T15:21:47Z</time></trkpt><trkpt lat="48.38146489575284" lon="-4.615992496834246"><ele>75.6</ele><time>2026-04-05T15:21:49Z</time></trkpt><trkpt lat="48.38145645910099" lon="-4.615848095116398"><ele>76.2</ele><time>2026-04-05T15:21:51Z</time></trkpt><trkpt lat="48.381447515178714" lon="-4.6156950110161"><ele>76.8</ele><time>2026-04-05T15:21:53Z</time></trkpt><trkpt lat="48.38143968179883" lon="-4.61553270919045"><ele>77.4</ele><time>2026-04-05T15:21:54.999Z</time></trkpt><trkpt lat="48.381433791164454" lon="-4.61535329686286"><ele>78.0</ele><time>2026-04-05T15:21:56.999Z</time></trkpt><trkpt lat="48.38143160376772" lon="-4.615193555413701"><ele>78.0</ele><time>2026-04-05T15:21:58.999Z</time></trkpt><trkpt lat="48.3814318031283" lon="-4.615094537186459"><ele>78.0</ele><time>2026-04-05T15:22:00.999Z</time></trkpt><trkpt lat="48.3814343522767" lon="-4.61487957586977"><ele>78.0</ele><time>2026-04-05T15:22:02.999Z</time></trkpt><trkpt lat="48.381437881303064" lon="-4.614733317796899"><ele>78.0</ele><time>2026-04-05T15:22:04.999Z</time></trkpt><trkpt lat="48.38144289842824" lon="-4.61459686518277"><ele>78.0</ele><time>2026-04-05T15:22:06.999Z</time></trkpt><trkpt lat="48.381459558893745" lon="-4.614398069426881"><ele>78.0</ele><time>2026-04-05T15:22:08.999Z</time></trkpt><trkpt lat="48.381481442932056" lon="-4.614218140223271"><ele>78.0</ele><time>2026-04-05T15:22:10.999Z</time></trkpt><trkpt lat="48.38151039306196" lon="-4.61404758693535"><ele>78.0</ele><time>2026-04-05T15:22:12.999Z</time></trkpt><trkpt lat="48.381543575627575" lon="-4.613874619072605"><ele>78.0</ele><time>2026-04-05T15:22:14.999Z</time></trkpt><trkpt lat="48.381575526219606" lon="-4.6137167651995075"><ele>78.2</ele><time>2026-04-05T15:22:16.999Z</time></trkpt><trkpt lat="48.381605747630594" lon="-4.613573524033198"><ele>78.4</ele><time>2026-04-05T15:22:18.999Z</time></trkpt><trkpt lat="48.381626161925155" lon="-4.6134767659535845"><ele>78.60000000000001</ele><time>2026-04-05T15:22:19.999Z</time></trkpt><trkpt lat="48.38166114496472" lon="-4.613306150251132"><ele>78.8</ele><time>2026-04-05T15:22:21.999Z</time></trkpt><trkpt lat="48.38168156835002" lon="-4.6132048135122"><ele>79.0</ele><time>2026-04-05T15:22:22.999Z</time></trkpt><trkpt lat="48.38171762464347" lon="-4.613022701562649"><ele>79.0</ele><time>2026-04-05T15:22:24.999Z</time></trkpt><trkpt lat="48.38173687163498" lon="-4.6129254989108"><ele>79.0</ele><time>2026-04-05T15:22:25.999Z</time></trkpt><trkpt lat="48.38175566322174" lon="-4.612830596487133"><ele>79.0</ele><time>2026-04-05T15:22:26.999Z</time></trkpt><trkpt lat="48.38178997679971" lon="-4.612652500223694"><ele>79.0</ele><time>2026-04-05T15:22:28.999Z</time></trkpt><trkpt lat="48.381808423734604" lon="-4.61255349447096"><ele>79.0</ele><time>2026-04-05T15:22:29.999Z</time></trkpt><trkpt lat="48.38183983463028" lon="-4.612384909927771"><ele>79.0</ele><time>2026-04-05T15:22:31.999Z</time></trkpt><trkpt lat="48.38187388392683" lon="-4.612202165296836"><ele>78.5</ele><time>2026-04-05T15:22:33.999Z</time></trkpt><trkpt lat="48.381903676757695" lon="-4.612037672531086"><ele>78.0</ele><time>2026-04-05T15:22:35.999Z</time></trkpt><trkpt lat="48.38192542019566" lon="-4.611916036060727"><ele>77.5</ele><time>2026-04-05T15:22:39.999Z</time></trkpt><trkpt lat="48.381942897703" lon="-4.611816527981791"><ele>77.0</ele><time>2026-04-05T15:22:41.999Z</time></trkpt><trkpt lat="48.38196572849074" lon="-4.611679014891511"><ele>76.5</ele><time>2026-04-05T15:22:43.999Z</time></trkpt><trkpt lat="48.38197832121085" lon="-4.611583508524588"><ele>76.0</ele><time>2026-04-05T15:22:44.999Z</time></trkpt><trkpt lat="48.3820012624175" lon="-4.6114034498278675"><ele>75.66666666666666</ele><time>2026-04-05T15:22:46.999Z</time></trkpt><trkpt lat="48.382013210452214" lon="-4.611304314648829"><ele>75.33333333333333</ele><time>2026-04-05T15:22:47.999Z</time></trkpt><trkpt lat="48.38202332897727" lon="-4.611208076331677"><ele>75.0</ele><time>2026-04-05T15:22:48.999Z</time></trkpt><trkpt lat="48.38203115318324" lon="-4.611113258068141"><ele>74.66666666666667</ele><time>2026-04-05T15:22:49.999Z</time></trkpt><trkpt lat="48.38204083329326" lon="-4.610927640502458"><ele>74.33333333333334</ele><time>2026-04-05T15:22:52Z</time></trkpt><trkpt lat="48.382045352510644" lon="-4.610826276138455"><ele>74.0</ele><time>2026-04-05T15:22:53Z</time></trkpt><trkpt lat="48.38204612699664" lon="-4.610643126107288"><ele>73.71428571428572</ele><time>2026-04-05T15:22:55Z</time></trkpt><trkpt lat="48.382045448718095" lon="-4.610540031300543"><ele>73.42857142857143</ele><time>2026-04-05T15:22:56Z</time></trkpt><trkpt lat="48.38203884892951" lon="-4.610444282004079"><ele>73.14285714285714</ele><time>2026-04-05T15:22:57Z</time></trkpt><trkpt lat="48.38203256398972" lon="-4.610336278598811"><ele>72.85714285714286</ele><time>2026-04-05T15:22:58Z</time></trkpt><trkpt lat="48.382025754527646" lon="-4.610235313992245"><ele>72.57142857142857</ele><time>2026-04-05T15:22:59Z</time></trkpt><trkpt lat="48.38201715969613" lon="-4.610130099087293"><ele>72.28571428571429</ele><time>2026-04-05T15:23:00Z</time></trkpt><trkpt lat="48.38200184613662" lon="-4.609972785435244"><ele>72.0</ele><time>2026-04-05T15:23:01Z</time></trkpt><trkpt lat="48.38198502609675" lon="-4.609795797242547"><ele>72.0</ele><time>2026-04-05T15:23:03Z</time></trkpt><trkpt lat="48.38198929655344" lon="-4.609696820547373"><ele>72.0</ele><time>2026-04-05T15:23:04Z</time></trkpt><trkpt lat="48.382001369629606" lon="-4.6096028449663775"><ele>72.0</ele><time>2026-04-05T15:23:05Z</time></trkpt><trkpt lat="48.38199929608519" lon="-4.609483803313592"><ele>72.0</ele><time>2026-04-05T15:23:07Z</time></trkpt><trkpt lat="48.38199695298145" lon="-4.609347649740297"><ele>72.0</ele><time>2026-04-05T15:23:10Z</time></trkpt><trkpt lat="48.38199444815695" lon="-4.609202099122362"><ele>72.0</ele><time>2026-04-05T15:23:12Z</time></trkpt><trkpt lat="48.38191337072553" lon="-4.609132478130063"><ele>71.85714285714286</ele><time>2026-04-05T15:23:15Z</time></trkpt><trkpt lat="48.381877537913695" lon="-4.60904076285919"><ele>71.71428571428572</ele><time>2026-04-05T15:23:16Z</time></trkpt><trkpt lat="48.38184723248615" lon="-4.608949831926981"><ele>71.57142857142857</ele><time>2026-04-05T15:23:17Z</time></trkpt><trkpt lat="48.38182069578818" lon="-4.608849952511345"><ele>71.42857142857143</ele><time>2026-04-05T15:23:18Z</time></trkpt><trkpt lat="48.38180315573457" lon="-4.608739267325272"><ele>71.28571428571428</ele><time>2026-04-05T15:23:19Z</time></trkpt><trkpt lat="48.38179353249816" lon="-4.60862512210001"><ele>71.14285714285714</ele><time>2026-04-05T15:23:20Z</time></trkpt><trkpt lat="48.38177465477347" lon="-4.608514036974973"><ele>71.0</ele><time>2026-04-05T15:23:21Z</time></trkpt><trkpt lat="48.38173753936374" lon="-4.608421195723802"><ele>71.0</ele><time>2026-04-05T15:23:22Z</time></trkpt><trkpt lat="48.381702860724836" lon="-4.608259617069132"><ele>71.0</ele><time>2026-04-05T15:23:24Z</time></trkpt><trkpt lat="48.38166769149078" lon="-4.608097073027079"><ele>71.0</ele><time>2026-04-05T15:23:26Z</time></trkpt><trkpt lat="48.381644306523704" lon="-4.607994391634115"><ele>71.0</ele><time>2026-04-05T15:23:28Z</time></trkpt><trkpt lat="48.38166729943478" lon="-4.608095351309325"><ele>71.0</ele><time>2026-04-05T15:23:29Z</time></trkpt><trkpt lat="48.381639840602695" lon="-4.607974741169125"><ele>71.39999999999999</ele><time>2026-04-05T15:23:31Z</time></trkpt><trkpt lat="48.38160211014064" lon="-4.6078259396349655"><ele>71.8</ele><time>2026-04-05T15:23:33Z</time></trkpt><trkpt lat="48.38155706023049" lon="-4.607653326528919"><ele>72.19999999999999</ele><time>2026-04-05T15:23:34Z</time></trkpt><trkpt lat="48.38152033669796" lon="-4.60751838617782"><ele>72.6</ele><time>2026-04-05T15:23:35Z</time></trkpt><trkpt lat="48.38149339055811" lon="-4.607424858614505"><ele>73.0</ele><time>2026-04-05T15:23:36Z</time></trkpt><trkpt lat="48.381451183117655" lon="-4.607278361366487"><ele>73.0</ele><time>2026-04-05T15:23:37Z</time></trkpt><trkpt lat="48.381403126110094" lon="-4.60711156676831"><ele>73.0</ele><time>2026-04-05T15:23:38Z</time></trkpt><trkpt lat="48.38137516211224" lon="-4.607014511543947"><ele>73.0</ele><time>2026-04-05T15:23:39Z</time></trkpt><trkpt lat="48.38130788571944" lon="-4.606927958109114"><ele>73.0</ele><time>2026-04-05T15:23:41Z</time></trkpt><trkpt lat="48.381237620595044" lon="-4.606788417844819"><ele>73.0</ele><time>2026-04-05T15:23:43Z</time></trkpt><trkpt lat="48.38117159991184" lon="-4.606662002022982"><ele>73.0</ele><time>2026-04-05T15:23:45Z</time></trkpt><trkpt lat="48.38110111328645" lon="-4.6065313811754285"><ele>73.0</ele><time>2026-04-05T15:23:47Z</time></trkpt><trkpt lat="48.381036319080756" lon="-4.6064199774807735"><ele>73.0</ele><time>2026-04-05T15:23:49Z</time></trkpt><trkpt lat="48.3809647224373" lon="-4.606304682898089"><ele>73.0</ele><time>2026-04-05T15:23:51Z</time></trkpt><trkpt lat="48.38090818721679" lon="-4.6062169069778145"><ele>73.0</ele><time>2026-04-05T15:23:53Z</time></trkpt><trkpt lat="48.38116329155048" lon="-4.605687580205223"><ele>73.0</ele><time>2026-04-05T15:23:56Z</time></trkpt><trkpt lat="48.38115437402112" lon="-4.605538027955811"><ele>73.0</ele><time>2026-04-05T15:23:58Z</time></trkpt><trkpt lat="48.381038074239314" lon="-4.605502301237707"><ele>73.0</ele><time>2026-04-05T15:23:58.999Z</time></trkpt><trkpt lat="48.38101229979541" lon="-4.6053294009859504"><ele>73.0</ele><time>2026-04-05T15:24:00.999Z</time></trkpt><trkpt lat="48.38097344560427" lon="-4.605202111872438"><ele>73.0</ele><time>2026-04-05T15:24:02.999Z</time></trkpt><trkpt lat="48.380942204989175" lon="-4.605060158358305"><ele>73.4</ele><time>2026-04-05T15:24:04.999Z</time></trkpt><trkpt lat="48.38090639217687" lon="-4.604895865901285"><ele>73.8</ele><time>2026-04-05T15:24:06.999Z</time></trkpt><trkpt lat="48.38087189367115" lon="-4.604735758162276"><ele>74.2</ele><time>2026-04-05T15:24:08.999Z</time></trkpt><trkpt lat="48.380851746170336" lon="-4.604642253785841"><ele>74.6</ele><time>2026-04-05T15:24:09.999Z</time></trkpt><trkpt lat="48.380817512248285" lon="-4.60448337412435"><ele>75.0</ele><time>2026-04-05T15:24:11.999Z</time></trkpt><trkpt lat="48.38078035554351" lon="-4.60430881460749"><ele>75.25</ele><time>2026-04-05T15:24:13.999Z</time></trkpt><trkpt lat="48.380745305699" lon="-4.604147615029881"><ele>75.5</ele><time>2026-04-05T15:24:15.999Z</time></trkpt><trkpt lat="48.38070898855832" lon="-4.603980588095331"><ele>75.75</ele><time>2026-04-05T15:24:17.999Z</time></trkpt><trkpt lat="48.38075773133899" lon="-4.603776353973579"><ele>76.0</ele><time>2026-04-05T15:24:19.999Z</time></trkpt><trkpt lat="48.3807101965971" lon="-4.603611601204545"><ele>76.39999999999999</ele><time>2026-04-05T15:24:21.999Z</time></trkpt><trkpt lat="48.38067188203551" lon="-4.603449142060251"><ele>76.8</ele><time>2026-04-05T15:24:23.999Z</time></trkpt><trkpt lat="48.38066530433445" lon="-4.603280596576806"><ele>77.19999999999999</ele><time>2026-04-05T15:24:25.999Z</time></trkpt><trkpt lat="48.38066988719622" lon="-4.6031439075292315"><ele>77.6</ele><time>2026-04-05T15:24:28.999Z</time></trkpt><trkpt lat="48.38063175055284" lon="-4.603039607701218"><ele>78.0</ele><time>2026-04-05T15:24:31.999Z</time></trkpt><trkpt lat="48.380606672020576" lon="-4.602904261937535"><ele>78.4</ele><time>2026-04-05T15:24:32.999Z</time></trkpt><trkpt lat="48.38057245808645" lon="-4.602742321906893"><ele>78.8</ele><time>2026-04-05T15:24:34.999Z</time></trkpt><trkpt lat="48.38054319113417" lon="-4.602576793800153"><ele>79.2</ele><time>2026-04-05T15:24:36.999Z</time></trkpt><trkpt lat="48.38051402607739" lon="-4.602452618242455"><ele>79.6</ele><time>2026-04-05T15:24:38.999Z</time></trkpt><trkpt lat="48.3804376430307" lon="-4.602448764165264"><ele>80.0</ele><time>2026-04-05T15:24:40.999Z</time></trkpt><trkpt lat="48.380402462303934" lon="-4.602305253487415"><ele>79.0</ele><time>2026-04-05T15:24:44.999Z</time></trkpt><trkpt lat="48.38036451594018" lon="-4.602147598872833"><ele>78.0</ele><time>2026-04-05T15:24:46.999Z</time></trkpt><trkpt lat="48.3803225236871" lon="-4.6019981776032495"><ele>77.0</ele><time>2026-04-05T15:24:48.999Z</time></trkpt><trkpt lat="48.380266309291905" lon="-4.60189148847952"><ele>76.0</ele><time>2026-04-05T15:24:49.999Z</time></trkpt><trkpt lat="48.38024984858615" lon="-4.601769976931807"><ele>75.0</ele><time>2026-04-05T15:24:51.999Z</time></trkpt><trkpt lat="48.38022981867868" lon="-4.601672472389983"><ele>75.0</ele><time>2026-04-05T15:24:53.999Z</time></trkpt><trkpt lat="48.38018688419505" lon="-4.601550855471719"><ele>75.0</ele><time>2026-04-05T15:24:55.999Z</time></trkpt><trkpt lat="48.38013548723353" lon="-4.601422163482759"><ele>75.0</ele><time>2026-04-05T15:24:58Z</time></trkpt><trkpt lat="48.380098152425376" lon="-4.601279012749742"><ele>75.0</ele><time>2026-04-05T15:25:00Z</time></trkpt><trkpt lat="48.38006696352012" lon="-4.601166705919369"><ele>75.0</ele><time>2026-04-05T15:25:02Z</time></trkpt><trkpt lat="48.3800167854948" lon="-4.601051046246445"><ele>75.0</ele><time>2026-04-05T15:25:04Z</time></trkpt><trkpt lat="48.379958649330895" lon="-4.600938142698786"><ele>75.0</ele><time>2026-04-05T15:25:06Z</time></trkpt><trkpt lat="48.37990631536597" lon="-4.600825236992141"><ele>75.0</ele><time>2026-04-05T15:25:08Z</time></trkpt><trkpt lat="48.37984058806202" lon="-4.600709945056157"><ele>75.0</ele><time>2026-04-05T15:25:10Z</time></trkpt><trkpt lat="48.37976236233935" lon="-4.6006282689716835"><ele>75.0</ele><time>2026-04-05T15:25:12Z</time></trkpt><trkpt lat="48.379702019093465" lon="-4.60059813299304"><ele>75.0</ele><time>2026-04-05T15:25:14Z</time></trkpt><trkpt lat="48.37967752096835" lon="-4.600687713934947"><ele>75.0</ele><time>2026-04-05T15:25:17Z</time></trkpt><trkpt lat="48.379645436698794" lon="-4.6006021862794"><ele>75.0</ele><time>2026-04-05T15:25:20Z</time></trkpt><trkpt lat="48.3795630537732" lon="-4.6004835714164125"><ele>75.0</ele><time>2026-04-05T15:25:24Z</time></trkpt><trkpt lat="48.37951210873053" lon="-4.600412466520684"><ele>75.0</ele><time>2026-04-05T15:25:26Z</time></trkpt><trkpt lat="48.37946578320688" lon="-4.6003273832210345"><ele>75.0</ele><time>2026-04-05T15:25:28Z</time></trkpt><trkpt lat="48.37940328305665" lon="-4.600236245534183"><ele>75.0</ele><time>2026-04-05T15:25:30Z</time></trkpt><trkpt lat="48.379337842012504" lon="-4.600155457758817"><ele>75.5</ele><time>2026-04-05T15:25:32Z</time></trkpt><trkpt lat="48.37927716420719" lon="-4.60007237762152"><ele>76.0</ele><time>2026-04-05T15:25:34Z</time></trkpt><trkpt lat="48.37922414350589" lon="-4.600006019302428"><ele>76.5</ele><time>2026-04-05T15:25:36Z</time></trkpt><trkpt lat="48.37915747412636" lon="-4.5999227981285244"><ele>77.0</ele><time>2026-04-05T15:25:38Z</time></trkpt><trkpt lat="48.37909068213251" lon="-4.599848865404876"><ele>77.5</ele><time>2026-04-05T15:25:40Z</time></trkpt><trkpt lat="48.379030221295096" lon="-4.599756428192199"><ele>78.0</ele><time>2026-04-05T15:25:42Z</time></trkpt><trkpt lat="48.37894423709279" lon="-4.599691409793461"><ele>78.0</ele><time>2026-04-05T15:25:44Z</time></trkpt><trkpt lat="48.37887954398945" lon="-4.599611994850202"><ele>78.0</ele><time>2026-04-05T15:25:46Z</time></trkpt><trkpt lat="48.37881669165268" lon="-4.599560499704314"><ele>78.0</ele><time>2026-04-05T15:25:48Z</time></trkpt><trkpt lat="48.378770180527646" lon="-4.599476902127687"><ele>78.0</ele><time>2026-04-05T15:25:50Z</time></trkpt><trkpt lat="48.37871818274196" lon="-4.599368678878171"><ele>78.0</ele><time>2026-04-05T15:25:52Z</time></trkpt><trkpt lat="48.378630732175594" lon="-4.599288655024159"><ele>78.0</ele><time>2026-04-05T15:25:54Z</time></trkpt><trkpt lat="48.378539341655745" lon="-4.599202904354397"><ele>77.6</ele><time>2026-04-05T15:25:56Z</time></trkpt><trkpt lat="48.37852375973402" lon="-4.599106209452569"><ele>77.19999999999999</ele><time>2026-04-05T15:25:57Z</time></trkpt><trkpt lat="48.378471764756206" lon="-4.599036734944367"><ele>76.8</ele><time>2026-04-05T15:25:58Z</time></trkpt><trkpt lat="48.37838945079432" lon="-4.5989308531219235"><ele>76.39999999999999</ele><time>2026-04-05T15:26:00Z</time></trkpt><trkpt lat="48.378233012951455" lon="-4.598912187443375"><ele>76.0</ele><time>2026-04-05T15:26:02Z</time></trkpt><trkpt lat="48.378175408513236" lon="-4.598862075448184"><ele>76.0</ele><time>2026-04-05T15:26:03Z</time></trkpt><trkpt lat="48.378118137223076" lon="-4.5988013078175145"><ele>76.0</ele><time>2026-04-05T15:26:04Z</time></trkpt><trkpt lat="48.378059442870324" lon="-4.598728117085282"><ele>76.0</ele><time>2026-04-05T15:26:05Z</time></trkpt><trkpt lat="48.37786655292234" lon="-4.5988384014085675"><ele>76.0</ele><time>2026-04-05T15:26:06Z</time></trkpt><trkpt lat="48.377819178595345" lon="-4.598756703782833"><ele>76.0</ele><time>2026-04-05T15:26:06.999Z</time></trkpt><trkpt lat="48.3777762784008" lon="-4.598682722876672"><ele>76.0</ele><time>2026-04-05T15:26:07.999Z</time></trkpt><trkpt lat="48.37773003056368" lon="-4.59860460617448"><ele>76.0</ele><time>2026-04-05T15:26:08.999Z</time></trkpt><trkpt lat="48.37768298523896" lon="-4.598527012629193"><ele>76.0</ele><time>2026-04-05T15:26:09.999Z</time></trkpt><trkpt lat="48.37759618809381" lon="-4.598394761205552"><ele>76.0</ele><time>2026-04-05T15:26:11.999Z</time></trkpt><trkpt lat="48.37754777029406" lon="-4.598328155449921"><ele>76.0</ele><time>2026-04-05T15:26:12.999Z</time></trkpt><trkpt lat="48.37749638143867" lon="-4.598265292771747"><ele>76.0</ele><time>2026-04-05T15:26:13.999Z</time></trkpt><trkpt lat="48.377441241604956" lon="-4.598203679913355"><ele>76.0</ele><time>2026-04-05T15:26:14.999Z</time></trkpt><trkpt lat="48.377382395405064" lon="-4.598144081982223"><ele>76.0</ele><time>2026-04-05T15:26:15.999Z</time></trkpt><trkpt lat="48.37731828606995" lon="-4.598082987310029"><ele>76.0</ele><time>2026-04-05T15:26:16.999Z</time></trkpt><trkpt lat="48.377250554185935" lon="-4.5980231855224005"><ele>76.0</ele><time>2026-04-05T15:26:17.999Z</time></trkpt><trkpt lat="48.37718632788689" lon="-4.597969653386892"><ele>76.0</ele><time>2026-04-05T15:26:18.999Z</time></trkpt><trkpt lat="48.37712284313281" lon="-4.59791694760306"><ele>76.0</ele><time>2026-04-05T15:26:19.999Z</time></trkpt><trkpt lat="48.37705782128567" lon="-4.597865199771392"><ele>76.0</ele><time>2026-04-05T15:26:20.999Z</time></trkpt><trkpt lat="48.37699276996225" lon="-4.59781421493007"><ele>76.16666666666666</ele><time>2026-04-05T15:26:21.999Z</time></trkpt><trkpt lat="48.376922493622146" lon="-4.597759132836282"><ele>76.33333333333333</ele><time>2026-04-05T15:26:22.999Z</time></trkpt><trkpt lat="48.376855555279924" lon="-4.597711598833946"><ele>76.5</ele><time>2026-04-05T15:26:23.999Z</time></trkpt><trkpt lat="48.37678775677857" lon="-4.597662977980313"><ele>76.66666666666667</ele><time>2026-04-05T15:26:24.999Z</time></trkpt><trkpt lat="48.37672297281468" lon="-4.597616521288649"><ele>76.83333333333334</ele><time>2026-04-05T15:26:25.999Z</time></trkpt><trkpt lat="48.37664890494781" lon="-4.5975634068696785"><ele>77.0</ele><time>2026-04-05T15:26:26.999Z</time></trkpt><trkpt lat="48.3765822655942" lon="-4.597515624638957"><ele>77.0</ele><time>2026-04-05T15:26:27.999Z</time></trkpt><trkpt lat="48.376523905481456" lon="-4.5974738457839255"><ele>77.0</ele><time>2026-04-05T15:26:28.999Z</time></trkpt><trkpt lat="48.37646437590479" lon="-4.597431229637319"><ele>77.0</ele><time>2026-04-05T15:26:29.999Z</time></trkpt><trkpt lat="48.376406437693824" lon="-4.597389405885844"><ele>77.0</ele><time>2026-04-05T15:26:30.999Z</time></trkpt><trkpt lat="48.37634877347338" lon="-4.5973470510993675"><ele>77.0</ele><time>2026-04-05T15:26:31.999Z</time></trkpt><trkpt lat="48.37628640978559" lon="-4.597301244494273"><ele>77.0</ele><time>2026-04-05T15:26:32.999Z</time></trkpt><trkpt lat="48.376223027030996" lon="-4.597254691029624"><ele>77.0</ele><time>2026-04-05T15:26:33.999Z</time></trkpt><trkpt lat="48.37616219255439" lon="-4.5972079642365635"><ele>77.0</ele><time>2026-04-05T15:26:34.999Z</time></trkpt><trkpt lat="48.37609952660898" lon="-4.597160780627899"><ele>77.0</ele><time>2026-04-05T15:26:35.999Z</time></trkpt><trkpt lat="48.37603338279765" lon="-4.597111114605556"><ele>77.0</ele><time>2026-04-05T15:26:36.999Z</time></trkpt><trkpt lat="48.375971796198336" lon="-4.597064870502625"><ele>77.0</ele><time>2026-04-05T15:26:37.999Z</time></trkpt><trkpt lat="48.37591056498556" lon="-4.59701889326589"><ele>77.0</ele><time>2026-04-05T15:26:38.999Z</time></trkpt><trkpt lat="48.3758125622431" lon="-4.5969453050797044"><ele>77.0</ele><time>2026-04-05T15:26:40.999Z</time></trkpt><trkpt lat="48.375744812867715" lon="-4.596894433472768"><ele>77.25</ele><time>2026-04-05T15:26:42.999Z</time></trkpt><trkpt lat="48.37565222796226" lon="-4.596824740326979"><ele>77.5</ele><time>2026-04-05T15:26:44.999Z</time></trkpt><trkpt lat="48.37555188613111" lon="-4.596747229299985"><ele>77.75</ele><time>2026-04-05T15:26:46.999Z</time></trkpt><trkpt lat="48.37544123227199" lon="-4.596662844136349"><ele>78.0</ele><time>2026-04-05T15:26:48.999Z</time></trkpt><trkpt lat="48.37533550595974" lon="-4.596580429086415"><ele>78.5</ele><time>2026-04-05T15:26:50.999Z</time></trkpt><trkpt lat="48.37527832041148" lon="-4.5965358522100415"><ele>79.0</ele><time>2026-04-05T15:26:51.999Z</time></trkpt><trkpt lat="48.375221649700286" lon="-4.59649167661271"><ele>79.5</ele><time>2026-04-05T15:26:52.999Z</time></trkpt><trkpt lat="48.37516339439834" lon="-4.596445938615729"><ele>80.0</ele><time>2026-04-05T15:26:53.999Z</time></trkpt><trkpt lat="48.3750653051518" lon="-4.596367802368072"><ele>80.5</ele><time>2026-04-05T15:26:55.999Z</time></trkpt><trkpt lat="48.374962697500386" lon="-4.596277835553688"><ele>81.0</ele><time>2026-04-05T15:26:57.999Z</time></trkpt><trkpt lat="48.374868464743095" lon="-4.596193283971055"><ele>81.19999999999999</ele><time>2026-04-05T15:26:59.999Z</time></trkpt><trkpt lat="48.37477471517434" lon="-4.596105224163919"><ele>81.39999999999999</ele><time>2026-04-05T15:27:01.999Z</time></trkpt><trkpt lat="48.37468268408636" lon="-4.59600951453241"><ele>81.6</ele><time>2026-04-05T15:27:04Z</time></trkpt><trkpt lat="48.374599363618486" lon="-4.595912202157056"><ele>81.8</ele><time>2026-04-05T15:27:08Z</time></trkpt><trkpt lat="48.37453616915634" lon="-4.595833209217086"><ele>82.0</ele><time>2026-04-05T15:27:10Z</time></trkpt><trkpt lat="48.37446518622189" lon="-4.595739314507215"><ele>82.39999999999999</ele><time>2026-04-05T15:27:13Z</time></trkpt><trkpt lat="48.37439682130182" lon="-4.59564591046327"><ele>82.8</ele><time>2026-04-05T15:27:15Z</time></trkpt><trkpt lat="48.37431823843978" lon="-4.595529041780365"><ele>83.2</ele><time>2026-04-05T15:27:18Z</time></trkpt><trkpt lat="48.37426966698173" lon="-4.59545148508875"><ele>83.6</ele><time>2026-04-05T15:27:20Z</time></trkpt><trkpt lat="48.374192758999996" lon="-4.595327275315269"><ele>84.0</ele><time>2026-04-05T15:27:22Z</time></trkpt><trkpt lat="48.37417672926877" lon="-4.595222436474049"><ele>84.5</ele><time>2026-04-05T15:27:25Z</time></trkpt><trkpt lat="48.3741757086804" lon="-4.594559557945074"><ele>85.0</ele><time>2026-04-05T15:27:26Z</time></trkpt><trkpt lat="48.37415150746878" lon="-4.594467025977041"><ele>85.33333333333333</ele><time>2026-04-05T15:27:28Z</time></trkpt><trkpt lat="48.37412537852164" lon="-4.594368770875517"><ele>85.66666666666666</ele><time>2026-04-05T15:27:30Z</time></trkpt><trkpt lat="48.374061643988114" lon="-4.594374358806207"><ele>86.0</ele><time>2026-04-05T15:27:34Z</time></trkpt><trkpt lat="48.37398709920244" lon="-4.5944047491801205"><ele>86.33333333333333</ele><time>2026-04-05T15:27:37Z</time></trkpt><trkpt lat="48.37405671908068" lon="-4.59432380087293"><ele>86.66666666666667</ele><time>2026-04-05T15:28:14.999Z</time></trkpt><trkpt lat="48.37407742046429" lon="-4.594180016981858"><ele>87.0</ele><time>2026-04-05T15:28:16.999Z</time></trkpt><trkpt lat="48.37404052889913" lon="-4.594026944829263"><ele>87.0</ele><time>2026-04-05T15:28:18.999Z</time></trkpt><trkpt lat="48.374027306714495" lon="-4.59393200251806"><ele>87.0</ele><time>2026-04-05T15:28:19.999Z</time></trkpt><trkpt lat="48.37389920007888" lon="-4.593919754030263"><ele>87.0</ele><time>2026-04-05T15:28:20.999Z</time></trkpt><trkpt lat="48.373827418087416" lon="-4.593832112237378"><ele>87.0</ele><time>2026-04-05T15:28:22.999Z</time></trkpt><trkpt lat="48.373772324960065" lon="-4.593741000314592"><ele>87.0</ele><time>2026-04-05T15:28:23.999Z</time></trkpt><trkpt lat="48.37371652641673" lon="-4.593648689352489"><ele>87.5</ele><time>2026-04-05T15:28:24.999Z</time></trkpt><trkpt lat="48.373662534585826" lon="-4.593558588909713"><ele>88.0</ele><time>2026-04-05T15:28:25.999Z</time></trkpt><trkpt lat="48.373611883181745" lon="-4.593473561698184"><ele>88.5</ele><time>2026-04-05T15:28:26.999Z</time></trkpt><trkpt lat="48.37356615872197" lon="-4.593396804794484"><ele>89.0</ele><time>2026-04-05T15:28:27.999Z</time></trkpt><trkpt lat="48.37351860883485" lon="-4.593316983756696"><ele>89.5</ele><time>2026-04-05T15:28:28.999Z</time></trkpt><trkpt lat="48.37347641523484" lon="-4.593244846077674"><ele>90.0</ele><time>2026-04-05T15:28:29.999Z</time></trkpt><trkpt lat="48.37340897723268" lon="-4.593126338552402"><ele>90.0</ele><time>2026-04-05T15:28:31.999Z</time></trkpt><trkpt lat="48.37333679456828" lon="-4.5929969141130345"><ele>90.0</ele><time>2026-04-05T15:28:33.999Z</time></trkpt><trkpt lat="48.37329601707237" lon="-4.592923800104433"><ele>90.0</ele><time>2026-04-05T15:28:34.999Z</time></trkpt><trkpt lat="48.373225542930896" lon="-4.592798082537159"><ele>90.0</ele><time>2026-04-05T15:28:36.999Z</time></trkpt><trkpt lat="48.37318059650559" lon="-4.592725094342097"><ele>90.0</ele><time>2026-04-05T15:28:37.999Z</time></trkpt><trkpt lat="48.37309699324206" lon="-4.592589327216435"><ele>90.16666666666667</ele><time>2026-04-05T15:28:39.999Z</time></trkpt><trkpt lat="48.37304844985705" lon="-4.592510494764824"><ele>90.33333333333333</ele><time>2026-04-05T15:28:40.999Z</time></trkpt><trkpt lat="48.37300280025526" lon="-4.592436361696805"><ele>90.5</ele><time>2026-04-05T15:28:41.999Z</time></trkpt><trkpt lat="48.37306333465992" lon="-4.592219806123569"><ele>90.66666666666666</ele><time>2026-04-05T15:28:42.999Z</time></trkpt><trkpt lat="48.37300511717814" lon="-4.592151282171488"><ele>90.83333333333333</ele><time>2026-04-05T15:28:43.999Z</time></trkpt><trkpt lat="48.37294879300579" lon="-4.592090612594887"><ele>91.0</ele><time>2026-04-05T15:28:44.999Z</time></trkpt><trkpt lat="48.37281557832947" lon="-4.592295427036155"><ele>91.19999999999999</ele><time>2026-04-05T15:28:45.999Z</time></trkpt><trkpt lat="48.37274866868298" lon="-4.592245045139691"><ele>91.39999999999999</ele><time>2026-04-05T15:28:46.999Z</time></trkpt><trkpt lat="48.37264984050904" lon="-4.5921746346722125"><ele>91.6</ele><time>2026-04-05T15:28:48.999Z</time></trkpt><trkpt lat="48.37257616703542" lon="-4.592079773151987"><ele>91.8</ele><time>2026-04-05T15:28:49.999Z</time></trkpt><trkpt lat="48.372507104580265" lon="-4.592016373108456"><ele>92.0</ele><time>2026-04-05T15:28:51.999Z</time></trkpt><trkpt lat="48.37240725342739" lon="-4.591942884694691"><ele>92.0</ele><time>2026-04-05T15:28:53.999Z</time></trkpt><trkpt lat="48.37232827509586" lon="-4.591902721694062"><ele>92.0</ele><time>2026-04-05T15:28:55.999Z</time></trkpt><trkpt lat="48.37219402015805" lon="-4.591745934685556"><ele>92.0</ele><time>2026-04-05T15:28:57.999Z</time></trkpt><trkpt lat="48.372144639975694" lon="-4.591643521173926"><ele>92.0</ele><time>2026-04-05T15:28:59.999Z</time></trkpt><trkpt lat="48.372093842424405" lon="-4.591538879479137"><ele>92.0</ele><time>2026-04-05T15:29:02.999Z</time></trkpt><trkpt lat="48.372188568321846" lon="-4.591519863547083"><ele>92.19999999999999</ele><time>2026-04-05T15:29:03.999Z</time></trkpt><trkpt lat="48.372113760408496" lon="-4.591582577256384"><ele>92.4</ele><time>2026-04-05T15:29:05.999Z</time></trkpt><trkpt lat="48.37202118761827" lon="-4.59162565108484"><ele>92.6</ele><time>2026-04-05T15:29:07.999Z</time></trkpt><trkpt lat="48.371939207825065" lon="-4.591548018025765"><ele>92.80000000000001</ele><time>2026-04-05T15:29:10Z</time></trkpt><trkpt lat="48.37189263195953" lon="-4.591395272103333"><ele>93.0</ele><time>2026-04-05T15:29:12Z</time></trkpt><trkpt lat="48.371911557750686" lon="-4.591221318882021"><ele>93.0</ele><time>2026-04-05T15:29:14Z</time></trkpt><trkpt lat="48.37184201392196" lon="-4.591149577567254"><ele>93.0</ele><time>2026-04-05T15:29:15Z</time></trkpt><trkpt lat="48.37179818544208" lon="-4.591078318826511"><ele>93.0</ele><time>2026-04-05T15:29:16Z</time></trkpt><trkpt lat="48.371754800874065" lon="-4.591007581316174"><ele>93.0</ele><time>2026-04-05T15:29:17Z</time></trkpt><trkpt lat="48.37167780270426" lon="-4.590883171008777"><ele>93.0</ele><time>2026-04-05T15:29:19Z</time></trkpt><trkpt lat="48.37159231689312" lon="-4.590772318323054"><ele>93.0</ele><time>2026-04-05T15:29:21Z</time></trkpt><trkpt lat="48.371514268247104" lon="-4.590648594414072"><ele>93.0</ele><time>2026-04-05T15:29:23Z</time></trkpt><trkpt lat="48.37144101166362" lon="-4.590525812150906"><ele>93.0</ele><time>2026-04-05T15:29:25Z</time></trkpt><trkpt lat="48.371355697478776" lon="-4.590406784177448"><ele>93.0</ele><time>2026-04-05T15:29:27Z</time></trkpt><trkpt lat="48.37128127468949" lon="-4.590299378348578"><ele>93.0</ele><time>2026-04-05T15:29:29Z</time></trkpt><trkpt lat="48.37120099514631" lon="-4.590185283923642"><ele>93.0</ele><time>2026-04-05T15:29:31Z</time></trkpt><trkpt lat="48.3711139028043" lon="-4.59007454349533"><ele>92.5</ele><time>2026-04-05T15:29:33Z</time></trkpt><trkpt lat="48.37105436057261" lon="-4.590007765406157"><ele>92.0</ele><time>2026-04-05T15:29:34Z</time></trkpt><trkpt lat="48.37099756836375" lon="-4.589938565696569"><ele>91.5</ele><time>2026-04-05T15:29:35Z</time></trkpt><trkpt lat="48.370940586170654" lon="-4.589871936082774"><ele>91.0</ele><time>2026-04-05T15:29:36Z</time></trkpt><trkpt lat="48.37087984359381" lon="-4.58980015868204"><ele>90.5</ele><time>2026-04-05T15:29:37Z</time></trkpt><trkpt lat="48.37081364818385" lon="-4.589730190791541"><ele>90.0</ele><time>2026-04-05T15:29:38Z</time></trkpt><trkpt lat="48.37073860624535" lon="-4.589663815563041"><ele>90.0</ele><time>2026-04-05T15:29:39Z</time></trkpt><trkpt lat="48.37066581882577" lon="-4.5895925569650124"><ele>90.0</ele><time>2026-04-05T15:29:40Z</time></trkpt><trkpt lat="48.37058731089402" lon="-4.589518518683381"><ele>90.0</ele><time>2026-04-05T15:29:41Z</time></trkpt><trkpt lat="48.370505647148235" lon="-4.589447198653113"><ele>90.0</ele><time>2026-04-05T15:29:42Z</time></trkpt><trkpt lat="48.370425733987695" lon="-4.589377392142147"><ele>90.0</ele><time>2026-04-05T15:29:43Z</time></trkpt><trkpt lat="48.37034302232005" lon="-4.589304873878499"><ele>89.6</ele><time>2026-04-05T15:29:44Z</time></trkpt><trkpt lat="48.37026019731325" lon="-4.589228873962949"><ele>89.2</ele><time>2026-04-05T15:29:45Z</time></trkpt><trkpt lat="48.370170790853855" lon="-4.589169650270849"><ele>88.80000000000001</ele><time>2026-04-05T15:29:46Z</time></trkpt><trkpt lat="48.37008205256883" lon="-4.589100142702848"><ele>88.4</ele><time>2026-04-05T15:29:47Z</time></trkpt><trkpt lat="48.3699955142489" lon="-4.58903156907214"><ele>88.0</ele><time>2026-04-05T15:29:48Z</time></trkpt><trkpt lat="48.36990784898642" lon="-4.588960677894322"><ele>88.0</ele><time>2026-04-05T15:29:49Z</time></trkpt><trkpt lat="48.36982062378271" lon="-4.588894771431045"><ele>88.0</ele><time>2026-04-05T15:29:50Z</time></trkpt><trkpt lat="48.36973190633749" lon="-4.588829173069653"><ele>88.0</ele><time>2026-04-05T15:29:51Z</time></trkpt><trkpt lat="48.36964549712228" lon="-4.588764440387234"><ele>88.0</ele><time>2026-04-05T15:29:52Z</time></trkpt><trkpt lat="48.369567193083526" lon="-4.588732936428322"><ele>88.0</ele><time>2026-04-05T15:29:53Z</time></trkpt><trkpt lat="48.369488722348294" lon="-4.588700690884026"><ele>87.16666666666666</ele><time>2026-04-05T15:29:54Z</time></trkpt><trkpt lat="48.369412035233296" lon="-4.588657092135298"><ele>86.33333333333333</ele><time>2026-04-05T15:29:55Z</time></trkpt><trkpt lat="48.369344208642296" lon="-4.588603317505812"><ele>85.5</ele><time>2026-04-05T15:29:56Z</time></trkpt><trkpt lat="48.36928505313098" lon="-4.58853785700085"><ele>84.66666666666667</ele><time>2026-04-05T15:29:57Z</time></trkpt><trkpt lat="48.36922639521859" lon="-4.588460910598165"><ele>83.83333333333334</ele><time>2026-04-05T15:29:58Z</time></trkpt><trkpt lat="48.36915222648846" lon="-4.588412405542114"><ele>83.0</ele><time>2026-04-05T15:29:59Z</time></trkpt><trkpt lat="48.36907434676275" lon="-4.588388912569028"><ele>83.0</ele><time>2026-04-05T15:30:00Z</time></trkpt><trkpt lat="48.36900197430259" lon="-4.58835904472973"><ele>83.0</ele><time>2026-04-05T15:30:01Z</time></trkpt><trkpt lat="48.36893629704178" lon="-4.588320671823789"><ele>83.0</ele><time>2026-04-05T15:30:02Z</time></trkpt><trkpt lat="48.368874598830644" lon="-4.588283845147512"><ele>83.0</ele><time>2026-04-05T15:30:03Z</time></trkpt><trkpt lat="48.36876027868501" lon="-4.588215308298276"><ele>83.0</ele><time>2026-04-05T15:30:05Z</time></trkpt><trkpt lat="48.368645089698944" lon="-4.5884177054247175"><ele>83.60000000000001</ele><time>2026-04-05T15:30:06Z</time></trkpt><trkpt lat="48.368557953328484" lon="-4.588512197445708"><ele>84.2</ele><time>2026-04-05T15:30:08Z</time></trkpt><trkpt lat="48.36847012274825" lon="-4.588337978243887"><ele>84.8</ele><time>2026-04-05T15:30:09Z</time></trkpt><trkpt lat="48.368425384556886" lon="-4.588231955694561"><ele>85.4</ele><time>2026-04-05T15:30:10Z</time></trkpt><trkpt lat="48.36837773071412" lon="-4.588150026233558"><ele>86.0</ele><time>2026-04-05T15:30:11Z</time></trkpt><trkpt lat="48.368309588729986" lon="-4.588095094270047"><ele>86.0</ele><time>2026-04-05T15:30:12Z</time></trkpt><trkpt lat="48.36825564357277" lon="-4.588029817961195"><ele>86.0</ele><time>2026-04-05T15:30:13Z</time></trkpt><trkpt lat="48.3681903235637" lon="-4.587973133434591"><ele>86.0</ele><time>2026-04-05T15:30:14Z</time></trkpt><trkpt lat="48.36812618572402" lon="-4.587899820912897"><ele>86.0</ele><time>2026-04-05T15:30:15Z</time></trkpt><trkpt lat="48.36805824900264" lon="-4.5878361451377"><ele>86.0</ele><time>2026-04-05T15:30:16Z</time></trkpt><trkpt lat="48.36798844783493" lon="-4.587763987599156"><ele>86.0</ele><time>2026-04-05T15:30:17Z</time></trkpt><trkpt lat="48.36791840235213" lon="-4.5876873258268684"><ele>86.16666666666667</ele><time>2026-04-05T15:30:18Z</time></trkpt><trkpt lat="48.36784739074264" lon="-4.587610809063034"><ele>86.33333333333334</ele><time>2026-04-05T15:30:19Z</time></trkpt><trkpt lat="48.367772019741494" lon="-4.587539247110419"><ele>86.5</ele><time>2026-04-05T15:30:20Z</time></trkpt><trkpt lat="48.36769940254477" lon="-4.587462052298601"><ele>86.66666666666667</ele><time>2026-04-05T15:30:21Z</time></trkpt><trkpt lat="48.36762914839148" lon="-4.587386161914845"><ele>86.83333333333333</ele><time>2026-04-05T15:30:22Z</time></trkpt><trkpt lat="48.36755967173734" lon="-4.5873092805261955"><ele>87.0</ele><time>2026-04-05T15:30:22.999Z</time></trkpt><trkpt lat="48.36748872478392" lon="-4.587229923090714"><ele>87.0</ele><time>2026-04-05T15:30:23.999Z</time></trkpt><trkpt lat="48.367415830307955" lon="-4.5871534882354315"><ele>87.0</ele><time>2026-04-05T15:30:24.999Z</time></trkpt><trkpt lat="48.36734663112542" lon="-4.587072831057824"><ele>87.0</ele><time>2026-04-05T15:30:25.999Z</time></trkpt><trkpt lat="48.36728233155329" lon="-4.586987093194793"><ele>87.0</ele><time>2026-04-05T15:30:26.999Z</time></trkpt><trkpt lat="48.36721819845376" lon="-4.586910433084819"><ele>87.0</ele><time>2026-04-05T15:30:27.999Z</time></trkpt><trkpt lat="48.367156328171866" lon="-4.586827816752631"><ele>87.0</ele><time>2026-04-05T15:30:28.999Z</time></trkpt><trkpt lat="48.367100912311564" lon="-4.586729271433072"><ele>87.0</ele><time>2026-04-05T15:30:29.999Z</time></trkpt><trkpt lat="48.367047676846894" lon="-4.586631703940196"><ele>87.0</ele><time>2026-04-05T15:30:30.999Z</time></trkpt><trkpt lat="48.366997706456964" lon="-4.586530020686812"><ele>87.0</ele><time>2026-04-05T15:30:31.999Z</time></trkpt><trkpt lat="48.366945833623056" lon="-4.586432428706501"><ele>87.0</ele><time>2026-04-05T15:30:32.999Z</time></trkpt><trkpt lat="48.366892991206875" lon="-4.586331106074055"><ele>87.0</ele><time>2026-04-05T15:30:33.999Z</time></trkpt><trkpt lat="48.366839446099526" lon="-4.586231584024023"><ele>87.0</ele><time>2026-04-05T15:30:34.999Z</time></trkpt><trkpt lat="48.36678899714057" lon="-4.586136719602526"><ele>86.66666666666667</ele><time>2026-04-05T15:30:35.999Z</time></trkpt><trkpt lat="48.36673464020642" lon="-4.586036262657861"><ele>86.33333333333333</ele><time>2026-04-05T15:30:36.999Z</time></trkpt><trkpt lat="48.36668177632483" lon="-4.585941628843657"><ele>86.0</ele><time>2026-04-05T15:30:37.999Z</time></trkpt><trkpt lat="48.366628126987344" lon="-4.58584496129249"><ele>85.66666666666666</ele><time>2026-04-05T15:30:38.999Z</time></trkpt><trkpt lat="48.366574862795225" lon="-4.585749386220067"><ele>85.33333333333333</ele><time>2026-04-05T15:30:39.999Z</time></trkpt><trkpt lat="48.36651947118026" lon="-4.585659065742692"><ele>85.0</ele><time>2026-04-05T15:30:40.999Z</time></trkpt><trkpt lat="48.366459816823685" lon="-4.585572887973997"><ele>85.0</ele><time>2026-04-05T15:30:41.999Z</time></trkpt><trkpt lat="48.366395770505925" lon="-4.5854975779459"><ele>85.0</ele><time>2026-04-05T15:30:42.999Z</time></trkpt><trkpt lat="48.36632179373198" lon="-4.585436143657948"><ele>85.0</ele><time>2026-04-05T15:30:43.999Z</time></trkpt><trkpt lat="48.36625032406779" lon="-4.585376194683505"><ele>85.0</ele><time>2026-04-05T15:30:44.999Z</time></trkpt><trkpt lat="48.36618407755015" lon="-4.585319030064434"><ele>85.0</ele><time>2026-04-05T15:30:45.999Z</time></trkpt><trkpt lat="48.366117496274654" lon="-4.585266646168579"><ele>85.0</ele><time>2026-04-05T15:30:46.999Z</time></trkpt><trkpt lat="48.36604128651579" lon="-4.585218997045934"><ele>84.83333333333333</ele><time>2026-04-05T15:30:47.999Z</time></trkpt><trkpt lat="48.36591222142043" lon="-4.585105667879816"><ele>84.66666666666666</ele><time>2026-04-05T15:30:49.999Z</time></trkpt><trkpt lat="48.36584838432452" lon="-4.58505057187765"><ele>84.5</ele><time>2026-04-05T15:30:50.999Z</time></trkpt><trkpt lat="48.365784895376926" lon="-4.585001220676985"><ele>84.33333333333333</ele><time>2026-04-05T15:30:51.999Z</time></trkpt><trkpt lat="48.36571852732734" lon="-4.584956435288588"><ele>84.16666666666667</ele><time>2026-04-05T15:30:52.999Z</time></trkpt><trkpt lat="48.3656577869249" lon="-4.5849036567898205"><ele>84.0</ele><time>2026-04-05T15:30:53.999Z</time></trkpt><trkpt lat="48.36559393924492" lon="-4.584866185603913"><ele>84.0</ele><time>2026-04-05T15:30:54.999Z</time></trkpt><trkpt lat="48.36553240371847" lon="-4.584826299412918"><ele>84.0</ele><time>2026-04-05T15:30:55.999Z</time></trkpt><trkpt lat="48.365465747135275" lon="-4.584794921152486"><ele>84.0</ele><time>2026-04-05T15:30:56.999Z</time></trkpt><trkpt lat="48.36540116931151" lon="-4.584780000300484"><ele>84.0</ele><time>2026-04-05T15:30:57.999Z</time></trkpt><trkpt lat="48.36533570694281" lon="-4.584772166308391"><ele>84.0</ele><time>2026-04-05T15:30:58.999Z</time></trkpt><trkpt lat="48.36521530006767" lon="-4.584742780549183"><ele>84.0</ele><time>2026-04-05T15:31:00.999Z</time></trkpt><trkpt lat="48.36509711558548" lon="-4.584706994550414"><ele>84.5</ele><time>2026-04-05T15:31:02.999Z</time></trkpt><trkpt lat="48.36498518930612" lon="-4.5846793901097085"><ele>85.0</ele><time>2026-04-05T15:31:04.999Z</time></trkpt><trkpt lat="48.36487120894789" lon="-4.584654560830501"><ele>85.5</ele><time>2026-04-05T15:31:06.999Z</time></trkpt><trkpt lat="48.36475265840102" lon="-4.584625357136241"><ele>86.0</ele><time>2026-04-05T15:31:08.999Z</time></trkpt><trkpt lat="48.36463124098289" lon="-4.584609140393219"><ele>86.33333333333334</ele><time>2026-04-05T15:31:10.999Z</time></trkpt><trkpt lat="48.364568148498755" lon="-4.584606588402059"><ele>86.66666666666667</ele><time>2026-04-05T15:31:11.999Z</time></trkpt><trkpt lat="48.36444051547837" lon="-4.58461701498563"><ele>87.0</ele><time>2026-04-05T15:31:13.999Z</time></trkpt><trkpt lat="48.364377449634055" lon="-4.584627112660391"><ele>87.33333333333333</ele><time>2026-04-05T15:31:15Z</time></trkpt><trkpt lat="48.36431246429975" lon="-4.5846510558304026"><ele>87.66666666666666</ele><time>2026-04-05T15:31:16Z</time></trkpt><trkpt lat="48.364248398171696" lon="-4.584675256813436"><ele>88.0</ele><time>2026-04-05T15:31:17Z</time></trkpt><trkpt lat="48.364184756456304" lon="-4.584708354809526"><ele>88.0</ele><time>2026-04-05T15:31:18Z</time></trkpt><trkpt lat="48.364123004794294" lon="-4.584740953180261"><ele>88.0</ele><time>2026-04-05T15:31:19Z</time></trkpt><trkpt lat="48.3640611657408" lon="-4.58477002833823"><ele>88.0</ele><time>2026-04-05T15:31:20Z</time></trkpt><trkpt lat="48.36399860873668" lon="-4.584792376029027"><ele>88.0</ele><time>2026-04-05T15:31:21Z</time></trkpt><trkpt lat="48.36393827414358" lon="-4.5848291136670385"><ele>88.0</ele><time>2026-04-05T15:31:22Z</time></trkpt><trkpt lat="48.363875963403416" lon="-4.5848567898233625"><ele>88.0</ele><time>2026-04-05T15:31:23Z</time></trkpt><trkpt lat="48.363815226167056" lon="-4.584889964661559"><ele>88.0</ele><time>2026-04-05T15:31:24Z</time></trkpt><trkpt lat="48.36369503128641" lon="-4.584912056325898"><ele>88.4</ele><time>2026-04-05T15:31:26Z</time></trkpt><trkpt lat="48.36363186503606" lon="-4.584904782378011"><ele>88.80000000000001</ele><time>2026-04-05T15:31:27Z</time></trkpt><trkpt lat="48.36351959487338" lon="-4.584873765454886"><ele>89.2</ele><time>2026-04-05T15:31:29Z</time></trkpt><trkpt lat="48.36340663155312" lon="-4.5848416601199276"><ele>89.6</ele><time>2026-04-05T15:31:31Z</time></trkpt><trkpt lat="48.36330313877604" lon="-4.584798931282655"><ele>90.0</ele><time>2026-04-05T15:31:33Z</time></trkpt><trkpt lat="48.36319836987264" lon="-4.584748717508866"><ele>90.0</ele><time>2026-04-05T15:31:35Z</time></trkpt><trkpt lat="48.363094327320766" lon="-4.584740050442408"><ele>90.0</ele><time>2026-04-05T15:31:37Z</time></trkpt><trkpt lat="48.36300234321566" lon="-4.584707217507892"><ele>90.0</ele><time>2026-04-05T15:31:39Z</time></trkpt><trkpt lat="48.362924778422425" lon="-4.584584157819016"><ele>90.0</ele><time>2026-04-05T15:31:41Z</time></trkpt><trkpt lat="48.36285075748278" lon="-4.584444320454721"><ele>90.0</ele><time>2026-04-05T15:31:43Z</time></trkpt><trkpt lat="48.362817103808126" lon="-4.584364041396812"><ele>89.25</ele><time>2026-04-05T15:31:44Z</time></trkpt><trkpt lat="48.3627576369282" lon="-4.584232610064704"><ele>88.5</ele><time>2026-04-05T15:31:46Z</time></trkpt><trkpt lat="48.362683901850836" lon="-4.584089614092294"><ele>87.75</ele><time>2026-04-05T15:31:48Z</time></trkpt><trkpt lat="48.36261902145843" lon="-4.583946713880343"><ele>87.0</ele><time>2026-04-05T15:31:50Z</time></trkpt><trkpt lat="48.36250755273508" lon="-4.583892849478833"><ele>87.0</ele><time>2026-04-05T15:31:52Z</time></trkpt><trkpt lat="48.36246675874523" lon="-4.583796047170028"><ele>87.0</ele><time>2026-04-05T15:31:53Z</time></trkpt><trkpt lat="48.362434335362366" lon="-4.583712979738863"><ele>87.0</ele><time>2026-04-05T15:31:54Z</time></trkpt><trkpt lat="48.36244319999931" lon="-4.583591981907941"><ele>87.0</ele><time>2026-04-05T15:31:55Z</time></trkpt><trkpt lat="48.36240273198381" lon="-4.583411033728073"><ele>87.0</ele><time>2026-04-05T15:31:57Z</time></trkpt><trkpt lat="48.36237206930743" lon="-4.583323901932935"><ele>87.0</ele><time>2026-04-05T15:31:58Z</time></trkpt><trkpt lat="48.36233813863267" lon="-4.583230797738947"><ele>87.0</ele><time>2026-04-05T15:31:59Z</time></trkpt><trkpt lat="48.362298263673075" lon="-4.58314616048464"><ele>87.0</ele><time>2026-04-05T15:32:00Z</time></trkpt><trkpt lat="48.362256819714496" lon="-4.583062755100459"><ele>87.0</ele><time>2026-04-05T15:32:01Z</time></trkpt><trkpt lat="48.36221649321278" lon="-4.582970080639516"><ele>87.0</ele><time>2026-04-05T15:32:02Z</time></trkpt><trkpt lat="48.362179825506374" lon="-4.582892251845313"><ele>87.0</ele><time>2026-04-05T15:32:03Z</time></trkpt><trkpt lat="48.36215320299927" lon="-4.58280224779981"><ele>87.0</ele><time>2026-04-05T15:32:04Z</time></trkpt><trkpt lat="48.362092658568535" lon="-4.582631016825494"><ele>86.8</ele><time>2026-04-05T15:32:06Z</time></trkpt><trkpt lat="48.362030824218955" lon="-4.582481862852452"><ele>86.6</ele><time>2026-04-05T15:32:08Z</time></trkpt><trkpt lat="48.361965669196145" lon="-4.582320891734052"><ele>86.39999999999999</ele><time>2026-04-05T15:32:10Z</time></trkpt><trkpt lat="48.36192820175703" lon="-4.582219829419734"><ele>86.19999999999999</ele><time>2026-04-05T15:32:11Z</time></trkpt><trkpt lat="48.361888080102254" lon="-4.582114352941153"><ele>86.0</ele><time>2026-04-05T15:32:12Z</time></trkpt><trkpt lat="48.36184658947187" lon="-4.582019682397186"><ele>86.0</ele><time>2026-04-05T15:32:13Z</time></trkpt><trkpt lat="48.36181050150327" lon="-4.581916430624891"><ele>86.0</ele><time>2026-04-05T15:32:14Z</time></trkpt><trkpt lat="48.361764088980486" lon="-4.581821006188104"><ele>86.0</ele><time>2026-04-05T15:32:15Z</time></trkpt><trkpt lat="48.361720806477734" lon="-4.581718657279102"><ele>86.0</ele><time>2026-04-05T15:32:16Z</time></trkpt><trkpt lat="48.36166778868112" lon="-4.581619322031306"><ele>86.0</ele><time>2026-04-05T15:32:17Z</time></trkpt><trkpt lat="48.36161325898467" lon="-4.581514002698255"><ele>86.0</ele><time>2026-04-05T15:32:18Z</time></trkpt><trkpt lat="48.36156572905363" lon="-4.581396872671841"><ele>86.0</ele><time>2026-04-05T15:32:19Z</time></trkpt><trkpt lat="48.36151287841409" lon="-4.581291582247466"><ele>86.0</ele><time>2026-04-05T15:32:20Z</time></trkpt><trkpt lat="48.361458780316156" lon="-4.581184272192739"><ele>86.0</ele><time>2026-04-05T15:32:21Z</time></trkpt><trkpt lat="48.361401183886144" lon="-4.581065618195683"><ele>86.0</ele><time>2026-04-05T15:32:22Z</time></trkpt><trkpt lat="48.361343990116566" lon="-4.580953345438699"><ele>86.0</ele><time>2026-04-05T15:32:23Z</time></trkpt><trkpt lat="48.36128131732161" lon="-4.580835764942933"><ele>85.0</ele><time>2026-04-05T15:32:23.999Z</time></trkpt><trkpt lat="48.36123037321263" lon="-4.580709311441175"><ele>84.0</ele><time>2026-04-05T15:32:24.999Z</time></trkpt><trkpt lat="48.36117607655595" lon="-4.5805839803255495"><ele>83.0</ele><time>2026-04-05T15:32:25.999Z</time></trkpt><trkpt lat="48.3611157852928" lon="-4.580467591562582"><ele>82.0</ele><time>2026-04-05T15:32:26.999Z</time></trkpt><trkpt lat="48.361055291447485" lon="-4.580349961980077"><ele>81.0</ele><time>2026-04-05T15:32:27.999Z</time></trkpt><trkpt lat="48.36099683150223" lon="-4.580224762123183"><ele>80.6</ele><time>2026-04-05T15:32:28.999Z</time></trkpt><trkpt lat="48.360942734788814" lon="-4.580092476333313"><ele>80.19999999999999</ele><time>2026-04-05T15:32:29.999Z</time></trkpt><trkpt lat="48.36088961752951" lon="-4.579959797374145"><ele>79.80000000000001</ele><time>2026-04-05T15:32:30.999Z</time></trkpt><trkpt lat="48.36082269917207" lon="-4.579838445280936"><ele>79.4</ele><time>2026-04-05T15:32:31.999Z</time></trkpt><trkpt lat="48.360771204370415" lon="-4.579701535600812"><ele>79.0</ele><time>2026-04-05T15:32:32.999Z</time></trkpt><trkpt lat="48.360732794577224" lon="-4.5795577334584925"><ele>79.0</ele><time>2026-04-05T15:32:33.999Z</time></trkpt><trkpt lat="48.36068794479395" lon="-4.5794226641329825"><ele>79.0</ele><time>2026-04-05T15:32:34.999Z</time></trkpt><trkpt lat="48.36064780773348" lon="-4.579283653025341"><ele>79.0</ele><time>2026-04-05T15:32:35.999Z</time></trkpt><trkpt lat="48.36061057892714" lon="-4.579137806434837"><ele>79.0</ele><time>2026-04-05T15:32:36.999Z</time></trkpt><trkpt lat="48.36057464457888" lon="-4.578996025683531"><ele>79.0</ele><time>2026-04-05T15:32:37.999Z</time></trkpt><trkpt lat="48.360548132388054" lon="-4.57885672930227"><ele>78.4</ele><time>2026-04-05T15:32:38.999Z</time></trkpt><trkpt lat="48.36051983232067" lon="-4.578715058291606"><ele>77.80000000000001</ele><time>2026-04-05T15:32:39.999Z</time></trkpt><trkpt lat="48.36049179826484" lon="-4.5785665625392085"><ele>77.19999999999999</ele><time>2026-04-05T15:32:40.999Z</time></trkpt><trkpt lat="48.360464566784216" lon="-4.578421107598348"><ele>76.6</ele><time>2026-04-05T15:32:41.999Z</time></trkpt><trkpt lat="48.360428911712965" lon="-4.578271851039218"><ele>76.0</ele><time>2026-04-05T15:32:42.999Z</time></trkpt><trkpt lat="48.36040141869554" lon="-4.578129017245739"><ele>76.0</ele><time>2026-04-05T15:32:43.999Z</time></trkpt><trkpt lat="48.36037692910344" lon="-4.577984870761553"><ele>76.0</ele><time>2026-04-05T15:32:44.999Z</time></trkpt><trkpt lat="48.36034039039577" lon="-4.577840404271655"><ele>76.0</ele><time>2026-04-05T15:32:45.999Z</time></trkpt><trkpt lat="48.360312745134095" lon="-4.57769718382318"><ele>76.0</ele><time>2026-04-05T15:32:46.999Z</time></trkpt><trkpt lat="48.36029143405863" lon="-4.577552632714548"><ele>76.0</ele><time>2026-04-05T15:32:47.999Z</time></trkpt><trkpt lat="48.360260819667104" lon="-4.577411750309459"><ele>76.2</ele><time>2026-04-05T15:32:48.999Z</time></trkpt><trkpt lat="48.36022137282116" lon="-4.577268043978343"><ele>76.39999999999999</ele><time>2026-04-05T15:32:49.999Z</time></trkpt><trkpt lat="48.360188203275726" lon="-4.577128899747885"><ele>76.6</ele><time>2026-04-05T15:32:50.999Z</time></trkpt><trkpt lat="48.360162814865085" lon="-4.5769903374426795"><ele>76.8</ele><time>2026-04-05T15:32:51.999Z</time></trkpt><trkpt lat="48.36013719463282" lon="-4.576849806131062"><ele>77.0</ele><time>2026-04-05T15:32:52.999Z</time></trkpt><trkpt lat="48.36012538914899" lon="-4.576700092551633"><ele>77.0</ele><time>2026-04-05T15:32:53.999Z</time></trkpt><trkpt lat="48.360121481831044" lon="-4.576554065127286"><ele>77.0</ele><time>2026-04-05T15:32:54.999Z</time></trkpt><trkpt lat="48.360119370927045" lon="-4.576413192881475"><ele>77.0</ele><time>2026-04-05T15:32:55.999Z</time></trkpt><trkpt lat="48.36012627915927" lon="-4.576267284191449"><ele>77.0</ele><time>2026-04-05T15:32:56.999Z</time></trkpt><trkpt lat="48.36014551880138" lon="-4.576122636663005"><ele>77.0</ele><time>2026-04-05T15:32:57.999Z</time></trkpt><trkpt lat="48.36017076582932" lon="-4.575981477114204"><ele>76.6</ele><time>2026-04-05T15:32:58.999Z</time></trkpt><trkpt lat="48.36019499828054" lon="-4.575837559653985"><ele>76.2</ele><time>2026-04-05T15:32:59.999Z</time></trkpt><trkpt lat="48.360222536519586" lon="-4.575697791481777"><ele>75.8</ele><time>2026-04-05T15:33:00.999Z</time></trkpt><trkpt lat="48.36025662244988" lon="-4.575557749974295"><ele>75.4</ele><time>2026-04-05T15:33:01.999Z</time></trkpt><trkpt lat="48.36028352311219" lon="-4.5754189740279285"><ele>75.0</ele><time>2026-04-05T15:33:02.999Z</time></trkpt><trkpt lat="48.36031718014031" lon="-4.575274864586143"><ele>74.6</ele><time>2026-04-05T15:33:03.999Z</time></trkpt><trkpt lat="48.360348244465314" lon="-4.57512979759259"><ele>74.2</ele><time>2026-04-05T15:33:04.999Z</time></trkpt><trkpt lat="48.360377498570294" lon="-4.574982868734746"><ele>73.8</ele><time>2026-04-05T15:33:05.999Z</time></trkpt><trkpt lat="48.36040853832279" lon="-4.574840539665098"><ele>73.4</ele><time>2026-04-05T15:33:06.999Z</time></trkpt><trkpt lat="48.36043733566252" lon="-4.574692453242961"><ele>73.0</ele><time>2026-04-05T15:33:07.999Z</time></trkpt><trkpt lat="48.360464497379354" lon="-4.574545404041091"><ele>72.6</ele><time>2026-04-05T15:33:08.999Z</time></trkpt><trkpt lat="48.36048485061707" lon="-4.574397742508314"><ele>72.19999999999999</ele><time>2026-04-05T15:33:09.999Z</time></trkpt><trkpt lat="48.36049158109787" lon="-4.574244482302123"><ele>71.8</ele><time>2026-04-05T15:33:10.999Z</time></trkpt><trkpt lat="48.360488009645096" lon="-4.574089814648544"><ele>71.39999999999999</ele><time>2026-04-05T15:33:11.999Z</time></trkpt><trkpt lat="48.360482896961365" lon="-4.573935932227871"><ele>71.0</ele><time>2026-04-05T15:33:12.999Z</time></trkpt><trkpt lat="48.36048092579856" lon="-4.573785238932885"><ele>70.8</ele><time>2026-04-05T15:33:13.999Z</time></trkpt><trkpt lat="48.36047166910481" lon="-4.573630470132419"><ele>70.6</ele><time>2026-04-05T15:33:14.999Z</time></trkpt><trkpt lat="48.36046382796844" lon="-4.573478450314705"><ele>70.4</ele><time>2026-04-05T15:33:15.999Z</time></trkpt><trkpt lat="48.36044862980223" lon="-4.5733253094587765"><ele>70.2</ele><time>2026-04-05T15:33:16.999Z</time></trkpt><trkpt lat="48.3604310292363" lon="-4.573179418679065"><ele>70.0</ele><time>2026-04-05T15:33:17.999Z</time></trkpt><trkpt lat="48.36042273918704" lon="-4.573037888713515"><ele>70.0</ele><time>2026-04-05T15:33:18.999Z</time></trkpt><trkpt lat="48.36039928219276" lon="-4.5727507196451"><ele>70.0</ele><time>2026-04-05T15:33:21Z</time></trkpt><trkpt lat="48.36039397653062" lon="-4.572613862618845"><ele>70.0</ele><time>2026-04-05T15:33:22Z</time></trkpt><trkpt lat="48.36038236321636" lon="-4.572475795860695"><ele>70.0</ele><time>2026-04-05T15:33:23Z</time></trkpt><trkpt lat="48.36037230691612" lon="-4.572342416281485"><ele>70.0</ele><time>2026-04-05T15:33:24Z</time></trkpt><trkpt lat="48.36036308052326" lon="-4.5722119351924215"><ele>70.0</ele><time>2026-04-05T15:33:25Z</time></trkpt><trkpt lat="48.3603601806056" lon="-4.572083304670647"><ele>70.0</ele><time>2026-04-05T15:33:26Z</time></trkpt><trkpt lat="48.360349149091036" lon="-4.571945598626687"><ele>70.0</ele><time>2026-04-05T15:33:27Z</time></trkpt><trkpt lat="48.36033794912742" lon="-4.571813189432046"><ele>70.0</ele><time>2026-04-05T15:33:28Z</time></trkpt><trkpt lat="48.3603286141923" lon="-4.57167645619716"><ele>70.0</ele><time>2026-04-05T15:33:29Z</time></trkpt><trkpt lat="48.36032040742419" lon="-4.571542929894279"><ele>70.0</ele><time>2026-04-05T15:33:30Z</time></trkpt><trkpt lat="48.36030696795042" lon="-4.571406985079367"><ele>70.0</ele><time>2026-04-05T15:33:31Z</time></trkpt><trkpt lat="48.36029661217249" lon="-4.571276619408389"><ele>70.0</ele><time>2026-04-05T15:33:32Z</time></trkpt><trkpt lat="48.360288822996736" lon="-4.571148621934034"><ele>70.0</ele><time>2026-04-05T15:33:33Z</time></trkpt><trkpt lat="48.36028017539027" lon="-4.571040730381584"><ele>70.0</ele><time>2026-04-05T15:33:34Z</time></trkpt><trkpt lat="48.360277098323735" lon="-4.57086338915251"><ele>70.0</ele><time>2026-04-05T15:33:36Z</time></trkpt><trkpt lat="48.36024536760139" lon="-4.570698019230058"><ele>70.0</ele><time>2026-04-05T15:33:38Z</time></trkpt><trkpt lat="48.36020165838359" lon="-4.570624819932822"><ele>70.0</ele><time>2026-04-05T15:33:39Z</time></trkpt><trkpt lat="48.3601515173285" lon="-4.570458289611196"><ele>70.0</ele><time>2026-04-05T15:33:41Z</time></trkpt><trkpt lat="48.36016984129112" lon="-4.570360152932537"><ele>70.0</ele><time>2026-04-05T15:33:42Z</time></trkpt><trkpt lat="48.360220649815936" lon="-4.570205654391675"><ele>69.8</ele><time>2026-04-05T15:33:44Z</time></trkpt><trkpt lat="48.3602512995196" lon="-4.57004776148197"><ele>69.6</ele><time>2026-04-05T15:33:46Z</time></trkpt><trkpt lat="48.36028205093931" lon="-4.569962172669847"><ele>69.4</ele><time>2026-04-05T15:33:47Z</time></trkpt><trkpt lat="48.360318292996105" lon="-4.569790189456368"><ele>69.2</ele><time>2026-04-05T15:33:49Z</time></trkpt><trkpt lat="48.360374504557385" lon="-4.569603120139283"><ele>69.0</ele><time>2026-04-05T15:33:51Z</time></trkpt><trkpt lat="48.360406660780406" lon="-4.569499599868726"><ele>69.0</ele><time>2026-04-05T15:33:52Z</time></trkpt><trkpt lat="48.36043854675706" lon="-4.569397276939884"><ele>69.0</ele><time>2026-04-05T15:33:53Z</time></trkpt><trkpt lat="48.360481037922895" lon="-4.5693037744798275"><ele>69.0</ele><time>2026-04-05T15:33:54Z</time></trkpt><trkpt lat="48.36050990915009" lon="-4.569192718505365"><ele>69.0</ele><time>2026-04-05T15:33:55Z</time></trkpt><trkpt lat="48.36054454341085" lon="-4.569082389110907"><ele>69.0</ele><time>2026-04-05T15:33:56Z</time></trkpt><trkpt lat="48.36058172664182" lon="-4.568965900594934"><ele>69.0</ele><time>2026-04-05T15:33:57Z</time></trkpt><trkpt lat="48.36062019474369" lon="-4.568844955078552"><ele>69.0</ele><time>2026-04-05T15:33:58Z</time></trkpt><trkpt lat="48.360649141849684" lon="-4.56871508730606"><ele>69.0</ele><time>2026-04-05T15:33:59Z</time></trkpt><trkpt lat="48.36069087078502" lon="-4.568589912638596"><ele>69.0</ele><time>2026-04-05T15:34:00Z</time></trkpt><trkpt lat="48.360731284602394" lon="-4.568461632078343"><ele>69.0</ele><time>2026-04-05T15:34:01Z</time></trkpt><trkpt lat="48.36077275418979" lon="-4.568327999872037"><ele>69.0</ele><time>2026-04-05T15:34:02Z</time></trkpt><trkpt lat="48.36081482403788" lon="-4.568193045970933"><ele>68.60000000000001</ele><time>2026-04-05T15:34:03Z</time></trkpt><trkpt lat="48.360838623066066" lon="-4.568034553718993"><ele>68.2</ele><time>2026-04-05T15:34:04Z</time></trkpt><trkpt lat="48.36085267725981" lon="-4.5678844452365155"><ele>67.80000000000001</ele><time>2026-04-05T15:34:05Z</time></trkpt><trkpt lat="48.36086697473796" lon="-4.567726851286801"><ele>67.4</ele><time>2026-04-05T15:34:06Z</time></trkpt><trkpt lat="48.36088406536787" lon="-4.567570030172144"><ele>67.0</ele><time>2026-04-05T15:34:07Z</time></trkpt><trkpt lat="48.36088199388309" lon="-4.56740705638869"><ele>67.0</ele><time>2026-04-05T15:34:08Z</time></trkpt><trkpt lat="48.3608868459977" lon="-4.567256097304407"><ele>67.0</ele><time>2026-04-05T15:34:09Z</time></trkpt><trkpt lat="48.360893623094654" lon="-4.567095008051589"><ele>67.0</ele><time>2026-04-05T15:34:10Z</time></trkpt><trkpt lat="48.36090632104311" lon="-4.566940254616284"><ele>67.0</ele><time>2026-04-05T15:34:11Z</time></trkpt><trkpt lat="48.36092367209622" lon="-4.566785570944434"><ele>67.0</ele><time>2026-04-05T15:34:12Z</time></trkpt><trkpt lat="48.36092853243329" lon="-4.5666367141021595"><ele>67.0</ele><time>2026-04-05T15:34:13Z</time></trkpt><trkpt lat="48.36093085025196" lon="-4.566482761746679"><ele>67.0</ele><time>2026-04-05T15:34:14Z</time></trkpt><trkpt lat="48.360936819817894" lon="-4.566332554497978"><ele>67.0</ele><time>2026-04-05T15:34:15Z</time></trkpt><trkpt lat="48.360944116869696" lon="-4.566185196225858"><ele>67.0</ele><time>2026-04-05T15:34:16Z</time></trkpt><trkpt lat="48.36095450847755" lon="-4.566040050431621"><ele>67.0</ele><time>2026-04-05T15:34:17Z</time></trkpt><trkpt lat="48.36096856792744" lon="-4.565901487396517"><ele>67.16666666666666</ele><time>2026-04-05T15:34:18Z</time></trkpt><trkpt lat="48.3609753865278" lon="-4.565770581905025"><ele>67.33333333333333</ele><time>2026-04-05T15:34:19Z</time></trkpt><trkpt lat="48.3609749673603" lon="-4.565643729823513"><ele>67.5</ele><time>2026-04-05T15:34:20Z</time></trkpt><trkpt lat="48.36098564627043" lon="-4.565509403982136"><ele>67.66666666666667</ele><time>2026-04-05T15:34:21Z</time></trkpt><trkpt lat="48.36099250322477" lon="-4.56537988839213"><ele>67.83333333333334</ele><time>2026-04-05T15:34:22Z</time></trkpt><trkpt lat="48.361005083022164" lon="-4.565258657072159"><ele>68.0</ele><time>2026-04-05T15:34:23Z</time></trkpt><trkpt lat="48.36101263384226" lon="-4.5651338162649555"><ele>67.5</ele><time>2026-04-05T15:34:24Z</time></trkpt><trkpt lat="48.361019152481916" lon="-4.565012180753272"><ele>67.0</ele><time>2026-04-05T15:34:25Z</time></trkpt><trkpt lat="48.361034748398176" lon="-4.564887917233642"><ele>66.5</ele><time>2026-04-05T15:34:26Z</time></trkpt><trkpt lat="48.36103908255016" lon="-4.564785959524071"><ele>66.0</ele><time>2026-04-05T15:34:27Z</time></trkpt><trkpt lat="48.361055984804324" lon="-4.5646271116583685"><ele>65.5</ele><time>2026-04-05T15:34:28.999Z</time></trkpt><trkpt lat="48.36105878335346" lon="-4.564464719066157"><ele>65.0</ele><time>2026-04-05T15:34:30.999Z</time></trkpt><trkpt lat="48.361258190687316" lon="-4.564425134684745"><ele>64.83333333333334</ele><time>2026-04-05T15:34:32.999Z</time></trkpt><trkpt lat="48.36133784228554" lon="-4.564445791994433"><ele>64.66666666666667</ele><time>2026-04-05T15:34:33.999Z</time></trkpt><trkpt lat="48.36142247671136" lon="-4.564449779655203"><ele>64.5</ele><time>2026-04-05T15:34:34.999Z</time></trkpt><trkpt lat="48.36151695355501" lon="-4.564464759411842"><ele>64.33333333333333</ele><time>2026-04-05T15:34:35.999Z</time></trkpt><trkpt lat="48.3616070813319" lon="-4.564474957684595"><ele>64.16666666666666</ele><time>2026-04-05T15:34:36.999Z</time></trkpt><trkpt lat="48.36168804661416" lon="-4.564468273028937"><ele>64.0</ele><time>2026-04-05T15:34:37.999Z</time></trkpt><trkpt lat="48.36176973601351" lon="-4.5644369063943335"><ele>63.2</ele><time>2026-04-05T15:34:38.999Z</time></trkpt><trkpt lat="48.361875876884206" lon="-4.5643601992813085"><ele>62.400000000000006</ele><time>2026-04-05T15:34:39.999Z</time></trkpt><trkpt lat="48.36195948021223" lon="-4.564241060969242"><ele>61.6</ele><time>2026-04-05T15:34:40.999Z</time></trkpt><trkpt lat="48.362036668855524" lon="-4.564122008129036"><ele>60.8</ele><time>2026-04-05T15:34:41.999Z</time></trkpt><trkpt lat="48.36210509566642" lon="-4.564031513310654"><ele>60.0</ele><time>2026-04-05T15:34:42.999Z</time></trkpt><trkpt lat="48.36216470322646" lon="-4.563939740498659"><ele>58.4</ele><time>2026-04-05T15:34:43.999Z</time></trkpt><trkpt lat="48.36222303449324" lon="-4.563835397722321"><ele>56.8</ele><time>2026-04-05T15:34:44.999Z</time></trkpt><trkpt lat="48.36228885828437" lon="-4.563737283079052"><ele>55.2</ele><time>2026-04-05T15:34:45.999Z</time></trkpt><trkpt lat="48.36231854422166" lon="-4.56359669537663"><ele>53.6</ele><time>2026-04-05T15:34:46.999Z</time></trkpt><trkpt lat="48.36233195984598" lon="-4.56344605010736"><ele>52.0</ele><time>2026-04-05T15:34:47.999Z</time></trkpt><trkpt lat="48.362329597236204" lon="-4.563283905851732"><ele>52.33333333333333</ele><time>2026-04-05T15:34:48.999Z</time></trkpt><trkpt lat="48.36220165588719" lon="-4.562996585975983"><ele>52.66666666666667</ele><time>2026-04-05T15:34:50.999Z</time></trkpt><trkpt lat="48.36213464732455" lon="-4.562842425997676"><ele>53.0</ele><time>2026-04-05T15:34:51.999Z</time></trkpt><trkpt lat="48.36206277346844" lon="-4.56268926577572"><ele>53.0</ele><time>2026-04-05T15:34:52.999Z</time></trkpt><trkpt lat="48.362008273020386" lon="-4.562525149317645"><ele>53.0</ele><time>2026-04-05T15:34:53.999Z</time></trkpt><trkpt lat="48.361963810981635" lon="-4.562339096172532"><ele>53.0</ele><time>2026-04-05T15:34:54.999Z</time></trkpt><trkpt lat="48.36193062198601" lon="-4.562146440361285"><ele>53.0</ele><time>2026-04-05T15:34:55.999Z</time></trkpt><trkpt lat="48.36191192792812" lon="-4.561948070540917"><ele>52.5</ele><time>2026-04-05T15:34:56.999Z</time></trkpt><trkpt lat="48.36190125229816" lon="-4.561748455919174"><ele>52.0</ele><time>2026-04-05T15:34:57.999Z</time></trkpt><trkpt lat="48.36191759155049" lon="-4.561549564693027"><ele>51.5</ele><time>2026-04-05T15:34:58.999Z</time></trkpt><trkpt lat="48.36193249035303" lon="-4.5613488850841595"><ele>51.0</ele><time>2026-04-05T15:34:59.999Z</time></trkpt><trkpt lat="48.361961190771005" lon="-4.561151439180212"><ele>50.75</ele><time>2026-04-05T15:35:00.999Z</time></trkpt><trkpt lat="48.36198104141867" lon="-4.56095125155876"><ele>50.5</ele><time>2026-04-05T15:35:01.999Z</time></trkpt><trkpt lat="48.361999424325255" lon="-4.560751437857232"><ele>50.25</ele><time>2026-04-05T15:35:02.999Z</time></trkpt><trkpt lat="48.36201625596863" lon="-4.560544721081769"><ele>50.0</ele><time>2026-04-05T15:35:03.999Z</time></trkpt><trkpt lat="48.36203142739241" lon="-4.560343922433148"><ele>48.25</ele><time>2026-04-05T15:35:04.999Z</time></trkpt><trkpt lat="48.36205107724263" lon="-4.560140165058401"><ele>46.5</ele><time>2026-04-05T15:35:05.999Z</time></trkpt><trkpt lat="48.362067082349576" lon="-4.55994116336276"><ele>44.75</ele><time>2026-04-05T15:35:06.999Z</time></trkpt><trkpt lat="48.36207336971185" lon="-4.559741477317166"><ele>43.0</ele><time>2026-04-05T15:35:07.999Z</time></trkpt><trkpt lat="48.36205484340421" lon="-4.559541247961993"><ele>42.0</ele><time>2026-04-05T15:35:08.999Z</time></trkpt><trkpt lat="48.36202531317563" lon="-4.559348080071988"><ele>41.0</ele><time>2026-04-05T15:35:09.999Z</time></trkpt><trkpt lat="48.36199010815099" lon="-4.5591580539975505"><ele>40.0</ele><time>2026-04-05T15:35:10.999Z</time></trkpt><trkpt lat="48.36194113935804" lon="-4.558974582825984"><ele>39.0</ele><time>2026-04-05T15:35:11.999Z</time></trkpt><trkpt lat="48.36187859874235" lon="-4.558804704824202"><ele>37.75</ele><time>2026-04-05T15:35:12.999Z</time></trkpt><trkpt lat="48.36180226101465" lon="-4.558648030245556"><ele>36.5</ele><time>2026-04-05T15:35:13.999Z</time></trkpt><trkpt lat="48.361723618098395" lon="-4.55849971311837"><ele>35.25</ele><time>2026-04-05T15:35:14.999Z</time></trkpt><trkpt lat="48.36163697948972" lon="-4.558349791487521"><ele>34.0</ele><time>2026-04-05T15:35:15.999Z</time></trkpt><trkpt lat="48.36155153151843" lon="-4.558204115945811"><ele>34.0</ele><time>2026-04-05T15:35:16.999Z</time></trkpt><trkpt lat="48.36146518259762" lon="-4.558059555023949"><ele>34.0</ele><time>2026-04-05T15:35:17.999Z</time></trkpt><trkpt lat="48.36138435386082" lon="-4.557912954140508"><ele>34.0</ele><time>2026-04-05T15:35:18.999Z</time></trkpt><trkpt lat="48.36130445137434" lon="-4.557758125961186"><ele>34.0</ele><time>2026-04-05T15:35:19.999Z</time></trkpt><trkpt lat="48.361224072354744" lon="-4.5576095577132"><ele>34.0</ele><time>2026-04-05T15:35:20.999Z</time></trkpt><trkpt lat="48.3611546155962" lon="-4.557458971703744"><ele>34.0</ele><time>2026-04-05T15:35:21.999Z</time></trkpt><trkpt lat="48.36111109374811" lon="-4.5572952832521345"><ele>34.0</ele><time>2026-04-05T15:35:22.999Z</time></trkpt><trkpt lat="48.36110305755264" lon="-4.557118820009029"><ele>34.0</ele><time>2026-04-05T15:35:23.999Z</time></trkpt><trkpt lat="48.36113225126684" lon="-4.556939099501948"><ele>34.0</ele><time>2026-04-05T15:35:24.999Z</time></trkpt><trkpt lat="48.36118073134008" lon="-4.556769232753429"><ele>34.0</ele><time>2026-04-05T15:35:25.999Z</time></trkpt><trkpt lat="48.361225254283994" lon="-4.556601223103448"><ele>34.0</ele><time>2026-04-05T15:35:27Z</time></trkpt><trkpt lat="48.36125323372525" lon="-4.556418651246666"><ele>34.0</ele><time>2026-04-05T15:35:28Z</time></trkpt><trkpt lat="48.36128438208303" lon="-4.556226537907309"><ele>33.5</ele><time>2026-04-05T15:35:29Z</time></trkpt><trkpt lat="48.36129335824053" lon="-4.556027986478988"><ele>33.0</ele><time>2026-04-05T15:35:30Z</time></trkpt><trkpt lat="48.36126931599041" lon="-4.555823092144478"><ele>32.5</ele><time>2026-04-05T15:35:31Z</time></trkpt><trkpt lat="48.36124675260963" lon="-4.55561114873876"><ele>32.0</ele><time>2026-04-05T15:35:32Z</time></trkpt><trkpt lat="48.36122499079912" lon="-4.555437414291353"><ele>29.400000000000002</ele><time>2026-04-05T15:35:33Z</time></trkpt><trkpt lat="48.36120573208629" lon="-4.555282639054432"><ele>26.800000000000004</ele><time>2026-04-05T15:35:34Z</time></trkpt><trkpt lat="48.36120234611332" lon="-4.555137434500939"><ele>24.2</ele><time>2026-04-05T15:35:35Z</time></trkpt><trkpt lat="48.361189807308676" lon="-4.55500628103264"><ele>21.6</ele><time>2026-04-05T15:35:36Z</time></trkpt><trkpt lat="48.361190139669944" lon="-4.554880898713379"><ele>19.0</ele><time>2026-04-05T15:35:37Z</time></trkpt><trkpt lat="48.36123070041611" lon="-4.554749314584169"><ele>19.0</ele><time>2026-04-05T15:35:38Z</time></trkpt><trkpt lat="48.36129408560012" lon="-4.554637536804008"><ele>19.0</ele><time>2026-04-05T15:35:39Z</time></trkpt><trkpt lat="48.36138063128788" lon="-4.554565492504309"><ele>19.0</ele><time>2026-04-05T15:35:40Z</time></trkpt><trkpt lat="48.361495837334694" lon="-4.554515003499197"><ele>19.0</ele><time>2026-04-05T15:35:41Z</time></trkpt><trkpt lat="48.36158710631413" lon="-4.554472207795991"><ele>19.0</ele><time>2026-04-05T15:35:42Z</time></trkpt><trkpt lat="48.361671596776254" lon="-4.554402730661308"><ele>16.666666666666664</ele><time>2026-04-05T15:35:43Z</time></trkpt><trkpt lat="48.36175261159517" lon="-4.554348634514412"><ele>14.333333333333332</ele><time>2026-04-05T15:35:44Z</time></trkpt><trkpt lat="48.361830885309686" lon="-4.554292335916156"><ele>12.0</ele><time>2026-04-05T15:35:45Z</time></trkpt><trkpt lat="48.361904708694254" lon="-4.554244034526953"><ele>9.666666666666666</ele><time>2026-04-05T15:35:46Z</time></trkpt><trkpt lat="48.36197128387754" lon="-4.5541817842656895"><ele>7.333333333333334</ele><time>2026-04-05T15:35:47Z</time></trkpt><trkpt lat="48.36202091356996" lon="-4.554095164564385"><ele>5.0</ele><time>2026-04-05T15:35:48Z</time></trkpt><trkpt lat="48.3620574006194" lon="-4.553993623462734"><ele>5.0</ele><time>2026-04-05T15:35:49Z</time></trkpt><trkpt lat="48.3620800780799" lon="-4.553898047891629"><ele>5.0</ele><time>2026-04-05T15:35:50Z</time></trkpt><trkpt lat="48.36210607044925" lon="-4.553811456493628"><ele>5.0</ele><time>2026-04-05T15:35:51Z</time></trkpt><trkpt lat="48.3621355876235" lon="-4.55372684130029"><ele>5.0</ele><time>2026-04-05T15:35:52Z</time></trkpt><trkpt lat="48.36219001585408" lon="-4.553562722409627"><ele>5.0</ele><time>2026-04-05T15:35:54Z</time></trkpt><trkpt lat="48.362240856325656" lon="-4.55340083619635"><ele>5.0</ele><time>2026-04-05T15:35:56Z</time></trkpt><trkpt lat="48.36228612925727" lon="-4.55325705478847"><ele>8.0</ele><time>2026-04-05T15:35:58Z</time></trkpt><trkpt lat="48.36232451753122" lon="-4.553133310937483"><ele>11.0</ele><time>2026-04-05T15:36:00Z</time></trkpt><trkpt lat="48.36237127564633" lon="-4.553034706115614"><ele>14.0</ele><time>2026-04-05T15:36:02Z</time></trkpt><trkpt lat="48.3624165049107" lon="-4.55292516368002"><ele>17.0</ele><time>2026-04-05T15:36:04Z</time></trkpt><trkpt lat="48.3624530295025" lon="-4.552803764960022"><ele>20.0</ele><time>2026-04-05T15:36:06Z</time></trkpt><trkpt lat="48.36246909855243" lon="-4.552683852431636"><ele>23.0</ele><time>2026-04-05T15:36:10Z</time></trkpt><trkpt lat="48.36247668435035" lon="-4.552577103698374"><ele>23.0</ele><time>2026-04-05T15:36:12Z</time></trkpt><trkpt lat="48.362468624425375" lon="-4.552453228577903"><ele>23.0</ele><time>2026-04-05T15:36:14Z</time></trkpt><trkpt lat="48.36246251981801" lon="-4.552308459513085"><ele>23.0</ele><time>2026-04-05T15:36:17Z</time></trkpt><trkpt lat="48.36246334632427" lon="-4.55216457274588"><ele>23.0</ele><time>2026-04-05T15:36:19Z</time></trkpt><trkpt lat="48.36244541687032" lon="-4.552009362947342"><ele>23.0</ele><time>2026-04-05T15:36:22Z</time></trkpt><trkpt lat="48.36242271972594" lon="-4.551887712409555"><ele>23.0</ele><time>2026-04-05T15:36:24Z</time></trkpt><trkpt lat="48.362403935897305" lon="-4.5517387093063135"><ele>23.0</ele><time>2026-04-05T15:36:26Z</time></trkpt><trkpt lat="48.362358616895825" lon="-4.551592401891688"><ele>23.0</ele><time>2026-04-05T15:36:28Z</time></trkpt><trkpt lat="48.36234120514752" lon="-4.551467788814016"><ele>23.0</ele><time>2026-04-05T15:36:31Z</time></trkpt><trkpt lat="48.36235881685084" lon="-4.551328149719097"><ele>23.0</ele><time>2026-04-05T15:36:33Z</time></trkpt><trkpt lat="48.36237207431008" lon="-4.551198264354952"><ele>22.833333333333336</ele><time>2026-04-05T15:36:35Z</time></trkpt><trkpt lat="48.36241069510419" lon="-4.551112467449763"><ele>22.666666666666668</ele><time>2026-04-05T15:36:36.999Z</time></trkpt><trkpt lat="48.362459144604244" lon="-4.551015570902572"><ele>22.5</ele><time>2026-04-05T15:36:39.999Z</time></trkpt><trkpt lat="48.36253800970585" lon="-4.550957798112198"><ele>22.333333333333332</ele><time>2026-04-05T15:36:40.999Z</time></trkpt><trkpt lat="48.3626204729995" lon="-4.550872451825636"><ele>22.166666666666664</ele><time>2026-04-05T15:36:42.999Z</time></trkpt><trkpt lat="48.362722529142275" lon="-4.550809651839265"><ele>22.0</ele><time>2026-04-05T15:36:43.999Z</time></trkpt><trkpt lat="48.36280181937349" lon="-4.5507564530965094"><ele>22.0</ele><time>2026-04-05T15:36:44.999Z</time></trkpt><trkpt lat="48.362878482345316" lon="-4.550709735121652"><ele>22.0</ele><time>2026-04-05T15:36:45.999Z</time></trkpt><trkpt lat="48.36293910021384" lon="-4.550674979938106"><ele>22.0</ele><time>2026-04-05T15:36:46.999Z</time></trkpt><trkpt lat="48.36304236892396" lon="-4.550622329919774"><ele>22.0</ele><time>2026-04-05T15:36:48.999Z</time></trkpt><trkpt lat="48.363138970744885" lon="-4.550570191668951"><ele>22.0</ele><time>2026-04-05T15:36:50.999Z</time></trkpt><trkpt lat="48.36324301709247" lon="-4.5505638034435325"><ele>25.333333333333332</ele><time>2026-04-05T15:36:52.999Z</time></trkpt><trkpt lat="48.36334136741377" lon="-4.550545204910685"><ele>28.666666666666664</ele><time>2026-04-05T15:36:54.999Z</time></trkpt><trkpt lat="48.363424813456604" lon="-4.550509671892413"><ele>32.0</ele><time>2026-04-05T15:36:56.999Z</time></trkpt><trkpt lat="48.36349421467384" lon="-4.5505364127018515"><ele>35.333333333333336</ele><time>2026-04-05T15:36:59.999Z</time></trkpt><trkpt lat="48.36355809884898" lon="-4.550538888461301"><ele>38.666666666666664</ele><time>2026-04-05T15:37:01.999Z</time></trkpt><trkpt lat="48.363630110186456" lon="-4.550473588065115"><ele>42.0</ele><time>2026-04-05T15:37:04.999Z</time></trkpt><trkpt lat="48.36369149422101" lon="-4.550396171918422"><ele>42.166666666666664</ele><time>2026-04-05T15:37:07.999Z</time></trkpt><trkpt lat="48.36378429841578" lon="-4.550304672080334"><ele>42.333333333333336</ele><time>2026-04-05T15:37:10.999Z</time></trkpt><trkpt lat="48.36386564519817" lon="-4.550245890799005"><ele>42.5</ele><time>2026-04-05T15:37:13.999Z</time></trkpt><trkpt lat="48.36390503838504" lon="-4.550162613144763"><ele>42.66666666666667</ele><time>2026-04-05T15:37:15.999Z</time></trkpt><trkpt lat="48.363988479487745" lon="-4.550120141339051"><ele>42.833333333333336</ele><time>2026-04-05T15:37:18.999Z</time></trkpt><trkpt lat="48.364034518632145" lon="-4.550031542716401"><ele>43.0</ele><time>2026-04-05T15:37:21.999Z</time></trkpt><trkpt lat="48.364083893033154" lon="-4.549952046437354"><ele>44.00000000000001</ele><time>2026-04-05T15:37:24.999Z</time></trkpt><trkpt lat="48.36412686018993" lon="-4.549862952829991"><ele>45.0</ele><time>2026-04-05T15:37:26.999Z</time></trkpt><trkpt lat="48.36419930785928" lon="-4.549805432324223"><ele>46.0</ele><time>2026-04-05T15:37:29.999Z</time></trkpt><trkpt lat="48.364256074825114" lon="-4.549730899603174"><ele>47.0</ele><time>2026-04-05T15:37:33Z</time></trkpt><trkpt lat="48.364306484545146" lon="-4.549658878031576"><ele>48.0</ele><time>2026-04-05T15:37:36Z</time></trkpt><trkpt lat="48.36437358391344" lon="-4.5496295115343335"><ele>49.00000000000001</ele><time>2026-04-05T15:37:39Z</time></trkpt><trkpt lat="48.36443457037873" lon="-4.549562157848602"><ele>50.0</ele><time>2026-04-05T15:37:42Z</time></trkpt><trkpt lat="48.36449636819911" lon="-4.549486519090737"><ele>50.57142857142858</ele><time>2026-04-05T15:37:46Z</time></trkpt><trkpt lat="48.36455690005923" lon="-4.549422549160634"><ele>51.142857142857146</ele><time>2026-04-05T15:37:51Z</time></trkpt><trkpt lat="48.36461233545295" lon="-4.54936444306682"><ele>51.714285714285715</ele><time>2026-04-05T15:37:54Z</time></trkpt><trkpt lat="48.36467111304513" lon="-4.549298403237764"><ele>52.28571428571429</ele><time>2026-04-05T15:37:57Z</time></trkpt><trkpt lat="48.364736861434615" lon="-4.549227958000143"><ele>52.857142857142854</ele><time>2026-04-05T15:38:01Z</time></trkpt><trkpt lat="48.36478799630458" lon="-4.549172157198902"><ele>53.42857142857143</ele><time>2026-04-05T15:38:04Z</time></trkpt><trkpt lat="48.36484200522498" lon="-4.549070922026947"><ele>54.0</ele><time>2026-04-05T15:38:08Z</time></trkpt><trkpt lat="48.36490165688841" lon="-4.549001318399011"><ele>55.0</ele><time>2026-04-05T15:38:12Z</time></trkpt><trkpt lat="48.36496529056575" lon="-4.548938360128916"><ele>56.0</ele><time>2026-04-05T15:38:16Z</time></trkpt><trkpt lat="48.365034000217555" lon="-4.548842182472181"><ele>57.0</ele><time>2026-04-05T15:38:20Z</time></trkpt><trkpt lat="48.36509742260017" lon="-4.548767092064541"><ele>58.0</ele><time>2026-04-05T15:38:24Z</time></trkpt><trkpt lat="48.36517330648633" lon="-4.548697616404494"><ele>59.0</ele><time>2026-04-05T15:38:28Z</time></trkpt><trkpt lat="48.36523595248067" lon="-4.548619339890172"><ele>60.0</ele><time>2026-04-05T15:38:31Z</time></trkpt><trkpt lat="48.36527748382852" lon="-4.548530485832935"><ele>60.0</ele><time>2026-04-05T15:38:35Z</time></trkpt><trkpt lat="48.36533253578722" lon="-4.548461135310572"><ele>60.0</ele><time>2026-04-05T15:38:38Z</time></trkpt><trkpt lat="48.36538861047745" lon="-4.5483593799746025"><ele>60.0</ele><time>2026-04-05T15:38:41.999Z</time></trkpt><trkpt lat="48.36547249974091" lon="-4.548261153987746"><ele>60.0</ele><time>2026-04-05T15:38:45.999Z</time></trkpt><trkpt lat="48.3655593659925" lon="-4.5481951221844685"><ele>60.0</ele><time>2026-04-05T15:38:48.999Z</time></trkpt><trkpt lat="48.36563112123924" lon="-4.5481219940609"><ele>60.666666666666664</ele><time>2026-04-05T15:38:51.999Z</time></trkpt><trkpt lat="48.36569323024556" lon="-4.548049853025233"><ele>61.33333333333333</ele><time>2026-04-05T15:38:55.999Z</time></trkpt><trkpt lat="48.365753779365775" lon="-4.547986272201524"><ele>62.0</ele><time>2026-04-05T15:38:58.999Z</time></trkpt><trkpt lat="48.36582412719543" lon="-4.547921500901232"><ele>62.666666666666664</ele><time>2026-04-05T15:39:01.999Z</time></trkpt><trkpt lat="48.36589246923067" lon="-4.547854589515047"><ele>63.33333333333333</ele><time>2026-04-05T15:39:04.999Z</time></trkpt><trkpt lat="48.36595593102912" lon="-4.547811008468411"><ele>64.0</ele><time>2026-04-05T15:39:06.999Z</time></trkpt><trkpt lat="48.36604440789346" lon="-4.547744411966721"><ele>63.99999999999999</ele><time>2026-04-05T15:39:09.999Z</time></trkpt><trkpt lat="48.36611430135266" lon="-4.547675329526556"><ele>64.0</ele><time>2026-04-05T15:39:11.999Z</time></trkpt><trkpt lat="48.366187325855385" lon="-4.547607967301591"><ele>64.0</ele><time>2026-04-05T15:39:13.999Z</time></trkpt><trkpt lat="48.366261087880595" lon="-4.5475407454626815"><ele>64.0</ele><time>2026-04-05T15:39:15.999Z</time></trkpt><trkpt lat="48.36632823712693" lon="-4.547474160729362"><ele>63.99999999999999</ele><time>2026-04-05T15:39:17.999Z</time></trkpt><trkpt lat="48.36641224148924" lon="-4.547409901656036"><ele>64.0</ele><time>2026-04-05T15:39:19.999Z</time></trkpt><trkpt lat="48.366436461007346" lon="-4.547295521425577"><ele>64.83333333333333</ele><time>2026-04-05T15:39:22.999Z</time></trkpt><trkpt lat="48.366465221551785" lon="-4.547166168287755"><ele>65.66666666666666</ele><time>2026-04-05T15:39:24.999Z</time></trkpt><trkpt lat="48.366466392664556" lon="-4.547042865980229"><ele>66.5</ele><time>2026-04-05T15:39:26.999Z</time></trkpt><trkpt lat="48.366471386850705" lon="-4.54693585932078"><ele>67.33333333333333</ele><time>2026-04-05T15:39:28.999Z</time></trkpt><trkpt lat="48.36644673966971" lon="-4.5467936834630445"><ele>68.16666666666667</ele><time>2026-04-05T15:39:30.999Z</time></trkpt><trkpt lat="48.36642607219676" lon="-4.546700980899055"><ele>69.0</ele><time>2026-04-05T15:39:31.999Z</time></trkpt><trkpt lat="48.36639829388267" lon="-4.546605676706575"><ele>69.0</ele><time>2026-04-05T15:39:33.999Z</time></trkpt><trkpt lat="48.36634626200438" lon="-4.546464572934921"><ele>69.0</ele><time>2026-04-05T15:39:35.999Z</time></trkpt><trkpt lat="48.36628317315193" lon="-4.546338005542656"><ele>69.0</ele><time>2026-04-05T15:39:37.999Z</time></trkpt><trkpt lat="48.366229082546475" lon="-4.5462114042850255"><ele>69.0</ele><time>2026-04-05T15:39:40Z</time></trkpt><trkpt lat="48.366169242321384" lon="-4.546076547974024"><ele>69.0</ele><time>2026-04-05T15:39:42Z</time></trkpt><trkpt lat="48.3661155774437" lon="-4.545936816988314"><ele>69.0</ele><time>2026-04-05T15:39:44Z</time></trkpt><trkpt lat="48.366053244293106" lon="-4.54579965600548"><ele>69.0</ele><time>2026-04-05T15:39:46Z</time></trkpt><trkpt lat="48.36599824343038" lon="-4.545661892667434"><ele>69.0</ele><time>2026-04-05T15:39:48Z</time></trkpt><trkpt lat="48.36593720663781" lon="-4.545525757414835"><ele>69.0</ele><time>2026-04-05T15:39:50Z</time></trkpt><trkpt lat="48.365884427812624" lon="-4.545383025837483"><ele>69.0</ele><time>2026-04-05T15:39:52Z</time></trkpt><trkpt lat="48.36582775236322" lon="-4.5452382998007135"><ele>69.0</ele><time>2026-04-05T15:39:54Z</time></trkpt><trkpt lat="48.36578005114979" lon="-4.545093012924631"><ele>69.0</ele><time>2026-04-05T15:39:56Z</time></trkpt><trkpt lat="48.36571608994345" lon="-4.544951777399917"><ele>69.0</ele><time>2026-04-05T15:39:58Z</time></trkpt><trkpt lat="48.36563687107804" lon="-4.544808782877907"><ele>69.0</ele><time>2026-04-05T15:40:00Z</time></trkpt><trkpt lat="48.36559650459694" lon="-4.544733664170184"><ele>69.0</ele><time>2026-04-05T15:40:01Z</time></trkpt><trkpt lat="48.365549174182675" lon="-4.54465587043398"><ele>68.57142857142857</ele><time>2026-04-05T15:40:02Z</time></trkpt><trkpt lat="48.36550560761459" lon="-4.544580156352855"><ele>68.14285714285715</ele><time>2026-04-05T15:40:03Z</time></trkpt><trkpt lat="48.3654311289011" lon="-4.544454957384559"><ele>67.71428571428572</ele><time>2026-04-05T15:40:05Z</time></trkpt><trkpt lat="48.36538071611184" lon="-4.5443901140670855"><ele>67.28571428571429</ele><time>2026-04-05T15:40:06Z</time></trkpt><trkpt lat="48.36533543740036" lon="-4.5443238234644605"><ele>66.85714285714286</ele><time>2026-04-05T15:40:07Z</time></trkpt><trkpt lat="48.365283821133836" lon="-4.544266364995691"><ele>66.42857142857143</ele><time>2026-04-05T15:40:08Z</time></trkpt><trkpt lat="48.3652301859585" lon="-4.544200128561577"><ele>66.0</ele><time>2026-04-05T15:40:09Z</time></trkpt><trkpt lat="48.36517733947911" lon="-4.544137359807705"><ele>66.0</ele><time>2026-04-05T15:40:10Z</time></trkpt><trkpt lat="48.365125344278276" lon="-4.5440700267571295"><ele>66.0</ele><time>2026-04-05T15:40:11Z</time></trkpt><trkpt lat="48.36507086576564" lon="-4.543996605381955"><ele>66.0</ele><time>2026-04-05T15:40:12Z</time></trkpt><trkpt lat="48.36501494825812" lon="-4.543926381591964"><ele>66.0</ele><time>2026-04-05T15:40:13Z</time></trkpt><trkpt lat="48.364954349148746" lon="-4.543852427976986"><ele>66.0</ele><time>2026-04-05T15:40:14Z</time></trkpt><trkpt lat="48.364892201729006" lon="-4.543787528143051"><ele>66.0</ele><time>2026-04-05T15:40:15Z</time></trkpt><trkpt lat="48.36483272439904" lon="-4.543713245097505"><ele>66.0</ele><time>2026-04-05T15:40:16Z</time></trkpt><trkpt lat="48.364771880018665" lon="-4.5436398998054095"><ele>65.85714285714286</ele><time>2026-04-05T15:40:17Z</time></trkpt><trkpt lat="48.36471935219753" lon="-4.5435695670582925"><ele>65.71428571428572</ele><time>2026-04-05T15:40:18Z</time></trkpt><trkpt lat="48.364653931586034" lon="-4.543506035862295"><ele>65.57142857142858</ele><time>2026-04-05T15:40:19Z</time></trkpt><trkpt lat="48.36459605873134" lon="-4.543434593410996"><ele>65.42857142857143</ele><time>2026-04-05T15:40:20Z</time></trkpt><trkpt lat="48.36453412732435" lon="-4.543366722249742"><ele>65.28571428571429</ele><time>2026-04-05T15:40:21Z</time></trkpt><trkpt lat="48.36447974564816" lon="-4.5432985978351"><ele>65.14285714285715</ele><time>2026-04-05T15:40:22Z</time></trkpt><trkpt lat="48.364423215395085" lon="-4.54323702059666"><ele>65.0</ele><time>2026-04-05T15:40:23Z</time></trkpt><trkpt lat="48.364361924500614" lon="-4.543178852833116"><ele>65.00000000000001</ele><time>2026-04-05T15:40:24Z</time></trkpt><trkpt lat="48.36430007449027" lon="-4.543128337801347"><ele>65.0</ele><time>2026-04-05T15:40:25Z</time></trkpt><trkpt lat="48.364246432818504" lon="-4.5430718617342345"><ele>65.0</ele><time>2026-04-05T15:40:26Z</time></trkpt><trkpt lat="48.36418711855995" lon="-4.543019495717701"><ele>65.0</ele><time>2026-04-05T15:40:27Z</time></trkpt><trkpt lat="48.364133087768145" lon="-4.542961453712314"><ele>65.0</ele><time>2026-04-05T15:40:28Z</time></trkpt><trkpt lat="48.36407554028428" lon="-4.542907169845174"><ele>65.00000000000001</ele><time>2026-04-05T15:40:29Z</time></trkpt><trkpt lat="48.36401953767912" lon="-4.542849675230944"><ele>65.0</ele><time>2026-04-05T15:40:30Z</time></trkpt><trkpt lat="48.36396362730028" lon="-4.542795367870535"><ele>65.14285714285715</ele><time>2026-04-05T15:40:31Z</time></trkpt><trkpt lat="48.36391031971817" lon="-4.5427357494184"><ele>65.28571428571429</ele><time>2026-04-05T15:40:32Z</time></trkpt><trkpt lat="48.36385821963322" lon="-4.542677645895168"><ele>65.42857142857143</ele><time>2026-04-05T15:40:33Z</time></trkpt><trkpt lat="48.36380300837847" lon="-4.542622584168219"><ele>65.57142857142858</ele><time>2026-04-05T15:40:34Z</time></trkpt><trkpt lat="48.36375121986257" lon="-4.542559887064644"><ele>65.71428571428572</ele><time>2026-04-05T15:40:35Z</time></trkpt><trkpt lat="48.36369887449811" lon="-4.542499543417016"><ele>65.85714285714286</ele><time>2026-04-05T15:40:36Z</time></trkpt><trkpt lat="48.36364954007938" lon="-4.542439956015843"><ele>66.0</ele><time>2026-04-05T15:40:37Z</time></trkpt><trkpt lat="48.363550378143444" lon="-4.542317092999597"><ele>66.0</ele><time>2026-04-05T15:40:39Z</time></trkpt><trkpt lat="48.36350099149183" lon="-4.542253115488859"><ele>66.0</ele><time>2026-04-05T15:40:40Z</time></trkpt><trkpt lat="48.363453166289354" lon="-4.542190271393886"><ele>66.0</ele><time>2026-04-05T15:40:41Z</time></trkpt><trkpt lat="48.3633679040624" lon="-4.542061283047785"><ele>66.0</ele><time>2026-04-05T15:40:43Z</time></trkpt><trkpt lat="48.36328920339447" lon="-4.54192526262378"><ele>66.0</ele><time>2026-04-05T15:40:45Z</time></trkpt><trkpt lat="48.3632135033362" lon="-4.541793453893614"><ele>66.0</ele><time>2026-04-05T15:40:47Z</time></trkpt><trkpt lat="48.36313784011869" lon="-4.541644887001528"><ele>66.0</ele><time>2026-04-05T15:40:48.999Z</time></trkpt><trkpt lat="48.36306233947423" lon="-4.541496439589227"><ele>66.0</ele><time>2026-04-05T15:40:50.999Z</time></trkpt><trkpt lat="48.36299249017414" lon="-4.541345010780698"><ele>66.0</ele><time>2026-04-05T15:40:52.999Z</time></trkpt><trkpt lat="48.36292496779546" lon="-4.541188022295272"><ele>65.33333333333333</ele><time>2026-04-05T15:40:54.999Z</time></trkpt><trkpt lat="48.36289153440921" lon="-4.541105997856379"><ele>64.66666666666667</ele><time>2026-04-05T15:40:55.999Z</time></trkpt><trkpt lat="48.36282138680302" lon="-4.540948163429548"><ele>64.0</ele><time>2026-04-05T15:40:57.999Z</time></trkpt><trkpt lat="48.362788356748574" lon="-4.5408625510785825"><ele>63.333333333333336</ele><time>2026-04-05T15:40:58.999Z</time></trkpt><trkpt lat="48.36275491642688" lon="-4.540769665122336"><ele>62.66666666666667</ele><time>2026-04-05T15:40:59.999Z</time></trkpt><trkpt lat="48.36271783780082" lon="-4.540679898926105"><ele>62.0</ele><time>2026-04-05T15:41:00.999Z</time></trkpt><trkpt lat="48.36268270813809" lon="-4.540587966339971"><ele>62.0</ele><time>2026-04-05T15:41:01.999Z</time></trkpt><trkpt lat="48.362642204783974" lon="-4.540496017830111"><ele>62.00000000000001</ele><time>2026-04-05T15:41:02.999Z</time></trkpt><trkpt lat="48.362596096596526" lon="-4.540410012538458"><ele>62.0</ele><time>2026-04-05T15:41:03.999Z</time></trkpt><trkpt lat="48.36254526498859" lon="-4.540330666083881"><ele>62.0</ele><time>2026-04-05T15:41:04.999Z</time></trkpt><trkpt lat="48.3624880665814" lon="-4.5402590723259015"><ele>62.00000000000001</ele><time>2026-04-05T15:41:05.999Z</time></trkpt><trkpt lat="48.36243829061889" lon="-4.540182220428669"><ele>62.0</ele><time>2026-04-05T15:41:06.999Z</time></trkpt><trkpt lat="48.362381502610006" lon="-4.540107110748933"><ele>62.0</ele><time>2026-04-05T15:41:07.999Z</time></trkpt><trkpt lat="48.36233003100867" lon="-4.540022081626966"><ele>61.833333333333336</ele><time>2026-04-05T15:41:08.999Z</time></trkpt><trkpt lat="48.36227721919841" lon="-4.539932636670615"><ele>61.66666666666667</ele><time>2026-04-05T15:41:09.999Z</time></trkpt><trkpt lat="48.362223871167124" lon="-4.539844186916734"><ele>61.5</ele><time>2026-04-05T15:41:10.999Z</time></trkpt><trkpt lat="48.362175878182626" lon="-4.539758258805864"><ele>61.33333333333333</ele><time>2026-04-05T15:41:11.999Z</time></trkpt><trkpt lat="48.36213419481615" lon="-4.539652248164166"><ele>61.166666666666664</ele><time>2026-04-05T15:41:12.999Z</time></trkpt><trkpt lat="48.36209952489699" lon="-4.539539614910923"><ele>61.0</ele><time>2026-04-05T15:41:13.999Z</time></trkpt><trkpt lat="48.36208961541375" lon="-4.539412443384299"><ele>60.83333333333333</ele><time>2026-04-05T15:41:14.999Z</time></trkpt><trkpt lat="48.3620756483544" lon="-4.5392919355824395"><ele>60.666666666666664</ele><time>2026-04-05T15:41:15.999Z</time></trkpt><trkpt lat="48.36206054500416" lon="-4.539170484388703"><ele>60.5</ele><time>2026-04-05T15:41:16.999Z</time></trkpt><trkpt lat="48.36205095533284" lon="-4.539046955773902"><ele>60.33333333333333</ele><time>2026-04-05T15:41:17.999Z</time></trkpt><trkpt lat="48.36203720542594" lon="-4.538925411619721"><ele>60.166666666666664</ele><time>2026-04-05T15:41:18.999Z</time></trkpt><trkpt lat="48.36202553573345" lon="-4.538807207623747"><ele>60.0</ele><time>2026-04-05T15:41:19.999Z</time></trkpt><trkpt lat="48.3620068625868" lon="-4.53867671052536"><ele>60.0</ele><time>2026-04-05T15:41:20.999Z</time></trkpt><trkpt lat="48.36198615681032" lon="-4.538550213237717"><ele>60.0</ele><time>2026-04-05T15:41:21.999Z</time></trkpt><trkpt lat="48.361967362717905" lon="-4.538421295339758"><ele>60.0</ele><time>2026-04-05T15:41:22.999Z</time></trkpt><trkpt lat="48.36194596870871" lon="-4.538284850403682"><ele>60.0</ele><time>2026-04-05T15:41:23.999Z</time></trkpt><trkpt lat="48.36192587889882" lon="-4.538150055892356"><ele>60.0</ele><time>2026-04-05T15:41:24.999Z</time></trkpt><trkpt lat="48.361900385805384" lon="-4.538017525175915"><ele>60.0</ele><time>2026-04-05T15:41:25.999Z</time></trkpt><trkpt lat="48.36185577956248" lon="-4.5378907721471196"><ele>60.0</ele><time>2026-04-05T15:41:26.999Z</time></trkpt><trkpt lat="48.361796668463825" lon="-4.5377700673825965"><ele>60.0</ele><time>2026-04-05T15:41:27.999Z</time></trkpt><trkpt lat="48.36172870351648" lon="-4.537656439134533"><ele>60.0</ele><time>2026-04-05T15:41:28.999Z</time></trkpt><trkpt lat="48.3616591375225" lon="-4.537543439484148"><ele>60.0</ele><time>2026-04-05T15:41:29.999Z</time></trkpt><trkpt lat="48.36159194124731" lon="-4.537425889357471"><ele>59.6</ele><time>2026-04-05T15:41:30.999Z</time></trkpt><trkpt lat="48.36153269291498" lon="-4.537302260278447"><ele>59.2</ele><time>2026-04-05T15:41:31.999Z</time></trkpt><trkpt lat="48.36147967296793" lon="-4.537167788267014"><ele>58.8</ele><time>2026-04-05T15:41:32.999Z</time></trkpt><trkpt lat="48.361428635927986" lon="-4.53701505529644"><ele>58.4</ele><time>2026-04-05T15:41:33.999Z</time></trkpt><trkpt lat="48.36138385695655" lon="-4.53685887597993"><ele>58.0</ele><time>2026-04-05T15:41:34.999Z</time></trkpt><trkpt lat="48.361337371710285" lon="-4.536697007864851"><ele>56.5</ele><time>2026-04-05T15:41:35.999Z</time></trkpt><trkpt lat="48.36129711568196" lon="-4.536520851914421"><ele>55.0</ele><time>2026-04-05T15:41:36.999Z</time></trkpt><trkpt lat="48.36125817881081" lon="-4.536344536084019"><ele>53.5</ele><time>2026-04-05T15:41:37.999Z</time></trkpt><trkpt lat="48.36121920007722" lon="-4.536162300538889"><ele>52.0</ele><time>2026-04-05T15:41:38.999Z</time></trkpt><trkpt lat="48.361174106539515" lon="-4.5359774150398104"><ele>50.75</ele><time>2026-04-05T15:41:39.999Z</time></trkpt><trkpt lat="48.361130412806546" lon="-4.535781253915327"><ele>49.5</ele><time>2026-04-05T15:41:40.999Z</time></trkpt><trkpt lat="48.36108080333756" lon="-4.5355802557774565"><ele>48.25</ele><time>2026-04-05T15:41:41.999Z</time></trkpt><trkpt lat="48.361033824612164" lon="-4.535376882792697"><ele>47.0</ele><time>2026-04-05T15:41:42.999Z</time></trkpt><trkpt lat="48.360988070220465" lon="-4.535166521051916"><ele>45.666666666666664</ele><time>2026-04-05T15:41:43.999Z</time></trkpt><trkpt lat="48.36093795847832" lon="-4.5349449179906856"><ele>44.333333333333336</ele><time>2026-04-05T15:41:45Z</time></trkpt><trkpt lat="48.360873088960425" lon="-4.534732954589615"><ele>43.0</ele><time>2026-04-05T15:41:46Z</time></trkpt><trkpt lat="48.360823548972505" lon="-4.534511130051419"><ele>41.333333333333336</ele><time>2026-04-05T15:41:47Z</time></trkpt><trkpt lat="48.36079011154149" lon="-4.534285005581272"><ele>39.666666666666664</ele><time>2026-04-05T15:41:48Z</time></trkpt><trkpt lat="48.36072106702527" lon="-4.534079773434769"><ele>38.0</ele><time>2026-04-05T15:41:49Z</time></trkpt><trkpt lat="48.3606772645573" lon="-4.5338737875494015"><ele>37.0</ele><time>2026-04-05T15:41:50Z</time></trkpt><trkpt lat="48.36063607467758" lon="-4.533673817105993"><ele>36.0</ele><time>2026-04-05T15:41:51Z</time></trkpt><trkpt lat="48.36061837035961" lon="-4.533472436971374"><ele>35.0</ele><time>2026-04-05T15:41:52Z</time></trkpt><trkpt lat="48.36062396456492" lon="-4.533286115000071"><ele>34.0</ele><time>2026-04-05T15:41:53Z</time></trkpt><trkpt lat="48.36064787277387" lon="-4.533109413255803"><ele>34.0</ele><time>2026-04-05T15:41:54Z</time></trkpt><trkpt lat="48.36067833475999" lon="-4.53293918667298"><ele>34.0</ele><time>2026-04-05T15:41:55Z</time></trkpt><trkpt lat="48.36073714467773" lon="-4.532786976370055"><ele>34.0</ele><time>2026-04-05T15:41:56Z</time></trkpt><trkpt lat="48.36084211547115" lon="-4.532699253456595"><ele>34.0</ele><time>2026-04-05T15:41:57Z</time></trkpt><trkpt lat="48.36094846264973" lon="-4.532628257055932"><ele>34.25</ele><time>2026-04-05T15:41:58Z</time></trkpt><trkpt lat="48.361062860848946" lon="-4.532563309213311"><ele>34.5</ele><time>2026-04-05T15:41:59Z</time></trkpt><trkpt lat="48.361187508205404" lon="-4.532504529161288"><ele>34.75</ele><time>2026-04-05T15:42:00Z</time></trkpt><trkpt lat="48.36131646276269" lon="-4.532464862338591"><ele>35.0</ele><time>2026-04-05T15:42:01Z</time></trkpt><trkpt lat="48.361429973961855" lon="-4.532369146061647"><ele>35.0</ele><time>2026-04-05T15:42:02Z</time></trkpt><trkpt lat="48.36152650859107" lon="-4.532224333114201"><ele>35.0</ele><time>2026-04-05T15:42:03Z</time></trkpt><trkpt lat="48.36162545533438" lon="-4.532102414840311"><ele>35.0</ele><time>2026-04-05T15:42:04Z</time></trkpt><trkpt lat="48.36172827078393" lon="-4.531987133655311"><ele>35.0</ele><time>2026-04-05T15:42:05Z</time></trkpt><trkpt lat="48.36183083665634" lon="-4.531875242799815"><ele>34.0</ele><time>2026-04-05T15:42:06Z</time></trkpt><trkpt lat="48.36193409124435" lon="-4.531765266685082"><ele>33.0</ele><time>2026-04-05T15:42:07Z</time></trkpt><trkpt lat="48.3620355411482" lon="-4.531657333681375"><ele>32.0</ele><time>2026-04-05T15:42:08Z</time></trkpt><trkpt lat="48.36213828972882" lon="-4.531551295144789"><ele>31.0</ele><time>2026-04-05T15:42:09Z</time></trkpt><trkpt lat="48.36223901343598" lon="-4.531459605768074"><ele>31.0</ele><time>2026-04-05T15:42:10Z</time></trkpt><trkpt lat="48.36234051016048" lon="-4.531375152113653"><ele>31.0</ele><time>2026-04-05T15:42:11Z</time></trkpt><trkpt lat="48.36244961000756" lon="-4.531284372111919"><ele>31.0</ele><time>2026-04-05T15:42:12Z</time></trkpt><trkpt lat="48.36254923897955" lon="-4.531188545355418"><ele>31.0</ele><time>2026-04-05T15:42:13Z</time></trkpt><trkpt lat="48.362646941536184" lon="-4.531083699312216"><ele>28.0</ele><time>2026-04-05T15:42:14Z</time></trkpt><trkpt lat="48.362708869706" lon="-4.530917611458133"><ele>25.0</ele><time>2026-04-05T15:42:15Z</time></trkpt><trkpt lat="48.36279381912844" lon="-4.530807494021624"><ele>22.0</ele><time>2026-04-05T15:42:16Z</time></trkpt><trkpt lat="48.36286961668144" lon="-4.530712350601558"><ele>19.0</ele><time>2026-04-05T15:42:17Z</time></trkpt><trkpt lat="48.36294852518401" lon="-4.530646560111643"><ele>16.0</ele><time>2026-04-05T15:42:18Z</time></trkpt><trkpt lat="48.36303342148437" lon="-4.530594109898263"><ele>16.0</ele><time>2026-04-05T15:42:19Z</time></trkpt><trkpt lat="48.36313790548945" lon="-4.530649682136389"><ele>16.0</ele><time>2026-04-05T15:42:20Z</time></trkpt><trkpt lat="48.36323609882013" lon="-4.5307404141223095"><ele>16.0</ele><time>2026-04-05T15:42:21Z</time></trkpt><trkpt lat="48.36332262274225" lon="-4.530784289452952"><ele>16.0</ele><time>2026-04-05T15:42:22Z</time></trkpt><trkpt lat="48.36339162881822" lon="-4.530804407875755"><ele>16.0</ele><time>2026-04-05T15:42:23Z</time></trkpt><trkpt lat="48.36346472733086" lon="-4.530825754824965"><ele>15.999999999999998</ele><time>2026-04-05T15:42:24Z</time></trkpt><trkpt lat="48.363539498238445" lon="-4.530840086899154"><ele>16.0</ele><time>2026-04-05T15:42:25Z</time></trkpt><trkpt lat="48.36360595717178" lon="-4.5308405957152385"><ele>16.0</ele><time>2026-04-05T15:42:26Z</time></trkpt><trkpt lat="48.36367438074579" lon="-4.530842496356622"><ele>16.0</ele><time>2026-04-05T15:42:27Z</time></trkpt><trkpt lat="48.36378459616266" lon="-4.530839274654219"><ele>15.999999999999998</ele><time>2026-04-05T15:42:29Z</time></trkpt><trkpt lat="48.36389273648851" lon="-4.530827633040724"><ele>16.0</ele><time>2026-04-05T15:42:31Z</time></trkpt><trkpt lat="48.363995877234665" lon="-4.530794873213293"><ele>16.0</ele><time>2026-04-05T15:42:33Z</time></trkpt><trkpt lat="48.364091127773385" lon="-4.530723743885527"><ele>16.0</ele><time>2026-04-05T15:42:35Z</time></trkpt><trkpt lat="48.36414428419017" lon="-4.530580494956813"><ele>16.0</ele><time>2026-04-05T15:42:37Z</time></trkpt><trkpt lat="48.364138289267444" lon="-4.530420784175612"><ele>16.0</ele><time>2026-04-05T15:42:39Z</time></trkpt><trkpt lat="48.36411798097924" lon="-4.530251145533443"><ele>16.0</ele><time>2026-04-05T15:42:41Z</time></trkpt><trkpt lat="48.36406078304354" lon="-4.530082718866382"><ele>16.0</ele><time>2026-04-05T15:42:43Z</time></trkpt><trkpt lat="48.36404351518586" lon="-4.529991589940337"><ele>15.999999999999998</ele><time>2026-04-05T15:42:44Z</time></trkpt><trkpt lat="48.36403574920403" lon="-4.529895564513169"><ele>16.0</ele><time>2026-04-05T15:42:45Z</time></trkpt><trkpt lat="48.364035139703624" lon="-4.529798857744443"><ele>16.0</ele><time>2026-04-05T15:42:46Z</time></trkpt><trkpt lat="48.364044479353346" lon="-4.52969951673492"><ele>15.999999999999998</ele><time>2026-04-05T15:42:47Z</time></trkpt><trkpt lat="48.36404835028989" lon="-4.529600990702375"><ele>16.0</ele><time>2026-04-05T15:42:48Z</time></trkpt><trkpt lat="48.36405898871002" lon="-4.529504459443643"><ele>16.0</ele><time>2026-04-05T15:42:49Z</time></trkpt><trkpt lat="48.364075060278765" lon="-4.5294049337453925"><ele>16.0</ele><time>2026-04-05T15:42:50Z</time></trkpt><trkpt lat="48.36409916288592" lon="-4.5293144032053645"><ele>15.999999999999998</ele><time>2026-04-05T15:42:50.999Z</time></trkpt><trkpt lat="48.36413127649859" lon="-4.529225396523405"><ele>16.0</ele><time>2026-04-05T15:42:51.999Z</time></trkpt><trkpt lat="48.3641488613179" lon="-4.529128881856295"><ele>16.0</ele><time>2026-04-05T15:42:52.999Z</time></trkpt><trkpt lat="48.3641992553656" lon="-4.5290572770342035"><ele>15.999999999999998</ele><time>2026-04-05T15:42:53.999Z</time></trkpt><trkpt lat="48.364237976282276" lon="-4.5289709330416"><ele>16.0</ele><time>2026-04-05T15:42:54.999Z</time></trkpt><trkpt lat="48.36427418549642" lon="-4.528889623820723"><ele>16.0</ele><time>2026-04-05T15:42:55.999Z</time></trkpt><trkpt lat="48.364317649299" lon="-4.528806521079106"><ele>15.0</ele><time>2026-04-05T15:42:56.999Z</time></trkpt><trkpt lat="48.364346712840224" lon="-4.528708181121216"><ele>13.999999999999998</ele><time>2026-04-05T15:42:57.999Z</time></trkpt><trkpt lat="48.36438740238034" lon="-4.528625201467907"><ele>13.0</ele><time>2026-04-05T15:42:58.999Z</time></trkpt><trkpt lat="48.36443056774854" lon="-4.528537172504477"><ele>12.0</ele><time>2026-04-05T15:42:59.999Z</time></trkpt><trkpt lat="48.364470331939444" lon="-4.528455798583689"><ele>11.0</ele><time>2026-04-05T15:43:00.999Z</time></trkpt><trkpt lat="48.364512192775095" lon="-4.528373643444889"><ele>10.0</ele><time>2026-04-05T15:43:01.999Z</time></trkpt><trkpt lat="48.36455145126327" lon="-4.528297274348862"><ele>9.0</ele><time>2026-04-05T15:43:02.999Z</time></trkpt><trkpt lat="48.364622772498684" lon="-4.528159915093462"><ele>9.0</ele><time>2026-04-05T15:43:04.999Z</time></trkpt><trkpt lat="48.36468736043525" lon="-4.5280617519852555"><ele>9.0</ele><time>2026-04-05T15:43:06.999Z</time></trkpt><trkpt lat="48.36472932184136" lon="-4.52792774970511"><ele>9.0</ele><time>2026-04-05T15:44:45Z</time></trkpt><trkpt lat="48.36476592160962" lon="-4.527849432705621"><ele>9.0</ele><time>2026-04-05T15:44:49Z</time></trkpt><trkpt lat="48.36482447863134" lon="-4.527761490860406"><ele>9.0</ele><time>2026-04-05T15:44:52Z</time></trkpt><trkpt lat="48.36488302191857" lon="-4.527668619494255"><ele>9.0</ele><time>2026-04-05T15:44:54Z</time></trkpt><trkpt lat="48.364946535787695" lon="-4.52757526039096"><ele>9.166666666666666</ele><time>2026-04-05T15:44:56Z</time></trkpt><trkpt lat="48.365028118007835" lon="-4.5275126800572165"><ele>9.333333333333334</ele><time>2026-04-05T15:44:58Z</time></trkpt><trkpt lat="48.36508691214049" lon="-4.527466329615142"><ele>9.5</ele><time>2026-04-05T15:44:59Z</time></trkpt><trkpt lat="48.365133041372175" lon="-4.527398223146193"><ele>9.666666666666668</ele><time>2026-04-05T15:45:00Z</time></trkpt><trkpt lat="48.365118192079045" lon="-4.5272524093920135"><ele>9.833333333333334</ele><time>2026-04-05T15:45:01Z</time></trkpt><trkpt lat="48.365180579392316" lon="-4.527141877952716"><ele>10.0</ele><time>2026-04-05T15:45:03Z</time></trkpt><trkpt lat="48.3652396954287" lon="-4.527042344640963"><ele>10.0</ele><time>2026-04-05T15:45:05Z</time></trkpt><trkpt lat="48.36532360062013" lon="-4.526922838968541"><ele>10.0</ele><time>2026-04-05T15:45:07Z</time></trkpt><trkpt lat="48.36541847607127" lon="-4.526789243082355"><ele>10.0</ele><time>2026-04-05T15:45:09Z</time></trkpt><trkpt lat="48.36546968148155" lon="-4.526706210308523"><ele>10.0</ele><time>2026-04-05T15:45:10Z</time></trkpt><trkpt lat="48.36551864354197" lon="-4.526620765644868"><ele>10.0</ele><time>2026-04-05T15:45:11Z</time></trkpt><trkpt lat="48.36556881023679" lon="-4.526529902785145"><ele>10.333333333333334</ele><time>2026-04-05T15:45:12Z</time></trkpt><trkpt lat="48.36562046435774" lon="-4.526436345951323"><ele>10.666666666666668</ele><time>2026-04-05T15:45:13Z</time></trkpt><trkpt lat="48.36567741644984" lon="-4.526334626354867"><ele>11.0</ele><time>2026-04-05T15:45:14Z</time></trkpt><trkpt lat="48.365736998749036" lon="-4.526232765337405"><ele>11.333333333333334</ele><time>2026-04-05T15:45:15Z</time></trkpt><trkpt lat="48.36580591919967" lon="-4.526128328884211"><ele>11.666666666666666</ele><time>2026-04-05T15:45:16Z</time></trkpt><trkpt lat="48.365876517138666" lon="-4.5260442379584305"><ele>12.0</ele><time>2026-04-05T15:45:17Z</time></trkpt><trkpt lat="48.36594528715951" lon="-4.525964843343343"><ele>12.0</ele><time>2026-04-05T15:45:18Z</time></trkpt><trkpt lat="48.366023742991665" lon="-4.525874463435359"><ele>12.0</ele><time>2026-04-05T15:45:19Z</time></trkpt><trkpt lat="48.36610047541686" lon="-4.525777119486137"><ele>12.0</ele><time>2026-04-05T15:45:20Z</time></trkpt><trkpt lat="48.36616376066044" lon="-4.525648924829722"><ele>12.0</ele><time>2026-04-05T15:45:21Z</time></trkpt><trkpt lat="48.36623248547579" lon="-4.5255274638156076"><ele>12.0</ele><time>2026-04-05T15:45:22Z</time></trkpt><trkpt lat="48.366302090766" lon="-4.525410008124116"><ele>12.666666666666668</ele><time>2026-04-05T15:45:23Z</time></trkpt><trkpt lat="48.36637904905256" lon="-4.5252979198884695"><ele>13.333333333333334</ele><time>2026-04-05T15:45:24Z</time></trkpt><trkpt lat="48.36619326518306" lon="-4.524941185908129"><ele>14.0</ele><time>2026-04-05T15:45:25Z</time></trkpt><trkpt lat="48.36624602303638" lon="-4.524827373366952"><ele>14.000000000000002</ele><time>2026-04-05T15:45:26Z</time></trkpt><trkpt lat="48.36630141082657" lon="-4.524723077034856"><ele>14.0</ele><time>2026-04-05T15:45:26.999Z</time></trkpt><trkpt lat="48.366357067371204" lon="-4.524631605463714"><ele>14.0</ele><time>2026-04-05T15:45:27.999Z</time></trkpt><trkpt lat="48.36640445803527" lon="-4.5245545134392735"><ele>14.0</ele><time>2026-04-05T15:45:28.999Z</time></trkpt><trkpt lat="48.36647654430866" lon="-4.524438808533859"><ele>14.000000000000002</ele><time>2026-04-05T15:45:30.999Z</time></trkpt><trkpt lat="48.3665465281711" lon="-4.524329104299664"><ele>14.0</ele><time>2026-04-05T15:45:32.999Z</time></trkpt><trkpt lat="48.36692092317909" lon="-4.524785030965568"><ele>14.000000000000002</ele><time>2026-04-05T15:45:33.999Z</time></trkpt><trkpt lat="48.36701068723875" lon="-4.524738242159808"><ele>14.0</ele><time>2026-04-05T15:45:35.999Z</time></trkpt><trkpt lat="48.3670750148818" lon="-4.524725431273349"><ele>14.0</ele><time>2026-04-05T15:45:37.999Z</time></trkpt><trkpt lat="48.36713287600134" lon="-4.524655901827707"><ele>14.0</ele><time>2026-04-05T15:45:39.999Z</time></trkpt><trkpt lat="48.367186867610194" lon="-4.524565724705238"><ele>14.000000000000002</ele><time>2026-04-05T15:45:41.999Z</time></trkpt><trkpt lat="48.36725103964242" lon="-4.524475217937268"><ele>14.0</ele><time>2026-04-05T15:45:43.999Z</time></trkpt><trkpt lat="48.36731866213627" lon="-4.52437183082404"><ele>14.833333333333334</ele><time>2026-04-05T15:45:45.999Z</time></trkpt><trkpt lat="48.367372369516715" lon="-4.524258550717197"><ele>15.666666666666668</ele><time>2026-04-05T15:45:48.999Z</time></trkpt><trkpt lat="48.36741474747326" lon="-4.524172846600245"><ele>16.5</ele><time>2026-04-05T15:45:50.999Z</time></trkpt><trkpt lat="48.3674712779374" lon="-4.524070414669352"><ele>17.333333333333332</ele><time>2026-04-05T15:45:53.999Z</time></trkpt><trkpt lat="48.36757063424684" lon="-4.523979968203187"><ele>18.166666666666664</ele><time>2026-04-05T15:45:56.999Z</time></trkpt><trkpt lat="48.36761283889527" lon="-4.5239056360377665"><ele>19.0</ele><time>2026-04-05T15:45:58.999Z</time></trkpt><trkpt lat="48.36765204225008" lon="-4.523820807559402"><ele>15.5</ele><time>2026-04-05T15:46:00.999Z</time></trkpt><trkpt lat="48.367950778344444" lon="-4.523378470055324"><ele>12.0</ele><time>2026-04-05T15:46:04.999Z</time></trkpt><trkpt lat="48.36799523259597" lon="-4.523310309228276"><ele>13.285714285714285</ele><time>2026-04-05T15:46:05.999Z</time></trkpt><trkpt lat="48.36803927448442" lon="-4.523235609805185"><ele>14.571428571428571</ele><time>2026-04-05T15:46:06.999Z</time></trkpt><trkpt lat="48.368078650305776" lon="-4.523155521835535"><ele>15.857142857142858</ele><time>2026-04-05T15:46:07.999Z</time></trkpt><trkpt lat="48.36811419043336" lon="-4.5230724164803835"><ele>17.142857142857142</ele><time>2026-04-05T15:46:08.999Z</time></trkpt><trkpt lat="48.3681509611632" lon="-4.5229736139545285"><ele>18.428571428571427</ele><time>2026-04-05T15:46:09.999Z</time></trkpt><trkpt lat="48.36818987039192" lon="-4.522880486729929"><ele>19.714285714285715</ele><time>2026-04-05T15:46:10.999Z</time></trkpt><trkpt lat="48.36822529530947" lon="-4.522789427000103"><ele>21.0</ele><time>2026-04-05T15:46:11.999Z</time></trkpt><trkpt lat="48.36825763087086" lon="-4.5226880011963955"><ele>21.0</ele><time>2026-04-05T15:46:12.999Z</time></trkpt><trkpt lat="48.36829199845391" lon="-4.522602972424565"><ele>21.0</ele><time>2026-04-05T15:46:13.999Z</time></trkpt><trkpt lat="48.36833467197199" lon="-4.522515623011208"><ele>21.0</ele><time>2026-04-05T15:46:14.999Z</time></trkpt><trkpt lat="48.36837522498332" lon="-4.522428999817942"><ele>21.0</ele><time>2026-04-05T15:46:15.999Z</time></trkpt><trkpt lat="48.36842170521032" lon="-4.522332555748422"><ele>21.0</ele><time>2026-04-05T15:46:16.999Z</time></trkpt><trkpt lat="48.36845484617233" lon="-4.522237945664127"><ele>21.0</ele><time>2026-04-05T15:46:17.999Z</time></trkpt><trkpt lat="48.36851924873879" lon="-4.522160875687961"><ele>21.0</ele><time>2026-04-05T15:46:18.999Z</time></trkpt><trkpt lat="48.36856210853808" lon="-4.5220521514801995"><ele>20.166666666666668</ele><time>2026-04-05T15:46:19.999Z</time></trkpt><trkpt lat="48.36859403358998" lon="-4.521944048315739"><ele>19.333333333333332</ele><time>2026-04-05T15:46:20.999Z</time></trkpt><trkpt lat="48.368628904111056" lon="-4.521818583248839"><ele>18.5</ele><time>2026-04-05T15:46:21.999Z</time></trkpt><trkpt lat="48.36867276227572" lon="-4.521703584750749"><ele>17.666666666666664</ele><time>2026-04-05T15:46:22.999Z</time></trkpt><trkpt lat="48.36870754426707" lon="-4.521607239204844"><ele>16.833333333333332</ele><time>2026-04-05T15:46:23.999Z</time></trkpt><trkpt lat="48.36878803729782" lon="-4.521522128899548"><ele>16.0</ele><time>2026-04-05T15:46:24.999Z</time></trkpt><trkpt lat="48.36884203275681" lon="-4.521424752313542"><ele>16.333333333333332</ele><time>2026-04-05T15:46:25.999Z</time></trkpt><trkpt lat="48.36890136594611" lon="-4.521322339683525"><ele>16.666666666666664</ele><time>2026-04-05T15:46:26.999Z</time></trkpt><trkpt lat="48.36894814389883" lon="-4.5212142863642155"><ele>17.0</ele><time>2026-04-05T15:46:27.999Z</time></trkpt><trkpt lat="48.36898613258025" lon="-4.521109824883951"><ele>17.333333333333332</ele><time>2026-04-05T15:46:28.999Z</time></trkpt><trkpt lat="48.36902613969729" lon="-4.521003902635894"><ele>17.666666666666668</ele><time>2026-04-05T15:46:29.999Z</time></trkpt><trkpt lat="48.36907855130143" lon="-4.520896266005003"><ele>18.0</ele><time>2026-04-05T15:46:30.999Z</time></trkpt><trkpt lat="48.36913652376687" lon="-4.5208156492025875"><ele>16.0</ele><time>2026-04-05T15:46:31.999Z</time></trkpt><trkpt lat="48.36921347269009" lon="-4.520758640093675"><ele>14.0</ele><time>2026-04-05T15:46:32.999Z</time></trkpt><trkpt lat="48.36930028980949" lon="-4.520713197217795"><ele>12.0</ele><time>2026-04-05T15:46:33.999Z</time></trkpt><trkpt lat="48.3693851233386" lon="-4.520665766340045"><ele>10.0</ele><time>2026-04-05T15:46:34.999Z</time></trkpt><trkpt lat="48.369470182727106" lon="-4.520618888145863"><ele>8.0</ele><time>2026-04-05T15:46:35.999Z</time></trkpt><trkpt lat="48.369560684567695" lon="-4.520575988474525"><ele>8.0</ele><time>2026-04-05T15:46:36.999Z</time></trkpt><trkpt lat="48.36964424243993" lon="-4.520514854060983"><ele>8.0</ele><time>2026-04-05T15:46:37.999Z</time></trkpt><trkpt lat="48.36973350552638" lon="-4.520464311677045"><ele>8.0</ele><time>2026-04-05T15:46:39Z</time></trkpt><trkpt lat="48.369820723957424" lon="-4.520438335401202"><ele>8.0</ele><time>2026-04-05T15:46:40Z</time></trkpt><trkpt lat="48.36990896345829" lon="-4.52038143951022"><ele>8.0</ele><time>2026-04-05T15:46:41Z</time></trkpt><trkpt lat="48.36998925071637" lon="-4.520296024432512"><ele>8.8</ele><time>2026-04-05T15:46:42Z</time></trkpt><trkpt lat="48.37006658093074" lon="-4.520197156336822"><ele>9.600000000000001</ele><time>2026-04-05T15:46:43Z</time></trkpt><trkpt lat="48.370128355083025" lon="-4.520092636750883"><ele>10.399999999999999</ele><time>2026-04-05T15:46:44Z</time></trkpt><trkpt lat="48.370185706704326" lon="-4.519992446961462"><ele>11.2</ele><time>2026-04-05T15:46:45Z</time></trkpt><trkpt lat="48.370240326743705" lon="-4.519883034962396"><ele>12.0</ele><time>2026-04-05T15:46:46Z</time></trkpt><trkpt lat="48.37028103535206" lon="-4.519782272815552"><ele>12.0</ele><time>2026-04-05T15:46:47Z</time></trkpt><trkpt lat="48.37032753140134" lon="-4.519691932512834"><ele>12.0</ele><time>2026-04-05T15:46:48Z</time></trkpt><trkpt lat="48.370384528686685" lon="-4.519623954340462"><ele>12.0</ele><time>2026-04-05T15:46:49Z</time></trkpt><trkpt lat="48.37043357862513" lon="-4.51954550336538"><ele>12.0</ele><time>2026-04-05T15:46:50Z</time></trkpt><trkpt lat="48.37047898739281" lon="-4.519451944208779"><ele>12.0</ele><time>2026-04-05T15:46:51Z</time></trkpt><trkpt lat="48.370513818495795" lon="-4.519344789841667"><ele>12.0</ele><time>2026-04-05T15:46:52Z</time></trkpt><trkpt lat="48.37056367993825" lon="-4.519263541653398"><ele>13.666666666666666</ele><time>2026-04-05T15:46:53Z</time></trkpt><trkpt lat="48.37062282877243" lon="-4.519183621296654"><ele>15.333333333333332</ele><time>2026-04-05T15:46:54Z</time></trkpt><trkpt lat="48.370681490522806" lon="-4.5191088716725085"><ele>17.0</ele><time>2026-04-05T15:46:55Z</time></trkpt><trkpt lat="48.370735646082274" lon="-4.519028698650532"><ele>18.666666666666664</ele><time>2026-04-05T15:46:56Z</time></trkpt><trkpt lat="48.37079168072003" lon="-4.518957241468906"><ele>20.333333333333332</ele><time>2026-04-05T15:46:57Z</time></trkpt><trkpt lat="48.37085881349849" lon="-4.518896481434676"><ele>22.0</ele><time>2026-04-05T15:46:58Z</time></trkpt><trkpt lat="48.37096473767311" lon="-4.518799631093902"><ele>22.0</ele><time>2026-04-05T15:47:00Z</time></trkpt><trkpt lat="48.37103055350295" lon="-4.518736132734391"><ele>22.0</ele><time>2026-04-05T15:47:01Z</time></trkpt><trkpt lat="48.37108854161263" lon="-4.518666496489827"><ele>22.0</ele><time>2026-04-05T15:47:02Z</time></trkpt><trkpt lat="48.371056502577765" lon="-4.518416222202364"><ele>22.0</ele><time>2026-04-05T15:47:03Z</time></trkpt><trkpt lat="48.37111710343664" lon="-4.518342343644217"><ele>22.0</ele><time>2026-04-05T15:47:04Z</time></trkpt><trkpt lat="48.37117524466352" lon="-4.518271464870815"><ele>20.833333333333332</ele><time>2026-04-05T15:47:05Z</time></trkpt><trkpt lat="48.37123312424073" lon="-4.518200905077906"><ele>19.666666666666664</ele><time>2026-04-05T15:47:06Z</time></trkpt><trkpt lat="48.37129078533945" lon="-4.518130611660583"><ele>18.5</ele><time>2026-04-05T15:47:07Z</time></trkpt><trkpt lat="48.3713499447436" lon="-4.518058491579758"><ele>17.333333333333332</ele><time>2026-04-05T15:47:08Z</time></trkpt><trkpt lat="48.37141127027965" lon="-4.517983730073492"><ele>16.166666666666668</ele><time>2026-04-05T15:47:09Z</time></trkpt><trkpt lat="48.371472963307234" lon="-4.517908520522118"><ele>15.0</ele><time>2026-04-05T15:47:10Z</time></trkpt><trkpt lat="48.37152555466454" lon="-4.5178444067068675"><ele>15.0</ele><time>2026-04-05T15:47:11Z</time></trkpt><trkpt lat="48.37158595357428" lon="-4.517770774832833"><ele>15.0</ele><time>2026-04-05T15:47:12Z</time></trkpt><trkpt lat="48.37175647229711" lon="-4.5179262607445425"><ele>15.0</ele><time>2026-04-05T15:47:13Z</time></trkpt><trkpt lat="48.37180026839412" lon="-4.517857304115203"><ele>15.0</ele><time>2026-04-05T15:47:14Z</time></trkpt><trkpt lat="48.371851735881116" lon="-4.517792760134814"><ele>15.0</ele><time>2026-04-05T15:47:15Z</time></trkpt><trkpt lat="48.371901266666065" lon="-4.517719453685702"><ele>13.8</ele><time>2026-04-05T15:47:16Z</time></trkpt><trkpt lat="48.37198096119445" lon="-4.517590775883685"><ele>12.6</ele><time>2026-04-05T15:47:18Z</time></trkpt><trkpt lat="48.372068416142746" lon="-4.517495605187101"><ele>11.4</ele><time>2026-04-05T15:47:20Z</time></trkpt><trkpt lat="48.37212138065187" lon="-4.517428661504611"><ele>10.2</ele><time>2026-04-05T15:47:21Z</time></trkpt><trkpt lat="48.372198472494205" lon="-4.517321518344803"><ele>9.0</ele><time>2026-04-05T15:47:23Z</time></trkpt><trkpt lat="48.37228151236675" lon="-4.517222343747553"><ele>10.8</ele><time>2026-04-05T15:47:25Z</time></trkpt><trkpt lat="48.37235785016548" lon="-4.517114808300021"><ele>12.600000000000001</ele><time>2026-04-05T15:47:27Z</time></trkpt><trkpt lat="48.372432168821184" lon="-4.5170250909375"><ele>14.4</ele><time>2026-04-05T15:47:29Z</time></trkpt><trkpt lat="48.372486011441055" lon="-4.516934936549348"><ele>16.2</ele><time>2026-04-05T15:47:33Z</time></trkpt><trkpt lat="48.37254711137795" lon="-4.516787650273197"><ele>18.0</ele><time>2026-04-05T15:47:36Z</time></trkpt><trkpt lat="48.37258882577946" lon="-4.51668066529593"><ele>18.0</ele><time>2026-04-05T15:47:37Z</time></trkpt><trkpt lat="48.372636038471605" lon="-4.51658738344539"><ele>18.0</ele><time>2026-04-05T15:47:38Z</time></trkpt><trkpt lat="48.372700489687546" lon="-4.516472455003395"><ele>18.0</ele><time>2026-04-05T15:47:39Z</time></trkpt><trkpt lat="48.37275452620823" lon="-4.516391027143492"><ele>18.0</ele><time>2026-04-05T15:47:40Z</time></trkpt><trkpt lat="48.37284753066964" lon="-4.516249798311949"><ele>18.0</ele><time>2026-04-05T15:47:42Z</time></trkpt><trkpt lat="48.3728911252701" lon="-4.516161906761293"><ele>16.833333333333332</ele><time>2026-04-05T15:47:43Z</time></trkpt><trkpt lat="48.372923929542694" lon="-4.5160695596486065"><ele>15.666666666666666</ele><time>2026-04-05T15:47:43.999Z</time></trkpt><trkpt lat="48.37296219831385" lon="-4.515977936796007"><ele>14.5</ele><time>2026-04-05T15:47:44.999Z</time></trkpt><trkpt lat="48.37300210676913" lon="-4.5158916219450616"><ele>13.333333333333332</ele><time>2026-04-05T15:47:45.999Z</time></trkpt><trkpt lat="48.37303558991786" lon="-4.515808229468187"><ele>12.166666666666666</ele><time>2026-04-05T15:47:46.999Z</time></trkpt><trkpt lat="48.37308575203353" lon="-4.515660574790657"><ele>11.0</ele><time>2026-04-05T15:47:48.999Z</time></trkpt><trkpt lat="48.373136975232256" lon="-4.515533945504264"><ele>12.0</ele><time>2026-04-05T15:47:50.999Z</time></trkpt><trkpt lat="48.37316974466259" lon="-4.5153826713604275"><ele>13.0</ele><time>2026-04-05T15:47:52.999Z</time></trkpt><trkpt lat="48.37319315616366" lon="-4.515294085159513"><ele>14.000000000000002</ele><time>2026-04-05T15:47:53.999Z</time></trkpt><trkpt lat="48.3732588319555" lon="-4.5151424554177035"><ele>15.0</ele><time>2026-04-05T15:47:55.999Z</time></trkpt><trkpt lat="48.37333177457213" lon="-4.515001838141896"><ele>16.0</ele><time>2026-04-05T15:47:57.999Z</time></trkpt><trkpt lat="48.37339809211474" lon="-4.514859005240651"><ele>16.0</ele><time>2026-04-05T15:47:59.999Z</time></trkpt><trkpt lat="48.37346767410102" lon="-4.514692114014255"><ele>16.0</ele><time>2026-04-05T15:48:01.999Z</time></trkpt><trkpt lat="48.3734946652241" lon="-4.514572523517283"><ele>16.0</ele><time>2026-04-05T15:48:02.999Z</time></trkpt><trkpt lat="48.37352465433153" lon="-4.514455825782817"><ele>16.0</ele><time>2026-04-05T15:48:03.999Z</time></trkpt><trkpt lat="48.37356017493681" lon="-4.514335404130649"><ele>16.0</ele><time>2026-04-05T15:48:04.999Z</time></trkpt><trkpt lat="48.373615356672445" lon="-4.514224826442"><ele>14.999999999999998</ele><time>2026-04-05T15:48:05.999Z</time></trkpt><trkpt lat="48.373680106936135" lon="-4.514140507665776"><ele>14.0</ele><time>2026-04-05T15:48:06.999Z</time></trkpt><trkpt lat="48.37375773643883" lon="-4.514073846233164"><ele>13.0</ele><time>2026-04-05T15:48:07.999Z</time></trkpt><trkpt lat="48.37381718942802" lon="-4.51398262840871"><ele>12.0</ele><time>2026-04-05T15:48:08.999Z</time></trkpt><trkpt lat="48.37386054602533" lon="-4.513889733662537"><ele>11.0</ele><time>2026-04-05T15:48:09.999Z</time></trkpt><trkpt lat="48.37389841048425" lon="-4.51380283954732"><ele>10.0</ele><time>2026-04-05T15:48:10.999Z</time></trkpt><trkpt lat="48.373943810668614" lon="-4.513723468773686"><ele>10.0</ele><time>2026-04-05T15:48:11.999Z</time></trkpt><trkpt lat="48.37402680868379" lon="-4.513580038363753"><ele>10.0</ele><time>2026-04-05T15:48:13.999Z</time></trkpt><trkpt lat="48.37407338768664" lon="-4.513514589484645"><ele>10.0</ele><time>2026-04-05T15:48:14.999Z</time></trkpt><trkpt lat="48.37417066608399" lon="-4.513453942954951"><ele>10.0</ele><time>2026-04-05T15:48:16.999Z</time></trkpt><trkpt lat="48.37426084425222" lon="-4.513496530956034"><ele>10.0</ele><time>2026-04-05T15:48:18.999Z</time></trkpt><trkpt lat="48.374348528938235" lon="-4.513590562160689"><ele>10.0</ele><time>2026-04-05T15:48:20.999Z</time></trkpt><trkpt lat="48.37445605992308" lon="-4.513519084901492"><ele>10.0</ele><time>2026-04-05T15:48:22.999Z</time></trkpt><trkpt lat="48.37450137356144" lon="-4.513396602756594"><ele>10.0</ele><time>2026-04-05T15:48:23.999Z</time></trkpt><trkpt lat="48.37452650829098" lon="-4.513293739420128"><ele>10.0</ele><time>2026-04-05T15:48:24.999Z</time></trkpt><trkpt lat="48.374565281469145" lon="-4.51320772980699"><ele>10.0</ele><time>2026-04-05T15:48:25.999Z</time></trkpt><trkpt lat="48.37461008749954" lon="-4.51313192204519"><ele>10.0</ele><time>2026-04-05T15:48:26.999Z</time></trkpt><trkpt lat="48.37464140147043" lon="-4.513048423738878"><ele>12.0</ele><time>2026-04-05T15:48:27.999Z</time></trkpt><trkpt lat="48.374689016226206" lon="-4.512975451786"><ele>14.0</ele><time>2026-04-05T15:48:28.999Z</time></trkpt><trkpt lat="48.37476693059933" lon="-4.512838807438455"><ele>16.0</ele><time>2026-04-05T15:48:30.999Z</time></trkpt><trkpt lat="48.374843959086135" lon="-4.512702931556117"><ele>18.0</ele><time>2026-04-05T15:48:32.999Z</time></trkpt><trkpt lat="48.37490841049184" lon="-4.51258925088537"><ele>20.0</ele><time>2026-04-05T15:48:34.999Z</time></trkpt><trkpt lat="48.374981760070696" lon="-4.512460148642192"><ele>20.0</ele><time>2026-04-05T15:48:36.999Z</time></trkpt><trkpt lat="48.375053865890415" lon="-4.512333235571576"><ele>20.0</ele><time>2026-04-05T15:48:38.999Z</time></trkpt><trkpt lat="48.37512808487796" lon="-4.512203125650623"><ele>20.0</ele><time>2026-04-05T15:48:40.999Z</time></trkpt><trkpt lat="48.37520468158523" lon="-4.512069053154056"><ele>20.0</ele><time>2026-04-05T15:48:42.999Z</time></trkpt><trkpt lat="48.37528121695638" lon="-4.511935087803306"><ele>18.25</ele><time>2026-04-05T15:48:45Z</time></trkpt><trkpt lat="48.3753585966837" lon="-4.511808360211265"><ele>16.5</ele><time>2026-04-05T15:48:47Z</time></trkpt><trkpt lat="48.37543799227141" lon="-4.511684799433449"><ele>14.75</ele><time>2026-04-05T15:48:49Z</time></trkpt><trkpt lat="48.37552564146836" lon="-4.5115689248094695"><ele>13.0</ele><time>2026-04-05T15:48:51Z</time></trkpt><trkpt lat="48.37561446971048" lon="-4.5114601331252"><ele>13.2</ele><time>2026-04-05T15:48:53Z</time></trkpt><trkpt lat="48.37566477516817" lon="-4.511400029575433"><ele>13.4</ele><time>2026-04-05T15:48:54Z</time></trkpt><trkpt lat="48.37573943640195" lon="-4.51131082616622"><ele>13.599999999999998</ele><time>2026-04-05T15:48:56Z</time></trkpt><trkpt lat="48.375816672283655" lon="-4.511219330889779"><ele>13.799999999999999</ele><time>2026-04-05T15:48:58Z</time></trkpt><trkpt lat="48.375921355990535" lon="-4.511173028213775"><ele>14.0</ele><time>2026-04-05T15:49:01Z</time></trkpt><trkpt lat="48.37599008682897" lon="-4.511031799341033"><ele>14.000000000000002</ele><time>2026-04-05T15:49:03Z</time></trkpt><trkpt lat="48.37604850872045" lon="-4.510942118314431"><ele>14.0</ele><time>2026-04-05T15:49:05Z</time></trkpt><trkpt lat="48.37610953188936" lon="-4.510856285738064"><ele>14.0</ele><time>2026-04-05T15:49:09Z</time></trkpt><trkpt lat="48.376152621053016" lon="-4.510772638204649"><ele>14.0</ele><time>2026-04-05T15:49:11Z</time></trkpt><trkpt lat="48.37623203178113" lon="-4.510638675314766"><ele>14.000000000000002</ele><time>2026-04-05T15:49:15Z</time></trkpt><trkpt lat="48.37628530606699" lon="-4.510556281041555"><ele>14.0</ele><time>2026-04-05T15:49:17Z</time></trkpt><trkpt lat="48.37633764192702" lon="-4.510436281620455"><ele>15.2</ele><time>2026-04-05T15:49:20Z</time></trkpt><trkpt lat="48.37639348997379" lon="-4.510389810678886"><ele>16.4</ele><time>2026-04-05T15:49:22Z</time></trkpt><trkpt lat="48.376462846001594" lon="-4.51021465394326"><ele>17.6</ele><time>2026-04-05T15:49:25Z</time></trkpt><trkpt lat="48.37654153686665" lon="-4.510114000213066"><ele>18.8</ele><time>2026-04-05T15:49:26Z</time></trkpt><trkpt lat="48.37659965425186" lon="-4.510011318987965"><ele>20.0</ele><time>2026-04-05T15:49:27Z</time></trkpt><trkpt lat="48.37665770235656" lon="-4.509918496206771"><ele>20.0</ele><time>2026-04-05T15:49:28Z</time></trkpt><trkpt lat="48.3766860025599" lon="-4.509786804748424"><ele>20.0</ele><time>2026-04-05T15:49:29Z</time></trkpt><trkpt lat="48.37674424116535" lon="-4.5096863002960035"><ele>20.0</ele><time>2026-04-05T15:49:30Z</time></trkpt><trkpt lat="48.376827711963784" lon="-4.509594268351591"><ele>20.0</ele><time>2026-04-05T15:49:31Z</time></trkpt><trkpt lat="48.37689433520369" lon="-4.509530878289691"><ele>20.0</ele><time>2026-04-05T15:49:32Z</time></trkpt><trkpt lat="48.37695718065299" lon="-4.509473160980477"><ele>20.0</ele><time>2026-04-05T15:49:33Z</time></trkpt><trkpt lat="48.377025239116136" lon="-4.50941065602723"><ele>20.333333333333336</ele><time>2026-04-05T15:49:34Z</time></trkpt><trkpt lat="48.37709501828438" lon="-4.5093465707873355"><ele>20.666666666666668</ele><time>2026-04-05T15:49:35Z</time></trkpt><trkpt lat="48.37715373197213" lon="-4.509292648079467"><ele>21.0</ele><time>2026-04-05T15:49:36Z</time></trkpt><trkpt lat="48.37721420536393" lon="-4.5092371092657935"><ele>21.333333333333332</ele><time>2026-04-05T15:49:37Z</time></trkpt><trkpt lat="48.377272791838465" lon="-4.5091833032435344"><ele>21.666666666666664</ele><time>2026-04-05T15:49:38Z</time></trkpt><trkpt lat="48.377330813632895" lon="-4.50913457310374"><ele>22.0</ele><time>2026-04-05T15:49:39Z</time></trkpt><trkpt lat="48.37743575024538" lon="-4.5090366465452325"><ele>22.0</ele><time>2026-04-05T15:49:41Z</time></trkpt><trkpt lat="48.37753836765596" lon="-4.5089405390247705"><ele>22.0</ele><time>2026-04-05T15:49:43Z</time></trkpt><trkpt lat="48.377642550474796" lon="-4.508842965402914"><ele>22.0</ele><time>2026-04-05T15:49:45Z</time></trkpt><trkpt lat="48.37773044495554" lon="-4.508760646815721"><ele>22.0</ele><time>2026-04-05T15:49:47Z</time></trkpt><trkpt lat="48.37781433415487" lon="-4.5086820794142355"><ele>22.0</ele><time>2026-04-05T15:49:49Z</time></trkpt><trkpt lat="48.37790943579787" lon="-4.508592098245627"><ele>23.0</ele><time>2026-04-05T15:49:51Z</time></trkpt><trkpt lat="48.37800859100914" lon="-4.508495065639413"><ele>24.0</ele><time>2026-04-05T15:49:53Z</time></trkpt><trkpt lat="48.378089437168725" lon="-4.508409543179357"><ele>25.000000000000004</ele><time>2026-04-05T15:49:55Z</time></trkpt><trkpt lat="48.37817239014114" lon="-4.508387007826265"><ele>26.0</ele><time>2026-04-05T15:49:57Z</time></trkpt><trkpt lat="48.3782669774632" lon="-4.5083072782232785"><ele>27.0</ele><time>2026-04-05T15:49:58.999Z</time></trkpt><trkpt lat="48.37834341905989" lon="-4.508266938802424"><ele>27.0</ele><time>2026-04-05T15:50:00.999Z</time></trkpt><trkpt lat="48.37844288939659" lon="-4.508151525809748"><ele>27.000000000000004</ele><time>2026-04-05T15:50:02.999Z</time></trkpt><trkpt lat="48.378479377243686" lon="-4.507952523268127"><ele>27.000000000000004</ele><time>2026-04-05T15:50:04.999Z</time></trkpt><trkpt lat="48.37854149502799" lon="-4.507879843798376"><ele>27.0</ele><time>2026-04-05T15:50:06.999Z</time></trkpt><trkpt lat="48.37861351971689" lon="-4.5077952374434815"><ele>27.0</ele><time>2026-04-05T15:50:08.999Z</time></trkpt><trkpt lat="48.37868284746822" lon="-4.507713799151524"><ele>28.666666666666668</ele><time>2026-04-05T15:50:10.999Z</time></trkpt><trkpt lat="48.37874695759566" lon="-4.507638489925528"><ele>30.333333333333336</ele><time>2026-04-05T15:50:12.999Z</time></trkpt><trkpt lat="48.378810583209855" lon="-4.507563749839814"><ele>32.0</ele><time>2026-04-05T15:50:14.999Z</time></trkpt><trkpt lat="48.37887661018544" lon="-4.50748618891617"><ele>33.66666666666667</ele><time>2026-04-05T15:50:16.999Z</time></trkpt><trkpt lat="48.378946546244194" lon="-4.507404035933231"><ele>35.333333333333336</ele><time>2026-04-05T15:50:18.999Z</time></trkpt><trkpt lat="48.37901275678066" lon="-4.507323838977486"><ele>37.0</ele><time>2026-04-05T15:50:20.999Z</time></trkpt><trkpt lat="48.37907328698597" lon="-4.50725131907166"><ele>37.0</ele><time>2026-04-05T15:50:24.999Z</time></trkpt><trkpt lat="48.379155394876584" lon="-4.507152947398834"><ele>37.0</ele><time>2026-04-05T15:50:26.999Z</time></trkpt><trkpt lat="48.3792053814978" lon="-4.507093059521971"><ele>37.0</ele><time>2026-04-05T15:50:27.999Z</time></trkpt><trkpt lat="48.37926622284369" lon="-4.507020166834011"><ele>37.0</ele><time>2026-04-05T15:50:29.999Z</time></trkpt><trkpt lat="48.3793325313349" lon="-4.506940724075641"><ele>37.0</ele><time>2026-04-05T15:50:31.999Z</time></trkpt><trkpt lat="48.37939319322687" lon="-4.507084880923578"><ele>37.0</ele><time>2026-04-05T15:50:32.999Z</time></trkpt><trkpt lat="48.3794798969323" lon="-4.507017344445962"><ele>37.0</ele><time>2026-04-05T15:50:35.999Z</time></trkpt><trkpt lat="48.37952738353682" lon="-4.506910329929155"><ele>37.0</ele><time>2026-04-05T15:50:37.999Z</time></trkpt><trkpt lat="48.37957977102585" lon="-4.506821095823726"><ele>37.0</ele><time>2026-04-05T15:50:40.999Z</time></trkpt><trkpt lat="48.37969640466489" lon="-4.506768424275313"><ele>37.0</ele><time>2026-04-05T15:50:43.999Z</time></trkpt><trkpt lat="48.37977672026905" lon="-4.506703498252141"><ele>37.0</ele><time>2026-04-05T15:50:45.999Z</time></trkpt><trkpt lat="48.37990332143541" lon="-4.506650952464755"><ele>37.0</ele><time>2026-04-05T15:50:47.999Z</time></trkpt><trkpt lat="48.37997263920328" lon="-4.50654377110398"><ele>37.0</ele><time>2026-04-05T15:50:49.999Z</time></trkpt><trkpt lat="48.38005399940684" lon="-4.506504619202685"><ele>37.0</ele><time>2026-04-05T15:50:51Z</time></trkpt><trkpt lat="48.38004979641904" lon="-4.506405327897003"><ele>37.0</ele><time>2026-04-05T15:50:53Z</time></trkpt><trkpt lat="48.3801178974699" lon="-4.50624300688745"><ele>37.0</ele><time>2026-04-05T15:50:55Z</time></trkpt><trkpt lat="48.38019912671131" lon="-4.506074255742261"><ele>35.75</ele><time>2026-04-05T15:50:56Z</time></trkpt><trkpt lat="48.38030346798579" lon="-4.505914493076684"><ele>34.5</ele><time>2026-04-05T15:50:57Z</time></trkpt><trkpt lat="48.380391415050376" lon="-4.505766833305306"><ele>33.25</ele><time>2026-04-05T15:50:58Z</time></trkpt><trkpt lat="48.38045355015838" lon="-4.5055850969959454"><ele>32.0</ele><time>2026-04-05T15:50:59Z</time></trkpt><trkpt lat="48.38051716610786" lon="-4.5054299165097005"><ele>30.0</ele><time>2026-04-05T15:51:00Z</time></trkpt><trkpt lat="48.38057082581084" lon="-4.505301083933169"><ele>28.000000000000004</ele><time>2026-04-05T15:51:01Z</time></trkpt><trkpt lat="48.38062764758876" lon="-4.5051647395011125"><ele>26.0</ele><time>2026-04-05T15:51:02Z</time></trkpt><trkpt lat="48.38068399977022" lon="-4.505029521943054"><ele>24.0</ele><time>2026-04-05T15:51:03Z</time></trkpt><trkpt lat="48.38073935884859" lon="-4.504896084259631"><ele>22.0</ele><time>2026-04-05T15:51:04Z</time></trkpt><trkpt lat="48.380802583282176" lon="-4.504739096562411"><ele>22.0</ele><time>2026-04-05T15:51:05Z</time></trkpt><trkpt lat="48.38085112093306" lon="-4.5046025417137985"><ele>22.0</ele><time>2026-04-05T15:51:06Z</time></trkpt><trkpt lat="48.38089080427629" lon="-4.504477172586297"><ele>22.0</ele><time>2026-04-05T15:51:07Z</time></trkpt><trkpt lat="48.380929187496825" lon="-4.504386165744606"><ele>22.0</ele><time>2026-04-05T15:51:08Z</time></trkpt><trkpt lat="48.380962756205754" lon="-4.504305972750403"><ele>22.0</ele><time>2026-04-05T15:51:09Z</time></trkpt><trkpt lat="48.38096649615356" lon="-4.5041650873673085"><ele>22.0</ele><time>2026-04-05T15:51:11Z</time></trkpt><trkpt lat="48.381015878712745" lon="-4.50409340658659"><ele>17.0</ele><time>2026-04-05T15:51:14Z</time></trkpt></trkseg></trk></gpx>